<?xml version="1.0" encoding="UTF-8"?>
<gpx version="1.1" creator="https://www.youtrack.es" xsi:schemaLocation="http://www.topografix.com/GPX/1/1 http://www.topografix.com/GPX/1/1/gpx.xsd http://www.garmin.com/xmlschemas/GpxExtensions/v3 http://www.garmin.com/xmlschemas/GpxExtensionsv3.xsd http://www.garmin.com/xmlschemas/TrackPointExtension/v1 http://www.garmin.com/xmlschemas/TrackPointExtensionv1.xsd" xmlns:gpxtpx="http://www.garmin.com/xmlschemas/TrackPointExtension/v1" xmlns:gpxx="http://www.garmin.com/xmlschemas/GpxExtensions/v3" xmlns:xsi="http://www.w3.org/2001/XMLSchema-instance">
  <metadata>
    <link href="https://www.youtrack.es">
      <text>YouTrack.es</text>
    </link>
    <time>2026-05-08T02:21:20Z</time>
  </metadata>
  <trk>
    <src>https://www.youtrack.es</src>
    <link href="https://www.youtrack.es/ruta/26182-trail">
      <text>YouTrack.es</text>
    </link>
    <trkseg>
      <trkpt lat="41.3673440" lon="1.1651980">
        <ele>337.0</ele>
        <time>2021-09-30T08:08:31Z</time>
      </trkpt>
      <trkpt lat="41.3673440" lon="1.1651980">
        <ele>337.0</ele>
        <time>2021-09-30T08:08:32Z</time>
      </trkpt>
      <trkpt lat="41.3673440" lon="1.1651980">
        <ele>337.0</ele>
        <time>2021-09-30T08:08:33Z</time>
      </trkpt>
      <trkpt lat="41.3673440" lon="1.1651980">
        <ele>337.0</ele>
        <time>2021-09-30T08:08:34Z</time>
      </trkpt>
      <trkpt lat="41.3673440" lon="1.1651980">
        <ele>337.0</ele>
        <time>2021-09-30T08:08:35Z</time>
      </trkpt>
      <trkpt lat="41.3673440" lon="1.1651980">
        <ele>337.0</ele>
        <time>2021-09-30T08:08:36Z</time>
      </trkpt>
      <trkpt lat="41.3673440" lon="1.1651980">
        <ele>337.0</ele>
        <time>2021-09-30T08:08:37Z</time>
      </trkpt>
      <trkpt lat="41.3673440" lon="1.1651980">
        <ele>337.0</ele>
        <time>2021-09-30T08:08:38Z</time>
      </trkpt>
      <trkpt lat="41.3673440" lon="1.1651980">
        <ele>337.0</ele>
        <time>2021-09-30T08:08:39Z</time>
      </trkpt>
      <trkpt lat="41.3673220" lon="1.1652040">
        <ele>337.0</ele>
        <time>2021-09-30T08:08:40Z</time>
      </trkpt>
      <trkpt lat="41.3673220" lon="1.1652040">
        <ele>337.0</ele>
        <time>2021-09-30T08:08:41Z</time>
      </trkpt>
      <trkpt lat="41.3672900" lon="1.1652010">
        <ele>337.1</ele>
        <time>2021-09-30T08:08:42Z</time>
      </trkpt>
      <trkpt lat="41.3672700" lon="1.1651980">
        <ele>337.1</ele>
        <time>2021-09-30T08:08:43Z</time>
      </trkpt>
      <trkpt lat="41.3672700" lon="1.1651980">
        <ele>337.1</ele>
        <time>2021-09-30T08:08:44Z</time>
      </trkpt>
      <trkpt lat="41.3672260" lon="1.1651830">
        <ele>337.1</ele>
        <time>2021-09-30T08:08:45Z</time>
      </trkpt>
      <trkpt lat="41.3672260" lon="1.1651830">
        <ele>337.1</ele>
        <time>2021-09-30T08:08:46Z</time>
      </trkpt>
      <trkpt lat="41.3671650" lon="1.1651630">
        <ele>337.1</ele>
        <time>2021-09-30T08:08:47Z</time>
      </trkpt>
      <trkpt lat="41.3671300" lon="1.1651510">
        <ele>337.1</ele>
        <time>2021-09-30T08:08:48Z</time>
      </trkpt>
      <trkpt lat="41.3670940" lon="1.1651400">
        <ele>337.1</ele>
        <time>2021-09-30T08:08:49Z</time>
      </trkpt>
      <trkpt lat="41.3670940" lon="1.1651400">
        <ele>337.1</ele>
        <time>2021-09-30T08:08:50Z</time>
      </trkpt>
      <trkpt lat="41.3670300" lon="1.1651200">
        <ele>337.1</ele>
        <time>2021-09-30T08:08:51Z</time>
      </trkpt>
      <trkpt lat="41.3670020" lon="1.1651100">
        <ele>337.1</ele>
        <time>2021-09-30T08:08:52Z</time>
      </trkpt>
      <trkpt lat="41.3669700" lon="1.1650980">
        <ele>337.1</ele>
        <time>2021-09-30T08:08:53Z</time>
      </trkpt>
      <trkpt lat="41.3669440" lon="1.1650840">
        <ele>337.1</ele>
        <time>2021-09-30T08:08:54Z</time>
      </trkpt>
      <trkpt lat="41.3669150" lon="1.1650670">
        <ele>337.1</ele>
        <time>2021-09-30T08:08:55Z</time>
      </trkpt>
      <trkpt lat="41.3669150" lon="1.1650670">
        <ele>337.1</ele>
        <time>2021-09-30T08:08:56Z</time>
      </trkpt>
      <trkpt lat="41.3668540" lon="1.1650190">
        <ele>337.0</ele>
        <time>2021-09-30T08:08:57Z</time>
      </trkpt>
      <trkpt lat="41.3668100" lon="1.1649780">
        <ele>337.0</ele>
        <time>2021-09-30T08:08:58Z</time>
      </trkpt>
      <trkpt lat="41.3667940" lon="1.1649650">
        <ele>337.0</ele>
        <time>2021-09-30T08:08:59Z</time>
      </trkpt>
      <trkpt lat="41.3667650" lon="1.1649390">
        <ele>337.0</ele>
        <time>2021-09-30T08:09:00Z</time>
      </trkpt>
      <trkpt lat="41.3667330" lon="1.1649160">
        <ele>337.0</ele>
        <time>2021-09-30T08:09:01Z</time>
      </trkpt>
      <trkpt lat="41.3667040" lon="1.1648960">
        <ele>337.0</ele>
        <time>2021-09-30T08:09:02Z</time>
      </trkpt>
      <trkpt lat="41.3667040" lon="1.1648960">
        <ele>337.0</ele>
        <time>2021-09-30T08:09:03Z</time>
      </trkpt>
      <trkpt lat="41.3666690" lon="1.1648790">
        <ele>337.0</ele>
        <time>2021-09-30T08:09:04Z</time>
      </trkpt>
      <trkpt lat="41.3666340" lon="1.1648620">
        <ele>337.0</ele>
        <time>2021-09-30T08:09:05Z</time>
      </trkpt>
      <trkpt lat="41.3665980" lon="1.1648450">
        <ele>336.9</ele>
        <time>2021-09-30T08:09:06Z</time>
      </trkpt>
      <trkpt lat="41.3665630" lon="1.1648280">
        <ele>336.9</ele>
        <time>2021-09-30T08:09:07Z</time>
      </trkpt>
      <trkpt lat="41.3665500" lon="1.1648220">
        <ele>336.9</ele>
        <time>2021-09-30T08:09:08Z</time>
      </trkpt>
      <trkpt lat="41.3664960" lon="1.1647970">
        <ele>336.9</ele>
        <time>2021-09-30T08:09:09Z</time>
      </trkpt>
      <trkpt lat="41.3664960" lon="1.1647970">
        <ele>336.9</ele>
        <time>2021-09-30T08:09:10Z</time>
      </trkpt>
      <trkpt lat="41.3664960" lon="1.1647970">
        <ele>336.9</ele>
        <time>2021-09-30T08:09:11Z</time>
      </trkpt>
      <trkpt lat="41.3664960" lon="1.1647970">
        <ele>336.9</ele>
        <time>2021-09-30T08:09:12Z</time>
      </trkpt>
      <trkpt lat="41.3663970" lon="1.1647570">
        <ele>336.9</ele>
        <time>2021-09-30T08:09:13Z</time>
      </trkpt>
      <trkpt lat="41.3663540" lon="1.1647450">
        <ele>336.8</ele>
        <time>2021-09-30T08:09:14Z</time>
      </trkpt>
      <trkpt lat="41.3663360" lon="1.1647410">
        <ele>336.8</ele>
        <time>2021-09-30T08:09:15Z</time>
      </trkpt>
      <trkpt lat="41.3663190" lon="1.1647370">
        <ele>336.8</ele>
        <time>2021-09-30T08:09:16Z</time>
      </trkpt>
      <trkpt lat="41.3663010" lon="1.1647330">
        <ele>336.8</ele>
        <time>2021-09-30T08:09:17Z</time>
      </trkpt>
      <trkpt lat="41.3662500" lon="1.1647210">
        <ele>336.8</ele>
        <time>2021-09-30T08:09:18Z</time>
      </trkpt>
      <trkpt lat="41.3662430" lon="1.1647190">
        <ele>336.8</ele>
        <time>2021-09-30T08:09:19Z</time>
      </trkpt>
      <trkpt lat="41.3662370" lon="1.1647170">
        <ele>336.8</ele>
        <time>2021-09-30T08:09:20Z</time>
      </trkpt>
      <trkpt lat="41.3662300" lon="1.1647150">
        <ele>336.7</ele>
        <time>2021-09-30T08:09:21Z</time>
      </trkpt>
      <trkpt lat="41.3661980" lon="1.1647020">
        <ele>336.7</ele>
        <time>2021-09-30T08:09:22Z</time>
      </trkpt>
      <trkpt lat="41.3661660" lon="1.1646890">
        <ele>336.7</ele>
        <time>2021-09-30T08:09:23Z</time>
      </trkpt>
      <trkpt lat="41.3661350" lon="1.1646750">
        <ele>336.7</ele>
        <time>2021-09-30T08:09:24Z</time>
      </trkpt>
      <trkpt lat="41.3661030" lon="1.1646620">
        <ele>336.7</ele>
        <time>2021-09-30T08:09:25Z</time>
      </trkpt>
      <trkpt lat="41.3660710" lon="1.1646490">
        <ele>336.7</ele>
        <time>2021-09-30T08:09:26Z</time>
      </trkpt>
      <trkpt lat="41.3660190" lon="1.1646260">
        <ele>336.7</ele>
        <time>2021-09-30T08:09:27Z</time>
      </trkpt>
      <trkpt lat="41.3660190" lon="1.1646260">
        <ele>336.7</ele>
        <time>2021-09-30T08:09:28Z</time>
      </trkpt>
      <trkpt lat="41.3660190" lon="1.1646260">
        <ele>336.7</ele>
        <time>2021-09-30T08:09:29Z</time>
      </trkpt>
      <trkpt lat="41.3660190" lon="1.1646260">
        <ele>336.7</ele>
        <time>2021-09-30T08:09:30Z</time>
      </trkpt>
      <trkpt lat="41.3659140" lon="1.1645860">
        <ele>336.7</ele>
        <time>2021-09-30T08:09:31Z</time>
      </trkpt>
      <trkpt lat="41.3659140" lon="1.1645860">
        <ele>336.7</ele>
        <time>2021-09-30T08:09:32Z</time>
      </trkpt>
      <trkpt lat="41.3659140" lon="1.1645860">
        <ele>336.7</ele>
        <time>2021-09-30T08:09:33Z</time>
      </trkpt>
      <trkpt lat="41.3659140" lon="1.1645860">
        <ele>336.7</ele>
        <time>2021-09-30T08:09:34Z</time>
      </trkpt>
      <trkpt lat="41.3657950" lon="1.1645700">
        <ele>336.6</ele>
        <time>2021-09-30T08:09:35Z</time>
      </trkpt>
      <trkpt lat="41.3657950" lon="1.1645700">
        <ele>336.6</ele>
        <time>2021-09-30T08:09:36Z</time>
      </trkpt>
      <trkpt lat="41.3657310" lon="1.1645690">
        <ele>336.6</ele>
        <time>2021-09-30T08:09:37Z</time>
      </trkpt>
      <trkpt lat="41.3657310" lon="1.1645690">
        <ele>336.6</ele>
        <time>2021-09-30T08:09:38Z</time>
      </trkpt>
      <trkpt lat="41.3656640" lon="1.1645620">
        <ele>336.6</ele>
        <time>2021-09-30T08:09:39Z</time>
      </trkpt>
      <trkpt lat="41.3656640" lon="1.1645620">
        <ele>336.6</ele>
        <time>2021-09-30T08:09:40Z</time>
      </trkpt>
      <trkpt lat="41.3656000" lon="1.1645440">
        <ele>336.6</ele>
        <time>2021-09-30T08:09:41Z</time>
      </trkpt>
      <trkpt lat="41.3656000" lon="1.1645440">
        <ele>336.6</ele>
        <time>2021-09-30T08:09:42Z</time>
      </trkpt>
      <trkpt lat="41.3655420" lon="1.1645190">
        <ele>336.6</ele>
        <time>2021-09-30T08:09:43Z</time>
      </trkpt>
      <trkpt lat="41.3655140" lon="1.1645050">
        <ele>336.6</ele>
        <time>2021-09-30T08:09:44Z</time>
      </trkpt>
      <trkpt lat="41.3654820" lon="1.1644910">
        <ele>336.6</ele>
        <time>2021-09-30T08:09:45Z</time>
      </trkpt>
      <trkpt lat="41.3654820" lon="1.1644910">
        <ele>336.6</ele>
        <time>2021-09-30T08:09:46Z</time>
      </trkpt>
      <trkpt lat="41.3654210" lon="1.1644620">
        <ele>336.6</ele>
        <time>2021-09-30T08:09:47Z</time>
      </trkpt>
      <trkpt lat="41.3654210" lon="1.1644620">
        <ele>336.6</ele>
        <time>2021-09-30T08:09:48Z</time>
      </trkpt>
      <trkpt lat="41.3653600" lon="1.1644300">
        <ele>336.6</ele>
        <time>2021-09-30T08:09:49Z</time>
      </trkpt>
      <trkpt lat="41.3653600" lon="1.1644300">
        <ele>336.6</ele>
        <time>2021-09-30T08:09:50Z</time>
      </trkpt>
      <trkpt lat="41.3652990" lon="1.1643950">
        <ele>336.5</ele>
        <time>2021-09-30T08:09:51Z</time>
      </trkpt>
      <trkpt lat="41.3652990" lon="1.1643950">
        <ele>336.5</ele>
        <time>2021-09-30T08:09:52Z</time>
      </trkpt>
      <trkpt lat="41.3652420" lon="1.1643630">
        <ele>336.5</ele>
        <time>2021-09-30T08:09:53Z</time>
      </trkpt>
      <trkpt lat="41.3652160" lon="1.1643500">
        <ele>336.5</ele>
        <time>2021-09-30T08:09:54Z</time>
      </trkpt>
      <trkpt lat="41.3651840" lon="1.1643380">
        <ele>336.5</ele>
        <time>2021-09-30T08:09:55Z</time>
      </trkpt>
      <trkpt lat="41.3651840" lon="1.1643380">
        <ele>336.5</ele>
        <time>2021-09-30T08:09:56Z</time>
      </trkpt>
      <trkpt lat="41.3651260" lon="1.1643180">
        <ele>336.5</ele>
        <time>2021-09-30T08:09:57Z</time>
      </trkpt>
      <trkpt lat="41.3651260" lon="1.1643180">
        <ele>336.5</ele>
        <time>2021-09-30T08:09:58Z</time>
      </trkpt>
      <trkpt lat="41.3650660" lon="1.1643000">
        <ele>336.5</ele>
        <time>2021-09-30T08:09:59Z</time>
      </trkpt>
      <trkpt lat="41.3650370" lon="1.1642910">
        <ele>336.5</ele>
        <time>2021-09-30T08:10:00Z</time>
      </trkpt>
      <trkpt lat="41.3650020" lon="1.1642830">
        <ele>336.5</ele>
        <time>2021-09-30T08:10:01Z</time>
      </trkpt>
      <trkpt lat="41.3650020" lon="1.1642830">
        <ele>336.5</ele>
        <time>2021-09-30T08:10:02Z</time>
      </trkpt>
      <trkpt lat="41.3649410" lon="1.1642640">
        <ele>336.5</ele>
        <time>2021-09-30T08:10:03Z</time>
      </trkpt>
      <trkpt lat="41.3649090" lon="1.1642540">
        <ele>336.5</ele>
        <time>2021-09-30T08:10:04Z</time>
      </trkpt>
      <trkpt lat="41.3648800" lon="1.1642410">
        <ele>336.5</ele>
        <time>2021-09-30T08:10:05Z</time>
      </trkpt>
      <trkpt lat="41.3648480" lon="1.1642280">
        <ele>336.5</ele>
        <time>2021-09-30T08:10:06Z</time>
      </trkpt>
      <trkpt lat="41.3648190" lon="1.1642150">
        <ele>336.5</ele>
        <time>2021-09-30T08:10:07Z</time>
      </trkpt>
      <trkpt lat="41.3648190" lon="1.1642150">
        <ele>336.5</ele>
        <time>2021-09-30T08:10:08Z</time>
      </trkpt>
      <trkpt lat="41.3647620" lon="1.1641890">
        <ele>336.4</ele>
        <time>2021-09-30T08:10:09Z</time>
      </trkpt>
      <trkpt lat="41.3647620" lon="1.1641890">
        <ele>336.4</ele>
        <time>2021-09-30T08:10:10Z</time>
      </trkpt>
      <trkpt lat="41.3647070" lon="1.1641600">
        <ele>336.4</ele>
        <time>2021-09-30T08:10:11Z</time>
      </trkpt>
      <trkpt lat="41.3647070" lon="1.1641600">
        <ele>336.4</ele>
        <time>2021-09-30T08:10:12Z</time>
      </trkpt>
      <trkpt lat="41.3646560" lon="1.1641270">
        <ele>336.4</ele>
        <time>2021-09-30T08:10:13Z</time>
      </trkpt>
      <trkpt lat="41.3646300" lon="1.1641080">
        <ele>336.4</ele>
        <time>2021-09-30T08:10:14Z</time>
      </trkpt>
      <trkpt lat="41.3646050" lon="1.1640900">
        <ele>336.4</ele>
        <time>2021-09-30T08:10:15Z</time>
      </trkpt>
      <trkpt lat="41.3646050" lon="1.1640900">
        <ele>336.4</ele>
        <time>2021-09-30T08:10:16Z</time>
      </trkpt>
      <trkpt lat="41.3645500" lon="1.1640570">
        <ele>336.3</ele>
        <time>2021-09-30T08:10:17Z</time>
      </trkpt>
      <trkpt lat="41.3645500" lon="1.1640570">
        <ele>336.3</ele>
        <time>2021-09-30T08:10:18Z</time>
      </trkpt>
      <trkpt lat="41.3644990" lon="1.1640300">
        <ele>336.3</ele>
        <time>2021-09-30T08:10:19Z</time>
      </trkpt>
      <trkpt lat="41.3644990" lon="1.1640300">
        <ele>336.3</ele>
        <time>2021-09-30T08:10:20Z</time>
      </trkpt>
      <trkpt lat="41.3644380" lon="1.1640070">
        <ele>336.2</ele>
        <time>2021-09-30T08:10:21Z</time>
      </trkpt>
      <trkpt lat="41.3644380" lon="1.1640070">
        <ele>336.2</ele>
        <time>2021-09-30T08:10:22Z</time>
      </trkpt>
      <trkpt lat="41.3643780" lon="1.1639860">
        <ele>336.2</ele>
        <time>2021-09-30T08:10:23Z</time>
      </trkpt>
      <trkpt lat="41.3643780" lon="1.1639860">
        <ele>336.2</ele>
        <time>2021-09-30T08:10:24Z</time>
      </trkpt>
      <trkpt lat="41.3643100" lon="1.1639650">
        <ele>336.1</ele>
        <time>2021-09-30T08:10:25Z</time>
      </trkpt>
      <trkpt lat="41.3643100" lon="1.1639650">
        <ele>336.1</ele>
        <time>2021-09-30T08:10:26Z</time>
      </trkpt>
      <trkpt lat="41.3642460" lon="1.1639440">
        <ele>336.1</ele>
        <time>2021-09-30T08:10:27Z</time>
      </trkpt>
      <trkpt lat="41.3642460" lon="1.1639440">
        <ele>336.1</ele>
        <time>2021-09-30T08:10:28Z</time>
      </trkpt>
      <trkpt lat="41.3641790" lon="1.1639200">
        <ele>336.1</ele>
        <time>2021-09-30T08:10:29Z</time>
      </trkpt>
      <trkpt lat="41.3641790" lon="1.1639200">
        <ele>336.1</ele>
        <time>2021-09-30T08:10:30Z</time>
      </trkpt>
      <trkpt lat="41.3641090" lon="1.1638960">
        <ele>336.1</ele>
        <time>2021-09-30T08:10:31Z</time>
      </trkpt>
      <trkpt lat="41.3641090" lon="1.1638960">
        <ele>336.1</ele>
        <time>2021-09-30T08:10:32Z</time>
      </trkpt>
      <trkpt lat="41.3640450" lon="1.1638750">
        <ele>336.1</ele>
        <time>2021-09-30T08:10:33Z</time>
      </trkpt>
      <trkpt lat="41.3640290" lon="1.1638700">
        <ele>336.1</ele>
        <time>2021-09-30T08:10:34Z</time>
      </trkpt>
      <trkpt lat="41.3640130" lon="1.1638650">
        <ele>336.1</ele>
        <time>2021-09-30T08:10:35Z</time>
      </trkpt>
      <trkpt lat="41.3639500" lon="1.1638480">
        <ele>336.1</ele>
        <time>2021-09-30T08:10:36Z</time>
      </trkpt>
      <trkpt lat="41.3639200" lon="1.1638390">
        <ele>336.1</ele>
        <time>2021-09-30T08:10:37Z</time>
      </trkpt>
      <trkpt lat="41.3638890" lon="1.1638310">
        <ele>336.1</ele>
        <time>2021-09-30T08:10:38Z</time>
      </trkpt>
      <trkpt lat="41.3638580" lon="1.1638220">
        <ele>336.1</ele>
        <time>2021-09-30T08:10:39Z</time>
      </trkpt>
      <trkpt lat="41.3638270" lon="1.1638140">
        <ele>336.2</ele>
        <time>2021-09-30T08:10:40Z</time>
      </trkpt>
      <trkpt lat="41.3637970" lon="1.1638060">
        <ele>336.2</ele>
        <time>2021-09-30T08:10:41Z</time>
      </trkpt>
      <trkpt lat="41.3637660" lon="1.1637970">
        <ele>336.2</ele>
        <time>2021-09-30T08:10:42Z</time>
      </trkpt>
      <trkpt lat="41.3637350" lon="1.1637890">
        <ele>336.2</ele>
        <time>2021-09-30T08:10:43Z</time>
      </trkpt>
      <trkpt lat="41.3637180" lon="1.1637800">
        <ele>336.2</ele>
        <time>2021-09-30T08:10:44Z</time>
      </trkpt>
      <trkpt lat="41.3637010" lon="1.1637710">
        <ele>336.3</ele>
        <time>2021-09-30T08:10:45Z</time>
      </trkpt>
      <trkpt lat="41.3636840" lon="1.1637620">
        <ele>336.3</ele>
        <time>2021-09-30T08:10:46Z</time>
      </trkpt>
      <trkpt lat="41.3636670" lon="1.1637530">
        <ele>336.3</ele>
        <time>2021-09-30T08:10:47Z</time>
      </trkpt>
      <trkpt lat="41.3636500" lon="1.1637440">
        <ele>336.3</ele>
        <time>2021-09-30T08:10:48Z</time>
      </trkpt>
      <trkpt lat="41.3636320" lon="1.1637360">
        <ele>336.3</ele>
        <time>2021-09-30T08:10:49Z</time>
      </trkpt>
      <trkpt lat="41.3636150" lon="1.1637270">
        <ele>336.4</ele>
        <time>2021-09-30T08:10:50Z</time>
      </trkpt>
      <trkpt lat="41.3635980" lon="1.1637180">
        <ele>336.4</ele>
        <time>2021-09-30T08:10:51Z</time>
      </trkpt>
      <trkpt lat="41.3635810" lon="1.1637090">
        <ele>336.4</ele>
        <time>2021-09-30T08:10:52Z</time>
      </trkpt>
      <trkpt lat="41.3635640" lon="1.1637000">
        <ele>336.4</ele>
        <time>2021-09-30T08:10:53Z</time>
      </trkpt>
      <trkpt lat="41.3635470" lon="1.1636910">
        <ele>336.5</ele>
        <time>2021-09-30T08:10:54Z</time>
      </trkpt>
      <trkpt lat="41.3635030" lon="1.1636860">
        <ele>336.5</ele>
        <time>2021-09-30T08:10:55Z</time>
      </trkpt>
      <trkpt lat="41.3634590" lon="1.1636810">
        <ele>336.6</ele>
        <time>2021-09-30T08:10:56Z</time>
      </trkpt>
      <trkpt lat="41.3634140" lon="1.1636750">
        <ele>336.7</ele>
        <time>2021-09-30T08:10:57Z</time>
      </trkpt>
      <trkpt lat="41.3633700" lon="1.1636700">
        <ele>336.7</ele>
        <time>2021-09-30T08:10:58Z</time>
      </trkpt>
      <trkpt lat="41.3633260" lon="1.1636650">
        <ele>336.8</ele>
        <time>2021-09-30T08:10:59Z</time>
      </trkpt>
      <trkpt lat="41.3632820" lon="1.1636600">
        <ele>336.9</ele>
        <time>2021-09-30T08:11:00Z</time>
      </trkpt>
      <trkpt lat="41.3632370" lon="1.1636540">
        <ele>337.0</ele>
        <time>2021-09-30T08:11:01Z</time>
      </trkpt>
      <trkpt lat="41.3631930" lon="1.1636490">
        <ele>337.1</ele>
        <time>2021-09-30T08:11:02Z</time>
      </trkpt>
      <trkpt lat="41.3631490" lon="1.1636440">
        <ele>337.2</ele>
        <time>2021-09-30T08:11:03Z</time>
      </trkpt>
      <trkpt lat="41.3631250" lon="1.1636290">
        <ele>337.2</ele>
        <time>2021-09-30T08:11:04Z</time>
      </trkpt>
      <trkpt lat="41.3631010" lon="1.1636150">
        <ele>337.3</ele>
        <time>2021-09-30T08:11:05Z</time>
      </trkpt>
      <trkpt lat="41.3630770" lon="1.1636000">
        <ele>337.3</ele>
        <time>2021-09-30T08:11:06Z</time>
      </trkpt>
      <trkpt lat="41.3630530" lon="1.1635850">
        <ele>337.4</ele>
        <time>2021-09-30T08:11:07Z</time>
      </trkpt>
      <trkpt lat="41.3630290" lon="1.1635700">
        <ele>337.5</ele>
        <time>2021-09-30T08:11:08Z</time>
      </trkpt>
      <trkpt lat="41.3630050" lon="1.1635560">
        <ele>337.5</ele>
        <time>2021-09-30T08:11:09Z</time>
      </trkpt>
      <trkpt lat="41.3629810" lon="1.1635410">
        <ele>337.6</ele>
        <time>2021-09-30T08:11:10Z</time>
      </trkpt>
      <trkpt lat="41.3629570" lon="1.1635260">
        <ele>337.7</ele>
        <time>2021-09-30T08:11:11Z</time>
      </trkpt>
      <trkpt lat="41.3629330" lon="1.1635120">
        <ele>337.8</ele>
        <time>2021-09-30T08:11:12Z</time>
      </trkpt>
      <trkpt lat="41.3629090" lon="1.1634970">
        <ele>337.8</ele>
        <time>2021-09-30T08:11:13Z</time>
      </trkpt>
      <trkpt lat="41.3628790" lon="1.1634830">
        <ele>337.9</ele>
        <time>2021-09-30T08:11:14Z</time>
      </trkpt>
      <trkpt lat="41.3628480" lon="1.1634690">
        <ele>338.1</ele>
        <time>2021-09-30T08:11:15Z</time>
      </trkpt>
      <trkpt lat="41.3628180" lon="1.1634550">
        <ele>338.2</ele>
        <time>2021-09-30T08:11:16Z</time>
      </trkpt>
      <trkpt lat="41.3627880" lon="1.1634410">
        <ele>338.3</ele>
        <time>2021-09-30T08:11:17Z</time>
      </trkpt>
      <trkpt lat="41.3627570" lon="1.1634270">
        <ele>338.4</ele>
        <time>2021-09-30T08:11:18Z</time>
      </trkpt>
      <trkpt lat="41.3627270" lon="1.1634130">
        <ele>338.5</ele>
        <time>2021-09-30T08:11:19Z</time>
      </trkpt>
      <trkpt lat="41.3626970" lon="1.1633990">
        <ele>338.6</ele>
        <time>2021-09-30T08:11:20Z</time>
      </trkpt>
      <trkpt lat="41.3626660" lon="1.1633850">
        <ele>338.7</ele>
        <time>2021-09-30T08:11:21Z</time>
      </trkpt>
      <trkpt lat="41.3626360" lon="1.1633710">
        <ele>338.8</ele>
        <time>2021-09-30T08:11:22Z</time>
      </trkpt>
      <trkpt lat="41.3626110" lon="1.1633570">
        <ele>338.9</ele>
        <time>2021-09-30T08:11:23Z</time>
      </trkpt>
      <trkpt lat="41.3625860" lon="1.1633430">
        <ele>339.0</ele>
        <time>2021-09-30T08:11:24Z</time>
      </trkpt>
      <trkpt lat="41.3625620" lon="1.1633290">
        <ele>339.1</ele>
        <time>2021-09-30T08:11:25Z</time>
      </trkpt>
      <trkpt lat="41.3625370" lon="1.1633150">
        <ele>339.2</ele>
        <time>2021-09-30T08:11:26Z</time>
      </trkpt>
      <trkpt lat="41.3625120" lon="1.1633010">
        <ele>339.3</ele>
        <time>2021-09-30T08:11:27Z</time>
      </trkpt>
      <trkpt lat="41.3624870" lon="1.1632880">
        <ele>339.4</ele>
        <time>2021-09-30T08:11:28Z</time>
      </trkpt>
      <trkpt lat="41.3624620" lon="1.1632740">
        <ele>339.4</ele>
        <time>2021-09-30T08:11:29Z</time>
      </trkpt>
      <trkpt lat="41.3624380" lon="1.1632600">
        <ele>339.5</ele>
        <time>2021-09-30T08:11:30Z</time>
      </trkpt>
      <trkpt lat="41.3624130" lon="1.1632460">
        <ele>339.5</ele>
        <time>2021-09-30T08:11:31Z</time>
      </trkpt>
      <trkpt lat="41.3623880" lon="1.1632320">
        <ele>339.6</ele>
        <time>2021-09-30T08:11:32Z</time>
      </trkpt>
      <trkpt lat="41.3623750" lon="1.1631990">
        <ele>339.6</ele>
        <time>2021-09-30T08:11:33Z</time>
      </trkpt>
      <trkpt lat="41.3623630" lon="1.1631660">
        <ele>339.7</ele>
        <time>2021-09-30T08:11:34Z</time>
      </trkpt>
      <trkpt lat="41.3623500" lon="1.1631340">
        <ele>339.7</ele>
        <time>2021-09-30T08:11:35Z</time>
      </trkpt>
      <trkpt lat="41.3623370" lon="1.1631010">
        <ele>339.7</ele>
        <time>2021-09-30T08:11:36Z</time>
      </trkpt>
      <trkpt lat="41.3623250" lon="1.1630680">
        <ele>339.8</ele>
        <time>2021-09-30T08:11:37Z</time>
      </trkpt>
      <trkpt lat="41.3623120" lon="1.1630350">
        <ele>339.8</ele>
        <time>2021-09-30T08:11:38Z</time>
      </trkpt>
      <trkpt lat="41.3622990" lon="1.1630020">
        <ele>339.8</ele>
        <time>2021-09-30T08:11:39Z</time>
      </trkpt>
      <trkpt lat="41.3622860" lon="1.1629700">
        <ele>339.9</ele>
        <time>2021-09-30T08:11:40Z</time>
      </trkpt>
      <trkpt lat="41.3622740" lon="1.1629370">
        <ele>339.9</ele>
        <time>2021-09-30T08:11:41Z</time>
      </trkpt>
      <trkpt lat="41.3622610" lon="1.1629040">
        <ele>339.9</ele>
        <time>2021-09-30T08:11:42Z</time>
      </trkpt>
      <trkpt lat="41.3622470" lon="1.1628610">
        <ele>339.9</ele>
        <time>2021-09-30T08:11:43Z</time>
      </trkpt>
      <trkpt lat="41.3622320" lon="1.1628170">
        <ele>340.0</ele>
        <time>2021-09-30T08:11:44Z</time>
      </trkpt>
      <trkpt lat="41.3622180" lon="1.1627740">
        <ele>340.0</ele>
        <time>2021-09-30T08:11:45Z</time>
      </trkpt>
      <trkpt lat="41.3622040" lon="1.1627310">
        <ele>340.1</ele>
        <time>2021-09-30T08:11:46Z</time>
      </trkpt>
      <trkpt lat="41.3621890" lon="1.1626880">
        <ele>340.1</ele>
        <time>2021-09-30T08:11:47Z</time>
      </trkpt>
      <trkpt lat="41.3621750" lon="1.1626440">
        <ele>340.1</ele>
        <time>2021-09-30T08:11:48Z</time>
      </trkpt>
      <trkpt lat="41.3621600" lon="1.1626010">
        <ele>340.1</ele>
        <time>2021-09-30T08:11:49Z</time>
      </trkpt>
      <trkpt lat="41.3621460" lon="1.1625580">
        <ele>340.2</ele>
        <time>2021-09-30T08:11:50Z</time>
      </trkpt>
      <trkpt lat="41.3621330" lon="1.1625360">
        <ele>340.2</ele>
        <time>2021-09-30T08:11:51Z</time>
      </trkpt>
      <trkpt lat="41.3621190" lon="1.1625150">
        <ele>340.2</ele>
        <time>2021-09-30T08:11:52Z</time>
      </trkpt>
      <trkpt lat="41.3621060" lon="1.1624930">
        <ele>340.3</ele>
        <time>2021-09-30T08:11:53Z</time>
      </trkpt>
      <trkpt lat="41.3620930" lon="1.1624720">
        <ele>340.3</ele>
        <time>2021-09-30T08:11:54Z</time>
      </trkpt>
      <trkpt lat="41.3620790" lon="1.1624500">
        <ele>340.3</ele>
        <time>2021-09-30T08:11:55Z</time>
      </trkpt>
      <trkpt lat="41.3620660" lon="1.1624290">
        <ele>340.3</ele>
        <time>2021-09-30T08:11:56Z</time>
      </trkpt>
      <trkpt lat="41.3620520" lon="1.1624070">
        <ele>340.4</ele>
        <time>2021-09-30T08:11:57Z</time>
      </trkpt>
      <trkpt lat="41.3620390" lon="1.1623860">
        <ele>340.4</ele>
        <time>2021-09-30T08:11:58Z</time>
      </trkpt>
      <trkpt lat="41.3620260" lon="1.1623640">
        <ele>340.4</ele>
        <time>2021-09-30T08:11:59Z</time>
      </trkpt>
      <trkpt lat="41.3620120" lon="1.1623430">
        <ele>340.4</ele>
        <time>2021-09-30T08:12:00Z</time>
      </trkpt>
      <trkpt lat="41.3619990" lon="1.1623210">
        <ele>340.5</ele>
        <time>2021-09-30T08:12:01Z</time>
      </trkpt>
      <trkpt lat="41.3619900" lon="1.1622830">
        <ele>340.5</ele>
        <time>2021-09-30T08:12:02Z</time>
      </trkpt>
      <trkpt lat="41.3619810" lon="1.1622440">
        <ele>340.6</ele>
        <time>2021-09-30T08:12:03Z</time>
      </trkpt>
      <trkpt lat="41.3619720" lon="1.1622060">
        <ele>340.6</ele>
        <time>2021-09-30T08:12:04Z</time>
      </trkpt>
      <trkpt lat="41.3619630" lon="1.1621670">
        <ele>340.7</ele>
        <time>2021-09-30T08:12:05Z</time>
      </trkpt>
      <trkpt lat="41.3619550" lon="1.1621290">
        <ele>340.7</ele>
        <time>2021-09-30T08:12:06Z</time>
      </trkpt>
      <trkpt lat="41.3619460" lon="1.1620900">
        <ele>340.8</ele>
        <time>2021-09-30T08:12:07Z</time>
      </trkpt>
      <trkpt lat="41.3619370" lon="1.1620520">
        <ele>340.9</ele>
        <time>2021-09-30T08:12:08Z</time>
      </trkpt>
      <trkpt lat="41.3619280" lon="1.1620130">
        <ele>340.9</ele>
        <time>2021-09-30T08:12:09Z</time>
      </trkpt>
      <trkpt lat="41.3619190" lon="1.1619750">
        <ele>341.0</ele>
        <time>2021-09-30T08:12:10Z</time>
      </trkpt>
      <trkpt lat="41.3619020" lon="1.1619330">
        <ele>341.0</ele>
        <time>2021-09-30T08:12:11Z</time>
      </trkpt>
      <trkpt lat="41.3618860" lon="1.1618910">
        <ele>341.1</ele>
        <time>2021-09-30T08:12:12Z</time>
      </trkpt>
      <trkpt lat="41.3618690" lon="1.1618500">
        <ele>341.2</ele>
        <time>2021-09-30T08:12:13Z</time>
      </trkpt>
      <trkpt lat="41.3618530" lon="1.1618080">
        <ele>341.3</ele>
        <time>2021-09-30T08:12:14Z</time>
      </trkpt>
      <trkpt lat="41.3618360" lon="1.1617660">
        <ele>341.4</ele>
        <time>2021-09-30T08:12:15Z</time>
      </trkpt>
      <trkpt lat="41.3618200" lon="1.1617240">
        <ele>341.5</ele>
        <time>2021-09-30T08:12:16Z</time>
      </trkpt>
      <trkpt lat="41.3618030" lon="1.1616830">
        <ele>341.6</ele>
        <time>2021-09-30T08:12:17Z</time>
      </trkpt>
      <trkpt lat="41.3617870" lon="1.1616410">
        <ele>341.7</ele>
        <time>2021-09-30T08:12:18Z</time>
      </trkpt>
      <trkpt lat="41.3617700" lon="1.1615990">
        <ele>341.8</ele>
        <time>2021-09-30T08:12:19Z</time>
      </trkpt>
      <trkpt lat="41.3617590" lon="1.1615680">
        <ele>341.9</ele>
        <time>2021-09-30T08:12:20Z</time>
      </trkpt>
      <trkpt lat="41.3617470" lon="1.1615380">
        <ele>342.0</ele>
        <time>2021-09-30T08:12:21Z</time>
      </trkpt>
      <trkpt lat="41.3617360" lon="1.1615070">
        <ele>342.1</ele>
        <time>2021-09-30T08:12:22Z</time>
      </trkpt>
      <trkpt lat="41.3617250" lon="1.1614760">
        <ele>342.2</ele>
        <time>2021-09-30T08:12:23Z</time>
      </trkpt>
      <trkpt lat="41.3617140" lon="1.1614450">
        <ele>342.3</ele>
        <time>2021-09-30T08:12:24Z</time>
      </trkpt>
      <trkpt lat="41.3617020" lon="1.1614150">
        <ele>342.4</ele>
        <time>2021-09-30T08:12:25Z</time>
      </trkpt>
      <trkpt lat="41.3616910" lon="1.1613840">
        <ele>342.5</ele>
        <time>2021-09-30T08:12:26Z</time>
      </trkpt>
      <trkpt lat="41.3616800" lon="1.1613530">
        <ele>342.7</ele>
        <time>2021-09-30T08:12:27Z</time>
      </trkpt>
      <trkpt lat="41.3616680" lon="1.1613230">
        <ele>342.8</ele>
        <time>2021-09-30T08:12:28Z</time>
      </trkpt>
      <trkpt lat="41.3616570" lon="1.1612920">
        <ele>342.9</ele>
        <time>2021-09-30T08:12:29Z</time>
      </trkpt>
      <trkpt lat="41.3616400" lon="1.1612660">
        <ele>343.1</ele>
        <time>2021-09-30T08:12:30Z</time>
      </trkpt>
      <trkpt lat="41.3616220" lon="1.1612400">
        <ele>343.2</ele>
        <time>2021-09-30T08:12:31Z</time>
      </trkpt>
      <trkpt lat="41.3616050" lon="1.1612150">
        <ele>343.4</ele>
        <time>2021-09-30T08:12:32Z</time>
      </trkpt>
      <trkpt lat="41.3615870" lon="1.1611890">
        <ele>343.5</ele>
        <time>2021-09-30T08:12:33Z</time>
      </trkpt>
      <trkpt lat="41.3615700" lon="1.1611630">
        <ele>343.6</ele>
        <time>2021-09-30T08:12:34Z</time>
      </trkpt>
      <trkpt lat="41.3615530" lon="1.1611370">
        <ele>343.8</ele>
        <time>2021-09-30T08:12:35Z</time>
      </trkpt>
      <trkpt lat="41.3615350" lon="1.1611110">
        <ele>343.9</ele>
        <time>2021-09-30T08:12:36Z</time>
      </trkpt>
      <trkpt lat="41.3615180" lon="1.1610860">
        <ele>344.1</ele>
        <time>2021-09-30T08:12:37Z</time>
      </trkpt>
      <trkpt lat="41.3615000" lon="1.1610600">
        <ele>344.2</ele>
        <time>2021-09-30T08:12:38Z</time>
      </trkpt>
      <trkpt lat="41.3614830" lon="1.1610340">
        <ele>344.4</ele>
        <time>2021-09-30T08:12:39Z</time>
      </trkpt>
      <trkpt lat="41.3614470" lon="1.1610170">
        <ele>344.6</ele>
        <time>2021-09-30T08:12:40Z</time>
      </trkpt>
      <trkpt lat="41.3614100" lon="1.1610010">
        <ele>344.8</ele>
        <time>2021-09-30T08:12:41Z</time>
      </trkpt>
      <trkpt lat="41.3613740" lon="1.1609840">
        <ele>345.1</ele>
        <time>2021-09-30T08:12:42Z</time>
      </trkpt>
      <trkpt lat="41.3613380" lon="1.1609670">
        <ele>345.6</ele>
        <time>2021-09-30T08:12:43Z</time>
      </trkpt>
      <trkpt lat="41.3613010" lon="1.1609510">
        <ele>346.2</ele>
        <time>2021-09-30T08:12:44Z</time>
      </trkpt>
      <trkpt lat="41.3612650" lon="1.1609340">
        <ele>346.7</ele>
        <time>2021-09-30T08:12:45Z</time>
      </trkpt>
      <trkpt lat="41.3612280" lon="1.1609180">
        <ele>347.2</ele>
        <time>2021-09-30T08:12:46Z</time>
      </trkpt>
      <trkpt lat="41.3611920" lon="1.1609010">
        <ele>347.7</ele>
        <time>2021-09-30T08:12:47Z</time>
      </trkpt>
      <trkpt lat="41.3611770" lon="1.1608800">
        <ele>348.0</ele>
        <time>2021-09-30T08:12:48Z</time>
      </trkpt>
      <trkpt lat="41.3611620" lon="1.1608580">
        <ele>348.3</ele>
        <time>2021-09-30T08:12:49Z</time>
      </trkpt>
      <trkpt lat="41.3611470" lon="1.1608370">
        <ele>348.6</ele>
        <time>2021-09-30T08:12:50Z</time>
      </trkpt>
      <trkpt lat="41.3611320" lon="1.1608150">
        <ele>348.9</ele>
        <time>2021-09-30T08:12:51Z</time>
      </trkpt>
      <trkpt lat="41.3611170" lon="1.1607940">
        <ele>349.2</ele>
        <time>2021-09-30T08:12:52Z</time>
      </trkpt>
      <trkpt lat="41.3611020" lon="1.1607720">
        <ele>349.5</ele>
        <time>2021-09-30T08:12:53Z</time>
      </trkpt>
      <trkpt lat="41.3610870" lon="1.1607510">
        <ele>349.8</ele>
        <time>2021-09-30T08:12:54Z</time>
      </trkpt>
      <trkpt lat="41.3610720" lon="1.1607290">
        <ele>350.1</ele>
        <time>2021-09-30T08:12:55Z</time>
      </trkpt>
      <trkpt lat="41.3610570" lon="1.1607080">
        <ele>350.4</ele>
        <time>2021-09-30T08:12:56Z</time>
      </trkpt>
      <trkpt lat="41.3610480" lon="1.1606910">
        <ele>350.6</ele>
        <time>2021-09-30T08:12:57Z</time>
      </trkpt>
      <trkpt lat="41.3610390" lon="1.1606750">
        <ele>350.8</ele>
        <time>2021-09-30T08:12:58Z</time>
      </trkpt>
      <trkpt lat="41.3610300" lon="1.1606580">
        <ele>351.0</ele>
        <time>2021-09-30T08:12:59Z</time>
      </trkpt>
      <trkpt lat="41.3610210" lon="1.1606410">
        <ele>351.2</ele>
        <time>2021-09-30T08:13:00Z</time>
      </trkpt>
      <trkpt lat="41.3610110" lon="1.1606250">
        <ele>351.4</ele>
        <time>2021-09-30T08:13:01Z</time>
      </trkpt>
      <trkpt lat="41.3610020" lon="1.1606080">
        <ele>351.7</ele>
        <time>2021-09-30T08:13:02Z</time>
      </trkpt>
      <trkpt lat="41.3609930" lon="1.1605910">
        <ele>351.9</ele>
        <time>2021-09-30T08:13:03Z</time>
      </trkpt>
      <trkpt lat="41.3609840" lon="1.1605750">
        <ele>352.1</ele>
        <time>2021-09-30T08:13:04Z</time>
      </trkpt>
      <trkpt lat="41.3609750" lon="1.1605580">
        <ele>352.3</ele>
        <time>2021-09-30T08:13:05Z</time>
      </trkpt>
      <trkpt lat="41.3609600" lon="1.1605330">
        <ele>352.6</ele>
        <time>2021-09-30T08:13:06Z</time>
      </trkpt>
      <trkpt lat="41.3609450" lon="1.1605080">
        <ele>353.0</ele>
        <time>2021-09-30T08:13:07Z</time>
      </trkpt>
      <trkpt lat="41.3609290" lon="1.1604830">
        <ele>353.3</ele>
        <time>2021-09-30T08:13:08Z</time>
      </trkpt>
      <trkpt lat="41.3609140" lon="1.1604580">
        <ele>353.6</ele>
        <time>2021-09-30T08:13:09Z</time>
      </trkpt>
      <trkpt lat="41.3608990" lon="1.1604320">
        <ele>353.9</ele>
        <time>2021-09-30T08:13:10Z</time>
      </trkpt>
      <trkpt lat="41.3608840" lon="1.1604070">
        <ele>354.2</ele>
        <time>2021-09-30T08:13:11Z</time>
      </trkpt>
      <trkpt lat="41.3608690" lon="1.1603820">
        <ele>354.5</ele>
        <time>2021-09-30T08:13:12Z</time>
      </trkpt>
      <trkpt lat="41.3608530" lon="1.1603570">
        <ele>354.8</ele>
        <time>2021-09-30T08:13:13Z</time>
      </trkpt>
      <trkpt lat="41.3608380" lon="1.1603320">
        <ele>355.1</ele>
        <time>2021-09-30T08:13:14Z</time>
      </trkpt>
      <trkpt lat="41.3608230" lon="1.1603070">
        <ele>355.4</ele>
        <time>2021-09-30T08:13:15Z</time>
      </trkpt>
      <trkpt lat="41.3608150" lon="1.1602780">
        <ele>355.7</ele>
        <time>2021-09-30T08:13:16Z</time>
      </trkpt>
      <trkpt lat="41.3608070" lon="1.1602500">
        <ele>356.0</ele>
        <time>2021-09-30T08:13:17Z</time>
      </trkpt>
      <trkpt lat="41.3607990" lon="1.1602210">
        <ele>356.3</ele>
        <time>2021-09-30T08:13:18Z</time>
      </trkpt>
      <trkpt lat="41.3607910" lon="1.1601930">
        <ele>356.6</ele>
        <time>2021-09-30T08:13:19Z</time>
      </trkpt>
      <trkpt lat="41.3607840" lon="1.1601640">
        <ele>356.9</ele>
        <time>2021-09-30T08:13:20Z</time>
      </trkpt>
      <trkpt lat="41.3607760" lon="1.1601360">
        <ele>357.2</ele>
        <time>2021-09-30T08:13:21Z</time>
      </trkpt>
      <trkpt lat="41.3607680" lon="1.1601070">
        <ele>357.5</ele>
        <time>2021-09-30T08:13:22Z</time>
      </trkpt>
      <trkpt lat="41.3607600" lon="1.1600790">
        <ele>357.8</ele>
        <time>2021-09-30T08:13:23Z</time>
      </trkpt>
      <trkpt lat="41.3607520" lon="1.1600500">
        <ele>358.1</ele>
        <time>2021-09-30T08:13:24Z</time>
      </trkpt>
      <trkpt lat="41.3607510" lon="1.1600130">
        <ele>358.4</ele>
        <time>2021-09-30T08:13:25Z</time>
      </trkpt>
      <trkpt lat="41.3607500" lon="1.1599760">
        <ele>358.3</ele>
        <time>2021-09-30T08:13:26Z</time>
      </trkpt>
      <trkpt lat="41.3607480" lon="1.1599390">
        <ele>358.2</ele>
        <time>2021-09-30T08:13:27Z</time>
      </trkpt>
      <trkpt lat="41.3607470" lon="1.1599020">
        <ele>358.2</ele>
        <time>2021-09-30T08:13:28Z</time>
      </trkpt>
      <trkpt lat="41.3607460" lon="1.1598660">
        <ele>358.1</ele>
        <time>2021-09-30T08:13:29Z</time>
      </trkpt>
      <trkpt lat="41.3607450" lon="1.1598290">
        <ele>358.0</ele>
        <time>2021-09-30T08:13:30Z</time>
      </trkpt>
      <trkpt lat="41.3607430" lon="1.1597920">
        <ele>357.9</ele>
        <time>2021-09-30T08:13:31Z</time>
      </trkpt>
      <trkpt lat="41.3607420" lon="1.1597550">
        <ele>357.8</ele>
        <time>2021-09-30T08:13:32Z</time>
      </trkpt>
      <trkpt lat="41.3607410" lon="1.1597180">
        <ele>357.7</ele>
        <time>2021-09-30T08:13:33Z</time>
      </trkpt>
      <trkpt lat="41.3607650" lon="1.1596870">
        <ele>357.7</ele>
        <time>2021-09-30T08:13:34Z</time>
      </trkpt>
      <trkpt lat="41.3607880" lon="1.1596560">
        <ele>357.6</ele>
        <time>2021-09-30T08:13:35Z</time>
      </trkpt>
      <trkpt lat="41.3608120" lon="1.1596250">
        <ele>357.5</ele>
        <time>2021-09-30T08:13:36Z</time>
      </trkpt>
      <trkpt lat="41.3608350" lon="1.1595940">
        <ele>357.4</ele>
        <time>2021-09-30T08:13:37Z</time>
      </trkpt>
      <trkpt lat="41.3608590" lon="1.1595630">
        <ele>357.3</ele>
        <time>2021-09-30T08:13:38Z</time>
      </trkpt>
      <trkpt lat="41.3608820" lon="1.1595320">
        <ele>357.2</ele>
        <time>2021-09-30T08:13:39Z</time>
      </trkpt>
      <trkpt lat="41.3609060" lon="1.1595010">
        <ele>357.2</ele>
        <time>2021-09-30T08:13:40Z</time>
      </trkpt>
      <trkpt lat="41.3609290" lon="1.1594700">
        <ele>357.1</ele>
        <time>2021-09-30T08:13:41Z</time>
      </trkpt>
      <trkpt lat="41.3609530" lon="1.1594390">
        <ele>357.0</ele>
        <time>2021-09-30T08:13:42Z</time>
      </trkpt>
      <trkpt lat="41.3609760" lon="1.1594080">
        <ele>356.9</ele>
        <time>2021-09-30T08:13:43Z</time>
      </trkpt>
      <trkpt lat="41.3610040" lon="1.1593920">
        <ele>356.8</ele>
        <time>2021-09-30T08:13:44Z</time>
      </trkpt>
      <trkpt lat="41.3610320" lon="1.1593760">
        <ele>356.8</ele>
        <time>2021-09-30T08:13:45Z</time>
      </trkpt>
      <trkpt lat="41.3610600" lon="1.1593600">
        <ele>356.7</ele>
        <time>2021-09-30T08:13:46Z</time>
      </trkpt>
      <trkpt lat="41.3610880" lon="1.1593440">
        <ele>356.6</ele>
        <time>2021-09-30T08:13:47Z</time>
      </trkpt>
      <trkpt lat="41.3611170" lon="1.1593290">
        <ele>356.6</ele>
        <time>2021-09-30T08:13:48Z</time>
      </trkpt>
      <trkpt lat="41.3611450" lon="1.1593130">
        <ele>356.5</ele>
        <time>2021-09-30T08:13:49Z</time>
      </trkpt>
      <trkpt lat="41.3611730" lon="1.1592970">
        <ele>356.5</ele>
        <time>2021-09-30T08:13:50Z</time>
      </trkpt>
      <trkpt lat="41.3612010" lon="1.1592810">
        <ele>356.4</ele>
        <time>2021-09-30T08:13:51Z</time>
      </trkpt>
      <trkpt lat="41.3612290" lon="1.1592650">
        <ele>356.4</ele>
        <time>2021-09-30T08:13:52Z</time>
      </trkpt>
      <trkpt lat="41.3612570" lon="1.1592490">
        <ele>356.3</ele>
        <time>2021-09-30T08:13:53Z</time>
      </trkpt>
      <trkpt lat="41.3612940" lon="1.1592310">
        <ele>356.3</ele>
        <time>2021-09-30T08:13:54Z</time>
      </trkpt>
      <trkpt lat="41.3613310" lon="1.1592120">
        <ele>356.2</ele>
        <time>2021-09-30T08:13:55Z</time>
      </trkpt>
      <trkpt lat="41.3613680" lon="1.1591940">
        <ele>356.2</ele>
        <time>2021-09-30T08:13:56Z</time>
      </trkpt>
      <trkpt lat="41.3614050" lon="1.1591750">
        <ele>356.1</ele>
        <time>2021-09-30T08:13:57Z</time>
      </trkpt>
      <trkpt lat="41.3614430" lon="1.1591570">
        <ele>356.1</ele>
        <time>2021-09-30T08:13:58Z</time>
      </trkpt>
      <trkpt lat="41.3614800" lon="1.1591380">
        <ele>356.0</ele>
        <time>2021-09-30T08:13:59Z</time>
      </trkpt>
      <trkpt lat="41.3615170" lon="1.1591200">
        <ele>356.0</ele>
        <time>2021-09-30T08:14:00Z</time>
      </trkpt>
      <trkpt lat="41.3615540" lon="1.1591010">
        <ele>355.9</ele>
        <time>2021-09-30T08:14:01Z</time>
      </trkpt>
      <trkpt lat="41.3615910" lon="1.1590830">
        <ele>355.8</ele>
        <time>2021-09-30T08:14:02Z</time>
      </trkpt>
      <trkpt lat="41.3616150" lon="1.1590560">
        <ele>355.7</ele>
        <time>2021-09-30T08:14:03Z</time>
      </trkpt>
      <trkpt lat="41.3616390" lon="1.1590290">
        <ele>355.6</ele>
        <time>2021-09-30T08:14:04Z</time>
      </trkpt>
      <trkpt lat="41.3616640" lon="1.1590010">
        <ele>355.5</ele>
        <time>2021-09-30T08:14:05Z</time>
      </trkpt>
      <trkpt lat="41.3616880" lon="1.1589740">
        <ele>355.3</ele>
        <time>2021-09-30T08:14:06Z</time>
      </trkpt>
      <trkpt lat="41.3617120" lon="1.1589470">
        <ele>355.2</ele>
        <time>2021-09-30T08:14:07Z</time>
      </trkpt>
      <trkpt lat="41.3617360" lon="1.1589200">
        <ele>355.1</ele>
        <time>2021-09-30T08:14:08Z</time>
      </trkpt>
      <trkpt lat="41.3617600" lon="1.1588930">
        <ele>354.9</ele>
        <time>2021-09-30T08:14:09Z</time>
      </trkpt>
      <trkpt lat="41.3617850" lon="1.1588650">
        <ele>354.8</ele>
        <time>2021-09-30T08:14:10Z</time>
      </trkpt>
      <trkpt lat="41.3618090" lon="1.1588380">
        <ele>354.6</ele>
        <time>2021-09-30T08:14:11Z</time>
      </trkpt>
      <trkpt lat="41.3618330" lon="1.1588110">
        <ele>354.5</ele>
        <time>2021-09-30T08:14:12Z</time>
      </trkpt>
      <trkpt lat="41.3618590" lon="1.1587890">
        <ele>354.4</ele>
        <time>2021-09-30T08:14:13Z</time>
      </trkpt>
      <trkpt lat="41.3618850" lon="1.1587680">
        <ele>354.3</ele>
        <time>2021-09-30T08:14:14Z</time>
      </trkpt>
      <trkpt lat="41.3619110" lon="1.1587460">
        <ele>354.1</ele>
        <time>2021-09-30T08:14:15Z</time>
      </trkpt>
      <trkpt lat="41.3619370" lon="1.1587250">
        <ele>354.0</ele>
        <time>2021-09-30T08:14:16Z</time>
      </trkpt>
      <trkpt lat="41.3619640" lon="1.1587030">
        <ele>353.9</ele>
        <time>2021-09-30T08:14:17Z</time>
      </trkpt>
      <trkpt lat="41.3619900" lon="1.1586810">
        <ele>353.7</ele>
        <time>2021-09-30T08:14:18Z</time>
      </trkpt>
      <trkpt lat="41.3620160" lon="1.1586600">
        <ele>353.6</ele>
        <time>2021-09-30T08:14:19Z</time>
      </trkpt>
      <trkpt lat="41.3620420" lon="1.1586380">
        <ele>353.5</ele>
        <time>2021-09-30T08:14:20Z</time>
      </trkpt>
      <trkpt lat="41.3620680" lon="1.1586170">
        <ele>353.3</ele>
        <time>2021-09-30T08:14:21Z</time>
      </trkpt>
      <trkpt lat="41.3620940" lon="1.1585950">
        <ele>353.1</ele>
        <time>2021-09-30T08:14:22Z</time>
      </trkpt>
      <trkpt lat="41.3621250" lon="1.1585720">
        <ele>353.0</ele>
        <time>2021-09-30T08:14:23Z</time>
      </trkpt>
      <trkpt lat="41.3621560" lon="1.1585490">
        <ele>352.9</ele>
        <time>2021-09-30T08:14:24Z</time>
      </trkpt>
      <trkpt lat="41.3621870" lon="1.1585260">
        <ele>352.7</ele>
        <time>2021-09-30T08:14:25Z</time>
      </trkpt>
      <trkpt lat="41.3622180" lon="1.1585030">
        <ele>352.6</ele>
        <time>2021-09-30T08:14:26Z</time>
      </trkpt>
      <trkpt lat="41.3622500" lon="1.1584810">
        <ele>352.5</ele>
        <time>2021-09-30T08:14:27Z</time>
      </trkpt>
      <trkpt lat="41.3622810" lon="1.1584580">
        <ele>352.3</ele>
        <time>2021-09-30T08:14:28Z</time>
      </trkpt>
      <trkpt lat="41.3623120" lon="1.1584350">
        <ele>352.2</ele>
        <time>2021-09-30T08:14:29Z</time>
      </trkpt>
      <trkpt lat="41.3623430" lon="1.1584120">
        <ele>352.1</ele>
        <time>2021-09-30T08:14:30Z</time>
      </trkpt>
      <trkpt lat="41.3623740" lon="1.1583890">
        <ele>352.0</ele>
        <time>2021-09-30T08:14:31Z</time>
      </trkpt>
      <trkpt lat="41.3624020" lon="1.1583880">
        <ele>351.9</ele>
        <time>2021-09-30T08:14:32Z</time>
      </trkpt>
      <trkpt lat="41.3624290" lon="1.1583870">
        <ele>351.9</ele>
        <time>2021-09-30T08:14:33Z</time>
      </trkpt>
      <trkpt lat="41.3624570" lon="1.1583860">
        <ele>351.8</ele>
        <time>2021-09-30T08:14:34Z</time>
      </trkpt>
      <trkpt lat="41.3624850" lon="1.1583850">
        <ele>351.8</ele>
        <time>2021-09-30T08:14:35Z</time>
      </trkpt>
      <trkpt lat="41.3625120" lon="1.1583840">
        <ele>351.7</ele>
        <time>2021-09-30T08:14:36Z</time>
      </trkpt>
      <trkpt lat="41.3625400" lon="1.1583840">
        <ele>351.7</ele>
        <time>2021-09-30T08:14:37Z</time>
      </trkpt>
      <trkpt lat="41.3625670" lon="1.1583830">
        <ele>351.7</ele>
        <time>2021-09-30T08:14:38Z</time>
      </trkpt>
      <trkpt lat="41.3625950" lon="1.1583820">
        <ele>351.6</ele>
        <time>2021-09-30T08:14:39Z</time>
      </trkpt>
      <trkpt lat="41.3626230" lon="1.1583810">
        <ele>351.6</ele>
        <time>2021-09-30T08:14:40Z</time>
      </trkpt>
      <trkpt lat="41.3626500" lon="1.1583800">
        <ele>351.5</ele>
        <time>2021-09-30T08:14:41Z</time>
      </trkpt>
      <trkpt lat="41.3626780" lon="1.1583790">
        <ele>351.5</ele>
        <time>2021-09-30T08:14:42Z</time>
      </trkpt>
      <trkpt lat="41.3627030" lon="1.1583520">
        <ele>351.4</ele>
        <time>2021-09-30T08:14:43Z</time>
      </trkpt>
      <trkpt lat="41.3627280" lon="1.1583250">
        <ele>351.4</ele>
        <time>2021-09-30T08:14:44Z</time>
      </trkpt>
      <trkpt lat="41.3627530" lon="1.1582980">
        <ele>351.3</ele>
        <time>2021-09-30T08:14:45Z</time>
      </trkpt>
      <trkpt lat="41.3627780" lon="1.1582710">
        <ele>351.3</ele>
        <time>2021-09-30T08:14:46Z</time>
      </trkpt>
      <trkpt lat="41.3628030" lon="1.1582440">
        <ele>351.2</ele>
        <time>2021-09-30T08:14:47Z</time>
      </trkpt>
      <trkpt lat="41.3628280" lon="1.1582160">
        <ele>351.2</ele>
        <time>2021-09-30T08:14:48Z</time>
      </trkpt>
      <trkpt lat="41.3628530" lon="1.1581890">
        <ele>351.1</ele>
        <time>2021-09-30T08:14:49Z</time>
      </trkpt>
      <trkpt lat="41.3628780" lon="1.1581620">
        <ele>351.1</ele>
        <time>2021-09-30T08:14:50Z</time>
      </trkpt>
      <trkpt lat="41.3629030" lon="1.1581350">
        <ele>351.0</ele>
        <time>2021-09-30T08:14:51Z</time>
      </trkpt>
      <trkpt lat="41.3629280" lon="1.1581080">
        <ele>351.0</ele>
        <time>2021-09-30T08:14:52Z</time>
      </trkpt>
      <trkpt lat="41.3629710" lon="1.1581250">
        <ele>350.9</ele>
        <time>2021-09-30T08:14:53Z</time>
      </trkpt>
      <trkpt lat="41.3630150" lon="1.1581420">
        <ele>350.9</ele>
        <time>2021-09-30T08:14:54Z</time>
      </trkpt>
      <trkpt lat="41.3630580" lon="1.1581600">
        <ele>350.8</ele>
        <time>2021-09-30T08:14:55Z</time>
      </trkpt>
      <trkpt lat="41.3631010" lon="1.1581770">
        <ele>350.8</ele>
        <time>2021-09-30T08:14:56Z</time>
      </trkpt>
      <trkpt lat="41.3631450" lon="1.1581940">
        <ele>350.7</ele>
        <time>2021-09-30T08:14:57Z</time>
      </trkpt>
      <trkpt lat="41.3631880" lon="1.1582110">
        <ele>350.7</ele>
        <time>2021-09-30T08:14:58Z</time>
      </trkpt>
      <trkpt lat="41.3632310" lon="1.1582280">
        <ele>350.6</ele>
        <time>2021-09-30T08:14:59Z</time>
      </trkpt>
      <trkpt lat="41.3632740" lon="1.1582460">
        <ele>350.6</ele>
        <time>2021-09-30T08:15:00Z</time>
      </trkpt>
      <trkpt lat="41.3633180" lon="1.1582630">
        <ele>350.6</ele>
        <time>2021-09-30T08:15:01Z</time>
      </trkpt>
      <trkpt lat="41.3633610" lon="1.1582800">
        <ele>350.5</ele>
        <time>2021-09-30T08:15:02Z</time>
      </trkpt>
      <trkpt lat="41.3633890" lon="1.1582670">
        <ele>350.4</ele>
        <time>2021-09-30T08:15:03Z</time>
      </trkpt>
      <trkpt lat="41.3634170" lon="1.1582540">
        <ele>350.4</ele>
        <time>2021-09-30T08:15:04Z</time>
      </trkpt>
      <trkpt lat="41.3634450" lon="1.1582410">
        <ele>350.3</ele>
        <time>2021-09-30T08:15:05Z</time>
      </trkpt>
      <trkpt lat="41.3634730" lon="1.1582280">
        <ele>350.3</ele>
        <time>2021-09-30T08:15:06Z</time>
      </trkpt>
      <trkpt lat="41.3635010" lon="1.1582150">
        <ele>350.3</ele>
        <time>2021-09-30T08:15:07Z</time>
      </trkpt>
      <trkpt lat="41.3635290" lon="1.1582020">
        <ele>350.2</ele>
        <time>2021-09-30T08:15:08Z</time>
      </trkpt>
      <trkpt lat="41.3635570" lon="1.1581890">
        <ele>350.2</ele>
        <time>2021-09-30T08:15:09Z</time>
      </trkpt>
      <trkpt lat="41.3635850" lon="1.1581760">
        <ele>350.1</ele>
        <time>2021-09-30T08:15:10Z</time>
      </trkpt>
      <trkpt lat="41.3636130" lon="1.1581630">
        <ele>350.1</ele>
        <time>2021-09-30T08:15:11Z</time>
      </trkpt>
      <trkpt lat="41.3636450" lon="1.1581540">
        <ele>350.1</ele>
        <time>2021-09-30T08:15:12Z</time>
      </trkpt>
      <trkpt lat="41.3636770" lon="1.1581460">
        <ele>350.0</ele>
        <time>2021-09-30T08:15:13Z</time>
      </trkpt>
      <trkpt lat="41.3637100" lon="1.1581370">
        <ele>350.0</ele>
        <time>2021-09-30T08:15:14Z</time>
      </trkpt>
      <trkpt lat="41.3637420" lon="1.1581280">
        <ele>350.0</ele>
        <time>2021-09-30T08:15:15Z</time>
      </trkpt>
      <trkpt lat="41.3637740" lon="1.1581200">
        <ele>350.0</ele>
        <time>2021-09-30T08:15:16Z</time>
      </trkpt>
      <trkpt lat="41.3638060" lon="1.1581110">
        <ele>350.0</ele>
        <time>2021-09-30T08:15:17Z</time>
      </trkpt>
      <trkpt lat="41.3638390" lon="1.1581020">
        <ele>350.1</ele>
        <time>2021-09-30T08:15:18Z</time>
      </trkpt>
      <trkpt lat="41.3638710" lon="1.1580940">
        <ele>350.1</ele>
        <time>2021-09-30T08:15:19Z</time>
      </trkpt>
      <trkpt lat="41.3639030" lon="1.1580850">
        <ele>350.2</ele>
        <time>2021-09-30T08:15:20Z</time>
      </trkpt>
      <trkpt lat="41.3639190" lon="1.1580750">
        <ele>350.2</ele>
        <time>2021-09-30T08:15:21Z</time>
      </trkpt>
      <trkpt lat="41.3639350" lon="1.1580660">
        <ele>350.3</ele>
        <time>2021-09-30T08:15:22Z</time>
      </trkpt>
      <trkpt lat="41.3639510" lon="1.1580560">
        <ele>350.3</ele>
        <time>2021-09-30T08:15:23Z</time>
      </trkpt>
      <trkpt lat="41.3639670" lon="1.1580460">
        <ele>350.4</ele>
        <time>2021-09-30T08:15:24Z</time>
      </trkpt>
      <trkpt lat="41.3639830" lon="1.1580370">
        <ele>350.4</ele>
        <time>2021-09-30T08:15:25Z</time>
      </trkpt>
      <trkpt lat="41.3639980" lon="1.1580270">
        <ele>350.5</ele>
        <time>2021-09-30T08:15:26Z</time>
      </trkpt>
      <trkpt lat="41.3640140" lon="1.1580170">
        <ele>350.5</ele>
        <time>2021-09-30T08:15:27Z</time>
      </trkpt>
      <trkpt lat="41.3640300" lon="1.1580070">
        <ele>351.1</ele>
        <time>2021-09-30T08:15:28Z</time>
      </trkpt>
      <trkpt lat="41.3640460" lon="1.1579980">
        <ele>351.2</ele>
        <time>2021-09-30T08:15:29Z</time>
      </trkpt>
      <trkpt lat="41.3640620" lon="1.1579880">
        <ele>351.2</ele>
        <time>2021-09-30T08:15:30Z</time>
      </trkpt>
      <trkpt lat="41.3640880" lon="1.1579770">
        <ele>351.3</ele>
        <time>2021-09-30T08:15:31Z</time>
      </trkpt>
      <trkpt lat="41.3641150" lon="1.1579650">
        <ele>351.4</ele>
        <time>2021-09-30T08:15:32Z</time>
      </trkpt>
      <trkpt lat="41.3641410" lon="1.1579540">
        <ele>351.5</ele>
        <time>2021-09-30T08:15:33Z</time>
      </trkpt>
      <trkpt lat="41.3641670" lon="1.1579430">
        <ele>351.6</ele>
        <time>2021-09-30T08:15:34Z</time>
      </trkpt>
      <trkpt lat="41.3641940" lon="1.1579320">
        <ele>351.7</ele>
        <time>2021-09-30T08:15:35Z</time>
      </trkpt>
      <trkpt lat="41.3642200" lon="1.1579200">
        <ele>351.7</ele>
        <time>2021-09-30T08:15:36Z</time>
      </trkpt>
      <trkpt lat="41.3642460" lon="1.1579090">
        <ele>351.8</ele>
        <time>2021-09-30T08:15:37Z</time>
      </trkpt>
      <trkpt lat="41.3642720" lon="1.1578980">
        <ele>351.9</ele>
        <time>2021-09-30T08:15:38Z</time>
      </trkpt>
      <trkpt lat="41.3642990" lon="1.1578860">
        <ele>352.0</ele>
        <time>2021-09-30T08:15:39Z</time>
      </trkpt>
      <trkpt lat="41.3643250" lon="1.1578750">
        <ele>352.1</ele>
        <time>2021-09-30T08:15:40Z</time>
      </trkpt>
      <trkpt lat="41.3643500" lon="1.1578660">
        <ele>352.2</ele>
        <time>2021-09-30T08:15:41Z</time>
      </trkpt>
      <trkpt lat="41.3643740" lon="1.1578570">
        <ele>352.3</ele>
        <time>2021-09-30T08:15:42Z</time>
      </trkpt>
      <trkpt lat="41.3643990" lon="1.1578480">
        <ele>352.5</ele>
        <time>2021-09-30T08:15:43Z</time>
      </trkpt>
      <trkpt lat="41.3644230" lon="1.1578390">
        <ele>352.6</ele>
        <time>2021-09-30T08:15:44Z</time>
      </trkpt>
      <trkpt lat="41.3644480" lon="1.1578300">
        <ele>352.8</ele>
        <time>2021-09-30T08:15:45Z</time>
      </trkpt>
      <trkpt lat="41.3644720" lon="1.1578210">
        <ele>352.9</ele>
        <time>2021-09-30T08:15:46Z</time>
      </trkpt>
      <trkpt lat="41.3644970" lon="1.1578120">
        <ele>353.1</ele>
        <time>2021-09-30T08:15:47Z</time>
      </trkpt>
      <trkpt lat="41.3645210" lon="1.1578030">
        <ele>353.3</ele>
        <time>2021-09-30T08:15:48Z</time>
      </trkpt>
      <trkpt lat="41.3645460" lon="1.1577940">
        <ele>353.5</ele>
        <time>2021-09-30T08:15:49Z</time>
      </trkpt>
      <trkpt lat="41.3645700" lon="1.1577910">
        <ele>353.7</ele>
        <time>2021-09-30T08:15:50Z</time>
      </trkpt>
      <trkpt lat="41.3645940" lon="1.1577880">
        <ele>353.9</ele>
        <time>2021-09-30T08:15:51Z</time>
      </trkpt>
      <trkpt lat="41.3646190" lon="1.1577840">
        <ele>354.1</ele>
        <time>2021-09-30T08:15:52Z</time>
      </trkpt>
      <trkpt lat="41.3646430" lon="1.1577810">
        <ele>354.3</ele>
        <time>2021-09-30T08:15:53Z</time>
      </trkpt>
      <trkpt lat="41.3646670" lon="1.1577780">
        <ele>354.6</ele>
        <time>2021-09-30T08:15:54Z</time>
      </trkpt>
      <trkpt lat="41.3646910" lon="1.1577750">
        <ele>354.8</ele>
        <time>2021-09-30T08:15:55Z</time>
      </trkpt>
      <trkpt lat="41.3647160" lon="1.1577710">
        <ele>355.0</ele>
        <time>2021-09-30T08:15:56Z</time>
      </trkpt>
      <trkpt lat="41.3647400" lon="1.1577680">
        <ele>355.3</ele>
        <time>2021-09-30T08:15:57Z</time>
      </trkpt>
      <trkpt lat="41.3647640" lon="1.1577650">
        <ele>355.5</ele>
        <time>2021-09-30T08:15:58Z</time>
      </trkpt>
      <trkpt lat="41.3647830" lon="1.1577710">
        <ele>355.7</ele>
        <time>2021-09-30T08:15:59Z</time>
      </trkpt>
      <trkpt lat="41.3648030" lon="1.1577770">
        <ele>355.9</ele>
        <time>2021-09-30T08:16:00Z</time>
      </trkpt>
      <trkpt lat="41.3648220" lon="1.1577830">
        <ele>356.1</ele>
        <time>2021-09-30T08:16:01Z</time>
      </trkpt>
      <trkpt lat="41.3648410" lon="1.1577890">
        <ele>356.2</ele>
        <time>2021-09-30T08:16:02Z</time>
      </trkpt>
      <trkpt lat="41.3648610" lon="1.1577950">
        <ele>356.4</ele>
        <time>2021-09-30T08:16:03Z</time>
      </trkpt>
      <trkpt lat="41.3648800" lon="1.1578000">
        <ele>356.5</ele>
        <time>2021-09-30T08:16:04Z</time>
      </trkpt>
      <trkpt lat="41.3649000" lon="1.1578060">
        <ele>356.7</ele>
        <time>2021-09-30T08:16:05Z</time>
      </trkpt>
      <trkpt lat="41.3649190" lon="1.1578120">
        <ele>356.8</ele>
        <time>2021-09-30T08:16:06Z</time>
      </trkpt>
      <trkpt lat="41.3649380" lon="1.1578180">
        <ele>356.9</ele>
        <time>2021-09-30T08:16:07Z</time>
      </trkpt>
      <trkpt lat="41.3649580" lon="1.1578240">
        <ele>357.0</ele>
        <time>2021-09-30T08:16:08Z</time>
      </trkpt>
      <trkpt lat="41.3649770" lon="1.1578300">
        <ele>357.1</ele>
        <time>2021-09-30T08:16:09Z</time>
      </trkpt>
      <trkpt lat="41.3650000" lon="1.1578640">
        <ele>357.3</ele>
        <time>2021-09-30T08:16:10Z</time>
      </trkpt>
      <trkpt lat="41.3650230" lon="1.1578990">
        <ele>357.4</ele>
        <time>2021-09-30T08:16:11Z</time>
      </trkpt>
      <trkpt lat="41.3650470" lon="1.1579330">
        <ele>357.5</ele>
        <time>2021-09-30T08:16:12Z</time>
      </trkpt>
      <trkpt lat="41.3650700" lon="1.1579670">
        <ele>357.6</ele>
        <time>2021-09-30T08:16:13Z</time>
      </trkpt>
      <trkpt lat="41.3650930" lon="1.1580020">
        <ele>357.7</ele>
        <time>2021-09-30T08:16:14Z</time>
      </trkpt>
      <trkpt lat="41.3651160" lon="1.1580360">
        <ele>357.7</ele>
        <time>2021-09-30T08:16:15Z</time>
      </trkpt>
      <trkpt lat="41.3651400" lon="1.1580700">
        <ele>357.8</ele>
        <time>2021-09-30T08:16:16Z</time>
      </trkpt>
      <trkpt lat="41.3651630" lon="1.1581050">
        <ele>357.8</ele>
        <time>2021-09-30T08:16:17Z</time>
      </trkpt>
      <trkpt lat="41.3651860" lon="1.1581390">
        <ele>357.9</ele>
        <time>2021-09-30T08:16:18Z</time>
      </trkpt>
      <trkpt lat="41.3652080" lon="1.1581490">
        <ele>358.0</ele>
        <time>2021-09-30T08:16:19Z</time>
      </trkpt>
      <trkpt lat="41.3652300" lon="1.1581580">
        <ele>358.0</ele>
        <time>2021-09-30T08:16:20Z</time>
      </trkpt>
      <trkpt lat="41.3652520" lon="1.1581680">
        <ele>358.0</ele>
        <time>2021-09-30T08:16:21Z</time>
      </trkpt>
      <trkpt lat="41.3652740" lon="1.1581780">
        <ele>358.0</ele>
        <time>2021-09-30T08:16:22Z</time>
      </trkpt>
      <trkpt lat="41.3652960" lon="1.1581880">
        <ele>358.1</ele>
        <time>2021-09-30T08:16:23Z</time>
      </trkpt>
      <trkpt lat="41.3653190" lon="1.1581970">
        <ele>358.1</ele>
        <time>2021-09-30T08:16:24Z</time>
      </trkpt>
      <trkpt lat="41.3653410" lon="1.1582070">
        <ele>358.1</ele>
        <time>2021-09-30T08:16:25Z</time>
      </trkpt>
      <trkpt lat="41.3653630" lon="1.1582170">
        <ele>358.2</ele>
        <time>2021-09-30T08:16:26Z</time>
      </trkpt>
      <trkpt lat="41.3653850" lon="1.1582270">
        <ele>358.2</ele>
        <time>2021-09-30T08:16:27Z</time>
      </trkpt>
      <trkpt lat="41.3654070" lon="1.1582360">
        <ele>358.2</ele>
        <time>2021-09-30T08:16:28Z</time>
      </trkpt>
      <trkpt lat="41.3654290" lon="1.1582460">
        <ele>358.3</ele>
        <time>2021-09-30T08:16:29Z</time>
      </trkpt>
      <trkpt lat="41.3654570" lon="1.1582340">
        <ele>358.3</ele>
        <time>2021-09-30T08:16:30Z</time>
      </trkpt>
      <trkpt lat="41.3654840" lon="1.1582220">
        <ele>358.4</ele>
        <time>2021-09-30T08:16:31Z</time>
      </trkpt>
      <trkpt lat="41.3655120" lon="1.1582110">
        <ele>358.4</ele>
        <time>2021-09-30T08:16:32Z</time>
      </trkpt>
      <trkpt lat="41.3655400" lon="1.1581990">
        <ele>358.4</ele>
        <time>2021-09-30T08:16:33Z</time>
      </trkpt>
      <trkpt lat="41.3655680" lon="1.1581870">
        <ele>358.5</ele>
        <time>2021-09-30T08:16:34Z</time>
      </trkpt>
      <trkpt lat="41.3655950" lon="1.1581750">
        <ele>358.5</ele>
        <time>2021-09-30T08:16:35Z</time>
      </trkpt>
      <trkpt lat="41.3656230" lon="1.1581630">
        <ele>358.5</ele>
        <time>2021-09-30T08:16:36Z</time>
      </trkpt>
      <trkpt lat="41.3656510" lon="1.1581520">
        <ele>358.5</ele>
        <time>2021-09-30T08:16:37Z</time>
      </trkpt>
      <trkpt lat="41.3656780" lon="1.1581400">
        <ele>358.5</ele>
        <time>2021-09-30T08:16:38Z</time>
      </trkpt>
      <trkpt lat="41.3657060" lon="1.1581280">
        <ele>358.5</ele>
        <time>2021-09-30T08:16:39Z</time>
      </trkpt>
      <trkpt lat="41.3657400" lon="1.1581280">
        <ele>358.5</ele>
        <time>2021-09-30T08:16:40Z</time>
      </trkpt>
      <trkpt lat="41.3657730" lon="1.1581280">
        <ele>358.5</ele>
        <time>2021-09-30T08:16:41Z</time>
      </trkpt>
      <trkpt lat="41.3658070" lon="1.1581280">
        <ele>358.5</ele>
        <time>2021-09-30T08:16:42Z</time>
      </trkpt>
      <trkpt lat="41.3658410" lon="1.1581280">
        <ele>358.5</ele>
        <time>2021-09-30T08:16:43Z</time>
      </trkpt>
      <trkpt lat="41.3658750" lon="1.1581280">
        <ele>358.5</ele>
        <time>2021-09-30T08:16:44Z</time>
      </trkpt>
      <trkpt lat="41.3659080" lon="1.1581270">
        <ele>358.5</ele>
        <time>2021-09-30T08:16:45Z</time>
      </trkpt>
      <trkpt lat="41.3659420" lon="1.1581270">
        <ele>358.5</ele>
        <time>2021-09-30T08:16:46Z</time>
      </trkpt>
      <trkpt lat="41.3659760" lon="1.1581270">
        <ele>358.5</ele>
        <time>2021-09-30T08:16:47Z</time>
      </trkpt>
      <trkpt lat="41.3660090" lon="1.1581270">
        <ele>358.5</ele>
        <time>2021-09-30T08:16:48Z</time>
      </trkpt>
      <trkpt lat="41.3660430" lon="1.1581270">
        <ele>358.5</ele>
        <time>2021-09-30T08:16:49Z</time>
      </trkpt>
      <trkpt lat="41.3660760" lon="1.1581460">
        <ele>358.5</ele>
        <time>2021-09-30T08:16:50Z</time>
      </trkpt>
      <trkpt lat="41.3661090" lon="1.1581650">
        <ele>358.5</ele>
        <time>2021-09-30T08:16:51Z</time>
      </trkpt>
      <trkpt lat="41.3661420" lon="1.1581830">
        <ele>358.5</ele>
        <time>2021-09-30T08:16:52Z</time>
      </trkpt>
      <trkpt lat="41.3661750" lon="1.1582020">
        <ele>358.5</ele>
        <time>2021-09-30T08:16:53Z</time>
      </trkpt>
      <trkpt lat="41.3662070" lon="1.1582210">
        <ele>358.5</ele>
        <time>2021-09-30T08:16:54Z</time>
      </trkpt>
      <trkpt lat="41.3662400" lon="1.1582400">
        <ele>358.5</ele>
        <time>2021-09-30T08:16:55Z</time>
      </trkpt>
      <trkpt lat="41.3662730" lon="1.1582580">
        <ele>358.5</ele>
        <time>2021-09-30T08:16:56Z</time>
      </trkpt>
      <trkpt lat="41.3663060" lon="1.1582770">
        <ele>358.6</ele>
        <time>2021-09-30T08:16:57Z</time>
      </trkpt>
      <trkpt lat="41.3663390" lon="1.1582960">
        <ele>358.6</ele>
        <time>2021-09-30T08:16:58Z</time>
      </trkpt>
      <trkpt lat="41.3663720" lon="1.1582930">
        <ele>358.7</ele>
        <time>2021-09-30T08:16:59Z</time>
      </trkpt>
      <trkpt lat="41.3664060" lon="1.1582890">
        <ele>358.7</ele>
        <time>2021-09-30T08:17:00Z</time>
      </trkpt>
      <trkpt lat="41.3664390" lon="1.1582860">
        <ele>358.8</ele>
        <time>2021-09-30T08:17:01Z</time>
      </trkpt>
      <trkpt lat="41.3664720" lon="1.1582830">
        <ele>358.9</ele>
        <time>2021-09-30T08:17:02Z</time>
      </trkpt>
      <trkpt lat="41.3665050" lon="1.1582800">
        <ele>358.9</ele>
        <time>2021-09-30T08:17:03Z</time>
      </trkpt>
      <trkpt lat="41.3665390" lon="1.1582760">
        <ele>359.0</ele>
        <time>2021-09-30T08:17:04Z</time>
      </trkpt>
      <trkpt lat="41.3665720" lon="1.1582730">
        <ele>359.0</ele>
        <time>2021-09-30T08:17:05Z</time>
      </trkpt>
      <trkpt lat="41.3666050" lon="1.1582700">
        <ele>359.1</ele>
        <time>2021-09-30T08:17:06Z</time>
      </trkpt>
      <trkpt lat="41.3666380" lon="1.1582670">
        <ele>359.2</ele>
        <time>2021-09-30T08:17:07Z</time>
      </trkpt>
      <trkpt lat="41.3666720" lon="1.1582630">
        <ele>359.3</ele>
        <time>2021-09-30T08:17:08Z</time>
      </trkpt>
      <trkpt lat="41.3667050" lon="1.1582600">
        <ele>359.3</ele>
        <time>2021-09-30T08:17:09Z</time>
      </trkpt>
      <trkpt lat="41.3667350" lon="1.1582590">
        <ele>359.4</ele>
        <time>2021-09-30T08:17:10Z</time>
      </trkpt>
      <trkpt lat="41.3667640" lon="1.1582570">
        <ele>359.5</ele>
        <time>2021-09-30T08:17:11Z</time>
      </trkpt>
      <trkpt lat="41.3667940" lon="1.1582560">
        <ele>359.6</ele>
        <time>2021-09-30T08:17:12Z</time>
      </trkpt>
      <trkpt lat="41.3668230" lon="1.1582540">
        <ele>359.6</ele>
        <time>2021-09-30T08:17:13Z</time>
      </trkpt>
      <trkpt lat="41.3668530" lon="1.1582530">
        <ele>359.7</ele>
        <time>2021-09-30T08:17:14Z</time>
      </trkpt>
      <trkpt lat="41.3668820" lon="1.1582520">
        <ele>359.8</ele>
        <time>2021-09-30T08:17:15Z</time>
      </trkpt>
      <trkpt lat="41.3669120" lon="1.1582500">
        <ele>359.9</ele>
        <time>2021-09-30T08:17:16Z</time>
      </trkpt>
      <trkpt lat="41.3669410" lon="1.1582490">
        <ele>359.9</ele>
        <time>2021-09-30T08:17:17Z</time>
      </trkpt>
      <trkpt lat="41.3669710" lon="1.1582470">
        <ele>360.0</ele>
        <time>2021-09-30T08:17:18Z</time>
      </trkpt>
      <trkpt lat="41.3670000" lon="1.1582460">
        <ele>360.0</ele>
        <time>2021-09-30T08:17:19Z</time>
      </trkpt>
      <trkpt lat="41.3670290" lon="1.1582470">
        <ele>360.1</ele>
        <time>2021-09-30T08:17:20Z</time>
      </trkpt>
      <trkpt lat="41.3670580" lon="1.1582470">
        <ele>360.1</ele>
        <time>2021-09-30T08:17:21Z</time>
      </trkpt>
      <trkpt lat="41.3670870" lon="1.1582480">
        <ele>360.1</ele>
        <time>2021-09-30T08:17:22Z</time>
      </trkpt>
      <trkpt lat="41.3671160" lon="1.1582490">
        <ele>360.2</ele>
        <time>2021-09-30T08:17:23Z</time>
      </trkpt>
      <trkpt lat="41.3671460" lon="1.1582490">
        <ele>360.2</ele>
        <time>2021-09-30T08:17:24Z</time>
      </trkpt>
      <trkpt lat="41.3671750" lon="1.1582500">
        <ele>360.2</ele>
        <time>2021-09-30T08:17:25Z</time>
      </trkpt>
      <trkpt lat="41.3672040" lon="1.1582510">
        <ele>360.2</ele>
        <time>2021-09-30T08:17:26Z</time>
      </trkpt>
      <trkpt lat="41.3672330" lon="1.1582510">
        <ele>360.3</ele>
        <time>2021-09-30T08:17:27Z</time>
      </trkpt>
      <trkpt lat="41.3672620" lon="1.1582520">
        <ele>360.3</ele>
        <time>2021-09-30T08:17:28Z</time>
      </trkpt>
      <trkpt lat="41.3672910" lon="1.1582590">
        <ele>360.3</ele>
        <time>2021-09-30T08:17:29Z</time>
      </trkpt>
      <trkpt lat="41.3673200" lon="1.1582670">
        <ele>360.3</ele>
        <time>2021-09-30T08:17:30Z</time>
      </trkpt>
      <trkpt lat="41.3673490" lon="1.1582740">
        <ele>360.2</ele>
        <time>2021-09-30T08:17:31Z</time>
      </trkpt>
      <trkpt lat="41.3673780" lon="1.1582820">
        <ele>360.2</ele>
        <time>2021-09-30T08:17:32Z</time>
      </trkpt>
      <trkpt lat="41.3674070" lon="1.1582890">
        <ele>360.2</ele>
        <time>2021-09-30T08:17:33Z</time>
      </trkpt>
      <trkpt lat="41.3674360" lon="1.1582970">
        <ele>360.2</ele>
        <time>2021-09-30T08:17:34Z</time>
      </trkpt>
      <trkpt lat="41.3674650" lon="1.1583040">
        <ele>360.2</ele>
        <time>2021-09-30T08:17:35Z</time>
      </trkpt>
      <trkpt lat="41.3674940" lon="1.1583120">
        <ele>360.2</ele>
        <time>2021-09-30T08:17:36Z</time>
      </trkpt>
      <trkpt lat="41.3675230" lon="1.1583190">
        <ele>360.2</ele>
        <time>2021-09-30T08:17:37Z</time>
      </trkpt>
      <trkpt lat="41.3675610" lon="1.1583200">
        <ele>360.2</ele>
        <time>2021-09-30T08:17:38Z</time>
      </trkpt>
      <trkpt lat="41.3675980" lon="1.1583210">
        <ele>360.2</ele>
        <time>2021-09-30T08:17:39Z</time>
      </trkpt>
      <trkpt lat="41.3676360" lon="1.1583210">
        <ele>360.2</ele>
        <time>2021-09-30T08:17:40Z</time>
      </trkpt>
      <trkpt lat="41.3676740" lon="1.1583220">
        <ele>360.3</ele>
        <time>2021-09-30T08:17:41Z</time>
      </trkpt>
      <trkpt lat="41.3677110" lon="1.1583230">
        <ele>360.3</ele>
        <time>2021-09-30T08:17:42Z</time>
      </trkpt>
      <trkpt lat="41.3677490" lon="1.1583240">
        <ele>360.3</ele>
        <time>2021-09-30T08:17:43Z</time>
      </trkpt>
      <trkpt lat="41.3677870" lon="1.1583240">
        <ele>360.3</ele>
        <time>2021-09-30T08:17:44Z</time>
      </trkpt>
      <trkpt lat="41.3678240" lon="1.1583250">
        <ele>360.3</ele>
        <time>2021-09-30T08:17:45Z</time>
      </trkpt>
      <trkpt lat="41.3678620" lon="1.1583260">
        <ele>360.3</ele>
        <time>2021-09-30T08:17:46Z</time>
      </trkpt>
      <trkpt lat="41.3678910" lon="1.1583320">
        <ele>360.3</ele>
        <time>2021-09-30T08:17:47Z</time>
      </trkpt>
      <trkpt lat="41.3679190" lon="1.1583370">
        <ele>360.3</ele>
        <time>2021-09-30T08:17:48Z</time>
      </trkpt>
      <trkpt lat="41.3679480" lon="1.1583430">
        <ele>360.3</ele>
        <time>2021-09-30T08:17:49Z</time>
      </trkpt>
      <trkpt lat="41.3679770" lon="1.1583490">
        <ele>360.3</ele>
        <time>2021-09-30T08:17:50Z</time>
      </trkpt>
      <trkpt lat="41.3680050" lon="1.1583540">
        <ele>360.4</ele>
        <time>2021-09-30T08:17:51Z</time>
      </trkpt>
      <trkpt lat="41.3680340" lon="1.1583600">
        <ele>360.4</ele>
        <time>2021-09-30T08:17:52Z</time>
      </trkpt>
      <trkpt lat="41.3680620" lon="1.1583650">
        <ele>360.4</ele>
        <time>2021-09-30T08:17:53Z</time>
      </trkpt>
      <trkpt lat="41.3680910" lon="1.1583710">
        <ele>360.4</ele>
        <time>2021-09-30T08:17:54Z</time>
      </trkpt>
      <trkpt lat="41.3681200" lon="1.1583770">
        <ele>360.4</ele>
        <time>2021-09-30T08:17:55Z</time>
      </trkpt>
      <trkpt lat="41.3681480" lon="1.1583820">
        <ele>360.5</ele>
        <time>2021-09-30T08:17:56Z</time>
      </trkpt>
      <trkpt lat="41.3681770" lon="1.1583880">
        <ele>360.5</ele>
        <time>2021-09-30T08:17:57Z</time>
      </trkpt>
      <trkpt lat="41.3682100" lon="1.1583840">
        <ele>360.5</ele>
        <time>2021-09-30T08:17:58Z</time>
      </trkpt>
      <trkpt lat="41.3682420" lon="1.1583790">
        <ele>360.6</ele>
        <time>2021-09-30T08:17:59Z</time>
      </trkpt>
      <trkpt lat="41.3682750" lon="1.1583750">
        <ele>360.6</ele>
        <time>2021-09-30T08:18:00Z</time>
      </trkpt>
      <trkpt lat="41.3683080" lon="1.1583700">
        <ele>360.7</ele>
        <time>2021-09-30T08:18:01Z</time>
      </trkpt>
      <trkpt lat="41.3683400" lon="1.1583660">
        <ele>360.7</ele>
        <time>2021-09-30T08:18:02Z</time>
      </trkpt>
      <trkpt lat="41.3683730" lon="1.1583610">
        <ele>360.8</ele>
        <time>2021-09-30T08:18:03Z</time>
      </trkpt>
      <trkpt lat="41.3684060" lon="1.1583570">
        <ele>360.8</ele>
        <time>2021-09-30T08:18:04Z</time>
      </trkpt>
      <trkpt lat="41.3684380" lon="1.1583520">
        <ele>360.9</ele>
        <time>2021-09-30T08:18:05Z</time>
      </trkpt>
      <trkpt lat="41.3684710" lon="1.1583480">
        <ele>361.0</ele>
        <time>2021-09-30T08:18:06Z</time>
      </trkpt>
      <trkpt lat="41.3684990" lon="1.1583430">
        <ele>361.0</ele>
        <time>2021-09-30T08:18:07Z</time>
      </trkpt>
      <trkpt lat="41.3685270" lon="1.1583380">
        <ele>361.1</ele>
        <time>2021-09-30T08:18:08Z</time>
      </trkpt>
      <trkpt lat="41.3685550" lon="1.1583330">
        <ele>361.1</ele>
        <time>2021-09-30T08:18:09Z</time>
      </trkpt>
      <trkpt lat="41.3685830" lon="1.1583280">
        <ele>361.2</ele>
        <time>2021-09-30T08:18:10Z</time>
      </trkpt>
      <trkpt lat="41.3686120" lon="1.1583240">
        <ele>361.2</ele>
        <time>2021-09-30T08:18:11Z</time>
      </trkpt>
      <trkpt lat="41.3686400" lon="1.1583190">
        <ele>361.3</ele>
        <time>2021-09-30T08:18:12Z</time>
      </trkpt>
      <trkpt lat="41.3686680" lon="1.1583140">
        <ele>361.4</ele>
        <time>2021-09-30T08:18:13Z</time>
      </trkpt>
      <trkpt lat="41.3686960" lon="1.1583090">
        <ele>361.4</ele>
        <time>2021-09-30T08:18:14Z</time>
      </trkpt>
      <trkpt lat="41.3687240" lon="1.1583040">
        <ele>361.5</ele>
        <time>2021-09-30T08:18:15Z</time>
      </trkpt>
      <trkpt lat="41.3687520" lon="1.1582990">
        <ele>361.6</ele>
        <time>2021-09-30T08:18:16Z</time>
      </trkpt>
      <trkpt lat="41.3687850" lon="1.1582950">
        <ele>361.6</ele>
        <time>2021-09-30T08:18:17Z</time>
      </trkpt>
      <trkpt lat="41.3688170" lon="1.1582900">
        <ele>361.6</ele>
        <time>2021-09-30T08:18:18Z</time>
      </trkpt>
      <trkpt lat="41.3688500" lon="1.1582860">
        <ele>361.6</ele>
        <time>2021-09-30T08:18:19Z</time>
      </trkpt>
      <trkpt lat="41.3688830" lon="1.1582820">
        <ele>361.6</ele>
        <time>2021-09-30T08:18:20Z</time>
      </trkpt>
      <trkpt lat="41.3689150" lon="1.1582770">
        <ele>361.6</ele>
        <time>2021-09-30T08:18:21Z</time>
      </trkpt>
      <trkpt lat="41.3689480" lon="1.1582730">
        <ele>361.6</ele>
        <time>2021-09-30T08:18:22Z</time>
      </trkpt>
      <trkpt lat="41.3689810" lon="1.1582690">
        <ele>361.5</ele>
        <time>2021-09-30T08:18:23Z</time>
      </trkpt>
      <trkpt lat="41.3690130" lon="1.1582640">
        <ele>361.5</ele>
        <time>2021-09-30T08:18:24Z</time>
      </trkpt>
      <trkpt lat="41.3690460" lon="1.1582600">
        <ele>361.5</ele>
        <time>2021-09-30T08:18:25Z</time>
      </trkpt>
      <trkpt lat="41.3690780" lon="1.1582700">
        <ele>361.5</ele>
        <time>2021-09-30T08:18:26Z</time>
      </trkpt>
      <trkpt lat="41.3691090" lon="1.1582800">
        <ele>361.5</ele>
        <time>2021-09-30T08:18:27Z</time>
      </trkpt>
      <trkpt lat="41.3691410" lon="1.1582900">
        <ele>361.5</ele>
        <time>2021-09-30T08:18:28Z</time>
      </trkpt>
      <trkpt lat="41.3691720" lon="1.1583000">
        <ele>361.5</ele>
        <time>2021-09-30T08:18:29Z</time>
      </trkpt>
      <trkpt lat="41.3692040" lon="1.1583090">
        <ele>361.5</ele>
        <time>2021-09-30T08:18:30Z</time>
      </trkpt>
      <trkpt lat="41.3692350" lon="1.1583190">
        <ele>361.5</ele>
        <time>2021-09-30T08:18:31Z</time>
      </trkpt>
      <trkpt lat="41.3692670" lon="1.1583290">
        <ele>361.5</ele>
        <time>2021-09-30T08:18:32Z</time>
      </trkpt>
      <trkpt lat="41.3692980" lon="1.1583390">
        <ele>361.5</ele>
        <time>2021-09-30T08:18:33Z</time>
      </trkpt>
      <trkpt lat="41.3693300" lon="1.1583490">
        <ele>361.5</ele>
        <time>2021-09-30T08:18:34Z</time>
      </trkpt>
      <trkpt lat="41.3693610" lon="1.1583590">
        <ele>361.5</ele>
        <time>2021-09-30T08:18:35Z</time>
      </trkpt>
      <trkpt lat="41.3693960" lon="1.1583550">
        <ele>361.5</ele>
        <time>2021-09-30T08:18:36Z</time>
      </trkpt>
      <trkpt lat="41.3694310" lon="1.1583510">
        <ele>361.5</ele>
        <time>2021-09-30T08:18:37Z</time>
      </trkpt>
      <trkpt lat="41.3694670" lon="1.1583460">
        <ele>361.5</ele>
        <time>2021-09-30T08:18:38Z</time>
      </trkpt>
      <trkpt lat="41.3695020" lon="1.1583420">
        <ele>361.5</ele>
        <time>2021-09-30T08:18:39Z</time>
      </trkpt>
      <trkpt lat="41.3695370" lon="1.1583380">
        <ele>361.5</ele>
        <time>2021-09-30T08:18:40Z</time>
      </trkpt>
      <trkpt lat="41.3695720" lon="1.1583340">
        <ele>361.5</ele>
        <time>2021-09-30T08:18:41Z</time>
      </trkpt>
      <trkpt lat="41.3696070" lon="1.1583300">
        <ele>361.6</ele>
        <time>2021-09-30T08:18:42Z</time>
      </trkpt>
      <trkpt lat="41.3696430" lon="1.1583250">
        <ele>361.6</ele>
        <time>2021-09-30T08:18:43Z</time>
      </trkpt>
      <trkpt lat="41.3696780" lon="1.1583210">
        <ele>361.6</ele>
        <time>2021-09-30T08:18:44Z</time>
      </trkpt>
      <trkpt lat="41.3697130" lon="1.1583170">
        <ele>361.6</ele>
        <time>2021-09-30T08:18:45Z</time>
      </trkpt>
      <trkpt lat="41.3697390" lon="1.1583210">
        <ele>361.7</ele>
        <time>2021-09-30T08:18:46Z</time>
      </trkpt>
      <trkpt lat="41.3697650" lon="1.1583250">
        <ele>361.7</ele>
        <time>2021-09-30T08:18:47Z</time>
      </trkpt>
      <trkpt lat="41.3697910" lon="1.1583290">
        <ele>361.7</ele>
        <time>2021-09-30T08:18:48Z</time>
      </trkpt>
      <trkpt lat="41.3698170" lon="1.1583330">
        <ele>361.7</ele>
        <time>2021-09-30T08:18:49Z</time>
      </trkpt>
      <trkpt lat="41.3698430" lon="1.1583360">
        <ele>361.7</ele>
        <time>2021-09-30T08:18:50Z</time>
      </trkpt>
      <trkpt lat="41.3698690" lon="1.1583400">
        <ele>361.7</ele>
        <time>2021-09-30T08:18:51Z</time>
      </trkpt>
      <trkpt lat="41.3698950" lon="1.1583440">
        <ele>361.7</ele>
        <time>2021-09-30T08:18:52Z</time>
      </trkpt>
      <trkpt lat="41.3699210" lon="1.1583480">
        <ele>361.7</ele>
        <time>2021-09-30T08:18:53Z</time>
      </trkpt>
      <trkpt lat="41.3699470" lon="1.1583520">
        <ele>361.7</ele>
        <time>2021-09-30T08:18:54Z</time>
      </trkpt>
      <trkpt lat="41.3699730" lon="1.1583560">
        <ele>361.7</ele>
        <time>2021-09-30T08:18:55Z</time>
      </trkpt>
      <trkpt lat="41.3700050" lon="1.1583620">
        <ele>361.7</ele>
        <time>2021-09-30T08:18:56Z</time>
      </trkpt>
      <trkpt lat="41.3700360" lon="1.1583680">
        <ele>361.7</ele>
        <time>2021-09-30T08:18:57Z</time>
      </trkpt>
      <trkpt lat="41.3700680" lon="1.1583750">
        <ele>361.7</ele>
        <time>2021-09-30T08:18:58Z</time>
      </trkpt>
      <trkpt lat="41.3700990" lon="1.1583810">
        <ele>361.7</ele>
        <time>2021-09-30T08:18:59Z</time>
      </trkpt>
      <trkpt lat="41.3701310" lon="1.1583870">
        <ele>361.7</ele>
        <time>2021-09-30T08:19:00Z</time>
      </trkpt>
      <trkpt lat="41.3701620" lon="1.1583930">
        <ele>361.7</ele>
        <time>2021-09-30T08:19:01Z</time>
      </trkpt>
      <trkpt lat="41.3701940" lon="1.1584000">
        <ele>361.7</ele>
        <time>2021-09-30T08:19:02Z</time>
      </trkpt>
      <trkpt lat="41.3702250" lon="1.1584060">
        <ele>361.7</ele>
        <time>2021-09-30T08:19:03Z</time>
      </trkpt>
      <trkpt lat="41.3702570" lon="1.1584120">
        <ele>361.7</ele>
        <time>2021-09-30T08:19:04Z</time>
      </trkpt>
      <trkpt lat="41.3702920" lon="1.1584270">
        <ele>361.7</ele>
        <time>2021-09-30T08:19:05Z</time>
      </trkpt>
      <trkpt lat="41.3703260" lon="1.1584420">
        <ele>361.7</ele>
        <time>2021-09-30T08:19:06Z</time>
      </trkpt>
      <trkpt lat="41.3703610" lon="1.1584570">
        <ele>361.7</ele>
        <time>2021-09-30T08:19:07Z</time>
      </trkpt>
      <trkpt lat="41.3703960" lon="1.1584720">
        <ele>361.7</ele>
        <time>2021-09-30T08:19:08Z</time>
      </trkpt>
      <trkpt lat="41.3704300" lon="1.1584860">
        <ele>361.7</ele>
        <time>2021-09-30T08:19:09Z</time>
      </trkpt>
      <trkpt lat="41.3704650" lon="1.1585010">
        <ele>361.7</ele>
        <time>2021-09-30T08:19:10Z</time>
      </trkpt>
      <trkpt lat="41.3705000" lon="1.1585160">
        <ele>361.7</ele>
        <time>2021-09-30T08:19:11Z</time>
      </trkpt>
      <trkpt lat="41.3705340" lon="1.1585310">
        <ele>361.7</ele>
        <time>2021-09-30T08:19:12Z</time>
      </trkpt>
      <trkpt lat="41.3705690" lon="1.1585460">
        <ele>361.6</ele>
        <time>2021-09-30T08:19:13Z</time>
      </trkpt>
      <trkpt lat="41.3706080" lon="1.1585580">
        <ele>361.6</ele>
        <time>2021-09-30T08:19:14Z</time>
      </trkpt>
      <trkpt lat="41.3706480" lon="1.1585700">
        <ele>361.6</ele>
        <time>2021-09-30T08:19:15Z</time>
      </trkpt>
      <trkpt lat="41.3706870" lon="1.1585820">
        <ele>361.6</ele>
        <time>2021-09-30T08:19:16Z</time>
      </trkpt>
      <trkpt lat="41.3707270" lon="1.1585940">
        <ele>361.6</ele>
        <time>2021-09-30T08:19:17Z</time>
      </trkpt>
      <trkpt lat="41.3707660" lon="1.1586050">
        <ele>361.6</ele>
        <time>2021-09-30T08:19:18Z</time>
      </trkpt>
      <trkpt lat="41.3708060" lon="1.1586170">
        <ele>361.6</ele>
        <time>2021-09-30T08:19:19Z</time>
      </trkpt>
      <trkpt lat="41.3708450" lon="1.1586290">
        <ele>361.5</ele>
        <time>2021-09-30T08:19:20Z</time>
      </trkpt>
      <trkpt lat="41.3708850" lon="1.1586410">
        <ele>361.5</ele>
        <time>2021-09-30T08:19:21Z</time>
      </trkpt>
      <trkpt lat="41.3709240" lon="1.1586530">
        <ele>361.5</ele>
        <time>2021-09-30T08:19:22Z</time>
      </trkpt>
      <trkpt lat="41.3709480" lon="1.1586430">
        <ele>361.5</ele>
        <time>2021-09-30T08:19:23Z</time>
      </trkpt>
      <trkpt lat="41.3709730" lon="1.1586340">
        <ele>361.5</ele>
        <time>2021-09-30T08:19:24Z</time>
      </trkpt>
      <trkpt lat="41.3709970" lon="1.1586240">
        <ele>361.5</ele>
        <time>2021-09-30T08:19:25Z</time>
      </trkpt>
      <trkpt lat="41.3710210" lon="1.1586140">
        <ele>361.6</ele>
        <time>2021-09-30T08:19:26Z</time>
      </trkpt>
      <trkpt lat="41.3710460" lon="1.1586040">
        <ele>361.6</ele>
        <time>2021-09-30T08:19:27Z</time>
      </trkpt>
      <trkpt lat="41.3710700" lon="1.1585950">
        <ele>361.6</ele>
        <time>2021-09-30T08:19:28Z</time>
      </trkpt>
      <trkpt lat="41.3710950" lon="1.1585850">
        <ele>361.6</ele>
        <time>2021-09-30T08:19:29Z</time>
      </trkpt>
      <trkpt lat="41.3711190" lon="1.1585750">
        <ele>361.6</ele>
        <time>2021-09-30T08:19:30Z</time>
      </trkpt>
      <trkpt lat="41.3711430" lon="1.1585650">
        <ele>361.6</ele>
        <time>2021-09-30T08:19:31Z</time>
      </trkpt>
      <trkpt lat="41.3711680" lon="1.1585560">
        <ele>361.7</ele>
        <time>2021-09-30T08:19:32Z</time>
      </trkpt>
      <trkpt lat="41.3711920" lon="1.1585460">
        <ele>361.7</ele>
        <time>2021-09-30T08:19:33Z</time>
      </trkpt>
      <trkpt lat="41.3712280" lon="1.1585390">
        <ele>361.7</ele>
        <time>2021-09-30T08:19:34Z</time>
      </trkpt>
      <trkpt lat="41.3712630" lon="1.1585310">
        <ele>361.8</ele>
        <time>2021-09-30T08:19:35Z</time>
      </trkpt>
      <trkpt lat="41.3712990" lon="1.1585240">
        <ele>361.9</ele>
        <time>2021-09-30T08:19:36Z</time>
      </trkpt>
      <trkpt lat="41.3713350" lon="1.1585160">
        <ele>361.9</ele>
        <time>2021-09-30T08:19:37Z</time>
      </trkpt>
      <trkpt lat="41.3713710" lon="1.1585090">
        <ele>362.0</ele>
        <time>2021-09-30T08:19:38Z</time>
      </trkpt>
      <trkpt lat="41.3714060" lon="1.1585010">
        <ele>362.1</ele>
        <time>2021-09-30T08:19:39Z</time>
      </trkpt>
      <trkpt lat="41.3714420" lon="1.1584940">
        <ele>362.1</ele>
        <time>2021-09-30T08:19:40Z</time>
      </trkpt>
      <trkpt lat="41.3714780" lon="1.1584860">
        <ele>362.2</ele>
        <time>2021-09-30T08:19:41Z</time>
      </trkpt>
      <trkpt lat="41.3715130" lon="1.1584790">
        <ele>362.2</ele>
        <time>2021-09-30T08:19:42Z</time>
      </trkpt>
      <trkpt lat="41.3715490" lon="1.1584710">
        <ele>362.3</ele>
        <time>2021-09-30T08:19:43Z</time>
      </trkpt>
      <trkpt lat="41.3715570" lon="1.1584420">
        <ele>362.3</ele>
        <time>2021-09-30T08:19:44Z</time>
      </trkpt>
      <trkpt lat="41.3715650" lon="1.1584130">
        <ele>362.4</ele>
        <time>2021-09-30T08:19:45Z</time>
      </trkpt>
      <trkpt lat="41.3715720" lon="1.1583840">
        <ele>362.5</ele>
        <time>2021-09-30T08:19:46Z</time>
      </trkpt>
      <trkpt lat="41.3715800" lon="1.1583550">
        <ele>362.6</ele>
        <time>2021-09-30T08:19:47Z</time>
      </trkpt>
      <trkpt lat="41.3715880" lon="1.1583250">
        <ele>362.7</ele>
        <time>2021-09-30T08:19:48Z</time>
      </trkpt>
      <trkpt lat="41.3715960" lon="1.1582960">
        <ele>362.8</ele>
        <time>2021-09-30T08:19:49Z</time>
      </trkpt>
      <trkpt lat="41.3716030" lon="1.1582670">
        <ele>362.9</ele>
        <time>2021-09-30T08:19:50Z</time>
      </trkpt>
      <trkpt lat="41.3716110" lon="1.1582380">
        <ele>363.0</ele>
        <time>2021-09-30T08:19:51Z</time>
      </trkpt>
      <trkpt lat="41.3716190" lon="1.1582090">
        <ele>363.0</ele>
        <time>2021-09-30T08:19:52Z</time>
      </trkpt>
      <trkpt lat="41.3716000" lon="1.1581670">
        <ele>363.2</ele>
        <time>2021-09-30T08:19:53Z</time>
      </trkpt>
      <trkpt lat="41.3715810" lon="1.1581260">
        <ele>363.3</ele>
        <time>2021-09-30T08:19:54Z</time>
      </trkpt>
      <trkpt lat="41.3715620" lon="1.1580840">
        <ele>363.4</ele>
        <time>2021-09-30T08:19:55Z</time>
      </trkpt>
      <trkpt lat="41.3715430" lon="1.1580420">
        <ele>363.6</ele>
        <time>2021-09-30T08:19:56Z</time>
      </trkpt>
      <trkpt lat="41.3715240" lon="1.1580000">
        <ele>363.7</ele>
        <time>2021-09-30T08:19:57Z</time>
      </trkpt>
      <trkpt lat="41.3715040" lon="1.1579590">
        <ele>363.9</ele>
        <time>2021-09-30T08:19:58Z</time>
      </trkpt>
      <trkpt lat="41.3714850" lon="1.1579170">
        <ele>364.0</ele>
        <time>2021-09-30T08:19:59Z</time>
      </trkpt>
      <trkpt lat="41.3714660" lon="1.1578750">
        <ele>364.2</ele>
        <time>2021-09-30T08:20:00Z</time>
      </trkpt>
      <trkpt lat="41.3714470" lon="1.1578330">
        <ele>364.4</ele>
        <time>2021-09-30T08:20:01Z</time>
      </trkpt>
      <trkpt lat="41.3714280" lon="1.1577920">
        <ele>364.6</ele>
        <time>2021-09-30T08:20:02Z</time>
      </trkpt>
      <trkpt lat="41.3714090" lon="1.1577500">
        <ele>364.8</ele>
        <time>2021-09-30T08:20:03Z</time>
      </trkpt>
      <trkpt lat="41.3714130" lon="1.1577170">
        <ele>364.9</ele>
        <time>2021-09-30T08:20:04Z</time>
      </trkpt>
      <trkpt lat="41.3714180" lon="1.1576840">
        <ele>365.0</ele>
        <time>2021-09-30T08:20:05Z</time>
      </trkpt>
      <trkpt lat="41.3714220" lon="1.1576500">
        <ele>365.2</ele>
        <time>2021-09-30T08:20:06Z</time>
      </trkpt>
      <trkpt lat="41.3714260" lon="1.1576170">
        <ele>365.3</ele>
        <time>2021-09-30T08:20:07Z</time>
      </trkpt>
      <trkpt lat="41.3714310" lon="1.1575840">
        <ele>365.4</ele>
        <time>2021-09-30T08:20:08Z</time>
      </trkpt>
      <trkpt lat="41.3714350" lon="1.1575510">
        <ele>365.6</ele>
        <time>2021-09-30T08:20:09Z</time>
      </trkpt>
      <trkpt lat="41.3714390" lon="1.1575180">
        <ele>365.7</ele>
        <time>2021-09-30T08:20:10Z</time>
      </trkpt>
      <trkpt lat="41.3714430" lon="1.1574840">
        <ele>365.8</ele>
        <time>2021-09-30T08:20:11Z</time>
      </trkpt>
      <trkpt lat="41.3714480" lon="1.1574510">
        <ele>366.0</ele>
        <time>2021-09-30T08:20:12Z</time>
      </trkpt>
      <trkpt lat="41.3714520" lon="1.1574180">
        <ele>366.1</ele>
        <time>2021-09-30T08:20:13Z</time>
      </trkpt>
      <trkpt lat="41.3714490" lon="1.1573750">
        <ele>366.3</ele>
        <time>2021-09-30T08:20:14Z</time>
      </trkpt>
      <trkpt lat="41.3714460" lon="1.1573320">
        <ele>366.5</ele>
        <time>2021-09-30T08:20:15Z</time>
      </trkpt>
      <trkpt lat="41.3714430" lon="1.1572890">
        <ele>366.7</ele>
        <time>2021-09-30T08:20:16Z</time>
      </trkpt>
      <trkpt lat="41.3714400" lon="1.1572460">
        <ele>366.9</ele>
        <time>2021-09-30T08:20:17Z</time>
      </trkpt>
      <trkpt lat="41.3714380" lon="1.1572030">
        <ele>367.0</ele>
        <time>2021-09-30T08:20:18Z</time>
      </trkpt>
      <trkpt lat="41.3714350" lon="1.1571600">
        <ele>367.2</ele>
        <time>2021-09-30T08:20:19Z</time>
      </trkpt>
      <trkpt lat="41.3714320" lon="1.1571170">
        <ele>367.4</ele>
        <time>2021-09-30T08:20:20Z</time>
      </trkpt>
      <trkpt lat="41.3714290" lon="1.1570740">
        <ele>367.6</ele>
        <time>2021-09-30T08:20:21Z</time>
      </trkpt>
      <trkpt lat="41.3714260" lon="1.1570310">
        <ele>367.8</ele>
        <time>2021-09-30T08:20:22Z</time>
      </trkpt>
      <trkpt lat="41.3714230" lon="1.1570010">
        <ele>367.9</ele>
        <time>2021-09-30T08:20:23Z</time>
      </trkpt>
      <trkpt lat="41.3714200" lon="1.1569700">
        <ele>368.1</ele>
        <time>2021-09-30T08:20:24Z</time>
      </trkpt>
      <trkpt lat="41.3714180" lon="1.1569400">
        <ele>368.2</ele>
        <time>2021-09-30T08:20:25Z</time>
      </trkpt>
      <trkpt lat="41.3714150" lon="1.1569100">
        <ele>368.3</ele>
        <time>2021-09-30T08:20:26Z</time>
      </trkpt>
      <trkpt lat="41.3714120" lon="1.1568790">
        <ele>368.5</ele>
        <time>2021-09-30T08:20:27Z</time>
      </trkpt>
      <trkpt lat="41.3714090" lon="1.1568490">
        <ele>368.6</ele>
        <time>2021-09-30T08:20:28Z</time>
      </trkpt>
      <trkpt lat="41.3714060" lon="1.1568190">
        <ele>368.8</ele>
        <time>2021-09-30T08:20:29Z</time>
      </trkpt>
      <trkpt lat="41.3714040" lon="1.1567890">
        <ele>368.9</ele>
        <time>2021-09-30T08:20:30Z</time>
      </trkpt>
      <trkpt lat="41.3714010" lon="1.1567580">
        <ele>369.0</ele>
        <time>2021-09-30T08:20:31Z</time>
      </trkpt>
      <trkpt lat="41.3713980" lon="1.1567280">
        <ele>369.2</ele>
        <time>2021-09-30T08:20:32Z</time>
      </trkpt>
      <trkpt lat="41.3713930" lon="1.1566910">
        <ele>369.4</ele>
        <time>2021-09-30T08:20:33Z</time>
      </trkpt>
      <trkpt lat="41.3713880" lon="1.1566540">
        <ele>369.5</ele>
        <time>2021-09-30T08:20:34Z</time>
      </trkpt>
      <trkpt lat="41.3713820" lon="1.1566170">
        <ele>369.7</ele>
        <time>2021-09-30T08:20:35Z</time>
      </trkpt>
      <trkpt lat="41.3713770" lon="1.1565800">
        <ele>369.9</ele>
        <time>2021-09-30T08:20:36Z</time>
      </trkpt>
      <trkpt lat="41.3713720" lon="1.1565440">
        <ele>370.1</ele>
        <time>2021-09-30T08:20:37Z</time>
      </trkpt>
      <trkpt lat="41.3713670" lon="1.1565070">
        <ele>370.2</ele>
        <time>2021-09-30T08:20:38Z</time>
      </trkpt>
      <trkpt lat="41.3713610" lon="1.1564700">
        <ele>370.4</ele>
        <time>2021-09-30T08:20:39Z</time>
      </trkpt>
      <trkpt lat="41.3713560" lon="1.1564330">
        <ele>370.6</ele>
        <time>2021-09-30T08:20:40Z</time>
      </trkpt>
      <trkpt lat="41.3713510" lon="1.1563960">
        <ele>370.8</ele>
        <time>2021-09-30T08:20:41Z</time>
      </trkpt>
      <trkpt lat="41.3713410" lon="1.1563590">
        <ele>371.0</ele>
        <time>2021-09-30T08:20:42Z</time>
      </trkpt>
      <trkpt lat="41.3713310" lon="1.1563220">
        <ele>371.2</ele>
        <time>2021-09-30T08:20:43Z</time>
      </trkpt>
      <trkpt lat="41.3713210" lon="1.1562840">
        <ele>371.4</ele>
        <time>2021-09-30T08:20:44Z</time>
      </trkpt>
      <trkpt lat="41.3713110" lon="1.1562470">
        <ele>371.5</ele>
        <time>2021-09-30T08:20:45Z</time>
      </trkpt>
      <trkpt lat="41.3713020" lon="1.1562100">
        <ele>371.7</ele>
        <time>2021-09-30T08:20:46Z</time>
      </trkpt>
      <trkpt lat="41.3712920" lon="1.1561730">
        <ele>371.9</ele>
        <time>2021-09-30T08:20:47Z</time>
      </trkpt>
      <trkpt lat="41.3712820" lon="1.1561360">
        <ele>372.1</ele>
        <time>2021-09-30T08:20:48Z</time>
      </trkpt>
      <trkpt lat="41.3712720" lon="1.1560980">
        <ele>372.3</ele>
        <time>2021-09-30T08:20:49Z</time>
      </trkpt>
      <trkpt lat="41.3712620" lon="1.1560610">
        <ele>372.5</ele>
        <time>2021-09-30T08:20:50Z</time>
      </trkpt>
      <trkpt lat="41.3712520" lon="1.1560240">
        <ele>372.6</ele>
        <time>2021-09-30T08:20:51Z</time>
      </trkpt>
      <trkpt lat="41.3712710" lon="1.1559890">
        <ele>372.8</ele>
        <time>2021-09-30T08:20:52Z</time>
      </trkpt>
      <trkpt lat="41.3712910" lon="1.1559540">
        <ele>373.0</ele>
        <time>2021-09-30T08:20:53Z</time>
      </trkpt>
      <trkpt lat="41.3713100" lon="1.1559190">
        <ele>373.2</ele>
        <time>2021-09-30T08:20:54Z</time>
      </trkpt>
      <trkpt lat="41.3713290" lon="1.1558840">
        <ele>373.4</ele>
        <time>2021-09-30T08:20:55Z</time>
      </trkpt>
      <trkpt lat="41.3713480" lon="1.1558480">
        <ele>373.6</ele>
        <time>2021-09-30T08:20:56Z</time>
      </trkpt>
      <trkpt lat="41.3713680" lon="1.1558130">
        <ele>374.9</ele>
        <time>2021-09-30T08:20:57Z</time>
      </trkpt>
      <trkpt lat="41.3713870" lon="1.1557780">
        <ele>375.0</ele>
        <time>2021-09-30T08:20:58Z</time>
      </trkpt>
      <trkpt lat="41.3714060" lon="1.1557430">
        <ele>375.0</ele>
        <time>2021-09-30T08:20:59Z</time>
      </trkpt>
      <trkpt lat="41.3714280" lon="1.1557370">
        <ele>375.1</ele>
        <time>2021-09-30T08:21:00Z</time>
      </trkpt>
      <trkpt lat="41.3714490" lon="1.1557310">
        <ele>375.1</ele>
        <time>2021-09-30T08:21:01Z</time>
      </trkpt>
      <trkpt lat="41.3714710" lon="1.1557260">
        <ele>375.2</ele>
        <time>2021-09-30T08:21:02Z</time>
      </trkpt>
      <trkpt lat="41.3714930" lon="1.1557200">
        <ele>375.2</ele>
        <time>2021-09-30T08:21:03Z</time>
      </trkpt>
      <trkpt lat="41.3715140" lon="1.1557140">
        <ele>375.2</ele>
        <time>2021-09-30T08:21:04Z</time>
      </trkpt>
      <trkpt lat="41.3715360" lon="1.1557080">
        <ele>375.3</ele>
        <time>2021-09-30T08:21:05Z</time>
      </trkpt>
      <trkpt lat="41.3715570" lon="1.1557020">
        <ele>375.3</ele>
        <time>2021-09-30T08:21:06Z</time>
      </trkpt>
      <trkpt lat="41.3715790" lon="1.1556960">
        <ele>375.4</ele>
        <time>2021-09-30T08:21:07Z</time>
      </trkpt>
      <trkpt lat="41.3716010" lon="1.1556910">
        <ele>375.4</ele>
        <time>2021-09-30T08:21:08Z</time>
      </trkpt>
      <trkpt lat="41.3716220" lon="1.1556850">
        <ele>375.5</ele>
        <time>2021-09-30T08:21:09Z</time>
      </trkpt>
      <trkpt lat="41.3716440" lon="1.1556790">
        <ele>375.5</ele>
        <time>2021-09-30T08:21:10Z</time>
      </trkpt>
      <trkpt lat="41.3716750" lon="1.1556400">
        <ele>375.5</ele>
        <time>2021-09-30T08:21:11Z</time>
      </trkpt>
      <trkpt lat="41.3717060" lon="1.1556020">
        <ele>375.6</ele>
        <time>2021-09-30T08:21:12Z</time>
      </trkpt>
      <trkpt lat="41.3717370" lon="1.1555630">
        <ele>375.6</ele>
        <time>2021-09-30T08:21:13Z</time>
      </trkpt>
      <trkpt lat="41.3717680" lon="1.1555250">
        <ele>375.7</ele>
        <time>2021-09-30T08:21:14Z</time>
      </trkpt>
      <trkpt lat="41.3718000" lon="1.1554860">
        <ele>375.7</ele>
        <time>2021-09-30T08:21:15Z</time>
      </trkpt>
      <trkpt lat="41.3718310" lon="1.1554480">
        <ele>375.7</ele>
        <time>2021-09-30T08:21:16Z</time>
      </trkpt>
      <trkpt lat="41.3718620" lon="1.1554090">
        <ele>375.8</ele>
        <time>2021-09-30T08:21:17Z</time>
      </trkpt>
      <trkpt lat="41.3718930" lon="1.1553710">
        <ele>375.8</ele>
        <time>2021-09-30T08:21:18Z</time>
      </trkpt>
      <trkpt lat="41.3719240" lon="1.1553320">
        <ele>375.8</ele>
        <time>2021-09-30T08:21:19Z</time>
      </trkpt>
      <trkpt lat="41.3719610" lon="1.1553380">
        <ele>375.8</ele>
        <time>2021-09-30T08:21:20Z</time>
      </trkpt>
      <trkpt lat="41.3719980" lon="1.1553440">
        <ele>375.9</ele>
        <time>2021-09-30T08:21:21Z</time>
      </trkpt>
      <trkpt lat="41.3720360" lon="1.1553500">
        <ele>375.9</ele>
        <time>2021-09-30T08:21:22Z</time>
      </trkpt>
      <trkpt lat="41.3720730" lon="1.1553560">
        <ele>375.9</ele>
        <time>2021-09-30T08:21:23Z</time>
      </trkpt>
      <trkpt lat="41.3721100" lon="1.1553620">
        <ele>375.9</ele>
        <time>2021-09-30T08:21:24Z</time>
      </trkpt>
      <trkpt lat="41.3721470" lon="1.1553680">
        <ele>376.0</ele>
        <time>2021-09-30T08:21:25Z</time>
      </trkpt>
      <trkpt lat="41.3721840" lon="1.1553740">
        <ele>376.0</ele>
        <time>2021-09-30T08:21:26Z</time>
      </trkpt>
      <trkpt lat="41.3722220" lon="1.1553800">
        <ele>376.0</ele>
        <time>2021-09-30T08:21:27Z</time>
      </trkpt>
      <trkpt lat="41.3722590" lon="1.1553860">
        <ele>376.1</ele>
        <time>2021-09-30T08:21:28Z</time>
      </trkpt>
      <trkpt lat="41.3722960" lon="1.1553920">
        <ele>376.1</ele>
        <time>2021-09-30T08:21:29Z</time>
      </trkpt>
      <trkpt lat="41.3723270" lon="1.1553680">
        <ele>376.1</ele>
        <time>2021-09-30T08:21:30Z</time>
      </trkpt>
      <trkpt lat="41.3723580" lon="1.1553430">
        <ele>376.2</ele>
        <time>2021-09-30T08:21:31Z</time>
      </trkpt>
      <trkpt lat="41.3723890" lon="1.1553190">
        <ele>376.2</ele>
        <time>2021-09-30T08:21:32Z</time>
      </trkpt>
      <trkpt lat="41.3724200" lon="1.1552940">
        <ele>376.3</ele>
        <time>2021-09-30T08:21:33Z</time>
      </trkpt>
      <trkpt lat="41.3724510" lon="1.1552700">
        <ele>376.3</ele>
        <time>2021-09-30T08:21:34Z</time>
      </trkpt>
      <trkpt lat="41.3724820" lon="1.1552450">
        <ele>376.3</ele>
        <time>2021-09-30T08:21:35Z</time>
      </trkpt>
      <trkpt lat="41.3725130" lon="1.1552210">
        <ele>376.4</ele>
        <time>2021-09-30T08:21:36Z</time>
      </trkpt>
      <trkpt lat="41.3725440" lon="1.1551960">
        <ele>376.4</ele>
        <time>2021-09-30T08:21:37Z</time>
      </trkpt>
      <trkpt lat="41.3725670" lon="1.1551760">
        <ele>376.4</ele>
        <time>2021-09-30T08:21:38Z</time>
      </trkpt>
      <trkpt lat="41.3725910" lon="1.1551570">
        <ele>376.4</ele>
        <time>2021-09-30T08:21:39Z</time>
      </trkpt>
      <trkpt lat="41.3726140" lon="1.1551370">
        <ele>376.5</ele>
        <time>2021-09-30T08:21:40Z</time>
      </trkpt>
      <trkpt lat="41.3726370" lon="1.1551180">
        <ele>376.5</ele>
        <time>2021-09-30T08:21:41Z</time>
      </trkpt>
      <trkpt lat="41.3726610" lon="1.1550980">
        <ele>376.5</ele>
        <time>2021-09-30T08:21:42Z</time>
      </trkpt>
      <trkpt lat="41.3726840" lon="1.1550780">
        <ele>376.5</ele>
        <time>2021-09-30T08:21:43Z</time>
      </trkpt>
      <trkpt lat="41.3727070" lon="1.1550590">
        <ele>376.5</ele>
        <time>2021-09-30T08:21:44Z</time>
      </trkpt>
      <trkpt lat="41.3727300" lon="1.1550390">
        <ele>376.6</ele>
        <time>2021-09-30T08:21:45Z</time>
      </trkpt>
      <trkpt lat="41.3727540" lon="1.1550200">
        <ele>376.6</ele>
        <time>2021-09-30T08:21:46Z</time>
      </trkpt>
      <trkpt lat="41.3727770" lon="1.1550000">
        <ele>376.6</ele>
        <time>2021-09-30T08:21:47Z</time>
      </trkpt>
      <trkpt lat="41.3727980" lon="1.1549730">
        <ele>376.7</ele>
        <time>2021-09-30T08:21:48Z</time>
      </trkpt>
      <trkpt lat="41.3728180" lon="1.1549450">
        <ele>376.7</ele>
        <time>2021-09-30T08:21:49Z</time>
      </trkpt>
      <trkpt lat="41.3728390" lon="1.1549180">
        <ele>376.7</ele>
        <time>2021-09-30T08:21:50Z</time>
      </trkpt>
      <trkpt lat="41.3728600" lon="1.1548900">
        <ele>376.8</ele>
        <time>2021-09-30T08:21:51Z</time>
      </trkpt>
      <trkpt lat="41.3728810" lon="1.1548630">
        <ele>376.8</ele>
        <time>2021-09-30T08:21:52Z</time>
      </trkpt>
      <trkpt lat="41.3729010" lon="1.1548350">
        <ele>376.8</ele>
        <time>2021-09-30T08:21:53Z</time>
      </trkpt>
      <trkpt lat="41.3729220" lon="1.1548080">
        <ele>376.8</ele>
        <time>2021-09-30T08:21:54Z</time>
      </trkpt>
      <trkpt lat="41.3729430" lon="1.1547800">
        <ele>376.8</ele>
        <time>2021-09-30T08:21:55Z</time>
      </trkpt>
      <trkpt lat="41.3729630" lon="1.1547530">
        <ele>376.9</ele>
        <time>2021-09-30T08:21:56Z</time>
      </trkpt>
      <trkpt lat="41.3729840" lon="1.1547250">
        <ele>376.9</ele>
        <time>2021-09-30T08:21:57Z</time>
      </trkpt>
      <trkpt lat="41.3730160" lon="1.1547060">
        <ele>376.9</ele>
        <time>2021-09-30T08:21:58Z</time>
      </trkpt>
      <trkpt lat="41.3730480" lon="1.1546870">
        <ele>376.9</ele>
        <time>2021-09-30T08:21:59Z</time>
      </trkpt>
      <trkpt lat="41.3730800" lon="1.1546670">
        <ele>376.9</ele>
        <time>2021-09-30T08:22:00Z</time>
      </trkpt>
      <trkpt lat="41.3731120" lon="1.1546480">
        <ele>376.9</ele>
        <time>2021-09-30T08:22:01Z</time>
      </trkpt>
      <trkpt lat="41.3731450" lon="1.1546290">
        <ele>376.9</ele>
        <time>2021-09-30T08:22:02Z</time>
      </trkpt>
      <trkpt lat="41.3731770" lon="1.1546100">
        <ele>376.9</ele>
        <time>2021-09-30T08:22:03Z</time>
      </trkpt>
      <trkpt lat="41.3732090" lon="1.1545910">
        <ele>376.9</ele>
        <time>2021-09-30T08:22:04Z</time>
      </trkpt>
      <trkpt lat="41.3732410" lon="1.1545710">
        <ele>376.9</ele>
        <time>2021-09-30T08:22:05Z</time>
      </trkpt>
      <trkpt lat="41.3732730" lon="1.1545520">
        <ele>376.9</ele>
        <time>2021-09-30T08:22:06Z</time>
      </trkpt>
      <trkpt lat="41.3733050" lon="1.1545330">
        <ele>376.9</ele>
        <time>2021-09-30T08:22:07Z</time>
      </trkpt>
      <trkpt lat="41.3733320" lon="1.1545110">
        <ele>376.9</ele>
        <time>2021-09-30T08:22:08Z</time>
      </trkpt>
      <trkpt lat="41.3733590" lon="1.1544900">
        <ele>376.9</ele>
        <time>2021-09-30T08:22:09Z</time>
      </trkpt>
      <trkpt lat="41.3733860" lon="1.1544680">
        <ele>376.9</ele>
        <time>2021-09-30T08:22:10Z</time>
      </trkpt>
      <trkpt lat="41.3734130" lon="1.1544470">
        <ele>376.9</ele>
        <time>2021-09-30T08:22:11Z</time>
      </trkpt>
      <trkpt lat="41.3734400" lon="1.1544250">
        <ele>377.0</ele>
        <time>2021-09-30T08:22:12Z</time>
      </trkpt>
      <trkpt lat="41.3734670" lon="1.1544030">
        <ele>377.0</ele>
        <time>2021-09-30T08:22:13Z</time>
      </trkpt>
      <trkpt lat="41.3734940" lon="1.1543820">
        <ele>377.0</ele>
        <time>2021-09-30T08:22:14Z</time>
      </trkpt>
      <trkpt lat="41.3735210" lon="1.1543600">
        <ele>377.0</ele>
        <time>2021-09-30T08:22:15Z</time>
      </trkpt>
      <trkpt lat="41.3735480" lon="1.1543390">
        <ele>377.0</ele>
        <time>2021-09-30T08:22:16Z</time>
      </trkpt>
      <trkpt lat="41.3735750" lon="1.1543170">
        <ele>377.0</ele>
        <time>2021-09-30T08:22:17Z</time>
      </trkpt>
      <trkpt lat="41.3736040" lon="1.1542780">
        <ele>377.0</ele>
        <time>2021-09-30T08:22:18Z</time>
      </trkpt>
      <trkpt lat="41.3736330" lon="1.1542390">
        <ele>377.0</ele>
        <time>2021-09-30T08:22:19Z</time>
      </trkpt>
      <trkpt lat="41.3736610" lon="1.1541990">
        <ele>377.0</ele>
        <time>2021-09-30T08:22:20Z</time>
      </trkpt>
      <trkpt lat="41.3736900" lon="1.1541600">
        <ele>377.0</ele>
        <time>2021-09-30T08:22:21Z</time>
      </trkpt>
      <trkpt lat="41.3737190" lon="1.1541210">
        <ele>377.0</ele>
        <time>2021-09-30T08:22:22Z</time>
      </trkpt>
      <trkpt lat="41.3737480" lon="1.1540820">
        <ele>377.0</ele>
        <time>2021-09-30T08:22:23Z</time>
      </trkpt>
      <trkpt lat="41.3737760" lon="1.1540420">
        <ele>377.0</ele>
        <time>2021-09-30T08:22:24Z</time>
      </trkpt>
      <trkpt lat="41.3738050" lon="1.1540030">
        <ele>376.9</ele>
        <time>2021-09-30T08:22:25Z</time>
      </trkpt>
      <trkpt lat="41.3738430" lon="1.1539860">
        <ele>376.9</ele>
        <time>2021-09-30T08:22:26Z</time>
      </trkpt>
      <trkpt lat="41.3738810" lon="1.1539690">
        <ele>376.8</ele>
        <time>2021-09-30T08:22:27Z</time>
      </trkpt>
      <trkpt lat="41.3739180" lon="1.1539510">
        <ele>376.8</ele>
        <time>2021-09-30T08:22:28Z</time>
      </trkpt>
      <trkpt lat="41.3739560" lon="1.1539340">
        <ele>376.7</ele>
        <time>2021-09-30T08:22:29Z</time>
      </trkpt>
      <trkpt lat="41.3739940" lon="1.1539170">
        <ele>376.7</ele>
        <time>2021-09-30T08:22:30Z</time>
      </trkpt>
      <trkpt lat="41.3740320" lon="1.1539000">
        <ele>376.6</ele>
        <time>2021-09-30T08:22:31Z</time>
      </trkpt>
      <trkpt lat="41.3740690" lon="1.1538820">
        <ele>376.6</ele>
        <time>2021-09-30T08:22:32Z</time>
      </trkpt>
      <trkpt lat="41.3741070" lon="1.1538650">
        <ele>376.5</ele>
        <time>2021-09-30T08:22:33Z</time>
      </trkpt>
      <trkpt lat="41.3741450" lon="1.1538480">
        <ele>376.4</ele>
        <time>2021-09-30T08:22:34Z</time>
      </trkpt>
      <trkpt lat="41.3741660" lon="1.1538340">
        <ele>376.4</ele>
        <time>2021-09-30T08:22:35Z</time>
      </trkpt>
      <trkpt lat="41.3741860" lon="1.1538200">
        <ele>376.4</ele>
        <time>2021-09-30T08:22:36Z</time>
      </trkpt>
      <trkpt lat="41.3742070" lon="1.1538050">
        <ele>376.3</ele>
        <time>2021-09-30T08:22:37Z</time>
      </trkpt>
      <trkpt lat="41.3742280" lon="1.1537910">
        <ele>376.3</ele>
        <time>2021-09-30T08:22:38Z</time>
      </trkpt>
      <trkpt lat="41.3742490" lon="1.1537770">
        <ele>376.3</ele>
        <time>2021-09-30T08:22:39Z</time>
      </trkpt>
      <trkpt lat="41.3742690" lon="1.1537630">
        <ele>376.2</ele>
        <time>2021-09-30T08:22:40Z</time>
      </trkpt>
      <trkpt lat="41.3742900" lon="1.1537490">
        <ele>376.2</ele>
        <time>2021-09-30T08:22:41Z</time>
      </trkpt>
      <trkpt lat="41.3743110" lon="1.1537340">
        <ele>376.2</ele>
        <time>2021-09-30T08:22:42Z</time>
      </trkpt>
      <trkpt lat="41.3743310" lon="1.1537200">
        <ele>376.2</ele>
        <time>2021-09-30T08:22:43Z</time>
      </trkpt>
      <trkpt lat="41.3743520" lon="1.1537060">
        <ele>376.1</ele>
        <time>2021-09-30T08:22:44Z</time>
      </trkpt>
      <trkpt lat="41.3743830" lon="1.1536730">
        <ele>376.1</ele>
        <time>2021-09-30T08:22:45Z</time>
      </trkpt>
      <trkpt lat="41.3744130" lon="1.1536400">
        <ele>376.0</ele>
        <time>2021-09-30T08:22:46Z</time>
      </trkpt>
      <trkpt lat="41.3744440" lon="1.1536070">
        <ele>376.0</ele>
        <time>2021-09-30T08:22:47Z</time>
      </trkpt>
      <trkpt lat="41.3744750" lon="1.1535740">
        <ele>375.9</ele>
        <time>2021-09-30T08:22:48Z</time>
      </trkpt>
      <trkpt lat="41.3745050" lon="1.1535400">
        <ele>375.9</ele>
        <time>2021-09-30T08:22:49Z</time>
      </trkpt>
      <trkpt lat="41.3745360" lon="1.1535070">
        <ele>375.8</ele>
        <time>2021-09-30T08:22:50Z</time>
      </trkpt>
      <trkpt lat="41.3745670" lon="1.1534740">
        <ele>375.7</ele>
        <time>2021-09-30T08:22:51Z</time>
      </trkpt>
      <trkpt lat="41.3745970" lon="1.1534410">
        <ele>375.6</ele>
        <time>2021-09-30T08:22:52Z</time>
      </trkpt>
      <trkpt lat="41.3746280" lon="1.1534080">
        <ele>375.5</ele>
        <time>2021-09-30T08:22:53Z</time>
      </trkpt>
      <trkpt lat="41.3746590" lon="1.1533770">
        <ele>375.4</ele>
        <time>2021-09-30T08:22:54Z</time>
      </trkpt>
      <trkpt lat="41.3746900" lon="1.1533450">
        <ele>375.4</ele>
        <time>2021-09-30T08:22:55Z</time>
      </trkpt>
      <trkpt lat="41.3747220" lon="1.1533140">
        <ele>375.3</ele>
        <time>2021-09-30T08:22:56Z</time>
      </trkpt>
      <trkpt lat="41.3747530" lon="1.1532820">
        <ele>375.2</ele>
        <time>2021-09-30T08:22:57Z</time>
      </trkpt>
      <trkpt lat="41.3747840" lon="1.1532510">
        <ele>375.1</ele>
        <time>2021-09-30T08:22:58Z</time>
      </trkpt>
      <trkpt lat="41.3748150" lon="1.1532190">
        <ele>374.9</ele>
        <time>2021-09-30T08:22:59Z</time>
      </trkpt>
      <trkpt lat="41.3748470" lon="1.1531880">
        <ele>374.8</ele>
        <time>2021-09-30T08:23:00Z</time>
      </trkpt>
      <trkpt lat="41.3748780" lon="1.1531560">
        <ele>374.7</ele>
        <time>2021-09-30T08:23:01Z</time>
      </trkpt>
      <trkpt lat="41.3749090" lon="1.1531250">
        <ele>374.6</ele>
        <time>2021-09-30T08:23:02Z</time>
      </trkpt>
      <trkpt lat="41.3749330" lon="1.1531050">
        <ele>374.5</ele>
        <time>2021-09-30T08:23:03Z</time>
      </trkpt>
      <trkpt lat="41.3749570" lon="1.1530850">
        <ele>374.4</ele>
        <time>2021-09-30T08:23:04Z</time>
      </trkpt>
      <trkpt lat="41.3749800" lon="1.1530650">
        <ele>374.4</ele>
        <time>2021-09-30T08:23:05Z</time>
      </trkpt>
      <trkpt lat="41.3750040" lon="1.1530450">
        <ele>374.3</ele>
        <time>2021-09-30T08:23:06Z</time>
      </trkpt>
      <trkpt lat="41.3750280" lon="1.1530250">
        <ele>374.2</ele>
        <time>2021-09-30T08:23:07Z</time>
      </trkpt>
      <trkpt lat="41.3750520" lon="1.1530050">
        <ele>374.2</ele>
        <time>2021-09-30T08:23:08Z</time>
      </trkpt>
      <trkpt lat="41.3750750" lon="1.1529850">
        <ele>374.1</ele>
        <time>2021-09-30T08:23:09Z</time>
      </trkpt>
      <trkpt lat="41.3750990" lon="1.1529650">
        <ele>374.1</ele>
        <time>2021-09-30T08:23:10Z</time>
      </trkpt>
      <trkpt lat="41.3751230" lon="1.1529450">
        <ele>374.0</ele>
        <time>2021-09-30T08:23:11Z</time>
      </trkpt>
      <trkpt lat="41.3751430" lon="1.1529510">
        <ele>374.0</ele>
        <time>2021-09-30T08:23:12Z</time>
      </trkpt>
      <trkpt lat="41.3751620" lon="1.1529560">
        <ele>374.0</ele>
        <time>2021-09-30T08:23:13Z</time>
      </trkpt>
      <trkpt lat="41.3751820" lon="1.1529620">
        <ele>374.0</ele>
        <time>2021-09-30T08:23:14Z</time>
      </trkpt>
      <trkpt lat="41.3752020" lon="1.1529680">
        <ele>373.8</ele>
        <time>2021-09-30T08:23:15Z</time>
      </trkpt>
      <trkpt lat="41.3752210" lon="1.1529740">
        <ele>373.7</ele>
        <time>2021-09-30T08:23:16Z</time>
      </trkpt>
      <trkpt lat="41.3752410" lon="1.1529790">
        <ele>373.6</ele>
        <time>2021-09-30T08:23:17Z</time>
      </trkpt>
      <trkpt lat="41.3752600" lon="1.1529850">
        <ele>373.5</ele>
        <time>2021-09-30T08:23:18Z</time>
      </trkpt>
      <trkpt lat="41.3752800" lon="1.1529910">
        <ele>373.3</ele>
        <time>2021-09-30T08:23:19Z</time>
      </trkpt>
      <trkpt lat="41.3753000" lon="1.1529970">
        <ele>373.2</ele>
        <time>2021-09-30T08:23:20Z</time>
      </trkpt>
      <trkpt lat="41.3753190" lon="1.1530020">
        <ele>373.1</ele>
        <time>2021-09-30T08:23:21Z</time>
      </trkpt>
      <trkpt lat="41.3753390" lon="1.1530080">
        <ele>373.0</ele>
        <time>2021-09-30T08:23:22Z</time>
      </trkpt>
      <trkpt lat="41.3753670" lon="1.1530240">
        <ele>372.9</ele>
        <time>2021-09-30T08:23:23Z</time>
      </trkpt>
      <trkpt lat="41.3753960" lon="1.1530410">
        <ele>372.7</ele>
        <time>2021-09-30T08:23:24Z</time>
      </trkpt>
      <trkpt lat="41.3754240" lon="1.1530570">
        <ele>372.6</ele>
        <time>2021-09-30T08:23:25Z</time>
      </trkpt>
      <trkpt lat="41.3754530" lon="1.1530740">
        <ele>372.4</ele>
        <time>2021-09-30T08:23:26Z</time>
      </trkpt>
      <trkpt lat="41.3754810" lon="1.1530900">
        <ele>372.3</ele>
        <time>2021-09-30T08:23:27Z</time>
      </trkpt>
      <trkpt lat="41.3755090" lon="1.1531060">
        <ele>372.0</ele>
        <time>2021-09-30T08:23:28Z</time>
      </trkpt>
      <trkpt lat="41.3755380" lon="1.1531230">
        <ele>372.0</ele>
        <time>2021-09-30T08:23:29Z</time>
      </trkpt>
      <trkpt lat="41.3755660" lon="1.1531390">
        <ele>371.9</ele>
        <time>2021-09-30T08:23:30Z</time>
      </trkpt>
      <trkpt lat="41.3755950" lon="1.1531560">
        <ele>371.9</ele>
        <time>2021-09-30T08:23:31Z</time>
      </trkpt>
      <trkpt lat="41.3756230" lon="1.1531720">
        <ele>371.9</ele>
        <time>2021-09-30T08:23:32Z</time>
      </trkpt>
      <trkpt lat="41.3756460" lon="1.1531530">
        <ele>371.8</ele>
        <time>2021-09-30T08:23:33Z</time>
      </trkpt>
      <trkpt lat="41.3756700" lon="1.1531340">
        <ele>371.8</ele>
        <time>2021-09-30T08:23:34Z</time>
      </trkpt>
      <trkpt lat="41.3756930" lon="1.1531160">
        <ele>371.8</ele>
        <time>2021-09-30T08:23:35Z</time>
      </trkpt>
      <trkpt lat="41.3757160" lon="1.1530970">
        <ele>371.8</ele>
        <time>2021-09-30T08:23:36Z</time>
      </trkpt>
      <trkpt lat="41.3757400" lon="1.1530780">
        <ele>371.8</ele>
        <time>2021-09-30T08:23:37Z</time>
      </trkpt>
      <trkpt lat="41.3757630" lon="1.1530590">
        <ele>371.7</ele>
        <time>2021-09-30T08:23:38Z</time>
      </trkpt>
      <trkpt lat="41.3757860" lon="1.1530410">
        <ele>371.7</ele>
        <time>2021-09-30T08:23:39Z</time>
      </trkpt>
      <trkpt lat="41.3758100" lon="1.1530220">
        <ele>371.7</ele>
        <time>2021-09-30T08:23:40Z</time>
      </trkpt>
      <trkpt lat="41.3758330" lon="1.1530030">
        <ele>371.7</ele>
        <time>2021-09-30T08:23:41Z</time>
      </trkpt>
      <trkpt lat="41.3758560" lon="1.1529790">
        <ele>371.7</ele>
        <time>2021-09-30T08:23:42Z</time>
      </trkpt>
      <trkpt lat="41.3758790" lon="1.1529560">
        <ele>371.6</ele>
        <time>2021-09-30T08:23:43Z</time>
      </trkpt>
      <trkpt lat="41.3759030" lon="1.1529320">
        <ele>371.6</ele>
        <time>2021-09-30T08:23:44Z</time>
      </trkpt>
      <trkpt lat="41.3759260" lon="1.1529080">
        <ele>371.6</ele>
        <time>2021-09-30T08:23:45Z</time>
      </trkpt>
      <trkpt lat="41.3759490" lon="1.1528850">
        <ele>371.6</ele>
        <time>2021-09-30T08:23:46Z</time>
      </trkpt>
      <trkpt lat="41.3759720" lon="1.1528610">
        <ele>371.5</ele>
        <time>2021-09-30T08:23:47Z</time>
      </trkpt>
      <trkpt lat="41.3759950" lon="1.1528370">
        <ele>371.5</ele>
        <time>2021-09-30T08:23:48Z</time>
      </trkpt>
      <trkpt lat="41.3760180" lon="1.1528140">
        <ele>371.5</ele>
        <time>2021-09-30T08:23:49Z</time>
      </trkpt>
      <trkpt lat="41.3760420" lon="1.1527900">
        <ele>371.5</ele>
        <time>2021-09-30T08:23:50Z</time>
      </trkpt>
      <trkpt lat="41.3760650" lon="1.1527660">
        <ele>371.5</ele>
        <time>2021-09-30T08:23:51Z</time>
      </trkpt>
      <trkpt lat="41.3760880" lon="1.1527430">
        <ele>371.5</ele>
        <time>2021-09-30T08:23:52Z</time>
      </trkpt>
      <trkpt lat="41.3761110" lon="1.1527190">
        <ele>371.4</ele>
        <time>2021-09-30T08:23:53Z</time>
      </trkpt>
      <trkpt lat="41.3761400" lon="1.1526850">
        <ele>371.4</ele>
        <time>2021-09-30T08:23:54Z</time>
      </trkpt>
      <trkpt lat="41.3761690" lon="1.1526510">
        <ele>371.4</ele>
        <time>2021-09-30T08:23:55Z</time>
      </trkpt>
      <trkpt lat="41.3761980" lon="1.1526160">
        <ele>371.4</ele>
        <time>2021-09-30T08:23:56Z</time>
      </trkpt>
      <trkpt lat="41.3762270" lon="1.1525820">
        <ele>371.3</ele>
        <time>2021-09-30T08:23:57Z</time>
      </trkpt>
      <trkpt lat="41.3762560" lon="1.1525480">
        <ele>371.3</ele>
        <time>2021-09-30T08:23:58Z</time>
      </trkpt>
      <trkpt lat="41.3762850" lon="1.1525140">
        <ele>371.2</ele>
        <time>2021-09-30T08:23:59Z</time>
      </trkpt>
      <trkpt lat="41.3763140" lon="1.1524800">
        <ele>371.2</ele>
        <time>2021-09-30T08:24:00Z</time>
      </trkpt>
      <trkpt lat="41.3763430" lon="1.1524450">
        <ele>371.1</ele>
        <time>2021-09-30T08:24:01Z</time>
      </trkpt>
      <trkpt lat="41.3763720" lon="1.1524110">
        <ele>371.1</ele>
        <time>2021-09-30T08:24:02Z</time>
      </trkpt>
      <trkpt lat="41.3764010" lon="1.1523770">
        <ele>371.1</ele>
        <time>2021-09-30T08:24:03Z</time>
      </trkpt>
      <trkpt lat="41.3764240" lon="1.1523480">
        <ele>371.0</ele>
        <time>2021-09-30T08:24:04Z</time>
      </trkpt>
      <trkpt lat="41.3764480" lon="1.1523190">
        <ele>371.0</ele>
        <time>2021-09-30T08:24:05Z</time>
      </trkpt>
      <trkpt lat="41.3764710" lon="1.1522900">
        <ele>371.0</ele>
        <time>2021-09-30T08:24:06Z</time>
      </trkpt>
      <trkpt lat="41.3764940" lon="1.1522610">
        <ele>371.0</ele>
        <time>2021-09-30T08:24:07Z</time>
      </trkpt>
      <trkpt lat="41.3765180" lon="1.1522330">
        <ele>371.0</ele>
        <time>2021-09-30T08:24:08Z</time>
      </trkpt>
      <trkpt lat="41.3765410" lon="1.1522040">
        <ele>371.0</ele>
        <time>2021-09-30T08:24:09Z</time>
      </trkpt>
      <trkpt lat="41.3765640" lon="1.1521750">
        <ele>371.0</ele>
        <time>2021-09-30T08:24:10Z</time>
      </trkpt>
      <trkpt lat="41.3765880" lon="1.1521460">
        <ele>371.0</ele>
        <time>2021-09-30T08:24:11Z</time>
      </trkpt>
      <trkpt lat="41.3766110" lon="1.1521170">
        <ele>371.0</ele>
        <time>2021-09-30T08:24:12Z</time>
      </trkpt>
      <trkpt lat="41.3766330" lon="1.1520980">
        <ele>371.0</ele>
        <time>2021-09-30T08:24:13Z</time>
      </trkpt>
      <trkpt lat="41.3766560" lon="1.1520800">
        <ele>371.0</ele>
        <time>2021-09-30T08:24:14Z</time>
      </trkpt>
      <trkpt lat="41.3766780" lon="1.1520610">
        <ele>370.9</ele>
        <time>2021-09-30T08:24:15Z</time>
      </trkpt>
      <trkpt lat="41.3767010" lon="1.1520420">
        <ele>370.9</ele>
        <time>2021-09-30T08:24:16Z</time>
      </trkpt>
      <trkpt lat="41.3767230" lon="1.1520230">
        <ele>370.9</ele>
        <time>2021-09-30T08:24:17Z</time>
      </trkpt>
      <trkpt lat="41.3767460" lon="1.1520050">
        <ele>370.9</ele>
        <time>2021-09-30T08:24:18Z</time>
      </trkpt>
      <trkpt lat="41.3767680" lon="1.1519860">
        <ele>370.8</ele>
        <time>2021-09-30T08:24:19Z</time>
      </trkpt>
      <trkpt lat="41.3767910" lon="1.1519670">
        <ele>370.8</ele>
        <time>2021-09-30T08:24:20Z</time>
      </trkpt>
      <trkpt lat="41.3768130" lon="1.1519480">
        <ele>370.8</ele>
        <time>2021-09-30T08:24:21Z</time>
      </trkpt>
      <trkpt lat="41.3768360" lon="1.1519300">
        <ele>370.7</ele>
        <time>2021-09-30T08:24:22Z</time>
      </trkpt>
      <trkpt lat="41.3768580" lon="1.1519110">
        <ele>370.7</ele>
        <time>2021-09-30T08:24:23Z</time>
      </trkpt>
      <trkpt lat="41.3768830" lon="1.1518860">
        <ele>370.7</ele>
        <time>2021-09-30T08:24:24Z</time>
      </trkpt>
      <trkpt lat="41.3769090" lon="1.1518610">
        <ele>370.7</ele>
        <time>2021-09-30T08:24:25Z</time>
      </trkpt>
      <trkpt lat="41.3769340" lon="1.1518350">
        <ele>370.6</ele>
        <time>2021-09-30T08:24:26Z</time>
      </trkpt>
      <trkpt lat="41.3769590" lon="1.1518100">
        <ele>370.6</ele>
        <time>2021-09-30T08:24:27Z</time>
      </trkpt>
      <trkpt lat="41.3769850" lon="1.1517850">
        <ele>370.6</ele>
        <time>2021-09-30T08:24:28Z</time>
      </trkpt>
      <trkpt lat="41.3770100" lon="1.1517600">
        <ele>370.5</ele>
        <time>2021-09-30T08:24:29Z</time>
      </trkpt>
      <trkpt lat="41.3770350" lon="1.1517350">
        <ele>370.5</ele>
        <time>2021-09-30T08:24:30Z</time>
      </trkpt>
      <trkpt lat="41.3770600" lon="1.1517090">
        <ele>370.5</ele>
        <time>2021-09-30T08:24:31Z</time>
      </trkpt>
      <trkpt lat="41.3770860" lon="1.1516840">
        <ele>370.5</ele>
        <time>2021-09-30T08:24:32Z</time>
      </trkpt>
      <trkpt lat="41.3771110" lon="1.1516590">
        <ele>370.5</ele>
        <time>2021-09-30T08:24:33Z</time>
      </trkpt>
      <trkpt lat="41.3771410" lon="1.1516460">
        <ele>370.5</ele>
        <time>2021-09-30T08:24:34Z</time>
      </trkpt>
      <trkpt lat="41.3771710" lon="1.1516340">
        <ele>370.5</ele>
        <time>2021-09-30T08:24:35Z</time>
      </trkpt>
      <trkpt lat="41.3772010" lon="1.1516210">
        <ele>370.5</ele>
        <time>2021-09-30T08:24:36Z</time>
      </trkpt>
      <trkpt lat="41.3772310" lon="1.1516080">
        <ele>370.5</ele>
        <time>2021-09-30T08:24:37Z</time>
      </trkpt>
      <trkpt lat="41.3772610" lon="1.1515960">
        <ele>370.5</ele>
        <time>2021-09-30T08:24:38Z</time>
      </trkpt>
      <trkpt lat="41.3772910" lon="1.1515830">
        <ele>370.5</ele>
        <time>2021-09-30T08:24:39Z</time>
      </trkpt>
      <trkpt lat="41.3773210" lon="1.1515700">
        <ele>370.5</ele>
        <time>2021-09-30T08:24:40Z</time>
      </trkpt>
      <trkpt lat="41.3773510" lon="1.1515580">
        <ele>370.5</ele>
        <time>2021-09-30T08:24:41Z</time>
      </trkpt>
      <trkpt lat="41.3773810" lon="1.1515450">
        <ele>370.5</ele>
        <time>2021-09-30T08:24:42Z</time>
      </trkpt>
      <trkpt lat="41.3774020" lon="1.1515000">
        <ele>370.6</ele>
        <time>2021-09-30T08:24:43Z</time>
      </trkpt>
      <trkpt lat="41.3774220" lon="1.1514550">
        <ele>370.6</ele>
        <time>2021-09-30T08:24:44Z</time>
      </trkpt>
      <trkpt lat="41.3774430" lon="1.1514100">
        <ele>370.6</ele>
        <time>2021-09-30T08:24:45Z</time>
      </trkpt>
      <trkpt lat="41.3774640" lon="1.1513650">
        <ele>370.7</ele>
        <time>2021-09-30T08:24:46Z</time>
      </trkpt>
      <trkpt lat="41.3774850" lon="1.1513200">
        <ele>370.7</ele>
        <time>2021-09-30T08:24:47Z</time>
      </trkpt>
      <trkpt lat="41.3775050" lon="1.1512760">
        <ele>370.7</ele>
        <time>2021-09-30T08:24:48Z</time>
      </trkpt>
      <trkpt lat="41.3775260" lon="1.1512310">
        <ele>370.7</ele>
        <time>2021-09-30T08:24:49Z</time>
      </trkpt>
      <trkpt lat="41.3775470" lon="1.1511860">
        <ele>370.8</ele>
        <time>2021-09-30T08:24:50Z</time>
      </trkpt>
      <trkpt lat="41.3775680" lon="1.1511410">
        <ele>370.9</ele>
        <time>2021-09-30T08:24:51Z</time>
      </trkpt>
      <trkpt lat="41.3775880" lon="1.1510960">
        <ele>371.0</ele>
        <time>2021-09-30T08:24:52Z</time>
      </trkpt>
      <trkpt lat="41.3776090" lon="1.1510510">
        <ele>371.1</ele>
        <time>2021-09-30T08:24:53Z</time>
      </trkpt>
      <trkpt lat="41.3776310" lon="1.1510220">
        <ele>371.2</ele>
        <time>2021-09-30T08:24:54Z</time>
      </trkpt>
      <trkpt lat="41.3776530" lon="1.1509930">
        <ele>371.3</ele>
        <time>2021-09-30T08:24:55Z</time>
      </trkpt>
      <trkpt lat="41.3776760" lon="1.1509640">
        <ele>371.4</ele>
        <time>2021-09-30T08:24:56Z</time>
      </trkpt>
      <trkpt lat="41.3776980" lon="1.1509350">
        <ele>371.4</ele>
        <time>2021-09-30T08:24:57Z</time>
      </trkpt>
      <trkpt lat="41.3777200" lon="1.1509070">
        <ele>371.5</ele>
        <time>2021-09-30T08:24:58Z</time>
      </trkpt>
      <trkpt lat="41.3777420" lon="1.1508780">
        <ele>371.5</ele>
        <time>2021-09-30T08:24:59Z</time>
      </trkpt>
      <trkpt lat="41.3777640" lon="1.1508490">
        <ele>371.5</ele>
        <time>2021-09-30T08:25:00Z</time>
      </trkpt>
      <trkpt lat="41.3777870" lon="1.1508200">
        <ele>371.6</ele>
        <time>2021-09-30T08:25:01Z</time>
      </trkpt>
      <trkpt lat="41.3778090" lon="1.1507910">
        <ele>371.6</ele>
        <time>2021-09-30T08:25:02Z</time>
      </trkpt>
      <trkpt lat="41.3778310" lon="1.1507620">
        <ele>371.7</ele>
        <time>2021-09-30T08:25:03Z</time>
      </trkpt>
      <trkpt lat="41.3778640" lon="1.1507430">
        <ele>371.7</ele>
        <time>2021-09-30T08:25:04Z</time>
      </trkpt>
      <trkpt lat="41.3778960" lon="1.1507240">
        <ele>371.8</ele>
        <time>2021-09-30T08:25:05Z</time>
      </trkpt>
      <trkpt lat="41.3779290" lon="1.1507050">
        <ele>371.9</ele>
        <time>2021-09-30T08:25:06Z</time>
      </trkpt>
      <trkpt lat="41.3779620" lon="1.1506860">
        <ele>372.0</ele>
        <time>2021-09-30T08:25:07Z</time>
      </trkpt>
      <trkpt lat="41.3779940" lon="1.1506660">
        <ele>372.1</ele>
        <time>2021-09-30T08:25:08Z</time>
      </trkpt>
      <trkpt lat="41.3780270" lon="1.1506470">
        <ele>372.3</ele>
        <time>2021-09-30T08:25:09Z</time>
      </trkpt>
      <trkpt lat="41.3780590" lon="1.1506280">
        <ele>372.3</ele>
        <time>2021-09-30T08:25:10Z</time>
      </trkpt>
      <trkpt lat="41.3780920" lon="1.1506090">
        <ele>372.4</ele>
        <time>2021-09-30T08:25:11Z</time>
      </trkpt>
      <trkpt lat="41.3781060" lon="1.1505930">
        <ele>372.5</ele>
        <time>2021-09-30T08:25:12Z</time>
      </trkpt>
      <trkpt lat="41.3781190" lon="1.1505760">
        <ele>372.5</ele>
        <time>2021-09-30T08:25:13Z</time>
      </trkpt>
      <trkpt lat="41.3781330" lon="1.1505600">
        <ele>372.6</ele>
        <time>2021-09-30T08:25:14Z</time>
      </trkpt>
      <trkpt lat="41.3781470" lon="1.1505430">
        <ele>372.7</ele>
        <time>2021-09-30T08:25:15Z</time>
      </trkpt>
      <trkpt lat="41.3781610" lon="1.1505270">
        <ele>372.8</ele>
        <time>2021-09-30T08:25:16Z</time>
      </trkpt>
      <trkpt lat="41.3781740" lon="1.1505100">
        <ele>372.8</ele>
        <time>2021-09-30T08:25:17Z</time>
      </trkpt>
      <trkpt lat="41.3781880" lon="1.1504940">
        <ele>372.9</ele>
        <time>2021-09-30T08:25:18Z</time>
      </trkpt>
      <trkpt lat="41.3782020" lon="1.1504770">
        <ele>373.0</ele>
        <time>2021-09-30T08:25:19Z</time>
      </trkpt>
      <trkpt lat="41.3782150" lon="1.1504610">
        <ele>373.1</ele>
        <time>2021-09-30T08:25:20Z</time>
      </trkpt>
      <trkpt lat="41.3782290" lon="1.1504440">
        <ele>373.2</ele>
        <time>2021-09-30T08:25:21Z</time>
      </trkpt>
      <trkpt lat="41.3782380" lon="1.1504040">
        <ele>373.4</ele>
        <time>2021-09-30T08:25:22Z</time>
      </trkpt>
      <trkpt lat="41.3782460" lon="1.1503650">
        <ele>373.6</ele>
        <time>2021-09-30T08:25:23Z</time>
      </trkpt>
      <trkpt lat="41.3782550" lon="1.1503250">
        <ele>373.7</ele>
        <time>2021-09-30T08:25:24Z</time>
      </trkpt>
      <trkpt lat="41.3782630" lon="1.1502850">
        <ele>373.9</ele>
        <time>2021-09-30T08:25:25Z</time>
      </trkpt>
      <trkpt lat="41.3782720" lon="1.1502450">
        <ele>374.0</ele>
        <time>2021-09-30T08:25:26Z</time>
      </trkpt>
      <trkpt lat="41.3782800" lon="1.1502060">
        <ele>374.2</ele>
        <time>2021-09-30T08:25:27Z</time>
      </trkpt>
      <trkpt lat="41.3782890" lon="1.1501660">
        <ele>374.3</ele>
        <time>2021-09-30T08:25:28Z</time>
      </trkpt>
      <trkpt lat="41.3782970" lon="1.1501260">
        <ele>374.5</ele>
        <time>2021-09-30T08:25:29Z</time>
      </trkpt>
      <trkpt lat="41.3783060" lon="1.1500860">
        <ele>374.6</ele>
        <time>2021-09-30T08:25:30Z</time>
      </trkpt>
      <trkpt lat="41.3783140" lon="1.1500470">
        <ele>374.7</ele>
        <time>2021-09-30T08:25:31Z</time>
      </trkpt>
      <trkpt lat="41.3783230" lon="1.1500070">
        <ele>374.9</ele>
        <time>2021-09-30T08:25:32Z</time>
      </trkpt>
      <trkpt lat="41.3783300" lon="1.1499550">
        <ele>375.0</ele>
        <time>2021-09-30T08:25:33Z</time>
      </trkpt>
      <trkpt lat="41.3783380" lon="1.1499030">
        <ele>375.2</ele>
        <time>2021-09-30T08:25:34Z</time>
      </trkpt>
      <trkpt lat="41.3783450" lon="1.1498510">
        <ele>375.4</ele>
        <time>2021-09-30T08:25:35Z</time>
      </trkpt>
      <trkpt lat="41.3783530" lon="1.1498000">
        <ele>375.5</ele>
        <time>2021-09-30T08:25:36Z</time>
      </trkpt>
      <trkpt lat="41.3783600" lon="1.1497480">
        <ele>375.7</ele>
        <time>2021-09-30T08:25:37Z</time>
      </trkpt>
      <trkpt lat="41.3783670" lon="1.1496960">
        <ele>375.9</ele>
        <time>2021-09-30T08:25:38Z</time>
      </trkpt>
      <trkpt lat="41.3783750" lon="1.1496440">
        <ele>376.1</ele>
        <time>2021-09-30T08:25:39Z</time>
      </trkpt>
      <trkpt lat="41.3783820" lon="1.1495920">
        <ele>376.3</ele>
        <time>2021-09-30T08:25:40Z</time>
      </trkpt>
      <trkpt lat="41.3783890" lon="1.1495580">
        <ele>376.5</ele>
        <time>2021-09-30T08:25:41Z</time>
      </trkpt>
      <trkpt lat="41.3783960" lon="1.1495240">
        <ele>376.6</ele>
        <time>2021-09-30T08:25:42Z</time>
      </trkpt>
      <trkpt lat="41.3784030" lon="1.1494890">
        <ele>376.8</ele>
        <time>2021-09-30T08:25:43Z</time>
      </trkpt>
      <trkpt lat="41.3784100" lon="1.1494550">
        <ele>376.9</ele>
        <time>2021-09-30T08:25:44Z</time>
      </trkpt>
      <trkpt lat="41.3784170" lon="1.1494210">
        <ele>377.1</ele>
        <time>2021-09-30T08:25:45Z</time>
      </trkpt>
      <trkpt lat="41.3784240" lon="1.1493870">
        <ele>377.2</ele>
        <time>2021-09-30T08:25:46Z</time>
      </trkpt>
      <trkpt lat="41.3784310" lon="1.1493530">
        <ele>377.4</ele>
        <time>2021-09-30T08:25:47Z</time>
      </trkpt>
      <trkpt lat="41.3784380" lon="1.1493180">
        <ele>377.6</ele>
        <time>2021-09-30T08:25:48Z</time>
      </trkpt>
      <trkpt lat="41.3784450" lon="1.1492840">
        <ele>377.7</ele>
        <time>2021-09-30T08:25:49Z</time>
      </trkpt>
      <trkpt lat="41.3784520" lon="1.1492500">
        <ele>377.9</ele>
        <time>2021-09-30T08:25:50Z</time>
      </trkpt>
      <trkpt lat="41.3784610" lon="1.1492220">
        <ele>378.1</ele>
        <time>2021-09-30T08:25:51Z</time>
      </trkpt>
      <trkpt lat="41.3784700" lon="1.1491950">
        <ele>378.2</ele>
        <time>2021-09-30T08:25:52Z</time>
      </trkpt>
      <trkpt lat="41.3784800" lon="1.1491670">
        <ele>378.3</ele>
        <time>2021-09-30T08:25:53Z</time>
      </trkpt>
      <trkpt lat="41.3784890" lon="1.1491390">
        <ele>378.5</ele>
        <time>2021-09-30T08:25:54Z</time>
      </trkpt>
      <trkpt lat="41.3784980" lon="1.1491120">
        <ele>378.6</ele>
        <time>2021-09-30T08:25:55Z</time>
      </trkpt>
      <trkpt lat="41.3785070" lon="1.1490840">
        <ele>378.8</ele>
        <time>2021-09-30T08:25:56Z</time>
      </trkpt>
      <trkpt lat="41.3785170" lon="1.1490560">
        <ele>378.9</ele>
        <time>2021-09-30T08:25:57Z</time>
      </trkpt>
      <trkpt lat="41.3785260" lon="1.1490290">
        <ele>379.0</ele>
        <time>2021-09-30T08:25:58Z</time>
      </trkpt>
      <trkpt lat="41.3785350" lon="1.1490010">
        <ele>379.2</ele>
        <time>2021-09-30T08:25:59Z</time>
      </trkpt>
      <trkpt lat="41.3785300" lon="1.1489620">
        <ele>379.3</ele>
        <time>2021-09-30T08:26:00Z</time>
      </trkpt>
      <trkpt lat="41.3785260" lon="1.1489230">
        <ele>379.5</ele>
        <time>2021-09-30T08:26:01Z</time>
      </trkpt>
      <trkpt lat="41.3785210" lon="1.1488840">
        <ele>379.7</ele>
        <time>2021-09-30T08:26:02Z</time>
      </trkpt>
      <trkpt lat="41.3785170" lon="1.1488450">
        <ele>379.9</ele>
        <time>2021-09-30T08:26:03Z</time>
      </trkpt>
      <trkpt lat="41.3785120" lon="1.1488050">
        <ele>380.1</ele>
        <time>2021-09-30T08:26:04Z</time>
      </trkpt>
      <trkpt lat="41.3785070" lon="1.1487660">
        <ele>380.3</ele>
        <time>2021-09-30T08:26:05Z</time>
      </trkpt>
      <trkpt lat="41.3785030" lon="1.1487270">
        <ele>380.5</ele>
        <time>2021-09-30T08:26:06Z</time>
      </trkpt>
      <trkpt lat="41.3784980" lon="1.1486880">
        <ele>380.7</ele>
        <time>2021-09-30T08:26:07Z</time>
      </trkpt>
      <trkpt lat="41.3784940" lon="1.1486490">
        <ele>380.8</ele>
        <time>2021-09-30T08:26:08Z</time>
      </trkpt>
      <trkpt lat="41.3784890" lon="1.1486100">
        <ele>381.0</ele>
        <time>2021-09-30T08:26:09Z</time>
      </trkpt>
      <trkpt lat="41.3784880" lon="1.1485650">
        <ele>381.3</ele>
        <time>2021-09-30T08:26:10Z</time>
      </trkpt>
      <trkpt lat="41.3784870" lon="1.1485200">
        <ele>381.5</ele>
        <time>2021-09-30T08:26:11Z</time>
      </trkpt>
      <trkpt lat="41.3784860" lon="1.1484750">
        <ele>381.7</ele>
        <time>2021-09-30T08:26:12Z</time>
      </trkpt>
      <trkpt lat="41.3784850" lon="1.1484300">
        <ele>381.9</ele>
        <time>2021-09-30T08:26:13Z</time>
      </trkpt>
      <trkpt lat="41.3784840" lon="1.1483840">
        <ele>382.2</ele>
        <time>2021-09-30T08:26:14Z</time>
      </trkpt>
      <trkpt lat="41.3784830" lon="1.1483390">
        <ele>382.4</ele>
        <time>2021-09-30T08:26:15Z</time>
      </trkpt>
      <trkpt lat="41.3784820" lon="1.1482940">
        <ele>382.7</ele>
        <time>2021-09-30T08:26:16Z</time>
      </trkpt>
      <trkpt lat="41.3784810" lon="1.1482490">
        <ele>382.9</ele>
        <time>2021-09-30T08:26:17Z</time>
      </trkpt>
      <trkpt lat="41.3784800" lon="1.1482040">
        <ele>383.1</ele>
        <time>2021-09-30T08:26:18Z</time>
      </trkpt>
      <trkpt lat="41.3784840" lon="1.1481780">
        <ele>383.3</ele>
        <time>2021-09-30T08:26:19Z</time>
      </trkpt>
      <trkpt lat="41.3784880" lon="1.1481520">
        <ele>383.4</ele>
        <time>2021-09-30T08:26:20Z</time>
      </trkpt>
      <trkpt lat="41.3784920" lon="1.1481260">
        <ele>383.6</ele>
        <time>2021-09-30T08:26:21Z</time>
      </trkpt>
      <trkpt lat="41.3784960" lon="1.1481000">
        <ele>383.7</ele>
        <time>2021-09-30T08:26:22Z</time>
      </trkpt>
      <trkpt lat="41.3785000" lon="1.1480740">
        <ele>383.8</ele>
        <time>2021-09-30T08:26:23Z</time>
      </trkpt>
      <trkpt lat="41.3785030" lon="1.1480480">
        <ele>384.0</ele>
        <time>2021-09-30T08:26:24Z</time>
      </trkpt>
      <trkpt lat="41.3785070" lon="1.1480220">
        <ele>384.1</ele>
        <time>2021-09-30T08:26:25Z</time>
      </trkpt>
      <trkpt lat="41.3785110" lon="1.1479960">
        <ele>384.3</ele>
        <time>2021-09-30T08:26:26Z</time>
      </trkpt>
      <trkpt lat="41.3785150" lon="1.1479700">
        <ele>384.4</ele>
        <time>2021-09-30T08:26:27Z</time>
      </trkpt>
      <trkpt lat="41.3785190" lon="1.1479440">
        <ele>384.6</ele>
        <time>2021-09-30T08:26:28Z</time>
      </trkpt>
      <trkpt lat="41.3785230" lon="1.1479180">
        <ele>384.7</ele>
        <time>2021-09-30T08:26:29Z</time>
      </trkpt>
      <trkpt lat="41.3785330" lon="1.1478760">
        <ele>385.0</ele>
        <time>2021-09-30T08:26:30Z</time>
      </trkpt>
      <trkpt lat="41.3785430" lon="1.1478340">
        <ele>385.3</ele>
        <time>2021-09-30T08:26:31Z</time>
      </trkpt>
      <trkpt lat="41.3785530" lon="1.1477920">
        <ele>385.5</ele>
        <time>2021-09-30T08:26:32Z</time>
      </trkpt>
      <trkpt lat="41.3785630" lon="1.1477500">
        <ele>385.8</ele>
        <time>2021-09-30T08:26:33Z</time>
      </trkpt>
      <trkpt lat="41.3785720" lon="1.1477080">
        <ele>386.0</ele>
        <time>2021-09-30T08:26:34Z</time>
      </trkpt>
      <trkpt lat="41.3785820" lon="1.1476660">
        <ele>386.3</ele>
        <time>2021-09-30T08:26:35Z</time>
      </trkpt>
      <trkpt lat="41.3785920" lon="1.1476240">
        <ele>386.6</ele>
        <time>2021-09-30T08:26:36Z</time>
      </trkpt>
      <trkpt lat="41.3786020" lon="1.1475820">
        <ele>386.9</ele>
        <time>2021-09-30T08:26:37Z</time>
      </trkpt>
      <trkpt lat="41.3786050" lon="1.1475530">
        <ele>387.1</ele>
        <time>2021-09-30T08:26:38Z</time>
      </trkpt>
      <trkpt lat="41.3786090" lon="1.1475230">
        <ele>387.3</ele>
        <time>2021-09-30T08:26:39Z</time>
      </trkpt>
      <trkpt lat="41.3786120" lon="1.1474940">
        <ele>387.5</ele>
        <time>2021-09-30T08:26:40Z</time>
      </trkpt>
      <trkpt lat="41.3786160" lon="1.1474650">
        <ele>387.7</ele>
        <time>2021-09-30T08:26:41Z</time>
      </trkpt>
      <trkpt lat="41.3786190" lon="1.1474360">
        <ele>387.9</ele>
        <time>2021-09-30T08:26:42Z</time>
      </trkpt>
      <trkpt lat="41.3786220" lon="1.1474060">
        <ele>388.1</ele>
        <time>2021-09-30T08:26:43Z</time>
      </trkpt>
      <trkpt lat="41.3786260" lon="1.1473770">
        <ele>388.3</ele>
        <time>2021-09-30T08:26:44Z</time>
      </trkpt>
      <trkpt lat="41.3786290" lon="1.1473480">
        <ele>388.5</ele>
        <time>2021-09-30T08:26:45Z</time>
      </trkpt>
      <trkpt lat="41.3786330" lon="1.1473180">
        <ele>388.7</ele>
        <time>2021-09-30T08:26:46Z</time>
      </trkpt>
      <trkpt lat="41.3786360" lon="1.1472890">
        <ele>388.9</ele>
        <time>2021-09-30T08:26:47Z</time>
      </trkpt>
      <trkpt lat="41.3786370" lon="1.1472540">
        <ele>389.1</ele>
        <time>2021-09-30T08:26:48Z</time>
      </trkpt>
      <trkpt lat="41.3786380" lon="1.1472190">
        <ele>389.4</ele>
        <time>2021-09-30T08:26:49Z</time>
      </trkpt>
      <trkpt lat="41.3786400" lon="1.1471840">
        <ele>389.6</ele>
        <time>2021-09-30T08:26:50Z</time>
      </trkpt>
      <trkpt lat="41.3786410" lon="1.1471490">
        <ele>389.8</ele>
        <time>2021-09-30T08:26:51Z</time>
      </trkpt>
      <trkpt lat="41.3786420" lon="1.1471140">
        <ele>390.1</ele>
        <time>2021-09-30T08:26:52Z</time>
      </trkpt>
      <trkpt lat="41.3786430" lon="1.1470800">
        <ele>390.3</ele>
        <time>2021-09-30T08:26:53Z</time>
      </trkpt>
      <trkpt lat="41.3786440" lon="1.1470450">
        <ele>390.6</ele>
        <time>2021-09-30T08:26:54Z</time>
      </trkpt>
      <trkpt lat="41.3786450" lon="1.1470100">
        <ele>390.8</ele>
        <time>2021-09-30T08:26:55Z</time>
      </trkpt>
      <trkpt lat="41.3786470" lon="1.1469750">
        <ele>391.1</ele>
        <time>2021-09-30T08:26:56Z</time>
      </trkpt>
      <trkpt lat="41.3786480" lon="1.1469400">
        <ele>391.3</ele>
        <time>2021-09-30T08:26:57Z</time>
      </trkpt>
      <trkpt lat="41.3786490" lon="1.1469050">
        <ele>391.5</ele>
        <time>2021-09-30T08:26:58Z</time>
      </trkpt>
      <trkpt lat="41.3786580" lon="1.1468620">
        <ele>391.8</ele>
        <time>2021-09-30T08:26:59Z</time>
      </trkpt>
      <trkpt lat="41.3786670" lon="1.1468190">
        <ele>392.0</ele>
        <time>2021-09-30T08:27:00Z</time>
      </trkpt>
      <trkpt lat="41.3786760" lon="1.1467770">
        <ele>392.3</ele>
        <time>2021-09-30T08:27:01Z</time>
      </trkpt>
      <trkpt lat="41.3786850" lon="1.1467340">
        <ele>392.5</ele>
        <time>2021-09-30T08:27:02Z</time>
      </trkpt>
      <trkpt lat="41.3786940" lon="1.1466910">
        <ele>392.8</ele>
        <time>2021-09-30T08:27:03Z</time>
      </trkpt>
      <trkpt lat="41.3787030" lon="1.1466480">
        <ele>393.2</ele>
        <time>2021-09-30T08:27:04Z</time>
      </trkpt>
      <trkpt lat="41.3787120" lon="1.1466060">
        <ele>393.4</ele>
        <time>2021-09-30T08:27:05Z</time>
      </trkpt>
      <trkpt lat="41.3787210" lon="1.1465630">
        <ele>393.6</ele>
        <time>2021-09-30T08:27:06Z</time>
      </trkpt>
      <trkpt lat="41.3787300" lon="1.1465200">
        <ele>393.8</ele>
        <time>2021-09-30T08:27:07Z</time>
      </trkpt>
      <trkpt lat="41.3787410" lon="1.1465020">
        <ele>393.9</ele>
        <time>2021-09-30T08:27:08Z</time>
      </trkpt>
      <trkpt lat="41.3787510" lon="1.1464830">
        <ele>394.0</ele>
        <time>2021-09-30T08:27:09Z</time>
      </trkpt>
      <trkpt lat="41.3787620" lon="1.1464650">
        <ele>394.4</ele>
        <time>2021-09-30T08:27:10Z</time>
      </trkpt>
      <trkpt lat="41.3787720" lon="1.1464460">
        <ele>394.6</ele>
        <time>2021-09-30T08:27:11Z</time>
      </trkpt>
      <trkpt lat="41.3787830" lon="1.1464280">
        <ele>394.8</ele>
        <time>2021-09-30T08:27:12Z</time>
      </trkpt>
      <trkpt lat="41.3787930" lon="1.1464090">
        <ele>395.1</ele>
        <time>2021-09-30T08:27:13Z</time>
      </trkpt>
      <trkpt lat="41.3788040" lon="1.1463910">
        <ele>395.3</ele>
        <time>2021-09-30T08:27:14Z</time>
      </trkpt>
      <trkpt lat="41.3788140" lon="1.1463720">
        <ele>395.6</ele>
        <time>2021-09-30T08:27:15Z</time>
      </trkpt>
      <trkpt lat="41.3788250" lon="1.1463540">
        <ele>395.8</ele>
        <time>2021-09-30T08:27:16Z</time>
      </trkpt>
      <trkpt lat="41.3788340" lon="1.1463300">
        <ele>396.1</ele>
        <time>2021-09-30T08:27:17Z</time>
      </trkpt>
      <trkpt lat="41.3788420" lon="1.1463070">
        <ele>396.3</ele>
        <time>2021-09-30T08:27:18Z</time>
      </trkpt>
      <trkpt lat="41.3788510" lon="1.1462830">
        <ele>396.6</ele>
        <time>2021-09-30T08:27:19Z</time>
      </trkpt>
      <trkpt lat="41.3788590" lon="1.1462590">
        <ele>396.8</ele>
        <time>2021-09-30T08:27:20Z</time>
      </trkpt>
      <trkpt lat="41.3788680" lon="1.1462360">
        <ele>397.1</ele>
        <time>2021-09-30T08:27:21Z</time>
      </trkpt>
      <trkpt lat="41.3788760" lon="1.1462120">
        <ele>397.3</ele>
        <time>2021-09-30T08:27:22Z</time>
      </trkpt>
      <trkpt lat="41.3788850" lon="1.1461880">
        <ele>397.6</ele>
        <time>2021-09-30T08:27:23Z</time>
      </trkpt>
      <trkpt lat="41.3788930" lon="1.1461640">
        <ele>397.9</ele>
        <time>2021-09-30T08:27:24Z</time>
      </trkpt>
      <trkpt lat="41.3789020" lon="1.1461410">
        <ele>398.1</ele>
        <time>2021-09-30T08:27:25Z</time>
      </trkpt>
      <trkpt lat="41.3789100" lon="1.1461170">
        <ele>398.4</ele>
        <time>2021-09-30T08:27:26Z</time>
      </trkpt>
      <trkpt lat="41.3789180" lon="1.1461000">
        <ele>398.6</ele>
        <time>2021-09-30T08:27:27Z</time>
      </trkpt>
      <trkpt lat="41.3789260" lon="1.1460830">
        <ele>398.8</ele>
        <time>2021-09-30T08:27:28Z</time>
      </trkpt>
      <trkpt lat="41.3789340" lon="1.1460650">
        <ele>399.0</ele>
        <time>2021-09-30T08:27:29Z</time>
      </trkpt>
      <trkpt lat="41.3789420" lon="1.1460480">
        <ele>399.2</ele>
        <time>2021-09-30T08:27:30Z</time>
      </trkpt>
      <trkpt lat="41.3789500" lon="1.1460310">
        <ele>399.4</ele>
        <time>2021-09-30T08:27:31Z</time>
      </trkpt>
      <trkpt lat="41.3789590" lon="1.1460140">
        <ele>399.6</ele>
        <time>2021-09-30T08:27:32Z</time>
      </trkpt>
      <trkpt lat="41.3789670" lon="1.1459970">
        <ele>399.8</ele>
        <time>2021-09-30T08:27:33Z</time>
      </trkpt>
      <trkpt lat="41.3789750" lon="1.1459800">
        <ele>400.0</ele>
        <time>2021-09-30T08:27:34Z</time>
      </trkpt>
      <trkpt lat="41.3789830" lon="1.1459620">
        <ele>400.2</ele>
        <time>2021-09-30T08:27:35Z</time>
      </trkpt>
      <trkpt lat="41.3789910" lon="1.1459450">
        <ele>400.4</ele>
        <time>2021-09-30T08:27:36Z</time>
      </trkpt>
      <trkpt lat="41.3789990" lon="1.1459280">
        <ele>400.6</ele>
        <time>2021-09-30T08:27:37Z</time>
      </trkpt>
      <trkpt lat="41.3790030" lon="1.1458920">
        <ele>401.0</ele>
        <time>2021-09-30T08:27:38Z</time>
      </trkpt>
      <trkpt lat="41.3790070" lon="1.1458560">
        <ele>401.3</ele>
        <time>2021-09-30T08:27:39Z</time>
      </trkpt>
      <trkpt lat="41.3790110" lon="1.1458200">
        <ele>401.6</ele>
        <time>2021-09-30T08:27:40Z</time>
      </trkpt>
      <trkpt lat="41.3790150" lon="1.1457840">
        <ele>402.0</ele>
        <time>2021-09-30T08:27:41Z</time>
      </trkpt>
      <trkpt lat="41.3790180" lon="1.1457470">
        <ele>402.3</ele>
        <time>2021-09-30T08:27:42Z</time>
      </trkpt>
      <trkpt lat="41.3790220" lon="1.1457110">
        <ele>402.6</ele>
        <time>2021-09-30T08:27:43Z</time>
      </trkpt>
      <trkpt lat="41.3790260" lon="1.1456750">
        <ele>402.9</ele>
        <time>2021-09-30T08:27:44Z</time>
      </trkpt>
      <trkpt lat="41.3790300" lon="1.1456390">
        <ele>403.2</ele>
        <time>2021-09-30T08:27:45Z</time>
      </trkpt>
      <trkpt lat="41.3790340" lon="1.1456030">
        <ele>403.5</ele>
        <time>2021-09-30T08:27:46Z</time>
      </trkpt>
      <trkpt lat="41.3790380" lon="1.1455860">
        <ele>403.6</ele>
        <time>2021-09-30T08:27:47Z</time>
      </trkpt>
      <trkpt lat="41.3790410" lon="1.1455690">
        <ele>403.7</ele>
        <time>2021-09-30T08:27:48Z</time>
      </trkpt>
      <trkpt lat="41.3790450" lon="1.1455520">
        <ele>403.9</ele>
        <time>2021-09-30T08:27:49Z</time>
      </trkpt>
      <trkpt lat="41.3790480" lon="1.1455350">
        <ele>404.0</ele>
        <time>2021-09-30T08:27:50Z</time>
      </trkpt>
      <trkpt lat="41.3790520" lon="1.1455180">
        <ele>404.1</ele>
        <time>2021-09-30T08:27:51Z</time>
      </trkpt>
      <trkpt lat="41.3790560" lon="1.1455010">
        <ele>404.2</ele>
        <time>2021-09-30T08:27:52Z</time>
      </trkpt>
      <trkpt lat="41.3790590" lon="1.1454840">
        <ele>404.4</ele>
        <time>2021-09-30T08:27:53Z</time>
      </trkpt>
      <trkpt lat="41.3790630" lon="1.1454670">
        <ele>404.5</ele>
        <time>2021-09-30T08:27:54Z</time>
      </trkpt>
      <trkpt lat="41.3790660" lon="1.1454500">
        <ele>404.6</ele>
        <time>2021-09-30T08:27:55Z</time>
      </trkpt>
      <trkpt lat="41.3790700" lon="1.1454330">
        <ele>404.7</ele>
        <time>2021-09-30T08:27:56Z</time>
      </trkpt>
      <trkpt lat="41.3790720" lon="1.1453980">
        <ele>405.0</ele>
        <time>2021-09-30T08:27:57Z</time>
      </trkpt>
      <trkpt lat="41.3790750" lon="1.1453630">
        <ele>405.2</ele>
        <time>2021-09-30T08:27:58Z</time>
      </trkpt>
      <trkpt lat="41.3790770" lon="1.1453280">
        <ele>405.4</ele>
        <time>2021-09-30T08:27:59Z</time>
      </trkpt>
      <trkpt lat="41.3790800" lon="1.1452930">
        <ele>405.7</ele>
        <time>2021-09-30T08:28:00Z</time>
      </trkpt>
      <trkpt lat="41.3790820" lon="1.1452580">
        <ele>405.9</ele>
        <time>2021-09-30T08:28:01Z</time>
      </trkpt>
      <trkpt lat="41.3790840" lon="1.1452230">
        <ele>406.2</ele>
        <time>2021-09-30T08:28:02Z</time>
      </trkpt>
      <trkpt lat="41.3790870" lon="1.1451880">
        <ele>406.4</ele>
        <time>2021-09-30T08:28:03Z</time>
      </trkpt>
      <trkpt lat="41.3790890" lon="1.1451530">
        <ele>406.7</ele>
        <time>2021-09-30T08:28:04Z</time>
      </trkpt>
      <trkpt lat="41.3790920" lon="1.1451180">
        <ele>407.0</ele>
        <time>2021-09-30T08:28:05Z</time>
      </trkpt>
      <trkpt lat="41.3790940" lon="1.1450830">
        <ele>407.3</ele>
        <time>2021-09-30T08:28:06Z</time>
      </trkpt>
      <trkpt lat="41.3790910" lon="1.1450550">
        <ele>407.5</ele>
        <time>2021-09-30T08:28:07Z</time>
      </trkpt>
      <trkpt lat="41.3790890" lon="1.1450280">
        <ele>407.7</ele>
        <time>2021-09-30T08:28:08Z</time>
      </trkpt>
      <trkpt lat="41.3790860" lon="1.1450000">
        <ele>407.9</ele>
        <time>2021-09-30T08:28:09Z</time>
      </trkpt>
      <trkpt lat="41.3790840" lon="1.1449720">
        <ele>408.1</ele>
        <time>2021-09-30T08:28:10Z</time>
      </trkpt>
      <trkpt lat="41.3790810" lon="1.1449440">
        <ele>408.3</ele>
        <time>2021-09-30T08:28:11Z</time>
      </trkpt>
      <trkpt lat="41.3790790" lon="1.1449170">
        <ele>408.5</ele>
        <time>2021-09-30T08:28:12Z</time>
      </trkpt>
      <trkpt lat="41.3790760" lon="1.1448890">
        <ele>408.8</ele>
        <time>2021-09-30T08:28:13Z</time>
      </trkpt>
      <trkpt lat="41.3790740" lon="1.1448610">
        <ele>409.0</ele>
        <time>2021-09-30T08:28:14Z</time>
      </trkpt>
      <trkpt lat="41.3790710" lon="1.1448330">
        <ele>409.2</ele>
        <time>2021-09-30T08:28:15Z</time>
      </trkpt>
      <trkpt lat="41.3790690" lon="1.1448060">
        <ele>409.4</ele>
        <time>2021-09-30T08:28:16Z</time>
      </trkpt>
      <trkpt lat="41.3790660" lon="1.1447780">
        <ele>409.7</ele>
        <time>2021-09-30T08:28:17Z</time>
      </trkpt>
      <trkpt lat="41.3790770" lon="1.1447630">
        <ele>409.8</ele>
        <time>2021-09-30T08:28:18Z</time>
      </trkpt>
      <trkpt lat="41.3790880" lon="1.1447470">
        <ele>410.0</ele>
        <time>2021-09-30T08:28:19Z</time>
      </trkpt>
      <trkpt lat="41.3790990" lon="1.1447320">
        <ele>410.2</ele>
        <time>2021-09-30T08:28:20Z</time>
      </trkpt>
      <trkpt lat="41.3791100" lon="1.1447160">
        <ele>410.3</ele>
        <time>2021-09-30T08:28:21Z</time>
      </trkpt>
      <trkpt lat="41.3791210" lon="1.1447010">
        <ele>410.5</ele>
        <time>2021-09-30T08:28:22Z</time>
      </trkpt>
      <trkpt lat="41.3791310" lon="1.1446850">
        <ele>410.6</ele>
        <time>2021-09-30T08:28:23Z</time>
      </trkpt>
      <trkpt lat="41.3791420" lon="1.1446700">
        <ele>410.8</ele>
        <time>2021-09-30T08:28:24Z</time>
      </trkpt>
      <trkpt lat="41.3791530" lon="1.1446540">
        <ele>410.9</ele>
        <time>2021-09-30T08:28:25Z</time>
      </trkpt>
      <trkpt lat="41.3791640" lon="1.1446390">
        <ele>411.1</ele>
        <time>2021-09-30T08:28:26Z</time>
      </trkpt>
      <trkpt lat="41.3791750" lon="1.1446230">
        <ele>411.2</ele>
        <time>2021-09-30T08:28:27Z</time>
      </trkpt>
      <trkpt lat="41.3791860" lon="1.1446080">
        <ele>411.4</ele>
        <time>2021-09-30T08:28:28Z</time>
      </trkpt>
      <trkpt lat="41.3791860" lon="1.1445850">
        <ele>411.6</ele>
        <time>2021-09-30T08:28:29Z</time>
      </trkpt>
      <trkpt lat="41.3791860" lon="1.1445620">
        <ele>411.7</ele>
        <time>2021-09-30T08:28:30Z</time>
      </trkpt>
      <trkpt lat="41.3791860" lon="1.1445390">
        <ele>411.9</ele>
        <time>2021-09-30T08:28:31Z</time>
      </trkpt>
      <trkpt lat="41.3791860" lon="1.1445160">
        <ele>412.1</ele>
        <time>2021-09-30T08:28:32Z</time>
      </trkpt>
      <trkpt lat="41.3791870" lon="1.1444940">
        <ele>412.3</ele>
        <time>2021-09-30T08:28:33Z</time>
      </trkpt>
      <trkpt lat="41.3791870" lon="1.1444710">
        <ele>412.4</ele>
        <time>2021-09-30T08:28:34Z</time>
      </trkpt>
      <trkpt lat="41.3791870" lon="1.1444480">
        <ele>412.6</ele>
        <time>2021-09-30T08:28:35Z</time>
      </trkpt>
      <trkpt lat="41.3791870" lon="1.1444250">
        <ele>412.8</ele>
        <time>2021-09-30T08:28:36Z</time>
      </trkpt>
      <trkpt lat="41.3791870" lon="1.1444020">
        <ele>413.0</ele>
        <time>2021-09-30T08:28:37Z</time>
      </trkpt>
      <trkpt lat="41.3791870" lon="1.1443790">
        <ele>413.1</ele>
        <time>2021-09-30T08:28:38Z</time>
      </trkpt>
      <trkpt lat="41.3791810" lon="1.1443570">
        <ele>413.3</ele>
        <time>2021-09-30T08:28:39Z</time>
      </trkpt>
      <trkpt lat="41.3791760" lon="1.1443350">
        <ele>413.5</ele>
        <time>2021-09-30T08:28:40Z</time>
      </trkpt>
      <trkpt lat="41.3791700" lon="1.1443140">
        <ele>413.7</ele>
        <time>2021-09-30T08:28:41Z</time>
      </trkpt>
      <trkpt lat="41.3791640" lon="1.1442920">
        <ele>413.9</ele>
        <time>2021-09-30T08:28:42Z</time>
      </trkpt>
      <trkpt lat="41.3791590" lon="1.1442700">
        <ele>414.0</ele>
        <time>2021-09-30T08:28:43Z</time>
      </trkpt>
      <trkpt lat="41.3791530" lon="1.1442480">
        <ele>414.2</ele>
        <time>2021-09-30T08:28:44Z</time>
      </trkpt>
      <trkpt lat="41.3791480" lon="1.1442260">
        <ele>414.4</ele>
        <time>2021-09-30T08:28:45Z</time>
      </trkpt>
      <trkpt lat="41.3791420" lon="1.1442040">
        <ele>414.5</ele>
        <time>2021-09-30T08:28:46Z</time>
      </trkpt>
      <trkpt lat="41.3791360" lon="1.1441830">
        <ele>414.7</ele>
        <time>2021-09-30T08:28:47Z</time>
      </trkpt>
      <trkpt lat="41.3791310" lon="1.1441610">
        <ele>414.9</ele>
        <time>2021-09-30T08:28:48Z</time>
      </trkpt>
      <trkpt lat="41.3791250" lon="1.1441390">
        <ele>415.0</ele>
        <time>2021-09-30T08:28:49Z</time>
      </trkpt>
      <trkpt lat="41.3791010" lon="1.1440980">
        <ele>415.4</ele>
        <time>2021-09-30T08:28:50Z</time>
      </trkpt>
      <trkpt lat="41.3790770" lon="1.1440570">
        <ele>415.7</ele>
        <time>2021-09-30T08:28:51Z</time>
      </trkpt>
      <trkpt lat="41.3790530" lon="1.1440160">
        <ele>416.0</ele>
        <time>2021-09-30T08:28:52Z</time>
      </trkpt>
      <trkpt lat="41.3790290" lon="1.1439750">
        <ele>416.4</ele>
        <time>2021-09-30T08:28:53Z</time>
      </trkpt>
      <trkpt lat="41.3790050" lon="1.1439340">
        <ele>416.7</ele>
        <time>2021-09-30T08:28:54Z</time>
      </trkpt>
      <trkpt lat="41.3789800" lon="1.1438930">
        <ele>417.0</ele>
        <time>2021-09-30T08:28:55Z</time>
      </trkpt>
      <trkpt lat="41.3789560" lon="1.1438520">
        <ele>417.3</ele>
        <time>2021-09-30T08:28:56Z</time>
      </trkpt>
      <trkpt lat="41.3789320" lon="1.1438110">
        <ele>417.6</ele>
        <time>2021-09-30T08:28:57Z</time>
      </trkpt>
      <trkpt lat="41.3789080" lon="1.1437700">
        <ele>417.9</ele>
        <time>2021-09-30T08:28:58Z</time>
      </trkpt>
      <trkpt lat="41.3788840" lon="1.1437290">
        <ele>418.2</ele>
        <time>2021-09-30T08:28:59Z</time>
      </trkpt>
      <trkpt lat="41.3788840" lon="1.1437290">
        <ele>418.2</ele>
        <time>2021-09-30T08:29:17Z</time>
      </trkpt>
      <trkpt lat="41.3788840" lon="1.1437290">
        <ele>418.2</ele>
        <time>2021-09-30T08:29:18Z</time>
      </trkpt>
      <trkpt lat="41.3788840" lon="1.1437290">
        <ele>418.2</ele>
        <time>2021-09-30T08:29:19Z</time>
      </trkpt>
      <trkpt lat="41.3788760" lon="1.1436900">
        <ele>418.4</ele>
        <time>2021-09-30T08:29:20Z</time>
      </trkpt>
      <trkpt lat="41.3788690" lon="1.1436510">
        <ele>418.7</ele>
        <time>2021-09-30T08:29:21Z</time>
      </trkpt>
      <trkpt lat="41.3788610" lon="1.1436120">
        <ele>418.9</ele>
        <time>2021-09-30T08:29:22Z</time>
      </trkpt>
      <trkpt lat="41.3788530" lon="1.1435730">
        <ele>419.1</ele>
        <time>2021-09-30T08:29:23Z</time>
      </trkpt>
      <trkpt lat="41.3788460" lon="1.1435330">
        <ele>419.4</ele>
        <time>2021-09-30T08:29:24Z</time>
      </trkpt>
      <trkpt lat="41.3788380" lon="1.1434940">
        <ele>419.6</ele>
        <time>2021-09-30T08:29:25Z</time>
      </trkpt>
      <trkpt lat="41.3788300" lon="1.1434550">
        <ele>419.9</ele>
        <time>2021-09-30T08:29:26Z</time>
      </trkpt>
      <trkpt lat="41.3788220" lon="1.1434160">
        <ele>420.1</ele>
        <time>2021-09-30T08:29:27Z</time>
      </trkpt>
      <trkpt lat="41.3788150" lon="1.1433770">
        <ele>420.4</ele>
        <time>2021-09-30T08:29:28Z</time>
      </trkpt>
      <trkpt lat="41.3788070" lon="1.1433380">
        <ele>420.6</ele>
        <time>2021-09-30T08:29:29Z</time>
      </trkpt>
      <trkpt lat="41.3787870" lon="1.1433200">
        <ele>420.8</ele>
        <time>2021-09-30T08:29:30Z</time>
      </trkpt>
      <trkpt lat="41.3787670" lon="1.1433030">
        <ele>421.0</ele>
        <time>2021-09-30T08:29:31Z</time>
      </trkpt>
      <trkpt lat="41.3787480" lon="1.1432850">
        <ele>421.2</ele>
        <time>2021-09-30T08:29:32Z</time>
      </trkpt>
      <trkpt lat="41.3787280" lon="1.1432670">
        <ele>421.4</ele>
        <time>2021-09-30T08:29:33Z</time>
      </trkpt>
      <trkpt lat="41.3787080" lon="1.1432500">
        <ele>421.6</ele>
        <time>2021-09-30T08:29:34Z</time>
      </trkpt>
      <trkpt lat="41.3786880" lon="1.1432320">
        <ele>421.9</ele>
        <time>2021-09-30T08:29:35Z</time>
      </trkpt>
      <trkpt lat="41.3786680" lon="1.1432150">
        <ele>422.1</ele>
        <time>2021-09-30T08:29:36Z</time>
      </trkpt>
      <trkpt lat="41.3786480" lon="1.1431970">
        <ele>422.3</ele>
        <time>2021-09-30T08:29:37Z</time>
      </trkpt>
      <trkpt lat="41.3786290" lon="1.1431790">
        <ele>422.5</ele>
        <time>2021-09-30T08:29:38Z</time>
      </trkpt>
      <trkpt lat="41.3786090" lon="1.1431620">
        <ele>422.7</ele>
        <time>2021-09-30T08:29:39Z</time>
      </trkpt>
      <trkpt lat="41.3785890" lon="1.1431440">
        <ele>422.9</ele>
        <time>2021-09-30T08:29:40Z</time>
      </trkpt>
      <trkpt lat="41.3785640" lon="1.1431160">
        <ele>423.2</ele>
        <time>2021-09-30T08:29:41Z</time>
      </trkpt>
      <trkpt lat="41.3785380" lon="1.1430880">
        <ele>423.6</ele>
        <time>2021-09-30T08:29:42Z</time>
      </trkpt>
      <trkpt lat="41.3785130" lon="1.1430590">
        <ele>423.9</ele>
        <time>2021-09-30T08:29:43Z</time>
      </trkpt>
      <trkpt lat="41.3784880" lon="1.1430310">
        <ele>424.2</ele>
        <time>2021-09-30T08:29:44Z</time>
      </trkpt>
      <trkpt lat="41.3784630" lon="1.1430030">
        <ele>424.5</ele>
        <time>2021-09-30T08:29:45Z</time>
      </trkpt>
      <trkpt lat="41.3784370" lon="1.1429750">
        <ele>424.8</ele>
        <time>2021-09-30T08:29:46Z</time>
      </trkpt>
      <trkpt lat="41.3784120" lon="1.1429470">
        <ele>425.1</ele>
        <time>2021-09-30T08:29:47Z</time>
      </trkpt>
      <trkpt lat="41.3783870" lon="1.1429180">
        <ele>425.4</ele>
        <time>2021-09-30T08:29:48Z</time>
      </trkpt>
      <trkpt lat="41.3783610" lon="1.1428900">
        <ele>425.7</ele>
        <time>2021-09-30T08:29:49Z</time>
      </trkpt>
      <trkpt lat="41.3783360" lon="1.1428620">
        <ele>426.0</ele>
        <time>2021-09-30T08:29:50Z</time>
      </trkpt>
      <trkpt lat="41.3783200" lon="1.1428480">
        <ele>426.2</ele>
        <time>2021-09-30T08:29:51Z</time>
      </trkpt>
      <trkpt lat="41.3783030" lon="1.1428330">
        <ele>426.3</ele>
        <time>2021-09-30T08:29:52Z</time>
      </trkpt>
      <trkpt lat="41.3782870" lon="1.1428190">
        <ele>426.5</ele>
        <time>2021-09-30T08:29:53Z</time>
      </trkpt>
      <trkpt lat="41.3782700" lon="1.1428050">
        <ele>426.7</ele>
        <time>2021-09-30T08:29:54Z</time>
      </trkpt>
      <trkpt lat="41.3782540" lon="1.1427900">
        <ele>426.9</ele>
        <time>2021-09-30T08:29:55Z</time>
      </trkpt>
      <trkpt lat="41.3782380" lon="1.1427760">
        <ele>427.1</ele>
        <time>2021-09-30T08:29:56Z</time>
      </trkpt>
      <trkpt lat="41.3782210" lon="1.1427620">
        <ele>427.3</ele>
        <time>2021-09-30T08:29:57Z</time>
      </trkpt>
      <trkpt lat="41.3782050" lon="1.1427480">
        <ele>427.5</ele>
        <time>2021-09-30T08:29:58Z</time>
      </trkpt>
      <trkpt lat="41.3781880" lon="1.1427330">
        <ele>427.7</ele>
        <time>2021-09-30T08:29:59Z</time>
      </trkpt>
      <trkpt lat="41.3781720" lon="1.1427190">
        <ele>427.9</ele>
        <time>2021-09-30T08:30:00Z</time>
      </trkpt>
      <trkpt lat="41.3781510" lon="1.1426980">
        <ele>428.2</ele>
        <time>2021-09-30T08:30:01Z</time>
      </trkpt>
      <trkpt lat="41.3781310" lon="1.1426770">
        <ele>428.4</ele>
        <time>2021-09-30T08:30:02Z</time>
      </trkpt>
      <trkpt lat="41.3781100" lon="1.1426560">
        <ele>428.7</ele>
        <time>2021-09-30T08:30:03Z</time>
      </trkpt>
      <trkpt lat="41.3780890" lon="1.1426350">
        <ele>429.0</ele>
        <time>2021-09-30T08:30:04Z</time>
      </trkpt>
      <trkpt lat="41.3780690" lon="1.1426130">
        <ele>429.2</ele>
        <time>2021-09-30T08:30:05Z</time>
      </trkpt>
      <trkpt lat="41.3780480" lon="1.1425920">
        <ele>429.5</ele>
        <time>2021-09-30T08:30:06Z</time>
      </trkpt>
      <trkpt lat="41.3780270" lon="1.1425710">
        <ele>429.7</ele>
        <time>2021-09-30T08:30:07Z</time>
      </trkpt>
      <trkpt lat="41.3780060" lon="1.1425500">
        <ele>430.0</ele>
        <time>2021-09-30T08:30:08Z</time>
      </trkpt>
      <trkpt lat="41.3779860" lon="1.1425290">
        <ele>430.2</ele>
        <time>2021-09-30T08:30:09Z</time>
      </trkpt>
      <trkpt lat="41.3779650" lon="1.1425080">
        <ele>430.5</ele>
        <time>2021-09-30T08:30:10Z</time>
      </trkpt>
      <trkpt lat="41.3779590" lon="1.1424830">
        <ele>430.7</ele>
        <time>2021-09-30T08:30:11Z</time>
      </trkpt>
      <trkpt lat="41.3779520" lon="1.1424590">
        <ele>430.9</ele>
        <time>2021-09-30T08:30:12Z</time>
      </trkpt>
      <trkpt lat="41.3779460" lon="1.1424340">
        <ele>431.1</ele>
        <time>2021-09-30T08:30:13Z</time>
      </trkpt>
      <trkpt lat="41.3779390" lon="1.1424100">
        <ele>431.3</ele>
        <time>2021-09-30T08:30:14Z</time>
      </trkpt>
      <trkpt lat="41.3779330" lon="1.1423850">
        <ele>431.5</ele>
        <time>2021-09-30T08:30:15Z</time>
      </trkpt>
      <trkpt lat="41.3779260" lon="1.1423610">
        <ele>431.6</ele>
        <time>2021-09-30T08:30:16Z</time>
      </trkpt>
      <trkpt lat="41.3779200" lon="1.1423360">
        <ele>431.8</ele>
        <time>2021-09-30T08:30:17Z</time>
      </trkpt>
      <trkpt lat="41.3779130" lon="1.1423120">
        <ele>432.0</ele>
        <time>2021-09-30T08:30:18Z</time>
      </trkpt>
      <trkpt lat="41.3779070" lon="1.1422870">
        <ele>432.2</ele>
        <time>2021-09-30T08:30:19Z</time>
      </trkpt>
      <trkpt lat="41.3779000" lon="1.1422630">
        <ele>432.4</ele>
        <time>2021-09-30T08:30:20Z</time>
      </trkpt>
      <trkpt lat="41.3779040" lon="1.1422430">
        <ele>432.5</ele>
        <time>2021-09-30T08:30:21Z</time>
      </trkpt>
      <trkpt lat="41.3779090" lon="1.1422220">
        <ele>432.7</ele>
        <time>2021-09-30T08:30:22Z</time>
      </trkpt>
      <trkpt lat="41.3779130" lon="1.1422020">
        <ele>432.8</ele>
        <time>2021-09-30T08:30:23Z</time>
      </trkpt>
      <trkpt lat="41.3779170" lon="1.1421810">
        <ele>432.9</ele>
        <time>2021-09-30T08:30:24Z</time>
      </trkpt>
      <trkpt lat="41.3779220" lon="1.1421610">
        <ele>433.0</ele>
        <time>2021-09-30T08:30:25Z</time>
      </trkpt>
      <trkpt lat="41.3779260" lon="1.1421400">
        <ele>433.1</ele>
        <time>2021-09-30T08:30:26Z</time>
      </trkpt>
      <trkpt lat="41.3779310" lon="1.1421200">
        <ele>433.2</ele>
        <time>2021-09-30T08:30:27Z</time>
      </trkpt>
      <trkpt lat="41.3779350" lon="1.1420990">
        <ele>433.3</ele>
        <time>2021-09-30T08:30:28Z</time>
      </trkpt>
      <trkpt lat="41.3779390" lon="1.1420790">
        <ele>433.4</ele>
        <time>2021-09-30T08:30:29Z</time>
      </trkpt>
      <trkpt lat="41.3779440" lon="1.1420580">
        <ele>433.5</ele>
        <time>2021-09-30T08:30:30Z</time>
      </trkpt>
      <trkpt lat="41.3779480" lon="1.1420380">
        <ele>433.6</ele>
        <time>2021-09-30T08:30:31Z</time>
      </trkpt>
      <trkpt lat="41.3779350" lon="1.1420120">
        <ele>433.8</ele>
        <time>2021-09-30T08:30:32Z</time>
      </trkpt>
      <trkpt lat="41.3779230" lon="1.1419860">
        <ele>433.9</ele>
        <time>2021-09-30T08:30:33Z</time>
      </trkpt>
      <trkpt lat="41.3779100" lon="1.1419600">
        <ele>434.1</ele>
        <time>2021-09-30T08:30:34Z</time>
      </trkpt>
      <trkpt lat="41.3778970" lon="1.1419340">
        <ele>434.2</ele>
        <time>2021-09-30T08:30:35Z</time>
      </trkpt>
      <trkpt lat="41.3778840" lon="1.1419080">
        <ele>434.3</ele>
        <time>2021-09-30T08:30:36Z</time>
      </trkpt>
      <trkpt lat="41.3778720" lon="1.1418820">
        <ele>434.5</ele>
        <time>2021-09-30T08:30:37Z</time>
      </trkpt>
      <trkpt lat="41.3778590" lon="1.1418560">
        <ele>434.6</ele>
        <time>2021-09-30T08:30:38Z</time>
      </trkpt>
      <trkpt lat="41.3778460" lon="1.1418300">
        <ele>434.7</ele>
        <time>2021-09-30T08:30:39Z</time>
      </trkpt>
      <trkpt lat="41.3778330" lon="1.1418040">
        <ele>434.8</ele>
        <time>2021-09-30T08:30:40Z</time>
      </trkpt>
      <trkpt lat="41.3778210" lon="1.1417780">
        <ele>435.0</ele>
        <time>2021-09-30T08:30:41Z</time>
      </trkpt>
      <trkpt lat="41.3778080" lon="1.1417520">
        <ele>435.1</ele>
        <time>2021-09-30T08:30:42Z</time>
      </trkpt>
      <trkpt lat="41.3778040" lon="1.1417360">
        <ele>435.1</ele>
        <time>2021-09-30T08:30:43Z</time>
      </trkpt>
      <trkpt lat="41.3778010" lon="1.1417200">
        <ele>435.2</ele>
        <time>2021-09-30T08:30:44Z</time>
      </trkpt>
      <trkpt lat="41.3777970" lon="1.1417050">
        <ele>435.3</ele>
        <time>2021-09-30T08:30:45Z</time>
      </trkpt>
      <trkpt lat="41.3777930" lon="1.1416890">
        <ele>435.3</ele>
        <time>2021-09-30T08:30:46Z</time>
      </trkpt>
      <trkpt lat="41.3777890" lon="1.1416730">
        <ele>435.4</ele>
        <time>2021-09-30T08:30:47Z</time>
      </trkpt>
      <trkpt lat="41.3777860" lon="1.1416570">
        <ele>435.5</ele>
        <time>2021-09-30T08:30:48Z</time>
      </trkpt>
      <trkpt lat="41.3777820" lon="1.1416410">
        <ele>435.5</ele>
        <time>2021-09-30T08:30:49Z</time>
      </trkpt>
      <trkpt lat="41.3777780" lon="1.1416260">
        <ele>435.6</ele>
        <time>2021-09-30T08:30:50Z</time>
      </trkpt>
      <trkpt lat="41.3777750" lon="1.1416100">
        <ele>435.6</ele>
        <time>2021-09-30T08:30:51Z</time>
      </trkpt>
      <trkpt lat="41.3777710" lon="1.1415940">
        <ele>435.7</ele>
        <time>2021-09-30T08:30:52Z</time>
      </trkpt>
      <trkpt lat="41.3777670" lon="1.1415780">
        <ele>435.8</ele>
        <time>2021-09-30T08:30:53Z</time>
      </trkpt>
      <trkpt lat="41.3777630" lon="1.1415620">
        <ele>435.8</ele>
        <time>2021-09-30T08:30:54Z</time>
      </trkpt>
      <trkpt lat="41.3777600" lon="1.1415460">
        <ele>435.9</ele>
        <time>2021-09-30T08:30:55Z</time>
      </trkpt>
      <trkpt lat="41.3777560" lon="1.1415310">
        <ele>435.9</ele>
        <time>2021-09-30T08:30:56Z</time>
      </trkpt>
      <trkpt lat="41.3777520" lon="1.1415150">
        <ele>436.0</ele>
        <time>2021-09-30T08:30:57Z</time>
      </trkpt>
      <trkpt lat="41.3777490" lon="1.1414990">
        <ele>436.1</ele>
        <time>2021-09-30T08:30:58Z</time>
      </trkpt>
      <trkpt lat="41.3777450" lon="1.1414830">
        <ele>436.1</ele>
        <time>2021-09-30T08:30:59Z</time>
      </trkpt>
      <trkpt lat="41.3777410" lon="1.1414670">
        <ele>436.2</ele>
        <time>2021-09-30T08:31:00Z</time>
      </trkpt>
      <trkpt lat="41.3777370" lon="1.1414520">
        <ele>436.3</ele>
        <time>2021-09-30T08:31:01Z</time>
      </trkpt>
      <trkpt lat="41.3777340" lon="1.1414360">
        <ele>436.3</ele>
        <time>2021-09-30T08:31:02Z</time>
      </trkpt>
      <trkpt lat="41.3777300" lon="1.1414200">
        <ele>436.4</ele>
        <time>2021-09-30T08:31:03Z</time>
      </trkpt>
      <trkpt lat="41.3777140" lon="1.1413990">
        <ele>436.5</ele>
        <time>2021-09-30T08:31:04Z</time>
      </trkpt>
      <trkpt lat="41.3776970" lon="1.1413790">
        <ele>436.6</ele>
        <time>2021-09-30T08:31:05Z</time>
      </trkpt>
      <trkpt lat="41.3776810" lon="1.1413580">
        <ele>436.7</ele>
        <time>2021-09-30T08:31:06Z</time>
      </trkpt>
      <trkpt lat="41.3776640" lon="1.1413380">
        <ele>436.8</ele>
        <time>2021-09-30T08:31:07Z</time>
      </trkpt>
      <trkpt lat="41.3776480" lon="1.1413170">
        <ele>436.9</ele>
        <time>2021-09-30T08:31:08Z</time>
      </trkpt>
      <trkpt lat="41.3776310" lon="1.1412970">
        <ele>437.0</ele>
        <time>2021-09-30T08:31:09Z</time>
      </trkpt>
      <trkpt lat="41.3776150" lon="1.1412760">
        <ele>437.2</ele>
        <time>2021-09-30T08:31:10Z</time>
      </trkpt>
      <trkpt lat="41.3775980" lon="1.1412560">
        <ele>437.3</ele>
        <time>2021-09-30T08:31:11Z</time>
      </trkpt>
      <trkpt lat="41.3775820" lon="1.1412350">
        <ele>437.4</ele>
        <time>2021-09-30T08:31:12Z</time>
      </trkpt>
      <trkpt lat="41.3775600" lon="1.1412180">
        <ele>437.5</ele>
        <time>2021-09-30T08:31:13Z</time>
      </trkpt>
      <trkpt lat="41.3775380" lon="1.1412020">
        <ele>437.6</ele>
        <time>2021-09-30T08:31:14Z</time>
      </trkpt>
      <trkpt lat="41.3775160" lon="1.1411850">
        <ele>437.8</ele>
        <time>2021-09-30T08:31:15Z</time>
      </trkpt>
      <trkpt lat="41.3774940" lon="1.1411690">
        <ele>437.9</ele>
        <time>2021-09-30T08:31:16Z</time>
      </trkpt>
      <trkpt lat="41.3774720" lon="1.1411520">
        <ele>438.0</ele>
        <time>2021-09-30T08:31:17Z</time>
      </trkpt>
      <trkpt lat="41.3774490" lon="1.1411360">
        <ele>438.2</ele>
        <time>2021-09-30T08:31:18Z</time>
      </trkpt>
      <trkpt lat="41.3774270" lon="1.1411190">
        <ele>438.3</ele>
        <time>2021-09-30T08:31:19Z</time>
      </trkpt>
      <trkpt lat="41.3774050" lon="1.1411030">
        <ele>438.4</ele>
        <time>2021-09-30T08:31:20Z</time>
      </trkpt>
      <trkpt lat="41.3773830" lon="1.1410860">
        <ele>438.5</ele>
        <time>2021-09-30T08:31:21Z</time>
      </trkpt>
      <trkpt lat="41.3773610" lon="1.1410700">
        <ele>438.6</ele>
        <time>2021-09-30T08:31:22Z</time>
      </trkpt>
      <trkpt lat="41.3773500" lon="1.1410190">
        <ele>438.8</ele>
        <time>2021-09-30T08:31:23Z</time>
      </trkpt>
      <trkpt lat="41.3773390" lon="1.1409680">
        <ele>439.0</ele>
        <time>2021-09-30T08:31:24Z</time>
      </trkpt>
      <trkpt lat="41.3773290" lon="1.1409160">
        <ele>439.2</ele>
        <time>2021-09-30T08:31:25Z</time>
      </trkpt>
      <trkpt lat="41.3773180" lon="1.1408650">
        <ele>439.4</ele>
        <time>2021-09-30T08:31:26Z</time>
      </trkpt>
      <trkpt lat="41.3773070" lon="1.1408140">
        <ele>439.6</ele>
        <time>2021-09-30T08:31:27Z</time>
      </trkpt>
      <trkpt lat="41.3772960" lon="1.1407630">
        <ele>439.8</ele>
        <time>2021-09-30T08:31:28Z</time>
      </trkpt>
      <trkpt lat="41.3772850" lon="1.1407120">
        <ele>440.0</ele>
        <time>2021-09-30T08:31:29Z</time>
      </trkpt>
      <trkpt lat="41.3772750" lon="1.1406600">
        <ele>440.2</ele>
        <time>2021-09-30T08:31:30Z</time>
      </trkpt>
      <trkpt lat="41.3772640" lon="1.1406090">
        <ele>440.4</ele>
        <time>2021-09-30T08:31:31Z</time>
      </trkpt>
      <trkpt lat="41.3772530" lon="1.1405580">
        <ele>440.6</ele>
        <time>2021-09-30T08:31:32Z</time>
      </trkpt>
      <trkpt lat="41.3772490" lon="1.1405330">
        <ele>440.7</ele>
        <time>2021-09-30T08:31:33Z</time>
      </trkpt>
      <trkpt lat="41.3772460" lon="1.1405080">
        <ele>440.8</ele>
        <time>2021-09-30T08:31:34Z</time>
      </trkpt>
      <trkpt lat="41.3772420" lon="1.1404830">
        <ele>440.9</ele>
        <time>2021-09-30T08:31:35Z</time>
      </trkpt>
      <trkpt lat="41.3772380" lon="1.1404580">
        <ele>441.0</ele>
        <time>2021-09-30T08:31:36Z</time>
      </trkpt>
      <trkpt lat="41.3772350" lon="1.1404320">
        <ele>441.1</ele>
        <time>2021-09-30T08:31:37Z</time>
      </trkpt>
      <trkpt lat="41.3772310" lon="1.1404070">
        <ele>441.2</ele>
        <time>2021-09-30T08:31:38Z</time>
      </trkpt>
      <trkpt lat="41.3772270" lon="1.1403820">
        <ele>441.3</ele>
        <time>2021-09-30T08:31:39Z</time>
      </trkpt>
      <trkpt lat="41.3772230" lon="1.1403570">
        <ele>441.4</ele>
        <time>2021-09-30T08:31:40Z</time>
      </trkpt>
      <trkpt lat="41.3772200" lon="1.1403320">
        <ele>441.5</ele>
        <time>2021-09-30T08:31:41Z</time>
      </trkpt>
      <trkpt lat="41.3772160" lon="1.1403070">
        <ele>441.5</ele>
        <time>2021-09-30T08:31:42Z</time>
      </trkpt>
      <trkpt lat="41.3772030" lon="1.1402870">
        <ele>441.6</ele>
        <time>2021-09-30T08:31:43Z</time>
      </trkpt>
      <trkpt lat="41.3771910" lon="1.1402660">
        <ele>441.6</ele>
        <time>2021-09-30T08:31:44Z</time>
      </trkpt>
      <trkpt lat="41.3771780" lon="1.1402460">
        <ele>441.7</ele>
        <time>2021-09-30T08:31:45Z</time>
      </trkpt>
      <trkpt lat="41.3771660" lon="1.1402260">
        <ele>441.7</ele>
        <time>2021-09-30T08:31:46Z</time>
      </trkpt>
      <trkpt lat="41.3771530" lon="1.1402060">
        <ele>441.8</ele>
        <time>2021-09-30T08:31:47Z</time>
      </trkpt>
      <trkpt lat="41.3771410" lon="1.1401850">
        <ele>441.8</ele>
        <time>2021-09-30T08:31:48Z</time>
      </trkpt>
      <trkpt lat="41.3771280" lon="1.1401650">
        <ele>441.9</ele>
        <time>2021-09-30T08:31:49Z</time>
      </trkpt>
      <trkpt lat="41.3771160" lon="1.1401450">
        <ele>441.9</ele>
        <time>2021-09-30T08:31:50Z</time>
      </trkpt>
      <trkpt lat="41.3771030" lon="1.1401250">
        <ele>442.0</ele>
        <time>2021-09-30T08:31:51Z</time>
      </trkpt>
      <trkpt lat="41.3770910" lon="1.1401040">
        <ele>442.0</ele>
        <time>2021-09-30T08:31:52Z</time>
      </trkpt>
      <trkpt lat="41.3770780" lon="1.1400840">
        <ele>442.1</ele>
        <time>2021-09-30T08:31:53Z</time>
      </trkpt>
      <trkpt lat="41.3770600" lon="1.1400870">
        <ele>442.5</ele>
        <time>2021-09-30T08:31:54Z</time>
      </trkpt>
      <trkpt lat="41.3770420" lon="1.1400890">
        <ele>443.1</ele>
        <time>2021-09-30T08:31:55Z</time>
      </trkpt>
      <trkpt lat="41.3770240" lon="1.1400920">
        <ele>443.7</ele>
        <time>2021-09-30T08:31:56Z</time>
      </trkpt>
      <trkpt lat="41.3770060" lon="1.1400950">
        <ele>444.2</ele>
        <time>2021-09-30T08:31:57Z</time>
      </trkpt>
      <trkpt lat="41.3769880" lon="1.1400980">
        <ele>444.8</ele>
        <time>2021-09-30T08:31:58Z</time>
      </trkpt>
      <trkpt lat="41.3769700" lon="1.1401000">
        <ele>445.4</ele>
        <time>2021-09-30T08:31:59Z</time>
      </trkpt>
      <trkpt lat="41.3769520" lon="1.1401030">
        <ele>445.9</ele>
        <time>2021-09-30T08:32:00Z</time>
      </trkpt>
      <trkpt lat="41.3769340" lon="1.1401060">
        <ele>446.5</ele>
        <time>2021-09-30T08:32:01Z</time>
      </trkpt>
      <trkpt lat="41.3769160" lon="1.1401090">
        <ele>447.1</ele>
        <time>2021-09-30T08:32:02Z</time>
      </trkpt>
      <trkpt lat="41.3768980" lon="1.1401110">
        <ele>447.7</ele>
        <time>2021-09-30T08:32:03Z</time>
      </trkpt>
      <trkpt lat="41.3768800" lon="1.1401140">
        <ele>448.3</ele>
        <time>2021-09-30T08:32:04Z</time>
      </trkpt>
      <trkpt lat="41.3768750" lon="1.1401180">
        <ele>448.5</ele>
        <time>2021-09-30T08:32:05Z</time>
      </trkpt>
      <trkpt lat="41.3768700" lon="1.1401230">
        <ele>448.7</ele>
        <time>2021-09-30T08:32:06Z</time>
      </trkpt>
      <trkpt lat="41.3768640" lon="1.1401270">
        <ele>448.9</ele>
        <time>2021-09-30T08:32:07Z</time>
      </trkpt>
      <trkpt lat="41.3768590" lon="1.1401310">
        <ele>449.1</ele>
        <time>2021-09-30T08:32:08Z</time>
      </trkpt>
      <trkpt lat="41.3768540" lon="1.1401350">
        <ele>449.3</ele>
        <time>2021-09-30T08:32:09Z</time>
      </trkpt>
      <trkpt lat="41.3768490" lon="1.1401400">
        <ele>449.5</ele>
        <time>2021-09-30T08:32:10Z</time>
      </trkpt>
      <trkpt lat="41.3768430" lon="1.1401440">
        <ele>449.8</ele>
        <time>2021-09-30T08:32:11Z</time>
      </trkpt>
      <trkpt lat="41.3768380" lon="1.1401480">
        <ele>450.0</ele>
        <time>2021-09-30T08:32:12Z</time>
      </trkpt>
      <trkpt lat="41.3768330" lon="1.1401530">
        <ele>450.2</ele>
        <time>2021-09-30T08:32:13Z</time>
      </trkpt>
      <trkpt lat="41.3768280" lon="1.1401570">
        <ele>450.4</ele>
        <time>2021-09-30T08:32:14Z</time>
      </trkpt>
      <trkpt lat="41.3768220" lon="1.1401610">
        <ele>450.7</ele>
        <time>2021-09-30T08:32:15Z</time>
      </trkpt>
      <trkpt lat="41.3768170" lon="1.1401650">
        <ele>450.9</ele>
        <time>2021-09-30T08:32:16Z</time>
      </trkpt>
      <trkpt lat="41.3768120" lon="1.1401700">
        <ele>451.1</ele>
        <time>2021-09-30T08:32:17Z</time>
      </trkpt>
      <trkpt lat="41.3768070" lon="1.1401740">
        <ele>451.3</ele>
        <time>2021-09-30T08:32:18Z</time>
      </trkpt>
      <trkpt lat="41.3768010" lon="1.1401780">
        <ele>451.6</ele>
        <time>2021-09-30T08:32:19Z</time>
      </trkpt>
      <trkpt lat="41.3767960" lon="1.1401830">
        <ele>451.8</ele>
        <time>2021-09-30T08:32:20Z</time>
      </trkpt>
      <trkpt lat="41.3767910" lon="1.1401870">
        <ele>452.0</ele>
        <time>2021-09-30T08:32:21Z</time>
      </trkpt>
      <trkpt lat="41.3767860" lon="1.1401910">
        <ele>452.2</ele>
        <time>2021-09-30T08:32:22Z</time>
      </trkpt>
      <trkpt lat="41.3767800" lon="1.1401950">
        <ele>452.5</ele>
        <time>2021-09-30T08:32:23Z</time>
      </trkpt>
      <trkpt lat="41.3767750" lon="1.1402000">
        <ele>452.7</ele>
        <time>2021-09-30T08:32:24Z</time>
      </trkpt>
      <trkpt lat="41.3767700" lon="1.1402040">
        <ele>452.9</ele>
        <time>2021-09-30T08:32:25Z</time>
      </trkpt>
      <trkpt lat="41.3767470" lon="1.1402130">
        <ele>453.9</ele>
        <time>2021-09-30T08:32:26Z</time>
      </trkpt>
      <trkpt lat="41.3767230" lon="1.1402230">
        <ele>454.8</ele>
        <time>2021-09-30T08:32:27Z</time>
      </trkpt>
      <trkpt lat="41.3767000" lon="1.1402320">
        <ele>455.8</ele>
        <time>2021-09-30T08:32:28Z</time>
      </trkpt>
      <trkpt lat="41.3766770" lon="1.1402420">
        <ele>456.7</ele>
        <time>2021-09-30T08:32:29Z</time>
      </trkpt>
      <trkpt lat="41.3766540" lon="1.1402510">
        <ele>457.6</ele>
        <time>2021-09-30T08:32:30Z</time>
      </trkpt>
      <trkpt lat="41.3766300" lon="1.1402600">
        <ele>458.6</ele>
        <time>2021-09-30T08:32:31Z</time>
      </trkpt>
      <trkpt lat="41.3766070" lon="1.1402700">
        <ele>459.5</ele>
        <time>2021-09-30T08:32:32Z</time>
      </trkpt>
      <trkpt lat="41.3765840" lon="1.1402790">
        <ele>460.4</ele>
        <time>2021-09-30T08:32:33Z</time>
      </trkpt>
      <trkpt lat="41.3765600" lon="1.1402890">
        <ele>461.4</ele>
        <time>2021-09-30T08:32:34Z</time>
      </trkpt>
      <trkpt lat="41.3765370" lon="1.1402980">
        <ele>462.3</ele>
        <time>2021-09-30T08:32:35Z</time>
      </trkpt>
      <trkpt lat="41.3765260" lon="1.1403070">
        <ele>462.8</ele>
        <time>2021-09-30T08:32:36Z</time>
      </trkpt>
      <trkpt lat="41.3765140" lon="1.1403170">
        <ele>463.4</ele>
        <time>2021-09-30T08:32:37Z</time>
      </trkpt>
      <trkpt lat="41.3765030" lon="1.1403260">
        <ele>463.9</ele>
        <time>2021-09-30T08:32:38Z</time>
      </trkpt>
      <trkpt lat="41.3764910" lon="1.1403350">
        <ele>464.4</ele>
        <time>2021-09-30T08:32:39Z</time>
      </trkpt>
      <trkpt lat="41.3764800" lon="1.1403450">
        <ele>464.9</ele>
        <time>2021-09-30T08:32:40Z</time>
      </trkpt>
      <trkpt lat="41.3764680" lon="1.1403540">
        <ele>465.5</ele>
        <time>2021-09-30T08:32:41Z</time>
      </trkpt>
      <trkpt lat="41.3764570" lon="1.1403630">
        <ele>466.0</ele>
        <time>2021-09-30T08:32:42Z</time>
      </trkpt>
      <trkpt lat="41.3764450" lon="1.1403730">
        <ele>466.5</ele>
        <time>2021-09-30T08:32:43Z</time>
      </trkpt>
      <trkpt lat="41.3764340" lon="1.1403820">
        <ele>467.0</ele>
        <time>2021-09-30T08:32:44Z</time>
      </trkpt>
      <trkpt lat="41.3764320" lon="1.1403960">
        <ele>467.4</ele>
        <time>2021-09-30T08:32:45Z</time>
      </trkpt>
      <trkpt lat="41.3764310" lon="1.1404100">
        <ele>467.8</ele>
        <time>2021-09-30T08:32:46Z</time>
      </trkpt>
      <trkpt lat="41.3764290" lon="1.1404240">
        <ele>468.2</ele>
        <time>2021-09-30T08:32:47Z</time>
      </trkpt>
      <trkpt lat="41.3764270" lon="1.1404380">
        <ele>468.6</ele>
        <time>2021-09-30T08:32:48Z</time>
      </trkpt>
      <trkpt lat="41.3764250" lon="1.1404520">
        <ele>469.0</ele>
        <time>2021-09-30T08:32:49Z</time>
      </trkpt>
      <trkpt lat="41.3764240" lon="1.1404670">
        <ele>469.4</ele>
        <time>2021-09-30T08:32:50Z</time>
      </trkpt>
      <trkpt lat="41.3764220" lon="1.1404810">
        <ele>469.8</ele>
        <time>2021-09-30T08:32:51Z</time>
      </trkpt>
      <trkpt lat="41.3764200" lon="1.1404950">
        <ele>470.2</ele>
        <time>2021-09-30T08:32:52Z</time>
      </trkpt>
      <trkpt lat="41.3764180" lon="1.1405090">
        <ele>470.6</ele>
        <time>2021-09-30T08:32:53Z</time>
      </trkpt>
      <trkpt lat="41.3764170" lon="1.1405230">
        <ele>470.9</ele>
        <time>2021-09-30T08:32:54Z</time>
      </trkpt>
      <trkpt lat="41.3764150" lon="1.1405370">
        <ele>471.3</ele>
        <time>2021-09-30T08:32:55Z</time>
      </trkpt>
      <trkpt lat="41.3764130" lon="1.1405510">
        <ele>471.7</ele>
        <time>2021-09-30T08:32:56Z</time>
      </trkpt>
      <trkpt lat="41.3764030" lon="1.1405540">
        <ele>472.0</ele>
        <time>2021-09-30T08:32:57Z</time>
      </trkpt>
      <trkpt lat="41.3763930" lon="1.1405570">
        <ele>472.3</ele>
        <time>2021-09-30T08:32:58Z</time>
      </trkpt>
      <trkpt lat="41.3763830" lon="1.1405610">
        <ele>472.7</ele>
        <time>2021-09-30T08:32:59Z</time>
      </trkpt>
      <trkpt lat="41.3763730" lon="1.1405640">
        <ele>473.0</ele>
        <time>2021-09-30T08:33:00Z</time>
      </trkpt>
      <trkpt lat="41.3763630" lon="1.1405670">
        <ele>473.3</ele>
        <time>2021-09-30T08:33:01Z</time>
      </trkpt>
      <trkpt lat="41.3763520" lon="1.1405700">
        <ele>473.6</ele>
        <time>2021-09-30T08:33:02Z</time>
      </trkpt>
      <trkpt lat="41.3763420" lon="1.1405730">
        <ele>473.9</ele>
        <time>2021-09-30T08:33:03Z</time>
      </trkpt>
      <trkpt lat="41.3763320" lon="1.1405770">
        <ele>474.3</ele>
        <time>2021-09-30T08:33:04Z</time>
      </trkpt>
      <trkpt lat="41.3763220" lon="1.1405800">
        <ele>474.6</ele>
        <time>2021-09-30T08:33:05Z</time>
      </trkpt>
      <trkpt lat="41.3763120" lon="1.1405830">
        <ele>474.8</ele>
        <time>2021-09-30T08:33:06Z</time>
      </trkpt>
      <trkpt lat="41.3763020" lon="1.1405910">
        <ele>475.1</ele>
        <time>2021-09-30T08:33:07Z</time>
      </trkpt>
      <trkpt lat="41.3762930" lon="1.1405980">
        <ele>475.4</ele>
        <time>2021-09-30T08:33:08Z</time>
      </trkpt>
      <trkpt lat="41.3762830" lon="1.1406060">
        <ele>475.7</ele>
        <time>2021-09-30T08:33:09Z</time>
      </trkpt>
      <trkpt lat="41.3762730" lon="1.1406140">
        <ele>476.0</ele>
        <time>2021-09-30T08:33:10Z</time>
      </trkpt>
      <trkpt lat="41.3762640" lon="1.1406220">
        <ele>476.3</ele>
        <time>2021-09-30T08:33:11Z</time>
      </trkpt>
      <trkpt lat="41.3762540" lon="1.1406290">
        <ele>476.5</ele>
        <time>2021-09-30T08:33:12Z</time>
      </trkpt>
      <trkpt lat="41.3762450" lon="1.1406370">
        <ele>476.8</ele>
        <time>2021-09-30T08:33:13Z</time>
      </trkpt>
      <trkpt lat="41.3762350" lon="1.1406450">
        <ele>477.1</ele>
        <time>2021-09-30T08:33:14Z</time>
      </trkpt>
      <trkpt lat="41.3762250" lon="1.1406530">
        <ele>477.3</ele>
        <time>2021-09-30T08:33:15Z</time>
      </trkpt>
      <trkpt lat="41.3762160" lon="1.1406600">
        <ele>477.5</ele>
        <time>2021-09-30T08:33:16Z</time>
      </trkpt>
      <trkpt lat="41.3762060" lon="1.1406680">
        <ele>477.7</ele>
        <time>2021-09-30T08:33:17Z</time>
      </trkpt>
      <trkpt lat="41.3761900" lon="1.1406660">
        <ele>478.0</ele>
        <time>2021-09-30T08:33:18Z</time>
      </trkpt>
      <trkpt lat="41.3761750" lon="1.1406640">
        <ele>478.3</ele>
        <time>2021-09-30T08:33:19Z</time>
      </trkpt>
      <trkpt lat="41.3761590" lon="1.1406610">
        <ele>478.6</ele>
        <time>2021-09-30T08:33:20Z</time>
      </trkpt>
      <trkpt lat="41.3761440" lon="1.1406590">
        <ele>478.8</ele>
        <time>2021-09-30T08:33:21Z</time>
      </trkpt>
      <trkpt lat="41.3761280" lon="1.1406570">
        <ele>479.0</ele>
        <time>2021-09-30T08:33:22Z</time>
      </trkpt>
      <trkpt lat="41.3761130" lon="1.1406550">
        <ele>479.2</ele>
        <time>2021-09-30T08:33:23Z</time>
      </trkpt>
      <trkpt lat="41.3760970" lon="1.1406530">
        <ele>479.4</ele>
        <time>2021-09-30T08:33:24Z</time>
      </trkpt>
      <trkpt lat="41.3760820" lon="1.1406510">
        <ele>479.6</ele>
        <time>2021-09-30T08:33:25Z</time>
      </trkpt>
      <trkpt lat="41.3760660" lon="1.1406480">
        <ele>479.8</ele>
        <time>2021-09-30T08:33:26Z</time>
      </trkpt>
      <trkpt lat="41.3760510" lon="1.1406460">
        <ele>480.0</ele>
        <time>2021-09-30T08:33:27Z</time>
      </trkpt>
      <trkpt lat="41.3760350" lon="1.1406440">
        <ele>480.1</ele>
        <time>2021-09-30T08:33:28Z</time>
      </trkpt>
      <trkpt lat="41.3760130" lon="1.1406330">
        <ele>480.4</ele>
        <time>2021-09-30T08:33:29Z</time>
      </trkpt>
      <trkpt lat="41.3759920" lon="1.1406220">
        <ele>480.7</ele>
        <time>2021-09-30T08:33:30Z</time>
      </trkpt>
      <trkpt lat="41.3759700" lon="1.1406110">
        <ele>481.0</ele>
        <time>2021-09-30T08:33:31Z</time>
      </trkpt>
      <trkpt lat="41.3759490" lon="1.1406000">
        <ele>481.3</ele>
        <time>2021-09-30T08:33:32Z</time>
      </trkpt>
      <trkpt lat="41.3759270" lon="1.1405880">
        <ele>481.7</ele>
        <time>2021-09-30T08:33:33Z</time>
      </trkpt>
      <trkpt lat="41.3759050" lon="1.1405770">
        <ele>482.1</ele>
        <time>2021-09-30T08:33:34Z</time>
      </trkpt>
      <trkpt lat="41.3758840" lon="1.1405660">
        <ele>482.5</ele>
        <time>2021-09-30T08:33:35Z</time>
      </trkpt>
      <trkpt lat="41.3758620" lon="1.1405550">
        <ele>483.0</ele>
        <time>2021-09-30T08:33:36Z</time>
      </trkpt>
      <trkpt lat="41.3758410" lon="1.1405440">
        <ele>483.4</ele>
        <time>2021-09-30T08:33:37Z</time>
      </trkpt>
      <trkpt lat="41.3758190" lon="1.1405330">
        <ele>483.9</ele>
        <time>2021-09-30T08:33:38Z</time>
      </trkpt>
      <trkpt lat="41.3758070" lon="1.1405400">
        <ele>484.2</ele>
        <time>2021-09-30T08:33:39Z</time>
      </trkpt>
      <trkpt lat="41.3757960" lon="1.1405460">
        <ele>484.5</ele>
        <time>2021-09-30T08:33:40Z</time>
      </trkpt>
      <trkpt lat="41.3757840" lon="1.1405530">
        <ele>484.8</ele>
        <time>2021-09-30T08:33:41Z</time>
      </trkpt>
      <trkpt lat="41.3757720" lon="1.1405590">
        <ele>485.0</ele>
        <time>2021-09-30T08:33:42Z</time>
      </trkpt>
      <trkpt lat="41.3757610" lon="1.1405660">
        <ele>485.3</ele>
        <time>2021-09-30T08:33:43Z</time>
      </trkpt>
      <trkpt lat="41.3757490" lon="1.1405720">
        <ele>485.6</ele>
        <time>2021-09-30T08:33:44Z</time>
      </trkpt>
      <trkpt lat="41.3757370" lon="1.1405790">
        <ele>485.9</ele>
        <time>2021-09-30T08:33:45Z</time>
      </trkpt>
      <trkpt lat="41.3757250" lon="1.1405850">
        <ele>486.2</ele>
        <time>2021-09-30T08:33:46Z</time>
      </trkpt>
      <trkpt lat="41.3757140" lon="1.1405920">
        <ele>486.5</ele>
        <time>2021-09-30T08:33:47Z</time>
      </trkpt>
      <trkpt lat="41.3757020" lon="1.1405980">
        <ele>486.8</ele>
        <time>2021-09-30T08:33:48Z</time>
      </trkpt>
      <trkpt lat="41.3756850" lon="1.1405950">
        <ele>487.2</ele>
        <time>2021-09-30T08:33:49Z</time>
      </trkpt>
      <trkpt lat="41.3756690" lon="1.1405920">
        <ele>487.6</ele>
        <time>2021-09-30T08:33:50Z</time>
      </trkpt>
      <trkpt lat="41.3756520" lon="1.1405890">
        <ele>488.0</ele>
        <time>2021-09-30T08:33:51Z</time>
      </trkpt>
      <trkpt lat="41.3756350" lon="1.1405860">
        <ele>488.4</ele>
        <time>2021-09-30T08:33:52Z</time>
      </trkpt>
      <trkpt lat="41.3756190" lon="1.1405830">
        <ele>488.7</ele>
        <time>2021-09-30T08:33:53Z</time>
      </trkpt>
      <trkpt lat="41.3756020" lon="1.1405810">
        <ele>489.1</ele>
        <time>2021-09-30T08:33:54Z</time>
      </trkpt>
      <trkpt lat="41.3755860" lon="1.1405780">
        <ele>489.5</ele>
        <time>2021-09-30T08:33:55Z</time>
      </trkpt>
      <trkpt lat="41.3755690" lon="1.1405750">
        <ele>489.9</ele>
        <time>2021-09-30T08:33:56Z</time>
      </trkpt>
      <trkpt lat="41.3755520" lon="1.1405720">
        <ele>490.2</ele>
        <time>2021-09-30T08:33:57Z</time>
      </trkpt>
      <trkpt lat="41.3755360" lon="1.1405690">
        <ele>490.6</ele>
        <time>2021-09-30T08:33:58Z</time>
      </trkpt>
      <trkpt lat="41.3755190" lon="1.1405660">
        <ele>490.9</ele>
        <time>2021-09-30T08:33:59Z</time>
      </trkpt>
      <trkpt lat="41.3755130" lon="1.1405550">
        <ele>491.1</ele>
        <time>2021-09-30T08:34:00Z</time>
      </trkpt>
      <trkpt lat="41.3755070" lon="1.1405450">
        <ele>491.3</ele>
        <time>2021-09-30T08:34:01Z</time>
      </trkpt>
      <trkpt lat="41.3755010" lon="1.1405340">
        <ele>491.5</ele>
        <time>2021-09-30T08:34:02Z</time>
      </trkpt>
      <trkpt lat="41.3754960" lon="1.1405240">
        <ele>491.7</ele>
        <time>2021-09-30T08:34:03Z</time>
      </trkpt>
      <trkpt lat="41.3754900" lon="1.1405130">
        <ele>491.9</ele>
        <time>2021-09-30T08:34:04Z</time>
      </trkpt>
      <trkpt lat="41.3754840" lon="1.1405020">
        <ele>492.1</ele>
        <time>2021-09-30T08:34:05Z</time>
      </trkpt>
      <trkpt lat="41.3754780" lon="1.1404920">
        <ele>492.3</ele>
        <time>2021-09-30T08:34:06Z</time>
      </trkpt>
      <trkpt lat="41.3754720" lon="1.1404810">
        <ele>492.5</ele>
        <time>2021-09-30T08:34:07Z</time>
      </trkpt>
      <trkpt lat="41.3754660" lon="1.1404710">
        <ele>492.7</ele>
        <time>2021-09-30T08:34:08Z</time>
      </trkpt>
      <trkpt lat="41.3754610" lon="1.1404600">
        <ele>492.8</ele>
        <time>2021-09-30T08:34:09Z</time>
      </trkpt>
      <trkpt lat="41.3754550" lon="1.1404490">
        <ele>493.0</ele>
        <time>2021-09-30T08:34:10Z</time>
      </trkpt>
      <trkpt lat="41.3754490" lon="1.1404390">
        <ele>493.2</ele>
        <time>2021-09-30T08:34:11Z</time>
      </trkpt>
      <trkpt lat="41.3754430" lon="1.1404280">
        <ele>493.5</ele>
        <time>2021-09-30T08:34:12Z</time>
      </trkpt>
      <trkpt lat="41.3754370" lon="1.1404180">
        <ele>493.7</ele>
        <time>2021-09-30T08:34:13Z</time>
      </trkpt>
      <trkpt lat="41.3754310" lon="1.1404070">
        <ele>493.9</ele>
        <time>2021-09-30T08:34:14Z</time>
      </trkpt>
      <trkpt lat="41.3754250" lon="1.1403960">
        <ele>494.1</ele>
        <time>2021-09-30T08:34:15Z</time>
      </trkpt>
      <trkpt lat="41.3754200" lon="1.1403860">
        <ele>494.3</ele>
        <time>2021-09-30T08:34:16Z</time>
      </trkpt>
      <trkpt lat="41.3754140" lon="1.1403750">
        <ele>494.6</ele>
        <time>2021-09-30T08:34:17Z</time>
      </trkpt>
      <trkpt lat="41.3754080" lon="1.1403650">
        <ele>494.8</ele>
        <time>2021-09-30T08:34:18Z</time>
      </trkpt>
      <trkpt lat="41.3754020" lon="1.1403540">
        <ele>495.0</ele>
        <time>2021-09-30T08:34:19Z</time>
      </trkpt>
      <trkpt lat="41.3753910" lon="1.1403520">
        <ele>495.3</ele>
        <time>2021-09-30T08:34:20Z</time>
      </trkpt>
      <trkpt lat="41.3753800" lon="1.1403500">
        <ele>495.6</ele>
        <time>2021-09-30T08:34:21Z</time>
      </trkpt>
      <trkpt lat="41.3753690" lon="1.1403480">
        <ele>495.9</ele>
        <time>2021-09-30T08:34:22Z</time>
      </trkpt>
      <trkpt lat="41.3753570" lon="1.1403470">
        <ele>496.2</ele>
        <time>2021-09-30T08:34:23Z</time>
      </trkpt>
      <trkpt lat="41.3753460" lon="1.1403450">
        <ele>496.5</ele>
        <time>2021-09-30T08:34:24Z</time>
      </trkpt>
      <trkpt lat="41.3753350" lon="1.1403430">
        <ele>496.8</ele>
        <time>2021-09-30T08:34:25Z</time>
      </trkpt>
      <trkpt lat="41.3753240" lon="1.1403410">
        <ele>497.2</ele>
        <time>2021-09-30T08:34:26Z</time>
      </trkpt>
      <trkpt lat="41.3753130" lon="1.1403390">
        <ele>497.5</ele>
        <time>2021-09-30T08:34:27Z</time>
      </trkpt>
      <trkpt lat="41.3753020" lon="1.1403370">
        <ele>497.8</ele>
        <time>2021-09-30T08:34:28Z</time>
      </trkpt>
      <trkpt lat="41.3752910" lon="1.1403350">
        <ele>498.2</ele>
        <time>2021-09-30T08:34:29Z</time>
      </trkpt>
      <trkpt lat="41.3752800" lon="1.1403330">
        <ele>498.5</ele>
        <time>2021-09-30T08:34:30Z</time>
      </trkpt>
      <trkpt lat="41.3752680" lon="1.1403320">
        <ele>498.9</ele>
        <time>2021-09-30T08:34:31Z</time>
      </trkpt>
      <trkpt lat="41.3752570" lon="1.1403300">
        <ele>499.3</ele>
        <time>2021-09-30T08:34:32Z</time>
      </trkpt>
      <trkpt lat="41.3752460" lon="1.1403280">
        <ele>499.7</ele>
        <time>2021-09-30T08:34:33Z</time>
      </trkpt>
      <trkpt lat="41.3752350" lon="1.1403260">
        <ele>500.1</ele>
        <time>2021-09-30T08:34:34Z</time>
      </trkpt>
      <trkpt lat="41.3752240" lon="1.1403240">
        <ele>500.4</ele>
        <time>2021-09-30T08:34:35Z</time>
      </trkpt>
      <trkpt lat="41.3752130" lon="1.1403220">
        <ele>500.8</ele>
        <time>2021-09-30T08:34:36Z</time>
      </trkpt>
      <trkpt lat="41.3752020" lon="1.1403200">
        <ele>501.2</ele>
        <time>2021-09-30T08:34:37Z</time>
      </trkpt>
      <trkpt lat="41.3751900" lon="1.1403190">
        <ele>501.7</ele>
        <time>2021-09-30T08:34:38Z</time>
      </trkpt>
      <trkpt lat="41.3751790" lon="1.1403170">
        <ele>502.1</ele>
        <time>2021-09-30T08:34:39Z</time>
      </trkpt>
      <trkpt lat="41.3751680" lon="1.1403150">
        <ele>502.5</ele>
        <time>2021-09-30T08:34:40Z</time>
      </trkpt>
      <trkpt lat="41.3751570" lon="1.1403130">
        <ele>502.9</ele>
        <time>2021-09-30T08:34:41Z</time>
      </trkpt>
      <trkpt lat="41.3751460" lon="1.1403110">
        <ele>503.3</ele>
        <time>2021-09-30T08:34:42Z</time>
      </trkpt>
      <trkpt lat="41.3751350" lon="1.1403090">
        <ele>503.7</ele>
        <time>2021-09-30T08:34:43Z</time>
      </trkpt>
      <trkpt lat="41.3751240" lon="1.1403070">
        <ele>504.1</ele>
        <time>2021-09-30T08:34:44Z</time>
      </trkpt>
      <trkpt lat="41.3751130" lon="1.1403050">
        <ele>504.6</ele>
        <time>2021-09-30T08:34:45Z</time>
      </trkpt>
      <trkpt lat="41.3751010" lon="1.1403040">
        <ele>505.0</ele>
        <time>2021-09-30T08:34:46Z</time>
      </trkpt>
      <trkpt lat="41.3750900" lon="1.1403020">
        <ele>505.4</ele>
        <time>2021-09-30T08:34:47Z</time>
      </trkpt>
      <trkpt lat="41.3750790" lon="1.1403000">
        <ele>505.8</ele>
        <time>2021-09-30T08:34:48Z</time>
      </trkpt>
      <trkpt lat="41.3750680" lon="1.1402980">
        <ele>506.2</ele>
        <time>2021-09-30T08:34:49Z</time>
      </trkpt>
      <trkpt lat="41.3750570" lon="1.1402970">
        <ele>506.6</ele>
        <time>2021-09-30T08:34:50Z</time>
      </trkpt>
      <trkpt lat="41.3750460" lon="1.1402960">
        <ele>507.0</ele>
        <time>2021-09-30T08:34:51Z</time>
      </trkpt>
      <trkpt lat="41.3750350" lon="1.1402940">
        <ele>507.4</ele>
        <time>2021-09-30T08:34:52Z</time>
      </trkpt>
      <trkpt lat="41.3750240" lon="1.1402930">
        <ele>507.7</ele>
        <time>2021-09-30T08:34:53Z</time>
      </trkpt>
      <trkpt lat="41.3750130" lon="1.1402920">
        <ele>508.1</ele>
        <time>2021-09-30T08:34:54Z</time>
      </trkpt>
      <trkpt lat="41.3750020" lon="1.1402910">
        <ele>508.4</ele>
        <time>2021-09-30T08:34:55Z</time>
      </trkpt>
      <trkpt lat="41.3749910" lon="1.1402900">
        <ele>508.8</ele>
        <time>2021-09-30T08:34:56Z</time>
      </trkpt>
      <trkpt lat="41.3749800" lon="1.1402880">
        <ele>509.1</ele>
        <time>2021-09-30T08:34:57Z</time>
      </trkpt>
      <trkpt lat="41.3749690" lon="1.1402870">
        <ele>509.4</ele>
        <time>2021-09-30T08:34:58Z</time>
      </trkpt>
      <trkpt lat="41.3749580" lon="1.1402860">
        <ele>509.7</ele>
        <time>2021-09-30T08:34:59Z</time>
      </trkpt>
      <trkpt lat="41.3749360" lon="1.1402820">
        <ele>510.4</ele>
        <time>2021-09-30T08:35:00Z</time>
      </trkpt>
      <trkpt lat="41.3749140" lon="1.1402780">
        <ele>510.9</ele>
        <time>2021-09-30T08:35:01Z</time>
      </trkpt>
      <trkpt lat="41.3748920" lon="1.1402740">
        <ele>511.5</ele>
        <time>2021-09-30T08:35:02Z</time>
      </trkpt>
      <trkpt lat="41.3748700" lon="1.1402700">
        <ele>512.0</ele>
        <time>2021-09-30T08:35:03Z</time>
      </trkpt>
      <trkpt lat="41.3748480" lon="1.1402650">
        <ele>512.5</ele>
        <time>2021-09-30T08:35:04Z</time>
      </trkpt>
      <trkpt lat="41.3748250" lon="1.1402610">
        <ele>513.0</ele>
        <time>2021-09-30T08:35:05Z</time>
      </trkpt>
      <trkpt lat="41.3748030" lon="1.1402570">
        <ele>513.4</ele>
        <time>2021-09-30T08:35:06Z</time>
      </trkpt>
      <trkpt lat="41.3747810" lon="1.1402530">
        <ele>513.9</ele>
        <time>2021-09-30T08:35:07Z</time>
      </trkpt>
      <trkpt lat="41.3747590" lon="1.1402490">
        <ele>514.3</ele>
        <time>2021-09-30T08:35:08Z</time>
      </trkpt>
      <trkpt lat="41.3747370" lon="1.1402450">
        <ele>514.8</ele>
        <time>2021-09-30T08:35:09Z</time>
      </trkpt>
      <trkpt lat="41.3747280" lon="1.1402390">
        <ele>515.0</ele>
        <time>2021-09-30T08:35:10Z</time>
      </trkpt>
      <trkpt lat="41.3747200" lon="1.1402340">
        <ele>515.1</ele>
        <time>2021-09-30T08:35:11Z</time>
      </trkpt>
      <trkpt lat="41.3747110" lon="1.1402280">
        <ele>515.3</ele>
        <time>2021-09-30T08:35:12Z</time>
      </trkpt>
      <trkpt lat="41.3747020" lon="1.1402230">
        <ele>515.5</ele>
        <time>2021-09-30T08:35:13Z</time>
      </trkpt>
      <trkpt lat="41.3746940" lon="1.1402170">
        <ele>515.7</ele>
        <time>2021-09-30T08:35:14Z</time>
      </trkpt>
      <trkpt lat="41.3746850" lon="1.1402120">
        <ele>515.9</ele>
        <time>2021-09-30T08:35:15Z</time>
      </trkpt>
      <trkpt lat="41.3746770" lon="1.1402060">
        <ele>516.0</ele>
        <time>2021-09-30T08:35:16Z</time>
      </trkpt>
      <trkpt lat="41.3746680" lon="1.1402010">
        <ele>516.2</ele>
        <time>2021-09-30T08:35:17Z</time>
      </trkpt>
      <trkpt lat="41.3746590" lon="1.1401950">
        <ele>516.4</ele>
        <time>2021-09-30T08:35:18Z</time>
      </trkpt>
      <trkpt lat="41.3746510" lon="1.1401900">
        <ele>516.6</ele>
        <time>2021-09-30T08:35:19Z</time>
      </trkpt>
      <trkpt lat="41.3746420" lon="1.1401840">
        <ele>516.8</ele>
        <time>2021-09-30T08:35:20Z</time>
      </trkpt>
      <trkpt lat="41.3746370" lon="1.1401890">
        <ele>516.9</ele>
        <time>2021-09-30T08:35:21Z</time>
      </trkpt>
      <trkpt lat="41.3746310" lon="1.1401930">
        <ele>517.0</ele>
        <time>2021-09-30T08:35:22Z</time>
      </trkpt>
      <trkpt lat="41.3746260" lon="1.1401980">
        <ele>517.2</ele>
        <time>2021-09-30T08:35:23Z</time>
      </trkpt>
      <trkpt lat="41.3746200" lon="1.1402020">
        <ele>517.3</ele>
        <time>2021-09-30T08:35:24Z</time>
      </trkpt>
      <trkpt lat="41.3746150" lon="1.1402070">
        <ele>517.4</ele>
        <time>2021-09-30T08:35:25Z</time>
      </trkpt>
      <trkpt lat="41.3746090" lon="1.1402110">
        <ele>517.5</ele>
        <time>2021-09-30T08:35:26Z</time>
      </trkpt>
      <trkpt lat="41.3746040" lon="1.1402160">
        <ele>517.7</ele>
        <time>2021-09-30T08:35:27Z</time>
      </trkpt>
      <trkpt lat="41.3745980" lon="1.1402200">
        <ele>517.8</ele>
        <time>2021-09-30T08:35:28Z</time>
      </trkpt>
      <trkpt lat="41.3745930" lon="1.1402250">
        <ele>517.9</ele>
        <time>2021-09-30T08:35:29Z</time>
      </trkpt>
      <trkpt lat="41.3745880" lon="1.1402300">
        <ele>518.0</ele>
        <time>2021-09-30T08:35:30Z</time>
      </trkpt>
      <trkpt lat="41.3745820" lon="1.1402340">
        <ele>518.2</ele>
        <time>2021-09-30T08:35:31Z</time>
      </trkpt>
      <trkpt lat="41.3745770" lon="1.1402390">
        <ele>518.3</ele>
        <time>2021-09-30T08:35:32Z</time>
      </trkpt>
      <trkpt lat="41.3745710" lon="1.1402430">
        <ele>518.5</ele>
        <time>2021-09-30T08:35:33Z</time>
      </trkpt>
      <trkpt lat="41.3745660" lon="1.1402480">
        <ele>518.6</ele>
        <time>2021-09-30T08:35:34Z</time>
      </trkpt>
      <trkpt lat="41.3745600" lon="1.1402520">
        <ele>518.7</ele>
        <time>2021-09-30T08:35:35Z</time>
      </trkpt>
      <trkpt lat="41.3745550" lon="1.1402570">
        <ele>518.9</ele>
        <time>2021-09-30T08:35:36Z</time>
      </trkpt>
      <trkpt lat="41.3745490" lon="1.1402610">
        <ele>519.0</ele>
        <time>2021-09-30T08:35:37Z</time>
      </trkpt>
      <trkpt lat="41.3745440" lon="1.1402660">
        <ele>519.2</ele>
        <time>2021-09-30T08:35:38Z</time>
      </trkpt>
      <trkpt lat="41.3745380" lon="1.1402700">
        <ele>519.3</ele>
        <time>2021-09-30T08:35:39Z</time>
      </trkpt>
      <trkpt lat="41.3745330" lon="1.1402750">
        <ele>519.5</ele>
        <time>2021-09-30T08:35:40Z</time>
      </trkpt>
      <trkpt lat="41.3745100" lon="1.1403090">
        <ele>520.4</ele>
        <time>2021-09-30T08:35:41Z</time>
      </trkpt>
      <trkpt lat="41.3744880" lon="1.1403430">
        <ele>521.4</ele>
        <time>2021-09-30T08:35:42Z</time>
      </trkpt>
      <trkpt lat="41.3744650" lon="1.1403770">
        <ele>522.5</ele>
        <time>2021-09-30T08:35:43Z</time>
      </trkpt>
      <trkpt lat="41.3744430" lon="1.1404110">
        <ele>523.6</ele>
        <time>2021-09-30T08:35:44Z</time>
      </trkpt>
      <trkpt lat="41.3744200" lon="1.1404450">
        <ele>524.7</ele>
        <time>2021-09-30T08:35:45Z</time>
      </trkpt>
      <trkpt lat="41.3743980" lon="1.1404790">
        <ele>525.8</ele>
        <time>2021-09-30T08:35:46Z</time>
      </trkpt>
      <trkpt lat="41.3743750" lon="1.1405130">
        <ele>526.9</ele>
        <time>2021-09-30T08:35:47Z</time>
      </trkpt>
      <trkpt lat="41.3743530" lon="1.1405470">
        <ele>527.9</ele>
        <time>2021-09-30T08:35:48Z</time>
      </trkpt>
      <trkpt lat="41.3743300" lon="1.1405810">
        <ele>528.9</ele>
        <time>2021-09-30T08:35:49Z</time>
      </trkpt>
      <trkpt lat="41.3743110" lon="1.1406020">
        <ele>529.5</ele>
        <time>2021-09-30T08:35:50Z</time>
      </trkpt>
      <trkpt lat="41.3742920" lon="1.1406240">
        <ele>530.1</ele>
        <time>2021-09-30T08:35:51Z</time>
      </trkpt>
      <trkpt lat="41.3742730" lon="1.1406450">
        <ele>530.6</ele>
        <time>2021-09-30T08:35:52Z</time>
      </trkpt>
      <trkpt lat="41.3742540" lon="1.1406660">
        <ele>531.1</ele>
        <time>2021-09-30T08:35:53Z</time>
      </trkpt>
      <trkpt lat="41.3742360" lon="1.1406880">
        <ele>531.6</ele>
        <time>2021-09-30T08:35:54Z</time>
      </trkpt>
      <trkpt lat="41.3742170" lon="1.1407090">
        <ele>532.0</ele>
        <time>2021-09-30T08:35:55Z</time>
      </trkpt>
      <trkpt lat="41.3741980" lon="1.1407300">
        <ele>532.4</ele>
        <time>2021-09-30T08:35:56Z</time>
      </trkpt>
      <trkpt lat="41.3741790" lon="1.1407510">
        <ele>532.7</ele>
        <time>2021-09-30T08:35:57Z</time>
      </trkpt>
      <trkpt lat="41.3741600" lon="1.1407730">
        <ele>533.0</ele>
        <time>2021-09-30T08:35:58Z</time>
      </trkpt>
      <trkpt lat="41.3741410" lon="1.1407940">
        <ele>533.3</ele>
        <time>2021-09-30T08:35:59Z</time>
      </trkpt>
      <trkpt lat="41.3741350" lon="1.1408010">
        <ele>533.4</ele>
        <time>2021-09-30T08:36:00Z</time>
      </trkpt>
      <trkpt lat="41.3741290" lon="1.1408070">
        <ele>533.5</ele>
        <time>2021-09-30T08:36:01Z</time>
      </trkpt>
      <trkpt lat="41.3741230" lon="1.1408140">
        <ele>533.6</ele>
        <time>2021-09-30T08:36:02Z</time>
      </trkpt>
      <trkpt lat="41.3741170" lon="1.1408200">
        <ele>533.6</ele>
        <time>2021-09-30T08:36:03Z</time>
      </trkpt>
      <trkpt lat="41.3741110" lon="1.1408270">
        <ele>533.7</ele>
        <time>2021-09-30T08:36:04Z</time>
      </trkpt>
      <trkpt lat="41.3741040" lon="1.1408330">
        <ele>533.8</ele>
        <time>2021-09-30T08:36:05Z</time>
      </trkpt>
      <trkpt lat="41.3740980" lon="1.1408400">
        <ele>533.8</ele>
        <time>2021-09-30T08:36:06Z</time>
      </trkpt>
      <trkpt lat="41.3740920" lon="1.1408460">
        <ele>533.9</ele>
        <time>2021-09-30T08:36:07Z</time>
      </trkpt>
      <trkpt lat="41.3740860" lon="1.1408530">
        <ele>533.9</ele>
        <time>2021-09-30T08:36:08Z</time>
      </trkpt>
      <trkpt lat="41.3740800" lon="1.1408590">
        <ele>534.0</ele>
        <time>2021-09-30T08:36:09Z</time>
      </trkpt>
      <trkpt lat="41.3740740" lon="1.1408660">
        <ele>534.0</ele>
        <time>2021-09-30T08:36:10Z</time>
      </trkpt>
      <trkpt lat="41.3740680" lon="1.1408730">
        <ele>534.1</ele>
        <time>2021-09-30T08:36:11Z</time>
      </trkpt>
      <trkpt lat="41.3740620" lon="1.1408790">
        <ele>534.1</ele>
        <time>2021-09-30T08:36:12Z</time>
      </trkpt>
      <trkpt lat="41.3740560" lon="1.1408860">
        <ele>534.1</ele>
        <time>2021-09-30T08:36:13Z</time>
      </trkpt>
      <trkpt lat="41.3740500" lon="1.1408920">
        <ele>534.2</ele>
        <time>2021-09-30T08:36:14Z</time>
      </trkpt>
      <trkpt lat="41.3740440" lon="1.1408990">
        <ele>534.2</ele>
        <time>2021-09-30T08:36:15Z</time>
      </trkpt>
      <trkpt lat="41.3740370" lon="1.1409050">
        <ele>534.2</ele>
        <time>2021-09-30T08:36:16Z</time>
      </trkpt>
      <trkpt lat="41.3740310" lon="1.1409120">
        <ele>534.2</ele>
        <time>2021-09-30T08:36:17Z</time>
      </trkpt>
      <trkpt lat="41.3740250" lon="1.1409180">
        <ele>534.2</ele>
        <time>2021-09-30T08:36:18Z</time>
      </trkpt>
      <trkpt lat="41.3740190" lon="1.1409250">
        <ele>534.3</ele>
        <time>2021-09-30T08:36:19Z</time>
      </trkpt>
      <trkpt lat="41.3740130" lon="1.1409310">
        <ele>534.3</ele>
        <time>2021-09-30T08:36:20Z</time>
      </trkpt>
      <trkpt lat="41.3740070" lon="1.1409380">
        <ele>534.3</ele>
        <time>2021-09-30T08:36:21Z</time>
      </trkpt>
      <trkpt lat="41.3740010" lon="1.1409450">
        <ele>534.3</ele>
        <time>2021-09-30T08:36:22Z</time>
      </trkpt>
      <trkpt lat="41.3739950" lon="1.1409510">
        <ele>534.3</ele>
        <time>2021-09-30T08:36:23Z</time>
      </trkpt>
      <trkpt lat="41.3739890" lon="1.1409580">
        <ele>534.3</ele>
        <time>2021-09-30T08:36:24Z</time>
      </trkpt>
      <trkpt lat="41.3739830" lon="1.1409640">
        <ele>534.3</ele>
        <time>2021-09-30T08:36:25Z</time>
      </trkpt>
      <trkpt lat="41.3739770" lon="1.1409710">
        <ele>534.3</ele>
        <time>2021-09-30T08:36:26Z</time>
      </trkpt>
      <trkpt lat="41.3739700" lon="1.1409770">
        <ele>534.3</ele>
        <time>2021-09-30T08:36:27Z</time>
      </trkpt>
      <trkpt lat="41.3739640" lon="1.1409840">
        <ele>534.3</ele>
        <time>2021-09-30T08:36:28Z</time>
      </trkpt>
      <trkpt lat="41.3739580" lon="1.1409900">
        <ele>534.3</ele>
        <time>2021-09-30T08:36:29Z</time>
      </trkpt>
      <trkpt lat="41.3739520" lon="1.1409970">
        <ele>534.3</ele>
        <time>2021-09-30T08:36:30Z</time>
      </trkpt>
      <trkpt lat="41.3739460" lon="1.1410030">
        <ele>534.2</ele>
        <time>2021-09-30T08:36:31Z</time>
      </trkpt>
      <trkpt lat="41.3739400" lon="1.1410100">
        <ele>534.2</ele>
        <time>2021-09-30T08:36:32Z</time>
      </trkpt>
      <trkpt lat="41.3739450" lon="1.1409870">
        <ele>534.2</ele>
        <time>2021-09-30T08:36:33Z</time>
      </trkpt>
      <trkpt lat="41.3739500" lon="1.1409630">
        <ele>534.1</ele>
        <time>2021-09-30T08:36:34Z</time>
      </trkpt>
      <trkpt lat="41.3739550" lon="1.1409400">
        <ele>534.0</ele>
        <time>2021-09-30T08:36:35Z</time>
      </trkpt>
      <trkpt lat="41.3739600" lon="1.1409160">
        <ele>533.9</ele>
        <time>2021-09-30T08:36:36Z</time>
      </trkpt>
      <trkpt lat="41.3739660" lon="1.1408930">
        <ele>533.8</ele>
        <time>2021-09-30T08:36:37Z</time>
      </trkpt>
      <trkpt lat="41.3739710" lon="1.1408700">
        <ele>533.7</ele>
        <time>2021-09-30T08:36:38Z</time>
      </trkpt>
      <trkpt lat="41.3739760" lon="1.1408460">
        <ele>533.5</ele>
        <time>2021-09-30T08:36:39Z</time>
      </trkpt>
      <trkpt lat="41.3739810" lon="1.1408230">
        <ele>533.3</ele>
        <time>2021-09-30T08:36:40Z</time>
      </trkpt>
      <trkpt lat="41.3739860" lon="1.1407990">
        <ele>533.1</ele>
        <time>2021-09-30T08:36:41Z</time>
      </trkpt>
      <trkpt lat="41.3739910" lon="1.1407760">
        <ele>532.9</ele>
        <time>2021-09-30T08:36:42Z</time>
      </trkpt>
      <trkpt lat="41.3740040" lon="1.1407540">
        <ele>532.6</ele>
        <time>2021-09-30T08:36:43Z</time>
      </trkpt>
      <trkpt lat="41.3740160" lon="1.1407310">
        <ele>532.4</ele>
        <time>2021-09-30T08:36:44Z</time>
      </trkpt>
      <trkpt lat="41.3740290" lon="1.1407090">
        <ele>532.0</ele>
        <time>2021-09-30T08:36:45Z</time>
      </trkpt>
      <trkpt lat="41.3740410" lon="1.1406860">
        <ele>531.7</ele>
        <time>2021-09-30T08:36:46Z</time>
      </trkpt>
      <trkpt lat="41.3740540" lon="1.1406640">
        <ele>531.3</ele>
        <time>2021-09-30T08:36:47Z</time>
      </trkpt>
      <trkpt lat="41.3740660" lon="1.1406410">
        <ele>531.0</ele>
        <time>2021-09-30T08:36:48Z</time>
      </trkpt>
      <trkpt lat="41.3740790" lon="1.1406190">
        <ele>530.6</ele>
        <time>2021-09-30T08:36:49Z</time>
      </trkpt>
      <trkpt lat="41.3740910" lon="1.1405960">
        <ele>530.1</ele>
        <time>2021-09-30T08:36:50Z</time>
      </trkpt>
      <trkpt lat="41.3741040" lon="1.1405740">
        <ele>529.7</ele>
        <time>2021-09-30T08:36:51Z</time>
      </trkpt>
      <trkpt lat="41.3741280" lon="1.1405510">
        <ele>528.9</ele>
        <time>2021-09-30T08:36:52Z</time>
      </trkpt>
      <trkpt lat="41.3741520" lon="1.1405280">
        <ele>528.2</ele>
        <time>2021-09-30T08:36:53Z</time>
      </trkpt>
      <trkpt lat="41.3741750" lon="1.1405060">
        <ele>527.4</ele>
        <time>2021-09-30T08:36:54Z</time>
      </trkpt>
      <trkpt lat="41.3741990" lon="1.1404830">
        <ele>526.5</ele>
        <time>2021-09-30T08:36:55Z</time>
      </trkpt>
      <trkpt lat="41.3742230" lon="1.1404600">
        <ele>525.6</ele>
        <time>2021-09-30T08:36:56Z</time>
      </trkpt>
      <trkpt lat="41.3742470" lon="1.1404370">
        <ele>524.7</ele>
        <time>2021-09-30T08:36:57Z</time>
      </trkpt>
      <trkpt lat="41.3742710" lon="1.1404140">
        <ele>523.7</ele>
        <time>2021-09-30T08:36:58Z</time>
      </trkpt>
      <trkpt lat="41.3742940" lon="1.1403920">
        <ele>522.8</ele>
        <time>2021-09-30T08:36:59Z</time>
      </trkpt>
      <trkpt lat="41.3743180" lon="1.1403690">
        <ele>521.9</ele>
        <time>2021-09-30T08:37:00Z</time>
      </trkpt>
      <trkpt lat="41.3743420" lon="1.1403460">
        <ele>521.0</ele>
        <time>2021-09-30T08:37:01Z</time>
      </trkpt>
      <trkpt lat="41.3743590" lon="1.1403270">
        <ele>520.4</ele>
        <time>2021-09-30T08:37:02Z</time>
      </trkpt>
      <trkpt lat="41.3743750" lon="1.1403070">
        <ele>519.9</ele>
        <time>2021-09-30T08:37:03Z</time>
      </trkpt>
      <trkpt lat="41.3743920" lon="1.1402880">
        <ele>519.3</ele>
        <time>2021-09-30T08:37:04Z</time>
      </trkpt>
      <trkpt lat="41.3744090" lon="1.1402680">
        <ele>518.8</ele>
        <time>2021-09-30T08:37:05Z</time>
      </trkpt>
      <trkpt lat="41.3744260" lon="1.1402490">
        <ele>518.4</ele>
        <time>2021-09-30T08:37:06Z</time>
      </trkpt>
      <trkpt lat="41.3744420" lon="1.1402290">
        <ele>517.9</ele>
        <time>2021-09-30T08:37:07Z</time>
      </trkpt>
      <trkpt lat="41.3744590" lon="1.1402100">
        <ele>517.5</ele>
        <time>2021-09-30T08:37:08Z</time>
      </trkpt>
      <trkpt lat="41.3744760" lon="1.1401900">
        <ele>517.1</ele>
        <time>2021-09-30T08:37:09Z</time>
      </trkpt>
      <trkpt lat="41.3744930" lon="1.1401710">
        <ele>516.7</ele>
        <time>2021-09-30T08:37:10Z</time>
      </trkpt>
      <trkpt lat="41.3745090" lon="1.1401510">
        <ele>516.3</ele>
        <time>2021-09-30T08:37:11Z</time>
      </trkpt>
      <trkpt lat="41.3745260" lon="1.1401320">
        <ele>515.9</ele>
        <time>2021-09-30T08:37:12Z</time>
      </trkpt>
      <trkpt lat="41.3745500" lon="1.1401250">
        <ele>515.4</ele>
        <time>2021-09-30T08:37:13Z</time>
      </trkpt>
      <trkpt lat="41.3745740" lon="1.1401170">
        <ele>514.9</ele>
        <time>2021-09-30T08:37:14Z</time>
      </trkpt>
      <trkpt lat="41.3745980" lon="1.1401100">
        <ele>514.5</ele>
        <time>2021-09-30T08:37:15Z</time>
      </trkpt>
      <trkpt lat="41.3746220" lon="1.1401020">
        <ele>514.0</ele>
        <time>2021-09-30T08:37:16Z</time>
      </trkpt>
      <trkpt lat="41.3746470" lon="1.1400950">
        <ele>513.5</ele>
        <time>2021-09-30T08:37:17Z</time>
      </trkpt>
      <trkpt lat="41.3746710" lon="1.1400870">
        <ele>513.1</ele>
        <time>2021-09-30T08:37:18Z</time>
      </trkpt>
      <trkpt lat="41.3746950" lon="1.1400800">
        <ele>512.6</ele>
        <time>2021-09-30T08:37:19Z</time>
      </trkpt>
      <trkpt lat="41.3747190" lon="1.1400720">
        <ele>512.0</ele>
        <time>2021-09-30T08:37:20Z</time>
      </trkpt>
      <trkpt lat="41.3747430" lon="1.1400650">
        <ele>511.5</ele>
        <time>2021-09-30T08:37:21Z</time>
      </trkpt>
      <trkpt lat="41.3747670" lon="1.1400570">
        <ele>510.9</ele>
        <time>2021-09-30T08:37:22Z</time>
      </trkpt>
      <trkpt lat="41.3747950" lon="1.1400510">
        <ele>510.2</ele>
        <time>2021-09-30T08:37:23Z</time>
      </trkpt>
      <trkpt lat="41.3748220" lon="1.1400440">
        <ele>509.4</ele>
        <time>2021-09-30T08:37:24Z</time>
      </trkpt>
      <trkpt lat="41.3748500" lon="1.1400380">
        <ele>508.6</ele>
        <time>2021-09-30T08:37:25Z</time>
      </trkpt>
      <trkpt lat="41.3748780" lon="1.1400320">
        <ele>507.7</ele>
        <time>2021-09-30T08:37:26Z</time>
      </trkpt>
      <trkpt lat="41.3749050" lon="1.1400250">
        <ele>506.8</ele>
        <time>2021-09-30T08:37:27Z</time>
      </trkpt>
      <trkpt lat="41.3749330" lon="1.1400190">
        <ele>505.9</ele>
        <time>2021-09-30T08:37:28Z</time>
      </trkpt>
      <trkpt lat="41.3749610" lon="1.1400130">
        <ele>504.9</ele>
        <time>2021-09-30T08:37:29Z</time>
      </trkpt>
      <trkpt lat="41.3749880" lon="1.1400060">
        <ele>503.9</ele>
        <time>2021-09-30T08:37:30Z</time>
      </trkpt>
      <trkpt lat="41.3750160" lon="1.1400000">
        <ele>502.9</ele>
        <time>2021-09-30T08:37:31Z</time>
      </trkpt>
      <trkpt lat="41.3750160" lon="1.1400000">
        <ele>502.9</ele>
        <time>2021-09-30T08:37:32Z</time>
      </trkpt>
      <trkpt lat="41.3750160" lon="1.1400000">
        <ele>502.9</ele>
        <time>2021-09-30T08:37:33Z</time>
      </trkpt>
      <trkpt lat="41.3750160" lon="1.1400000">
        <ele>502.9</ele>
        <time>2021-09-30T08:37:34Z</time>
      </trkpt>
      <trkpt lat="41.3750160" lon="1.1400000">
        <ele>502.9</ele>
        <time>2021-09-30T08:38:37Z</time>
      </trkpt>
      <trkpt lat="41.3750160" lon="1.1400000">
        <ele>502.9</ele>
        <time>2021-09-30T08:38:38Z</time>
      </trkpt>
      <trkpt lat="41.3750160" lon="1.1400000">
        <ele>502.9</ele>
        <time>2021-09-30T08:38:39Z</time>
      </trkpt>
      <trkpt lat="41.3750160" lon="1.1400000">
        <ele>502.9</ele>
        <time>2021-09-30T08:38:40Z</time>
      </trkpt>
      <trkpt lat="41.3750160" lon="1.1400000">
        <ele>502.9</ele>
        <time>2021-09-30T08:38:41Z</time>
      </trkpt>
      <trkpt lat="41.3750160" lon="1.1400000">
        <ele>502.9</ele>
        <time>2021-09-30T08:38:42Z</time>
      </trkpt>
      <trkpt lat="41.3750160" lon="1.1400000">
        <ele>502.9</ele>
        <time>2021-09-30T08:38:43Z</time>
      </trkpt>
      <trkpt lat="41.3750160" lon="1.1400000">
        <ele>502.9</ele>
        <time>2021-09-30T08:38:44Z</time>
      </trkpt>
      <trkpt lat="41.3750160" lon="1.1400000">
        <ele>502.9</ele>
        <time>2021-09-30T08:38:45Z</time>
      </trkpt>
      <trkpt lat="41.3750160" lon="1.1400000">
        <ele>502.9</ele>
        <time>2021-09-30T08:38:46Z</time>
      </trkpt>
      <trkpt lat="41.3750160" lon="1.1400000">
        <ele>502.9</ele>
        <time>2021-09-30T08:38:47Z</time>
      </trkpt>
      <trkpt lat="41.3750160" lon="1.1400000">
        <ele>502.9</ele>
        <time>2021-09-30T08:38:48Z</time>
      </trkpt>
      <trkpt lat="41.3750160" lon="1.1400000">
        <ele>502.9</ele>
        <time>2021-09-30T08:38:49Z</time>
      </trkpt>
      <trkpt lat="41.3750160" lon="1.1400000">
        <ele>502.9</ele>
        <time>2021-09-30T08:38:50Z</time>
      </trkpt>
      <trkpt lat="41.3750160" lon="1.1400000">
        <ele>502.9</ele>
        <time>2021-09-30T08:38:51Z</time>
      </trkpt>
      <trkpt lat="41.3750160" lon="1.1400000">
        <ele>502.9</ele>
        <time>2021-09-30T08:38:52Z</time>
      </trkpt>
      <trkpt lat="41.3750160" lon="1.1400000">
        <ele>502.9</ele>
        <time>2021-09-30T08:38:53Z</time>
      </trkpt>
      <trkpt lat="41.3750610" lon="1.1400560">
        <ele>500.7</ele>
        <time>2021-09-30T08:38:54Z</time>
      </trkpt>
      <trkpt lat="41.3751050" lon="1.1401110">
        <ele>498.8</ele>
        <time>2021-09-30T08:38:55Z</time>
      </trkpt>
      <trkpt lat="41.3751500" lon="1.1401670">
        <ele>496.9</ele>
        <time>2021-09-30T08:38:56Z</time>
      </trkpt>
      <trkpt lat="41.3751940" lon="1.1402230">
        <ele>495.3</ele>
        <time>2021-09-30T08:38:57Z</time>
      </trkpt>
      <trkpt lat="41.3752390" lon="1.1402780">
        <ele>494.0</ele>
        <time>2021-09-30T08:38:58Z</time>
      </trkpt>
      <trkpt lat="41.3752830" lon="1.1403340">
        <ele>492.7</ele>
        <time>2021-09-30T08:38:59Z</time>
      </trkpt>
      <trkpt lat="41.3753280" lon="1.1403900">
        <ele>491.6</ele>
        <time>2021-09-30T08:39:00Z</time>
      </trkpt>
      <trkpt lat="41.3753720" lon="1.1404450">
        <ele>490.4</ele>
        <time>2021-09-30T08:39:01Z</time>
      </trkpt>
      <trkpt lat="41.3754170" lon="1.1405010">
        <ele>489.1</ele>
        <time>2021-09-30T08:39:02Z</time>
      </trkpt>
      <trkpt lat="41.3754470" lon="1.1405030">
        <ele>488.5</ele>
        <time>2021-09-30T08:39:03Z</time>
      </trkpt>
      <trkpt lat="41.3754760" lon="1.1405040">
        <ele>487.8</ele>
        <time>2021-09-30T08:39:04Z</time>
      </trkpt>
      <trkpt lat="41.3755060" lon="1.1405060">
        <ele>487.2</ele>
        <time>2021-09-30T08:39:05Z</time>
      </trkpt>
      <trkpt lat="41.3755360" lon="1.1405080">
        <ele>486.5</ele>
        <time>2021-09-30T08:39:06Z</time>
      </trkpt>
      <trkpt lat="41.3755650" lon="1.1405100">
        <ele>485.8</ele>
        <time>2021-09-30T08:39:07Z</time>
      </trkpt>
      <trkpt lat="41.3755950" lon="1.1405110">
        <ele>485.2</ele>
        <time>2021-09-30T08:39:08Z</time>
      </trkpt>
      <trkpt lat="41.3756240" lon="1.1405130">
        <ele>484.6</ele>
        <time>2021-09-30T08:39:09Z</time>
      </trkpt>
      <trkpt lat="41.3756540" lon="1.1405150">
        <ele>483.9</ele>
        <time>2021-09-30T08:39:10Z</time>
      </trkpt>
      <trkpt lat="41.3756840" lon="1.1405170">
        <ele>483.3</ele>
        <time>2021-09-30T08:39:11Z</time>
      </trkpt>
      <trkpt lat="41.3757130" lon="1.1405180">
        <ele>482.8</ele>
        <time>2021-09-30T08:39:12Z</time>
      </trkpt>
      <trkpt lat="41.3757430" lon="1.1405200">
        <ele>482.2</ele>
        <time>2021-09-30T08:39:13Z</time>
      </trkpt>
      <trkpt lat="41.3757620" lon="1.1405210">
        <ele>481.9</ele>
        <time>2021-09-30T08:39:14Z</time>
      </trkpt>
      <trkpt lat="41.3757800" lon="1.1405220">
        <ele>481.6</ele>
        <time>2021-09-30T08:39:15Z</time>
      </trkpt>
      <trkpt lat="41.3757990" lon="1.1405230">
        <ele>481.3</ele>
        <time>2021-09-30T08:39:16Z</time>
      </trkpt>
      <trkpt lat="41.3758180" lon="1.1405240">
        <ele>481.1</ele>
        <time>2021-09-30T08:39:17Z</time>
      </trkpt>
      <trkpt lat="41.3758360" lon="1.1405250">
        <ele>480.8</ele>
        <time>2021-09-30T08:39:18Z</time>
      </trkpt>
      <trkpt lat="41.3758550" lon="1.1405250">
        <ele>480.6</ele>
        <time>2021-09-30T08:39:19Z</time>
      </trkpt>
      <trkpt lat="41.3758730" lon="1.1405260">
        <ele>480.4</ele>
        <time>2021-09-30T08:39:20Z</time>
      </trkpt>
      <trkpt lat="41.3758920" lon="1.1405270">
        <ele>480.2</ele>
        <time>2021-09-30T08:39:21Z</time>
      </trkpt>
      <trkpt lat="41.3759110" lon="1.1405280">
        <ele>480.0</ele>
        <time>2021-09-30T08:39:22Z</time>
      </trkpt>
      <trkpt lat="41.3759290" lon="1.1405290">
        <ele>479.8</ele>
        <time>2021-09-30T08:39:23Z</time>
      </trkpt>
      <trkpt lat="41.3759480" lon="1.1405300">
        <ele>479.6</ele>
        <time>2021-09-30T08:39:24Z</time>
      </trkpt>
      <trkpt lat="41.3759650" lon="1.1405310">
        <ele>479.4</ele>
        <time>2021-09-30T08:39:25Z</time>
      </trkpt>
      <trkpt lat="41.3759820" lon="1.1405310">
        <ele>479.2</ele>
        <time>2021-09-30T08:39:26Z</time>
      </trkpt>
      <trkpt lat="41.3760000" lon="1.1405320">
        <ele>478.9</ele>
        <time>2021-09-30T08:39:27Z</time>
      </trkpt>
      <trkpt lat="41.3760170" lon="1.1405330">
        <ele>478.7</ele>
        <time>2021-09-30T08:39:28Z</time>
      </trkpt>
      <trkpt lat="41.3760340" lon="1.1405330">
        <ele>478.4</ele>
        <time>2021-09-30T08:39:29Z</time>
      </trkpt>
      <trkpt lat="41.3760510" lon="1.1405340">
        <ele>478.2</ele>
        <time>2021-09-30T08:39:30Z</time>
      </trkpt>
      <trkpt lat="41.3760690" lon="1.1405350">
        <ele>477.9</ele>
        <time>2021-09-30T08:39:31Z</time>
      </trkpt>
      <trkpt lat="41.3760860" lon="1.1405350">
        <ele>477.5</ele>
        <time>2021-09-30T08:39:32Z</time>
      </trkpt>
      <trkpt lat="41.3761030" lon="1.1405360">
        <ele>477.2</ele>
        <time>2021-09-30T08:39:33Z</time>
      </trkpt>
      <trkpt lat="41.3761330" lon="1.1405290">
        <ele>476.5</ele>
        <time>2021-09-30T08:39:34Z</time>
      </trkpt>
      <trkpt lat="41.3761630" lon="1.1405230">
        <ele>475.8</ele>
        <time>2021-09-30T08:39:35Z</time>
      </trkpt>
      <trkpt lat="41.3761920" lon="1.1405160">
        <ele>475.1</ele>
        <time>2021-09-30T08:39:36Z</time>
      </trkpt>
      <trkpt lat="41.3762220" lon="1.1405090">
        <ele>474.3</ele>
        <time>2021-09-30T08:39:37Z</time>
      </trkpt>
      <trkpt lat="41.3762520" lon="1.1405020">
        <ele>473.4</ele>
        <time>2021-09-30T08:39:38Z</time>
      </trkpt>
      <trkpt lat="41.3762820" lon="1.1404960">
        <ele>472.5</ele>
        <time>2021-09-30T08:39:39Z</time>
      </trkpt>
      <trkpt lat="41.3763120" lon="1.1404890">
        <ele>471.6</ele>
        <time>2021-09-30T08:39:40Z</time>
      </trkpt>
      <trkpt lat="41.3763420" lon="1.1404820">
        <ele>470.6</ele>
        <time>2021-09-30T08:39:41Z</time>
      </trkpt>
      <trkpt lat="41.3763710" lon="1.1404750">
        <ele>469.6</ele>
        <time>2021-09-30T08:39:42Z</time>
      </trkpt>
      <trkpt lat="41.3764010" lon="1.1404690">
        <ele>468.5</ele>
        <time>2021-09-30T08:39:43Z</time>
      </trkpt>
      <trkpt lat="41.3764310" lon="1.1404620">
        <ele>467.4</ele>
        <time>2021-09-30T08:39:44Z</time>
      </trkpt>
      <trkpt lat="41.3764550" lon="1.1404520">
        <ele>466.4</ele>
        <time>2021-09-30T08:39:45Z</time>
      </trkpt>
      <trkpt lat="41.3764790" lon="1.1404410">
        <ele>465.5</ele>
        <time>2021-09-30T08:39:46Z</time>
      </trkpt>
      <trkpt lat="41.3765020" lon="1.1404310">
        <ele>464.6</ele>
        <time>2021-09-30T08:39:47Z</time>
      </trkpt>
      <trkpt lat="41.3765260" lon="1.1404210">
        <ele>463.7</ele>
        <time>2021-09-30T08:39:48Z</time>
      </trkpt>
      <trkpt lat="41.3765500" lon="1.1404100">
        <ele>462.7</ele>
        <time>2021-09-30T08:39:49Z</time>
      </trkpt>
      <trkpt lat="41.3765740" lon="1.1404000">
        <ele>461.8</ele>
        <time>2021-09-30T08:39:50Z</time>
      </trkpt>
      <trkpt lat="41.3765980" lon="1.1403890">
        <ele>460.9</ele>
        <time>2021-09-30T08:39:51Z</time>
      </trkpt>
      <trkpt lat="41.3766220" lon="1.1403790">
        <ele>459.9</ele>
        <time>2021-09-30T08:39:52Z</time>
      </trkpt>
      <trkpt lat="41.3766450" lon="1.1403690">
        <ele>459.0</ele>
        <time>2021-09-30T08:39:53Z</time>
      </trkpt>
      <trkpt lat="41.3766690" lon="1.1403580">
        <ele>458.1</ele>
        <time>2021-09-30T08:39:54Z</time>
      </trkpt>
      <trkpt lat="41.3766930" lon="1.1403480">
        <ele>457.2</ele>
        <time>2021-09-30T08:39:55Z</time>
      </trkpt>
      <trkpt lat="41.3766960" lon="1.1403300">
        <ele>456.6</ele>
        <time>2021-09-30T08:39:56Z</time>
      </trkpt>
      <trkpt lat="41.3767000" lon="1.1403120">
        <ele>456.1</ele>
        <time>2021-09-30T08:39:57Z</time>
      </trkpt>
      <trkpt lat="41.3767030" lon="1.1402930">
        <ele>455.6</ele>
        <time>2021-09-30T08:39:58Z</time>
      </trkpt>
      <trkpt lat="41.3767060" lon="1.1402750">
        <ele>455.1</ele>
        <time>2021-09-30T08:39:59Z</time>
      </trkpt>
      <trkpt lat="41.3767100" lon="1.1402570">
        <ele>454.6</ele>
        <time>2021-09-30T08:40:00Z</time>
      </trkpt>
      <trkpt lat="41.3767130" lon="1.1402390">
        <ele>454.0</ele>
        <time>2021-09-30T08:40:01Z</time>
      </trkpt>
      <trkpt lat="41.3767160" lon="1.1402210">
        <ele>453.5</ele>
        <time>2021-09-30T08:40:02Z</time>
      </trkpt>
      <trkpt lat="41.3767190" lon="1.1402020">
        <ele>453.0</ele>
        <time>2021-09-30T08:40:03Z</time>
      </trkpt>
      <trkpt lat="41.3767230" lon="1.1401840">
        <ele>452.5</ele>
        <time>2021-09-30T08:40:04Z</time>
      </trkpt>
      <trkpt lat="41.3767260" lon="1.1401660">
        <ele>452.0</ele>
        <time>2021-09-30T08:40:05Z</time>
      </trkpt>
      <trkpt lat="41.3767380" lon="1.1401710">
        <ele>451.5</ele>
        <time>2021-09-30T08:40:06Z</time>
      </trkpt>
      <trkpt lat="41.3767500" lon="1.1401760">
        <ele>451.1</ele>
        <time>2021-09-30T08:40:07Z</time>
      </trkpt>
      <trkpt lat="41.3767620" lon="1.1401820">
        <ele>450.6</ele>
        <time>2021-09-30T08:40:08Z</time>
      </trkpt>
      <trkpt lat="41.3767730" lon="1.1401870">
        <ele>450.2</ele>
        <time>2021-09-30T08:40:09Z</time>
      </trkpt>
      <trkpt lat="41.3767850" lon="1.1401920">
        <ele>449.8</ele>
        <time>2021-09-30T08:40:10Z</time>
      </trkpt>
      <trkpt lat="41.3767970" lon="1.1401970">
        <ele>449.4</ele>
        <time>2021-09-30T08:40:11Z</time>
      </trkpt>
      <trkpt lat="41.3768090" lon="1.1402030">
        <ele>449.0</ele>
        <time>2021-09-30T08:40:12Z</time>
      </trkpt>
      <trkpt lat="41.3768210" lon="1.1402080">
        <ele>448.6</ele>
        <time>2021-09-30T08:40:13Z</time>
      </trkpt>
      <trkpt lat="41.3768330" lon="1.1402130">
        <ele>448.2</ele>
        <time>2021-09-30T08:40:14Z</time>
      </trkpt>
      <trkpt lat="41.3768450" lon="1.1402180">
        <ele>447.8</ele>
        <time>2021-09-30T08:40:15Z</time>
      </trkpt>
      <trkpt lat="41.3768560" lon="1.1402240">
        <ele>447.4</ele>
        <time>2021-09-30T08:40:16Z</time>
      </trkpt>
      <trkpt lat="41.3768680" lon="1.1402290">
        <ele>447.0</ele>
        <time>2021-09-30T08:40:17Z</time>
      </trkpt>
      <trkpt lat="41.3768800" lon="1.1402340">
        <ele>446.6</ele>
        <time>2021-09-30T08:40:18Z</time>
      </trkpt>
      <trkpt lat="41.3768920" lon="1.1402390">
        <ele>446.2</ele>
        <time>2021-09-30T08:40:19Z</time>
      </trkpt>
      <trkpt lat="41.3769040" lon="1.1402450">
        <ele>445.8</ele>
        <time>2021-09-30T08:40:20Z</time>
      </trkpt>
      <trkpt lat="41.3769160" lon="1.1402500">
        <ele>445.4</ele>
        <time>2021-09-30T08:40:21Z</time>
      </trkpt>
      <trkpt lat="41.3769280" lon="1.1402550">
        <ele>445.0</ele>
        <time>2021-09-30T08:40:22Z</time>
      </trkpt>
      <trkpt lat="41.3769390" lon="1.1402600">
        <ele>444.7</ele>
        <time>2021-09-30T08:40:23Z</time>
      </trkpt>
      <trkpt lat="41.3769510" lon="1.1402660">
        <ele>444.3</ele>
        <time>2021-09-30T08:40:24Z</time>
      </trkpt>
      <trkpt lat="41.3769630" lon="1.1402710">
        <ele>443.9</ele>
        <time>2021-09-30T08:40:25Z</time>
      </trkpt>
      <trkpt lat="41.3769750" lon="1.1402760">
        <ele>443.6</ele>
        <time>2021-09-30T08:40:26Z</time>
      </trkpt>
      <trkpt lat="41.3770000" lon="1.1402790">
        <ele>442.8</ele>
        <time>2021-09-30T08:40:27Z</time>
      </trkpt>
      <trkpt lat="41.3770250" lon="1.1402810">
        <ele>442.1</ele>
        <time>2021-09-30T08:40:28Z</time>
      </trkpt>
      <trkpt lat="41.3770500" lon="1.1402840">
        <ele>441.9</ele>
        <time>2021-09-30T08:40:29Z</time>
      </trkpt>
      <trkpt lat="41.3770750" lon="1.1402860">
        <ele>441.8</ele>
        <time>2021-09-30T08:40:30Z</time>
      </trkpt>
      <trkpt lat="41.3771010" lon="1.1402890">
        <ele>441.8</ele>
        <time>2021-09-30T08:40:31Z</time>
      </trkpt>
      <trkpt lat="41.3771260" lon="1.1402920">
        <ele>441.7</ele>
        <time>2021-09-30T08:40:32Z</time>
      </trkpt>
      <trkpt lat="41.3771510" lon="1.1402940">
        <ele>441.7</ele>
        <time>2021-09-30T08:40:33Z</time>
      </trkpt>
      <trkpt lat="41.3771760" lon="1.1402970">
        <ele>441.6</ele>
        <time>2021-09-30T08:40:34Z</time>
      </trkpt>
      <trkpt lat="41.3772010" lon="1.1402990">
        <ele>441.5</ele>
        <time>2021-09-30T08:40:35Z</time>
      </trkpt>
      <trkpt lat="41.3772260" lon="1.1403020">
        <ele>441.5</ele>
        <time>2021-09-30T08:40:36Z</time>
      </trkpt>
      <trkpt lat="41.3772280" lon="1.1403090">
        <ele>441.5</ele>
        <time>2021-09-30T08:40:37Z</time>
      </trkpt>
      <trkpt lat="41.3772300" lon="1.1403150">
        <ele>441.4</ele>
        <time>2021-09-30T08:40:38Z</time>
      </trkpt>
      <trkpt lat="41.3772320" lon="1.1403220">
        <ele>441.4</ele>
        <time>2021-09-30T08:40:39Z</time>
      </trkpt>
      <trkpt lat="41.3772340" lon="1.1403280">
        <ele>441.4</ele>
        <time>2021-09-30T08:40:40Z</time>
      </trkpt>
      <trkpt lat="41.3772370" lon="1.1403350">
        <ele>441.4</ele>
        <time>2021-09-30T08:40:41Z</time>
      </trkpt>
      <trkpt lat="41.3772390" lon="1.1403410">
        <ele>441.4</ele>
        <time>2021-09-30T08:40:42Z</time>
      </trkpt>
      <trkpt lat="41.3772410" lon="1.1403480">
        <ele>441.3</ele>
        <time>2021-09-30T08:40:43Z</time>
      </trkpt>
      <trkpt lat="41.3772430" lon="1.1403540">
        <ele>441.3</ele>
        <time>2021-09-30T08:40:44Z</time>
      </trkpt>
      <trkpt lat="41.3772450" lon="1.1403610">
        <ele>441.3</ele>
        <time>2021-09-30T08:40:45Z</time>
      </trkpt>
      <trkpt lat="41.3772470" lon="1.1403680">
        <ele>441.3</ele>
        <time>2021-09-30T08:40:46Z</time>
      </trkpt>
      <trkpt lat="41.3772490" lon="1.1403740">
        <ele>441.3</ele>
        <time>2021-09-30T08:40:47Z</time>
      </trkpt>
      <trkpt lat="41.3772510" lon="1.1403810">
        <ele>441.2</ele>
        <time>2021-09-30T08:40:48Z</time>
      </trkpt>
      <trkpt lat="41.3772530" lon="1.1403870">
        <ele>441.2</ele>
        <time>2021-09-30T08:40:49Z</time>
      </trkpt>
      <trkpt lat="41.3772550" lon="1.1403940">
        <ele>441.2</ele>
        <time>2021-09-30T08:40:50Z</time>
      </trkpt>
      <trkpt lat="41.3772580" lon="1.1404000">
        <ele>441.2</ele>
        <time>2021-09-30T08:40:51Z</time>
      </trkpt>
      <trkpt lat="41.3772600" lon="1.1404070">
        <ele>441.2</ele>
        <time>2021-09-30T08:40:52Z</time>
      </trkpt>
      <trkpt lat="41.3772620" lon="1.1404140">
        <ele>441.1</ele>
        <time>2021-09-30T08:40:53Z</time>
      </trkpt>
      <trkpt lat="41.3772640" lon="1.1404200">
        <ele>441.1</ele>
        <time>2021-09-30T08:40:54Z</time>
      </trkpt>
      <trkpt lat="41.3772660" lon="1.1404270">
        <ele>441.1</ele>
        <time>2021-09-30T08:40:55Z</time>
      </trkpt>
      <trkpt lat="41.3772680" lon="1.1404330">
        <ele>441.1</ele>
        <time>2021-09-30T08:40:56Z</time>
      </trkpt>
      <trkpt lat="41.3772700" lon="1.1404400">
        <ele>441.0</ele>
        <time>2021-09-30T08:40:57Z</time>
      </trkpt>
      <trkpt lat="41.3772720" lon="1.1404460">
        <ele>441.0</ele>
        <time>2021-09-30T08:40:58Z</time>
      </trkpt>
      <trkpt lat="41.3772740" lon="1.1404530">
        <ele>441.0</ele>
        <time>2021-09-30T08:40:59Z</time>
      </trkpt>
      <trkpt lat="41.3772760" lon="1.1404590">
        <ele>441.0</ele>
        <time>2021-09-30T08:41:00Z</time>
      </trkpt>
      <trkpt lat="41.3772790" lon="1.1404660">
        <ele>441.0</ele>
        <time>2021-09-30T08:41:01Z</time>
      </trkpt>
      <trkpt lat="41.3772810" lon="1.1404730">
        <ele>440.9</ele>
        <time>2021-09-30T08:41:02Z</time>
      </trkpt>
      <trkpt lat="41.3772830" lon="1.1404790">
        <ele>440.9</ele>
        <time>2021-09-30T08:41:03Z</time>
      </trkpt>
      <trkpt lat="41.3772850" lon="1.1404860">
        <ele>440.9</ele>
        <time>2021-09-30T08:41:04Z</time>
      </trkpt>
      <trkpt lat="41.3772870" lon="1.1404920">
        <ele>440.9</ele>
        <time>2021-09-30T08:41:05Z</time>
      </trkpt>
      <trkpt lat="41.3772890" lon="1.1404990">
        <ele>440.8</ele>
        <time>2021-09-30T08:41:06Z</time>
      </trkpt>
      <trkpt lat="41.3772910" lon="1.1405050">
        <ele>440.8</ele>
        <time>2021-09-30T08:41:07Z</time>
      </trkpt>
      <trkpt lat="41.3772930" lon="1.1405120">
        <ele>440.8</ele>
        <time>2021-09-30T08:41:08Z</time>
      </trkpt>
      <trkpt lat="41.3772950" lon="1.1405180">
        <ele>440.8</ele>
        <time>2021-09-30T08:41:09Z</time>
      </trkpt>
      <trkpt lat="41.3772970" lon="1.1405250">
        <ele>440.7</ele>
        <time>2021-09-30T08:41:10Z</time>
      </trkpt>
      <trkpt lat="41.3773000" lon="1.1405320">
        <ele>440.7</ele>
        <time>2021-09-30T08:41:11Z</time>
      </trkpt>
      <trkpt lat="41.3773020" lon="1.1405380">
        <ele>440.7</ele>
        <time>2021-09-30T08:41:12Z</time>
      </trkpt>
      <trkpt lat="41.3773040" lon="1.1405450">
        <ele>440.7</ele>
        <time>2021-09-30T08:41:13Z</time>
      </trkpt>
      <trkpt lat="41.3773060" lon="1.1405510">
        <ele>440.8</ele>
        <time>2021-09-30T08:41:14Z</time>
      </trkpt>
      <trkpt lat="41.3773080" lon="1.1405580">
        <ele>440.8</ele>
        <time>2021-09-30T08:41:15Z</time>
      </trkpt>
      <trkpt lat="41.3773100" lon="1.1405640">
        <ele>440.8</ele>
        <time>2021-09-30T08:41:16Z</time>
      </trkpt>
      <trkpt lat="41.3773120" lon="1.1405710">
        <ele>440.8</ele>
        <time>2021-09-30T08:41:17Z</time>
      </trkpt>
      <trkpt lat="41.3773140" lon="1.1405780">
        <ele>440.8</ele>
        <time>2021-09-30T08:41:18Z</time>
      </trkpt>
      <trkpt lat="41.3773160" lon="1.1405840">
        <ele>440.8</ele>
        <time>2021-09-30T08:41:19Z</time>
      </trkpt>
      <trkpt lat="41.3773180" lon="1.1405910">
        <ele>440.9</ele>
        <time>2021-09-30T08:41:20Z</time>
      </trkpt>
      <trkpt lat="41.3773210" lon="1.1405970">
        <ele>440.9</ele>
        <time>2021-09-30T08:41:21Z</time>
      </trkpt>
      <trkpt lat="41.3773230" lon="1.1406040">
        <ele>440.9</ele>
        <time>2021-09-30T08:41:22Z</time>
      </trkpt>
      <trkpt lat="41.3773250" lon="1.1406100">
        <ele>440.9</ele>
        <time>2021-09-30T08:41:23Z</time>
      </trkpt>
      <trkpt lat="41.3773270" lon="1.1406170">
        <ele>440.9</ele>
        <time>2021-09-30T08:41:24Z</time>
      </trkpt>
      <trkpt lat="41.3773290" lon="1.1406230">
        <ele>441.0</ele>
        <time>2021-09-30T08:41:25Z</time>
      </trkpt>
      <trkpt lat="41.3773310" lon="1.1406300">
        <ele>441.0</ele>
        <time>2021-09-30T08:41:26Z</time>
      </trkpt>
      <trkpt lat="41.3773150" lon="1.1406010">
        <ele>441.1</ele>
        <time>2021-09-30T08:41:27Z</time>
      </trkpt>
      <trkpt lat="41.3772990" lon="1.1405720">
        <ele>441.2</ele>
        <time>2021-09-30T08:41:28Z</time>
      </trkpt>
      <trkpt lat="41.3772830" lon="1.1405430">
        <ele>441.2</ele>
        <time>2021-09-30T08:41:29Z</time>
      </trkpt>
      <trkpt lat="41.3772670" lon="1.1405140">
        <ele>441.3</ele>
        <time>2021-09-30T08:41:30Z</time>
      </trkpt>
      <trkpt lat="41.3772510" lon="1.1404850">
        <ele>441.4</ele>
        <time>2021-09-30T08:41:31Z</time>
      </trkpt>
      <trkpt lat="41.3772350" lon="1.1404570">
        <ele>441.5</ele>
        <time>2021-09-30T08:41:32Z</time>
      </trkpt>
      <trkpt lat="41.3772190" lon="1.1404280">
        <ele>441.5</ele>
        <time>2021-09-30T08:41:33Z</time>
      </trkpt>
      <trkpt lat="41.3772030" lon="1.1403990">
        <ele>441.6</ele>
        <time>2021-09-30T08:41:34Z</time>
      </trkpt>
      <trkpt lat="41.3771870" lon="1.1403700">
        <ele>441.6</ele>
        <time>2021-09-30T08:41:35Z</time>
      </trkpt>
      <trkpt lat="41.3771710" lon="1.1403410">
        <ele>441.7</ele>
        <time>2021-09-30T08:41:36Z</time>
      </trkpt>
      <trkpt lat="41.3771330" lon="1.1403250">
        <ele>441.7</ele>
        <time>2021-09-30T08:41:37Z</time>
      </trkpt>
      <trkpt lat="41.3770940" lon="1.1403090">
        <ele>441.8</ele>
        <time>2021-09-30T08:41:38Z</time>
      </trkpt>
      <trkpt lat="41.3770560" lon="1.1402930">
        <ele>441.9</ele>
        <time>2021-09-30T08:41:39Z</time>
      </trkpt>
      <trkpt lat="41.3770170" lon="1.1402770">
        <ele>442.3</ele>
        <time>2021-09-30T08:41:40Z</time>
      </trkpt>
      <trkpt lat="41.3769790" lon="1.1402610">
        <ele>443.5</ele>
        <time>2021-09-30T08:41:41Z</time>
      </trkpt>
      <trkpt lat="41.3769410" lon="1.1402440">
        <ele>444.6</ele>
        <time>2021-09-30T08:41:42Z</time>
      </trkpt>
      <trkpt lat="41.3769020" lon="1.1402280">
        <ele>445.8</ele>
        <time>2021-09-30T08:41:43Z</time>
      </trkpt>
      <trkpt lat="41.3768640" lon="1.1402120">
        <ele>447.0</ele>
        <time>2021-09-30T08:41:44Z</time>
      </trkpt>
      <trkpt lat="41.3768250" lon="1.1401960">
        <ele>448.2</ele>
        <time>2021-09-30T08:41:45Z</time>
      </trkpt>
      <trkpt lat="41.3767870" lon="1.1401800">
        <ele>449.5</ele>
        <time>2021-09-30T08:41:46Z</time>
      </trkpt>
      <trkpt lat="41.3767480" lon="1.1401640">
        <ele>450.8</ele>
        <time>2021-09-30T08:41:47Z</time>
      </trkpt>
      <trkpt lat="41.3767100" lon="1.1401480">
        <ele>452.2</ele>
        <time>2021-09-30T08:41:48Z</time>
      </trkpt>
      <trkpt lat="41.3767060" lon="1.1401450">
        <ele>452.3</ele>
        <time>2021-09-30T08:41:49Z</time>
      </trkpt>
      <trkpt lat="41.3767020" lon="1.1401430">
        <ele>452.5</ele>
        <time>2021-09-30T08:41:50Z</time>
      </trkpt>
      <trkpt lat="41.3766980" lon="1.1401400">
        <ele>452.7</ele>
        <time>2021-09-30T08:41:51Z</time>
      </trkpt>
      <trkpt lat="41.3766930" lon="1.1401370">
        <ele>452.8</ele>
        <time>2021-09-30T08:41:52Z</time>
      </trkpt>
      <trkpt lat="41.3766890" lon="1.1401350">
        <ele>453.0</ele>
        <time>2021-09-30T08:41:53Z</time>
      </trkpt>
      <trkpt lat="41.3766850" lon="1.1401320">
        <ele>453.2</ele>
        <time>2021-09-30T08:41:54Z</time>
      </trkpt>
      <trkpt lat="41.3766810" lon="1.1401290">
        <ele>453.3</ele>
        <time>2021-09-30T08:41:55Z</time>
      </trkpt>
      <trkpt lat="41.3766770" lon="1.1401270">
        <ele>453.5</ele>
        <time>2021-09-30T08:41:56Z</time>
      </trkpt>
      <trkpt lat="41.3766730" lon="1.1401240">
        <ele>453.6</ele>
        <time>2021-09-30T08:41:57Z</time>
      </trkpt>
      <trkpt lat="41.3766690" lon="1.1401210">
        <ele>453.8</ele>
        <time>2021-09-30T08:41:58Z</time>
      </trkpt>
      <trkpt lat="41.3766640" lon="1.1401190">
        <ele>454.0</ele>
        <time>2021-09-30T08:41:59Z</time>
      </trkpt>
      <trkpt lat="41.3766600" lon="1.1401160">
        <ele>454.2</ele>
        <time>2021-09-30T08:42:00Z</time>
      </trkpt>
      <trkpt lat="41.3766560" lon="1.1401140">
        <ele>454.3</ele>
        <time>2021-09-30T08:42:01Z</time>
      </trkpt>
      <trkpt lat="41.3766520" lon="1.1401110">
        <ele>454.5</ele>
        <time>2021-09-30T08:42:02Z</time>
      </trkpt>
      <trkpt lat="41.3766480" lon="1.1401080">
        <ele>454.6</ele>
        <time>2021-09-30T08:42:03Z</time>
      </trkpt>
      <trkpt lat="41.3766440" lon="1.1401060">
        <ele>454.8</ele>
        <time>2021-09-30T08:42:04Z</time>
      </trkpt>
      <trkpt lat="41.3766390" lon="1.1401030">
        <ele>455.0</ele>
        <time>2021-09-30T08:42:05Z</time>
      </trkpt>
      <trkpt lat="41.3766350" lon="1.1401000">
        <ele>455.1</ele>
        <time>2021-09-30T08:42:06Z</time>
      </trkpt>
      <trkpt lat="41.3766310" lon="1.1400980">
        <ele>455.3</ele>
        <time>2021-09-30T08:42:07Z</time>
      </trkpt>
      <trkpt lat="41.3766270" lon="1.1400950">
        <ele>455.5</ele>
        <time>2021-09-30T08:42:08Z</time>
      </trkpt>
      <trkpt lat="41.3766230" lon="1.1401350">
        <ele>456.5</ele>
        <time>2021-09-30T08:42:09Z</time>
      </trkpt>
      <trkpt lat="41.3766180" lon="1.1401750">
        <ele>457.6</ele>
        <time>2021-09-30T08:42:10Z</time>
      </trkpt>
      <trkpt lat="41.3766140" lon="1.1402140">
        <ele>458.7</ele>
        <time>2021-09-30T08:42:11Z</time>
      </trkpt>
      <trkpt lat="41.3766090" lon="1.1402540">
        <ele>459.8</ele>
        <time>2021-09-30T08:42:12Z</time>
      </trkpt>
      <trkpt lat="41.3766050" lon="1.1402940">
        <ele>460.8</ele>
        <time>2021-09-30T08:42:13Z</time>
      </trkpt>
      <trkpt lat="41.3766010" lon="1.1403340">
        <ele>461.9</ele>
        <time>2021-09-30T08:42:14Z</time>
      </trkpt>
      <trkpt lat="41.3765960" lon="1.1403740">
        <ele>463.0</ele>
        <time>2021-09-30T08:42:15Z</time>
      </trkpt>
      <trkpt lat="41.3765920" lon="1.1404130">
        <ele>464.1</ele>
        <time>2021-09-30T08:42:16Z</time>
      </trkpt>
      <trkpt lat="41.3765870" lon="1.1404530">
        <ele>465.1</ele>
        <time>2021-09-30T08:42:17Z</time>
      </trkpt>
      <trkpt lat="41.3765830" lon="1.1404930">
        <ele>466.2</ele>
        <time>2021-09-30T08:42:18Z</time>
      </trkpt>
      <trkpt lat="41.3765790" lon="1.1404980">
        <ele>466.4</ele>
        <time>2021-09-30T08:42:19Z</time>
      </trkpt>
      <trkpt lat="41.3765760" lon="1.1405030">
        <ele>466.6</ele>
        <time>2021-09-30T08:42:20Z</time>
      </trkpt>
      <trkpt lat="41.3765720" lon="1.1405080">
        <ele>466.8</ele>
        <time>2021-09-30T08:42:21Z</time>
      </trkpt>
      <trkpt lat="41.3765690" lon="1.1405120">
        <ele>466.9</ele>
        <time>2021-09-30T08:42:22Z</time>
      </trkpt>
      <trkpt lat="41.3765650" lon="1.1405170">
        <ele>467.1</ele>
        <time>2021-09-30T08:42:23Z</time>
      </trkpt>
      <trkpt lat="41.3765610" lon="1.1405220">
        <ele>467.3</ele>
        <time>2021-09-30T08:42:24Z</time>
      </trkpt>
      <trkpt lat="41.3765580" lon="1.1405270">
        <ele>467.5</ele>
        <time>2021-09-30T08:42:25Z</time>
      </trkpt>
      <trkpt lat="41.3765540" lon="1.1405320">
        <ele>467.7</ele>
        <time>2021-09-30T08:42:26Z</time>
      </trkpt>
      <trkpt lat="41.3765510" lon="1.1405370">
        <ele>467.8</ele>
        <time>2021-09-30T08:42:27Z</time>
      </trkpt>
      <trkpt lat="41.3765470" lon="1.1405420">
        <ele>468.0</ele>
        <time>2021-09-30T08:42:28Z</time>
      </trkpt>
      <trkpt lat="41.3765430" lon="1.1405470">
        <ele>468.2</ele>
        <time>2021-09-30T08:42:29Z</time>
      </trkpt>
      <trkpt lat="41.3765400" lon="1.1405510">
        <ele>468.4</ele>
        <time>2021-09-30T08:42:30Z</time>
      </trkpt>
      <trkpt lat="41.3765360" lon="1.1405560">
        <ele>468.6</ele>
        <time>2021-09-30T08:42:31Z</time>
      </trkpt>
      <trkpt lat="41.3765320" lon="1.1405610">
        <ele>468.8</ele>
        <time>2021-09-30T08:42:32Z</time>
      </trkpt>
      <trkpt lat="41.3765290" lon="1.1405660">
        <ele>468.9</ele>
        <time>2021-09-30T08:42:33Z</time>
      </trkpt>
      <trkpt lat="41.3765250" lon="1.1405710">
        <ele>469.1</ele>
        <time>2021-09-30T08:42:34Z</time>
      </trkpt>
      <trkpt lat="41.3765220" lon="1.1405760">
        <ele>469.3</ele>
        <time>2021-09-30T08:42:35Z</time>
      </trkpt>
      <trkpt lat="41.3765180" lon="1.1405810">
        <ele>469.5</ele>
        <time>2021-09-30T08:42:36Z</time>
      </trkpt>
      <trkpt lat="41.3765140" lon="1.1405860">
        <ele>469.6</ele>
        <time>2021-09-30T08:42:37Z</time>
      </trkpt>
      <trkpt lat="41.3765110" lon="1.1405900">
        <ele>469.8</ele>
        <time>2021-09-30T08:42:38Z</time>
      </trkpt>
      <trkpt lat="41.3765070" lon="1.1405950">
        <ele>470.0</ele>
        <time>2021-09-30T08:42:39Z</time>
      </trkpt>
      <trkpt lat="41.3765040" lon="1.1406000">
        <ele>470.1</ele>
        <time>2021-09-30T08:42:40Z</time>
      </trkpt>
      <trkpt lat="41.3765000" lon="1.1406050">
        <ele>470.3</ele>
        <time>2021-09-30T08:42:41Z</time>
      </trkpt>
      <trkpt lat="41.3764900" lon="1.1406100">
        <ele>470.6</ele>
        <time>2021-09-30T08:42:42Z</time>
      </trkpt>
      <trkpt lat="41.3764800" lon="1.1406150">
        <ele>471.0</ele>
        <time>2021-09-30T08:42:43Z</time>
      </trkpt>
      <trkpt lat="41.3764700" lon="1.1406200">
        <ele>471.3</ele>
        <time>2021-09-30T08:42:44Z</time>
      </trkpt>
      <trkpt lat="41.3764600" lon="1.1406250">
        <ele>471.7</ele>
        <time>2021-09-30T08:42:45Z</time>
      </trkpt>
      <trkpt lat="41.3764500" lon="1.1406300">
        <ele>472.0</ele>
        <time>2021-09-30T08:42:46Z</time>
      </trkpt>
      <trkpt lat="41.3764390" lon="1.1406350">
        <ele>472.3</ele>
        <time>2021-09-30T08:42:47Z</time>
      </trkpt>
      <trkpt lat="41.3764290" lon="1.1406400">
        <ele>472.6</ele>
        <time>2021-09-30T08:42:48Z</time>
      </trkpt>
      <trkpt lat="41.3764190" lon="1.1406450">
        <ele>472.9</ele>
        <time>2021-09-30T08:42:49Z</time>
      </trkpt>
      <trkpt lat="41.3764090" lon="1.1406500">
        <ele>473.3</ele>
        <time>2021-09-30T08:42:50Z</time>
      </trkpt>
      <trkpt lat="41.3763990" lon="1.1406550">
        <ele>473.6</ele>
        <time>2021-09-30T08:42:51Z</time>
      </trkpt>
      <trkpt lat="41.3763890" lon="1.1406600">
        <ele>473.8</ele>
        <time>2021-09-30T08:42:52Z</time>
      </trkpt>
      <trkpt lat="41.3763680" lon="1.1406530">
        <ele>474.4</ele>
        <time>2021-09-30T08:42:53Z</time>
      </trkpt>
      <trkpt lat="41.3763470" lon="1.1406450">
        <ele>475.0</ele>
        <time>2021-09-30T08:42:54Z</time>
      </trkpt>
      <trkpt lat="41.3763260" lon="1.1406380">
        <ele>475.5</ele>
        <time>2021-09-30T08:42:55Z</time>
      </trkpt>
      <trkpt lat="41.3763050" lon="1.1406310">
        <ele>476.0</ele>
        <time>2021-09-30T08:42:56Z</time>
      </trkpt>
      <trkpt lat="41.3762830" lon="1.1406230">
        <ele>476.5</ele>
        <time>2021-09-30T08:42:57Z</time>
      </trkpt>
      <trkpt lat="41.3762620" lon="1.1406160">
        <ele>477.0</ele>
        <time>2021-09-30T08:42:58Z</time>
      </trkpt>
      <trkpt lat="41.3762410" lon="1.1406090">
        <ele>477.4</ele>
        <time>2021-09-30T08:42:59Z</time>
      </trkpt>
      <trkpt lat="41.3762200" lon="1.1406010">
        <ele>477.8</ele>
        <time>2021-09-30T08:43:00Z</time>
      </trkpt>
      <trkpt lat="41.3761990" lon="1.1405940">
        <ele>478.2</ele>
        <time>2021-09-30T08:43:01Z</time>
      </trkpt>
      <trkpt lat="41.3761650" lon="1.1405940">
        <ele>478.7</ele>
        <time>2021-09-30T08:43:02Z</time>
      </trkpt>
      <trkpt lat="41.3761320" lon="1.1405940">
        <ele>479.1</ele>
        <time>2021-09-30T08:43:03Z</time>
      </trkpt>
      <trkpt lat="41.3760980" lon="1.1405950">
        <ele>479.5</ele>
        <time>2021-09-30T08:43:04Z</time>
      </trkpt>
      <trkpt lat="41.3760650" lon="1.1405950">
        <ele>479.8</ele>
        <time>2021-09-30T08:43:05Z</time>
      </trkpt>
      <trkpt lat="41.3760310" lon="1.1405950">
        <ele>480.2</ele>
        <time>2021-09-30T08:43:06Z</time>
      </trkpt>
      <trkpt lat="41.3759980" lon="1.1405950">
        <ele>480.6</ele>
        <time>2021-09-30T08:43:07Z</time>
      </trkpt>
      <trkpt lat="41.3759640" lon="1.1405950">
        <ele>481.0</ele>
        <time>2021-09-30T08:43:08Z</time>
      </trkpt>
      <trkpt lat="41.3759310" lon="1.1405950">
        <ele>481.4</ele>
        <time>2021-09-30T08:43:09Z</time>
      </trkpt>
      <trkpt lat="41.3758970" lon="1.1405960">
        <ele>481.9</ele>
        <time>2021-09-30T08:43:10Z</time>
      </trkpt>
      <trkpt lat="41.3758640" lon="1.1405960">
        <ele>482.5</ele>
        <time>2021-09-30T08:43:11Z</time>
      </trkpt>
      <trkpt lat="41.3758300" lon="1.1405960">
        <ele>483.1</ele>
        <time>2021-09-30T08:43:12Z</time>
      </trkpt>
      <trkpt lat="41.3758220" lon="1.1405950">
        <ele>483.2</ele>
        <time>2021-09-30T08:43:13Z</time>
      </trkpt>
      <trkpt lat="41.3758150" lon="1.1405940">
        <ele>483.4</ele>
        <time>2021-09-30T08:43:14Z</time>
      </trkpt>
      <trkpt lat="41.3758070" lon="1.1405930">
        <ele>483.5</ele>
        <time>2021-09-30T08:43:15Z</time>
      </trkpt>
      <trkpt lat="41.3757990" lon="1.1405920">
        <ele>483.7</ele>
        <time>2021-09-30T08:43:16Z</time>
      </trkpt>
      <trkpt lat="41.3757920" lon="1.1405900">
        <ele>483.8</ele>
        <time>2021-09-30T08:43:17Z</time>
      </trkpt>
      <trkpt lat="41.3757840" lon="1.1405890">
        <ele>484.0</ele>
        <time>2021-09-30T08:43:18Z</time>
      </trkpt>
      <trkpt lat="41.3757760" lon="1.1405880">
        <ele>484.1</ele>
        <time>2021-09-30T08:43:19Z</time>
      </trkpt>
      <trkpt lat="41.3757680" lon="1.1405870">
        <ele>484.3</ele>
        <time>2021-09-30T08:43:20Z</time>
      </trkpt>
      <trkpt lat="41.3757610" lon="1.1405860">
        <ele>484.4</ele>
        <time>2021-09-30T08:43:21Z</time>
      </trkpt>
      <trkpt lat="41.3757530" lon="1.1405850">
        <ele>484.6</ele>
        <time>2021-09-30T08:43:22Z</time>
      </trkpt>
      <trkpt lat="41.3757450" lon="1.1405840">
        <ele>484.8</ele>
        <time>2021-09-30T08:43:23Z</time>
      </trkpt>
      <trkpt lat="41.3757380" lon="1.1405830">
        <ele>484.9</ele>
        <time>2021-09-30T08:43:24Z</time>
      </trkpt>
      <trkpt lat="41.3757300" lon="1.1405820">
        <ele>485.1</ele>
        <time>2021-09-30T08:43:25Z</time>
      </trkpt>
      <trkpt lat="41.3757220" lon="1.1405810">
        <ele>485.2</ele>
        <time>2021-09-30T08:43:26Z</time>
      </trkpt>
      <trkpt lat="41.3757150" lon="1.1405790">
        <ele>485.4</ele>
        <time>2021-09-30T08:43:27Z</time>
      </trkpt>
      <trkpt lat="41.3757070" lon="1.1405780">
        <ele>485.6</ele>
        <time>2021-09-30T08:43:28Z</time>
      </trkpt>
      <trkpt lat="41.3756990" lon="1.1405770">
        <ele>485.7</ele>
        <time>2021-09-30T08:43:29Z</time>
      </trkpt>
      <trkpt lat="41.3756910" lon="1.1405760">
        <ele>485.9</ele>
        <time>2021-09-30T08:43:30Z</time>
      </trkpt>
      <trkpt lat="41.3756840" lon="1.1405750">
        <ele>486.1</ele>
        <time>2021-09-30T08:43:31Z</time>
      </trkpt>
      <trkpt lat="41.3756760" lon="1.1405740">
        <ele>486.2</ele>
        <time>2021-09-30T08:43:32Z</time>
      </trkpt>
      <trkpt lat="41.3756510" lon="1.1405590">
        <ele>486.8</ele>
        <time>2021-09-30T08:43:33Z</time>
      </trkpt>
      <trkpt lat="41.3756260" lon="1.1405440">
        <ele>487.4</ele>
        <time>2021-09-30T08:43:34Z</time>
      </trkpt>
      <trkpt lat="41.3756020" lon="1.1405290">
        <ele>488.0</ele>
        <time>2021-09-30T08:43:35Z</time>
      </trkpt>
      <trkpt lat="41.3755770" lon="1.1405140">
        <ele>488.6</ele>
        <time>2021-09-30T08:43:36Z</time>
      </trkpt>
      <trkpt lat="41.3755520" lon="1.1404990">
        <ele>489.1</ele>
        <time>2021-09-30T08:43:37Z</time>
      </trkpt>
      <trkpt lat="41.3755270" lon="1.1404840">
        <ele>489.7</ele>
        <time>2021-09-30T08:43:38Z</time>
      </trkpt>
      <trkpt lat="41.3755020" lon="1.1404690">
        <ele>490.3</ele>
        <time>2021-09-30T08:43:39Z</time>
      </trkpt>
      <trkpt lat="41.3754770" lon="1.1404540">
        <ele>490.8</ele>
        <time>2021-09-30T08:43:40Z</time>
      </trkpt>
      <trkpt lat="41.3754530" lon="1.1404390">
        <ele>491.3</ele>
        <time>2021-09-30T08:43:41Z</time>
      </trkpt>
      <trkpt lat="41.3754280" lon="1.1404240">
        <ele>491.7</ele>
        <time>2021-09-30T08:43:42Z</time>
      </trkpt>
      <trkpt lat="41.3754030" lon="1.1404090">
        <ele>492.2</ele>
        <time>2021-09-30T08:43:43Z</time>
      </trkpt>
      <trkpt lat="41.3753910" lon="1.1404120">
        <ele>492.5</ele>
        <time>2021-09-30T08:43:44Z</time>
      </trkpt>
      <trkpt lat="41.3753800" lon="1.1404150">
        <ele>492.7</ele>
        <time>2021-09-30T08:43:45Z</time>
      </trkpt>
      <trkpt lat="41.3753680" lon="1.1404180">
        <ele>492.9</ele>
        <time>2021-09-30T08:43:46Z</time>
      </trkpt>
      <trkpt lat="41.3753570" lon="1.1404210">
        <ele>493.1</ele>
        <time>2021-09-30T08:43:47Z</time>
      </trkpt>
      <trkpt lat="41.3753450" lon="1.1404250">
        <ele>493.3</ele>
        <time>2021-09-30T08:43:48Z</time>
      </trkpt>
      <trkpt lat="41.3753330" lon="1.1404280">
        <ele>493.6</ele>
        <time>2021-09-30T08:43:49Z</time>
      </trkpt>
      <trkpt lat="41.3753220" lon="1.1404310">
        <ele>493.8</ele>
        <time>2021-09-30T08:43:50Z</time>
      </trkpt>
      <trkpt lat="41.3753100" lon="1.1404340">
        <ele>494.0</ele>
        <time>2021-09-30T08:43:51Z</time>
      </trkpt>
      <trkpt lat="41.3752990" lon="1.1404370">
        <ele>494.3</ele>
        <time>2021-09-30T08:43:52Z</time>
      </trkpt>
      <trkpt lat="41.3752870" lon="1.1404400">
        <ele>494.6</ele>
        <time>2021-09-30T08:43:53Z</time>
      </trkpt>
      <trkpt lat="41.3752830" lon="1.1404260">
        <ele>494.8</ele>
        <time>2021-09-30T08:43:54Z</time>
      </trkpt>
      <trkpt lat="41.3752790" lon="1.1404130">
        <ele>495.0</ele>
        <time>2021-09-30T08:43:55Z</time>
      </trkpt>
      <trkpt lat="41.3752750" lon="1.1403990">
        <ele>495.3</ele>
        <time>2021-09-30T08:43:56Z</time>
      </trkpt>
      <trkpt lat="41.3752710" lon="1.1403860">
        <ele>495.6</ele>
        <time>2021-09-30T08:43:57Z</time>
      </trkpt>
      <trkpt lat="41.3752670" lon="1.1403720">
        <ele>495.9</ele>
        <time>2021-09-30T08:43:58Z</time>
      </trkpt>
      <trkpt lat="41.3752620" lon="1.1403590">
        <ele>496.1</ele>
        <time>2021-09-30T08:43:59Z</time>
      </trkpt>
      <trkpt lat="41.3752580" lon="1.1403450">
        <ele>496.4</ele>
        <time>2021-09-30T08:44:00Z</time>
      </trkpt>
      <trkpt lat="41.3752540" lon="1.1403320">
        <ele>496.7</ele>
        <time>2021-09-30T08:44:01Z</time>
      </trkpt>
      <trkpt lat="41.3752500" lon="1.1403180">
        <ele>497.0</ele>
        <time>2021-09-30T08:44:02Z</time>
      </trkpt>
      <trkpt lat="41.3752460" lon="1.1403050">
        <ele>497.3</ele>
        <time>2021-09-30T08:44:03Z</time>
      </trkpt>
      <trkpt lat="41.3752340" lon="1.1403000">
        <ele>497.6</ele>
        <time>2021-09-30T08:44:04Z</time>
      </trkpt>
      <trkpt lat="41.3752220" lon="1.1402940">
        <ele>498.0</ele>
        <time>2021-09-30T08:44:05Z</time>
      </trkpt>
      <trkpt lat="41.3752100" lon="1.1402890">
        <ele>498.4</ele>
        <time>2021-09-30T08:44:06Z</time>
      </trkpt>
      <trkpt lat="41.3751980" lon="1.1402840">
        <ele>498.7</ele>
        <time>2021-09-30T08:44:07Z</time>
      </trkpt>
      <trkpt lat="41.3751870" lon="1.1402780">
        <ele>499.1</ele>
        <time>2021-09-30T08:44:08Z</time>
      </trkpt>
      <trkpt lat="41.3751750" lon="1.1402730">
        <ele>499.5</ele>
        <time>2021-09-30T08:44:09Z</time>
      </trkpt>
      <trkpt lat="41.3751630" lon="1.1402680">
        <ele>499.9</ele>
        <time>2021-09-30T08:44:10Z</time>
      </trkpt>
      <trkpt lat="41.3751510" lon="1.1402620">
        <ele>500.3</ele>
        <time>2021-09-30T08:44:11Z</time>
      </trkpt>
      <trkpt lat="41.3751390" lon="1.1402570">
        <ele>500.7</ele>
        <time>2021-09-30T08:44:12Z</time>
      </trkpt>
      <trkpt lat="41.3751300" lon="1.1402520">
        <ele>501.0</ele>
        <time>2021-09-30T08:44:13Z</time>
      </trkpt>
      <trkpt lat="41.3751200" lon="1.1402470">
        <ele>501.4</ele>
        <time>2021-09-30T08:44:14Z</time>
      </trkpt>
      <trkpt lat="41.3751110" lon="1.1402420">
        <ele>501.7</ele>
        <time>2021-09-30T08:44:15Z</time>
      </trkpt>
      <trkpt lat="41.3751020" lon="1.1402360">
        <ele>502.1</ele>
        <time>2021-09-30T08:44:16Z</time>
      </trkpt>
      <trkpt lat="41.3750920" lon="1.1402310">
        <ele>502.4</ele>
        <time>2021-09-30T08:44:17Z</time>
      </trkpt>
      <trkpt lat="41.3750830" lon="1.1402260">
        <ele>502.7</ele>
        <time>2021-09-30T08:44:18Z</time>
      </trkpt>
      <trkpt lat="41.3750730" lon="1.1402210">
        <ele>503.1</ele>
        <time>2021-09-30T08:44:19Z</time>
      </trkpt>
      <trkpt lat="41.3750640" lon="1.1402160">
        <ele>503.4</ele>
        <time>2021-09-30T08:44:20Z</time>
      </trkpt>
      <trkpt lat="41.3750550" lon="1.1402110">
        <ele>503.8</ele>
        <time>2021-09-30T08:44:21Z</time>
      </trkpt>
      <trkpt lat="41.3750450" lon="1.1402060">
        <ele>504.1</ele>
        <time>2021-09-30T08:44:22Z</time>
      </trkpt>
      <trkpt lat="41.3750360" lon="1.1402000">
        <ele>504.5</ele>
        <time>2021-09-30T08:44:23Z</time>
      </trkpt>
      <trkpt lat="41.3750270" lon="1.1401950">
        <ele>504.8</ele>
        <time>2021-09-30T08:44:24Z</time>
      </trkpt>
      <trkpt lat="41.3750170" lon="1.1401900">
        <ele>505.2</ele>
        <time>2021-09-30T08:44:25Z</time>
      </trkpt>
      <trkpt lat="41.3750080" lon="1.1401850">
        <ele>505.5</ele>
        <time>2021-09-30T08:44:26Z</time>
      </trkpt>
      <trkpt lat="41.3749990" lon="1.1401800">
        <ele>505.8</ele>
        <time>2021-09-30T08:44:27Z</time>
      </trkpt>
      <trkpt lat="41.3749890" lon="1.1401750">
        <ele>506.2</ele>
        <time>2021-09-30T08:44:28Z</time>
      </trkpt>
      <trkpt lat="41.3749800" lon="1.1401700">
        <ele>506.5</ele>
        <time>2021-09-30T08:44:29Z</time>
      </trkpt>
      <trkpt lat="41.3749700" lon="1.1401650">
        <ele>506.8</ele>
        <time>2021-09-30T08:44:30Z</time>
      </trkpt>
      <trkpt lat="41.3749610" lon="1.1401590">
        <ele>507.2</ele>
        <time>2021-09-30T08:44:31Z</time>
      </trkpt>
      <trkpt lat="41.3749520" lon="1.1401540">
        <ele>507.5</ele>
        <time>2021-09-30T08:44:32Z</time>
      </trkpt>
      <trkpt lat="41.3749420" lon="1.1401490">
        <ele>507.8</ele>
        <time>2021-09-30T08:44:33Z</time>
      </trkpt>
      <trkpt lat="41.3749330" lon="1.1401440">
        <ele>508.1</ele>
        <time>2021-09-30T08:44:34Z</time>
      </trkpt>
      <trkpt lat="41.3749100" lon="1.1401350">
        <ele>508.8</ele>
        <time>2021-09-30T08:44:35Z</time>
      </trkpt>
      <trkpt lat="41.3748860" lon="1.1401250">
        <ele>509.5</ele>
        <time>2021-09-30T08:44:36Z</time>
      </trkpt>
      <trkpt lat="41.3748630" lon="1.1401160">
        <ele>510.1</ele>
        <time>2021-09-30T08:44:37Z</time>
      </trkpt>
      <trkpt lat="41.3748390" lon="1.1401070">
        <ele>510.7</ele>
        <time>2021-09-30T08:44:38Z</time>
      </trkpt>
      <trkpt lat="41.3748160" lon="1.1400980">
        <ele>511.3</ele>
        <time>2021-09-30T08:44:39Z</time>
      </trkpt>
      <trkpt lat="41.3747920" lon="1.1400880">
        <ele>511.8</ele>
        <time>2021-09-30T08:44:40Z</time>
      </trkpt>
      <trkpt lat="41.3747690" lon="1.1400790">
        <ele>512.3</ele>
        <time>2021-09-30T08:44:41Z</time>
      </trkpt>
      <trkpt lat="41.3747450" lon="1.1400700">
        <ele>512.8</ele>
        <time>2021-09-30T08:44:42Z</time>
      </trkpt>
      <trkpt lat="41.3747220" lon="1.1400610">
        <ele>513.3</ele>
        <time>2021-09-30T08:44:43Z</time>
      </trkpt>
      <trkpt lat="41.3746980" lon="1.1400510">
        <ele>513.7</ele>
        <time>2021-09-30T08:44:44Z</time>
      </trkpt>
      <trkpt lat="41.3746750" lon="1.1400420">
        <ele>514.2</ele>
        <time>2021-09-30T08:44:45Z</time>
      </trkpt>
      <trkpt lat="41.3746550" lon="1.1400510">
        <ele>514.6</ele>
        <time>2021-09-30T08:44:46Z</time>
      </trkpt>
      <trkpt lat="41.3746350" lon="1.1400610">
        <ele>514.9</ele>
        <time>2021-09-30T08:44:47Z</time>
      </trkpt>
      <trkpt lat="41.3746160" lon="1.1400700">
        <ele>515.3</ele>
        <time>2021-09-30T08:44:48Z</time>
      </trkpt>
      <trkpt lat="41.3745960" lon="1.1400790">
        <ele>515.7</ele>
        <time>2021-09-30T08:44:49Z</time>
      </trkpt>
      <trkpt lat="41.3745760" lon="1.1400880">
        <ele>516.0</ele>
        <time>2021-09-30T08:44:50Z</time>
      </trkpt>
      <trkpt lat="41.3745560" lon="1.1400980">
        <ele>516.4</ele>
        <time>2021-09-30T08:44:51Z</time>
      </trkpt>
      <trkpt lat="41.3745360" lon="1.1401070">
        <ele>516.8</ele>
        <time>2021-09-30T08:44:52Z</time>
      </trkpt>
      <trkpt lat="41.3745160" lon="1.1401160">
        <ele>517.2</ele>
        <time>2021-09-30T08:44:53Z</time>
      </trkpt>
      <trkpt lat="41.3744970" lon="1.1401250">
        <ele>517.5</ele>
        <time>2021-09-30T08:44:54Z</time>
      </trkpt>
      <trkpt lat="41.3744770" lon="1.1401350">
        <ele>517.9</ele>
        <time>2021-09-30T08:44:55Z</time>
      </trkpt>
      <trkpt lat="41.3744570" lon="1.1401440">
        <ele>518.3</ele>
        <time>2021-09-30T08:44:56Z</time>
      </trkpt>
      <trkpt lat="41.3744540" lon="1.1401590">
        <ele>518.5</ele>
        <time>2021-09-30T08:44:57Z</time>
      </trkpt>
      <trkpt lat="41.3744500" lon="1.1401750">
        <ele>518.8</ele>
        <time>2021-09-30T08:44:58Z</time>
      </trkpt>
      <trkpt lat="41.3744470" lon="1.1401900">
        <ele>519.0</ele>
        <time>2021-09-30T08:44:59Z</time>
      </trkpt>
      <trkpt lat="41.3744430" lon="1.1402060">
        <ele>519.3</ele>
        <time>2021-09-30T08:45:00Z</time>
      </trkpt>
      <trkpt lat="41.3744400" lon="1.1402210">
        <ele>519.6</ele>
        <time>2021-09-30T08:45:01Z</time>
      </trkpt>
      <trkpt lat="41.3744360" lon="1.1402370">
        <ele>519.9</ele>
        <time>2021-09-30T08:45:02Z</time>
      </trkpt>
      <trkpt lat="41.3744330" lon="1.1402520">
        <ele>520.2</ele>
        <time>2021-09-30T08:45:03Z</time>
      </trkpt>
      <trkpt lat="41.3744290" lon="1.1402680">
        <ele>520.5</ele>
        <time>2021-09-30T08:45:04Z</time>
      </trkpt>
      <trkpt lat="41.3744260" lon="1.1402830">
        <ele>520.8</ele>
        <time>2021-09-30T08:45:05Z</time>
      </trkpt>
      <trkpt lat="41.3744220" lon="1.1402990">
        <ele>521.1</ele>
        <time>2021-09-30T08:45:06Z</time>
      </trkpt>
      <trkpt lat="41.3744190" lon="1.1403140">
        <ele>521.4</ele>
        <time>2021-09-30T08:45:07Z</time>
      </trkpt>
      <trkpt lat="41.3744140" lon="1.1403380">
        <ele>522.0</ele>
        <time>2021-09-30T08:45:08Z</time>
      </trkpt>
      <trkpt lat="41.3744080" lon="1.1403610">
        <ele>522.6</ele>
        <time>2021-09-30T08:45:09Z</time>
      </trkpt>
      <trkpt lat="41.3744030" lon="1.1403850">
        <ele>523.1</ele>
        <time>2021-09-30T08:45:10Z</time>
      </trkpt>
      <trkpt lat="41.3743980" lon="1.1404080">
        <ele>523.7</ele>
        <time>2021-09-30T08:45:11Z</time>
      </trkpt>
      <trkpt lat="41.3743930" lon="1.1404320">
        <ele>524.2</ele>
        <time>2021-09-30T08:45:12Z</time>
      </trkpt>
      <trkpt lat="41.3743870" lon="1.1404550">
        <ele>524.8</ele>
        <time>2021-09-30T08:45:13Z</time>
      </trkpt>
      <trkpt lat="41.3743820" lon="1.1404790">
        <ele>525.4</ele>
        <time>2021-09-30T08:45:14Z</time>
      </trkpt>
      <trkpt lat="41.3743770" lon="1.1405020">
        <ele>525.9</ele>
        <time>2021-09-30T08:45:15Z</time>
      </trkpt>
      <trkpt lat="41.3743710" lon="1.1405260">
        <ele>526.5</ele>
        <time>2021-09-30T08:45:16Z</time>
      </trkpt>
      <trkpt lat="41.3743660" lon="1.1405490">
        <ele>527.0</ele>
        <time>2021-09-30T08:45:17Z</time>
      </trkpt>
      <trkpt lat="41.3743540" lon="1.1405690">
        <ele>527.5</ele>
        <time>2021-09-30T08:45:18Z</time>
      </trkpt>
      <trkpt lat="41.3743420" lon="1.1405880">
        <ele>528.0</ele>
        <time>2021-09-30T08:45:19Z</time>
      </trkpt>
      <trkpt lat="41.3743310" lon="1.1406080">
        <ele>528.5</ele>
        <time>2021-09-30T08:45:20Z</time>
      </trkpt>
      <trkpt lat="41.3743190" lon="1.1406270">
        <ele>528.9</ele>
        <time>2021-09-30T08:45:21Z</time>
      </trkpt>
      <trkpt lat="41.3743070" lon="1.1406470">
        <ele>529.4</ele>
        <time>2021-09-30T08:45:22Z</time>
      </trkpt>
      <trkpt lat="41.3742950" lon="1.1406670">
        <ele>529.8</ele>
        <time>2021-09-30T08:45:23Z</time>
      </trkpt>
      <trkpt lat="41.3742830" lon="1.1406860">
        <ele>530.2</ele>
        <time>2021-09-30T08:45:24Z</time>
      </trkpt>
      <trkpt lat="41.3742720" lon="1.1407060">
        <ele>530.6</ele>
        <time>2021-09-30T08:45:25Z</time>
      </trkpt>
      <trkpt lat="41.3742600" lon="1.1407250">
        <ele>530.9</ele>
        <time>2021-09-30T08:45:26Z</time>
      </trkpt>
      <trkpt lat="41.3742480" lon="1.1407450">
        <ele>531.3</ele>
        <time>2021-09-30T08:45:27Z</time>
      </trkpt>
      <trkpt lat="41.3742250" lon="1.1407530">
        <ele>531.7</ele>
        <time>2021-09-30T08:45:28Z</time>
      </trkpt>
      <trkpt lat="41.3742010" lon="1.1407600">
        <ele>532.0</ele>
        <time>2021-09-30T08:45:29Z</time>
      </trkpt>
      <trkpt lat="41.3741780" lon="1.1407680">
        <ele>532.4</ele>
        <time>2021-09-30T08:45:30Z</time>
      </trkpt>
      <trkpt lat="41.3741540" lon="1.1407750">
        <ele>532.7</ele>
        <time>2021-09-30T08:45:31Z</time>
      </trkpt>
      <trkpt lat="41.3741310" lon="1.1407830">
        <ele>533.0</ele>
        <time>2021-09-30T08:45:32Z</time>
      </trkpt>
      <trkpt lat="41.3741070" lon="1.1407900">
        <ele>533.2</ele>
        <time>2021-09-30T08:45:33Z</time>
      </trkpt>
      <trkpt lat="41.3740840" lon="1.1407980">
        <ele>533.5</ele>
        <time>2021-09-30T08:45:34Z</time>
      </trkpt>
      <trkpt lat="41.3740600" lon="1.1408050">
        <ele>533.7</ele>
        <time>2021-09-30T08:45:35Z</time>
      </trkpt>
      <trkpt lat="41.3740370" lon="1.1408130">
        <ele>533.9</ele>
        <time>2021-09-30T08:45:36Z</time>
      </trkpt>
      <trkpt lat="41.3740130" lon="1.1408200">
        <ele>534.0</ele>
        <time>2021-09-30T08:45:37Z</time>
      </trkpt>
      <trkpt lat="41.3739900" lon="1.1408280">
        <ele>534.1</ele>
        <time>2021-09-30T08:45:38Z</time>
      </trkpt>
      <trkpt lat="41.3739780" lon="1.1408600">
        <ele>534.2</ele>
        <time>2021-09-30T08:45:39Z</time>
      </trkpt>
      <trkpt lat="41.3739650" lon="1.1408930">
        <ele>534.3</ele>
        <time>2021-09-30T08:45:40Z</time>
      </trkpt>
      <trkpt lat="41.3739530" lon="1.1409250">
        <ele>534.3</ele>
        <time>2021-09-30T08:45:41Z</time>
      </trkpt>
      <trkpt lat="41.3739410" lon="1.1409570">
        <ele>534.3</ele>
        <time>2021-09-30T08:45:42Z</time>
      </trkpt>
      <trkpt lat="41.3739280" lon="1.1409900">
        <ele>534.3</ele>
        <time>2021-09-30T08:45:43Z</time>
      </trkpt>
      <trkpt lat="41.3739160" lon="1.1410220">
        <ele>534.3</ele>
        <time>2021-09-30T08:45:44Z</time>
      </trkpt>
      <trkpt lat="41.3739030" lon="1.1410550">
        <ele>534.3</ele>
        <time>2021-09-30T08:45:45Z</time>
      </trkpt>
      <trkpt lat="41.3738910" lon="1.1410870">
        <ele>534.3</ele>
        <time>2021-09-30T08:45:46Z</time>
      </trkpt>
      <trkpt lat="41.3738790" lon="1.1411190">
        <ele>534.3</ele>
        <time>2021-09-30T08:45:47Z</time>
      </trkpt>
      <trkpt lat="41.3738660" lon="1.1411520">
        <ele>534.3</ele>
        <time>2021-09-30T08:45:48Z</time>
      </trkpt>
      <trkpt lat="41.3738540" lon="1.1411840">
        <ele>534.3</ele>
        <time>2021-09-30T08:45:49Z</time>
      </trkpt>
      <trkpt lat="41.3738640" lon="1.1411660">
        <ele>534.3</ele>
        <time>2021-09-30T08:45:50Z</time>
      </trkpt>
      <trkpt lat="41.3738730" lon="1.1411490">
        <ele>534.3</ele>
        <time>2021-09-30T08:45:51Z</time>
      </trkpt>
      <trkpt lat="41.3738830" lon="1.1411310">
        <ele>534.3</ele>
        <time>2021-09-30T08:45:52Z</time>
      </trkpt>
      <trkpt lat="41.3738920" lon="1.1411130">
        <ele>534.3</ele>
        <time>2021-09-30T08:45:53Z</time>
      </trkpt>
      <trkpt lat="41.3739020" lon="1.1410960">
        <ele>534.3</ele>
        <time>2021-09-30T08:45:54Z</time>
      </trkpt>
      <trkpt lat="41.3739120" lon="1.1410780">
        <ele>534.3</ele>
        <time>2021-09-30T08:45:55Z</time>
      </trkpt>
      <trkpt lat="41.3739210" lon="1.1410600">
        <ele>534.3</ele>
        <time>2021-09-30T08:45:56Z</time>
      </trkpt>
      <trkpt lat="41.3739310" lon="1.1410420">
        <ele>534.3</ele>
        <time>2021-09-30T08:45:57Z</time>
      </trkpt>
      <trkpt lat="41.3739400" lon="1.1410250">
        <ele>534.3</ele>
        <time>2021-09-30T08:45:58Z</time>
      </trkpt>
      <trkpt lat="41.3739500" lon="1.1410070">
        <ele>534.3</ele>
        <time>2021-09-30T08:45:59Z</time>
      </trkpt>
      <trkpt lat="41.3739680" lon="1.1409860">
        <ele>534.2</ele>
        <time>2021-09-30T08:46:00Z</time>
      </trkpt>
      <trkpt lat="41.3739870" lon="1.1409660">
        <ele>534.1</ele>
        <time>2021-09-30T08:46:01Z</time>
      </trkpt>
      <trkpt lat="41.3740050" lon="1.1409450">
        <ele>534.0</ele>
        <time>2021-09-30T08:46:02Z</time>
      </trkpt>
      <trkpt lat="41.3740240" lon="1.1409240">
        <ele>533.8</ele>
        <time>2021-09-30T08:46:03Z</time>
      </trkpt>
      <trkpt lat="41.3740420" lon="1.1409040">
        <ele>533.6</ele>
        <time>2021-09-30T08:46:04Z</time>
      </trkpt>
      <trkpt lat="41.3740610" lon="1.1408830">
        <ele>533.4</ele>
        <time>2021-09-30T08:46:05Z</time>
      </trkpt>
      <trkpt lat="41.3740790" lon="1.1408630">
        <ele>533.1</ele>
        <time>2021-09-30T08:46:06Z</time>
      </trkpt>
      <trkpt lat="41.3740980" lon="1.1408420">
        <ele>532.8</ele>
        <time>2021-09-30T08:46:07Z</time>
      </trkpt>
      <trkpt lat="41.3741160" lon="1.1408210">
        <ele>532.5</ele>
        <time>2021-09-30T08:46:08Z</time>
      </trkpt>
      <trkpt lat="41.3741350" lon="1.1408010">
        <ele>532.1</ele>
        <time>2021-09-30T08:46:09Z</time>
      </trkpt>
      <trkpt lat="41.3741530" lon="1.1407800">
        <ele>531.7</ele>
        <time>2021-09-30T08:46:10Z</time>
      </trkpt>
      <trkpt lat="41.3741710" lon="1.1407640">
        <ele>531.3</ele>
        <time>2021-09-30T08:46:11Z</time>
      </trkpt>
      <trkpt lat="41.3741890" lon="1.1407480">
        <ele>530.9</ele>
        <time>2021-09-30T08:46:12Z</time>
      </trkpt>
      <trkpt lat="41.3742060" lon="1.1407330">
        <ele>530.5</ele>
        <time>2021-09-30T08:46:13Z</time>
      </trkpt>
      <trkpt lat="41.3742240" lon="1.1407170">
        <ele>530.0</ele>
        <time>2021-09-30T08:46:14Z</time>
      </trkpt>
      <trkpt lat="41.3742420" lon="1.1407010">
        <ele>529.5</ele>
        <time>2021-09-30T08:46:15Z</time>
      </trkpt>
      <trkpt lat="41.3742600" lon="1.1406850">
        <ele>529.0</ele>
        <time>2021-09-30T08:46:16Z</time>
      </trkpt>
      <trkpt lat="41.3742780" lon="1.1406690">
        <ele>528.4</ele>
        <time>2021-09-30T08:46:17Z</time>
      </trkpt>
      <trkpt lat="41.3742960" lon="1.1406530">
        <ele>527.8</ele>
        <time>2021-09-30T08:46:18Z</time>
      </trkpt>
      <trkpt lat="41.3743130" lon="1.1406380">
        <ele>527.2</ele>
        <time>2021-09-30T08:46:19Z</time>
      </trkpt>
      <trkpt lat="41.3743310" lon="1.1406220">
        <ele>526.5</ele>
        <time>2021-09-30T08:46:20Z</time>
      </trkpt>
      <trkpt lat="41.3743490" lon="1.1406060">
        <ele>525.8</ele>
        <time>2021-09-30T08:46:21Z</time>
      </trkpt>
      <trkpt lat="41.3743580" lon="1.1405720">
        <ele>524.9</ele>
        <time>2021-09-30T08:46:22Z</time>
      </trkpt>
      <trkpt lat="41.3743660" lon="1.1405380">
        <ele>524.0</ele>
        <time>2021-09-30T08:46:23Z</time>
      </trkpt>
      <trkpt lat="41.3743750" lon="1.1405040">
        <ele>523.1</ele>
        <time>2021-09-30T08:46:24Z</time>
      </trkpt>
      <trkpt lat="41.3743840" lon="1.1404700">
        <ele>522.3</ele>
        <time>2021-09-30T08:46:25Z</time>
      </trkpt>
      <trkpt lat="41.3743930" lon="1.1404370">
        <ele>521.4</ele>
        <time>2021-09-30T08:46:26Z</time>
      </trkpt>
      <trkpt lat="41.3744010" lon="1.1404030">
        <ele>520.6</ele>
        <time>2021-09-30T08:46:27Z</time>
      </trkpt>
      <trkpt lat="41.3744100" lon="1.1403690">
        <ele>519.9</ele>
        <time>2021-09-30T08:46:28Z</time>
      </trkpt>
      <trkpt lat="41.3744190" lon="1.1403350">
        <ele>519.2</ele>
        <time>2021-09-30T08:46:29Z</time>
      </trkpt>
      <trkpt lat="41.3744270" lon="1.1403010">
        <ele>518.6</ele>
        <time>2021-09-30T08:46:30Z</time>
      </trkpt>
      <trkpt lat="41.3744360" lon="1.1402670">
        <ele>518.0</ele>
        <time>2021-09-30T08:46:31Z</time>
      </trkpt>
      <trkpt lat="41.3744670" lon="1.1402490">
        <ele>517.4</ele>
        <time>2021-09-30T08:46:32Z</time>
      </trkpt>
      <trkpt lat="41.3744980" lon="1.1402310">
        <ele>516.7</ele>
        <time>2021-09-30T08:46:33Z</time>
      </trkpt>
      <trkpt lat="41.3745290" lon="1.1402140">
        <ele>516.1</ele>
        <time>2021-09-30T08:46:34Z</time>
      </trkpt>
      <trkpt lat="41.3745600" lon="1.1401960">
        <ele>515.4</ele>
        <time>2021-09-30T08:46:35Z</time>
      </trkpt>
      <trkpt lat="41.3745920" lon="1.1401780">
        <ele>514.7</ele>
        <time>2021-09-30T08:46:36Z</time>
      </trkpt>
      <trkpt lat="41.3746230" lon="1.1401600">
        <ele>514.1</ele>
        <time>2021-09-30T08:46:37Z</time>
      </trkpt>
      <trkpt lat="41.3746540" lon="1.1401420">
        <ele>513.4</ele>
        <time>2021-09-30T08:46:38Z</time>
      </trkpt>
      <trkpt lat="41.3746850" lon="1.1401250">
        <ele>512.7</ele>
        <time>2021-09-30T08:46:39Z</time>
      </trkpt>
      <trkpt lat="41.3747160" lon="1.1401070">
        <ele>511.9</ele>
        <time>2021-09-30T08:46:40Z</time>
      </trkpt>
      <trkpt lat="41.3747470" lon="1.1400890">
        <ele>511.1</ele>
        <time>2021-09-30T08:46:41Z</time>
      </trkpt>
      <trkpt lat="41.3747680" lon="1.1401050">
        <ele>510.5</ele>
        <time>2021-09-30T08:46:42Z</time>
      </trkpt>
      <trkpt lat="41.3747900" lon="1.1401200">
        <ele>509.8</ele>
        <time>2021-09-30T08:46:43Z</time>
      </trkpt>
      <trkpt lat="41.3748110" lon="1.1401360">
        <ele>509.1</ele>
        <time>2021-09-30T08:46:44Z</time>
      </trkpt>
      <trkpt lat="41.3748330" lon="1.1401520">
        <ele>508.3</ele>
        <time>2021-09-30T08:46:45Z</time>
      </trkpt>
      <trkpt lat="41.3748540" lon="1.1401680">
        <ele>507.6</ele>
        <time>2021-09-30T08:46:46Z</time>
      </trkpt>
      <trkpt lat="41.3748760" lon="1.1401830">
        <ele>506.7</ele>
        <time>2021-09-30T08:46:47Z</time>
      </trkpt>
      <trkpt lat="41.3748970" lon="1.1401990">
        <ele>505.9</ele>
        <time>2021-09-30T08:46:48Z</time>
      </trkpt>
      <trkpt lat="41.3749190" lon="1.1402150">
        <ele>504.9</ele>
        <time>2021-09-30T08:46:49Z</time>
      </trkpt>
      <trkpt lat="41.3749400" lon="1.1402310">
        <ele>504.0</ele>
        <time>2021-09-30T08:46:50Z</time>
      </trkpt>
      <trkpt lat="41.3749620" lon="1.1402460">
        <ele>503.1</ele>
        <time>2021-09-30T08:46:51Z</time>
      </trkpt>
      <trkpt lat="41.3749830" lon="1.1402620">
        <ele>502.2</ele>
        <time>2021-09-30T08:46:52Z</time>
      </trkpt>
      <trkpt lat="41.3750180" lon="1.1402680">
        <ele>500.9</ele>
        <time>2021-09-30T08:46:53Z</time>
      </trkpt>
      <trkpt lat="41.3750530" lon="1.1402740">
        <ele>499.7</ele>
        <time>2021-09-30T08:46:54Z</time>
      </trkpt>
      <trkpt lat="41.3750890" lon="1.1402800">
        <ele>498.5</ele>
        <time>2021-09-30T08:46:55Z</time>
      </trkpt>
      <trkpt lat="41.3751240" lon="1.1402860">
        <ele>497.4</ele>
        <time>2021-09-30T08:46:56Z</time>
      </trkpt>
      <trkpt lat="41.3751590" lon="1.1402910">
        <ele>496.3</ele>
        <time>2021-09-30T08:46:57Z</time>
      </trkpt>
      <trkpt lat="41.3751940" lon="1.1402970">
        <ele>495.4</ele>
        <time>2021-09-30T08:46:58Z</time>
      </trkpt>
      <trkpt lat="41.3752290" lon="1.1403030">
        <ele>494.5</ele>
        <time>2021-09-30T08:46:59Z</time>
      </trkpt>
      <trkpt lat="41.3752650" lon="1.1403090">
        <ele>493.7</ele>
        <time>2021-09-30T08:47:00Z</time>
      </trkpt>
      <trkpt lat="41.3753000" lon="1.1403150">
        <ele>493.0</ele>
        <time>2021-09-30T08:47:01Z</time>
      </trkpt>
      <trkpt lat="41.3753350" lon="1.1403210">
        <ele>492.3</ele>
        <time>2021-09-30T08:47:02Z</time>
      </trkpt>
      <trkpt lat="41.3753610" lon="1.1403140">
        <ele>491.8</ele>
        <time>2021-09-30T08:47:03Z</time>
      </trkpt>
      <trkpt lat="41.3753860" lon="1.1403070">
        <ele>491.3</ele>
        <time>2021-09-30T08:47:04Z</time>
      </trkpt>
      <trkpt lat="41.3754120" lon="1.1403000">
        <ele>490.7</ele>
        <time>2021-09-30T08:47:05Z</time>
      </trkpt>
      <trkpt lat="41.3754370" lon="1.1402930">
        <ele>490.2</ele>
        <time>2021-09-30T08:47:06Z</time>
      </trkpt>
      <trkpt lat="41.3754630" lon="1.1402860">
        <ele>489.6</ele>
        <time>2021-09-30T08:47:07Z</time>
      </trkpt>
      <trkpt lat="41.3754890" lon="1.1402790">
        <ele>489.0</ele>
        <time>2021-09-30T08:47:08Z</time>
      </trkpt>
      <trkpt lat="41.3755140" lon="1.1402720">
        <ele>488.4</ele>
        <time>2021-09-30T08:47:09Z</time>
      </trkpt>
      <trkpt lat="41.3755400" lon="1.1402650">
        <ele>487.8</ele>
        <time>2021-09-30T08:47:10Z</time>
      </trkpt>
      <trkpt lat="41.3755650" lon="1.1402580">
        <ele>487.2</ele>
        <time>2021-09-30T08:47:11Z</time>
      </trkpt>
      <trkpt lat="41.3755910" lon="1.1402510">
        <ele>486.6</ele>
        <time>2021-09-30T08:47:12Z</time>
      </trkpt>
      <trkpt lat="41.3756120" lon="1.1402720">
        <ele>486.0</ele>
        <time>2021-09-30T08:47:13Z</time>
      </trkpt>
      <trkpt lat="41.3756330" lon="1.1402930">
        <ele>485.4</ele>
        <time>2021-09-30T08:47:14Z</time>
      </trkpt>
      <trkpt lat="41.3756530" lon="1.1403140">
        <ele>484.8</ele>
        <time>2021-09-30T08:47:15Z</time>
      </trkpt>
      <trkpt lat="41.3756740" lon="1.1403350">
        <ele>484.2</ele>
        <time>2021-09-30T08:47:16Z</time>
      </trkpt>
      <trkpt lat="41.3756950" lon="1.1403560">
        <ele>483.7</ele>
        <time>2021-09-30T08:47:17Z</time>
      </trkpt>
      <trkpt lat="41.3757160" lon="1.1403780">
        <ele>483.1</ele>
        <time>2021-09-30T08:47:18Z</time>
      </trkpt>
      <trkpt lat="41.3757370" lon="1.1403990">
        <ele>482.6</ele>
        <time>2021-09-30T08:47:19Z</time>
      </trkpt>
      <trkpt lat="41.3757570" lon="1.1404200">
        <ele>482.1</ele>
        <time>2021-09-30T08:47:20Z</time>
      </trkpt>
      <trkpt lat="41.3757780" lon="1.1404410">
        <ele>481.7</ele>
        <time>2021-09-30T08:47:21Z</time>
      </trkpt>
      <trkpt lat="41.3757990" lon="1.1404620">
        <ele>481.3</ele>
        <time>2021-09-30T08:47:22Z</time>
      </trkpt>
      <trkpt lat="41.3758130" lon="1.1404670">
        <ele>481.0</ele>
        <time>2021-09-30T08:47:23Z</time>
      </trkpt>
      <trkpt lat="41.3758270" lon="1.1404730">
        <ele>480.8</ele>
        <time>2021-09-30T08:47:24Z</time>
      </trkpt>
      <trkpt lat="41.3758410" lon="1.1404780">
        <ele>480.7</ele>
        <time>2021-09-30T08:47:25Z</time>
      </trkpt>
      <trkpt lat="41.3758550" lon="1.1404840">
        <ele>480.5</ele>
        <time>2021-09-30T08:47:26Z</time>
      </trkpt>
      <trkpt lat="41.3758700" lon="1.1404890">
        <ele>480.3</ele>
        <time>2021-09-30T08:47:27Z</time>
      </trkpt>
      <trkpt lat="41.3758840" lon="1.1404950">
        <ele>480.1</ele>
        <time>2021-09-30T08:47:28Z</time>
      </trkpt>
      <trkpt lat="41.3758980" lon="1.1405000">
        <ele>480.0</ele>
        <time>2021-09-30T08:47:29Z</time>
      </trkpt>
      <trkpt lat="41.3759120" lon="1.1405060">
        <ele>479.8</ele>
        <time>2021-09-30T08:47:30Z</time>
      </trkpt>
      <trkpt lat="41.3759260" lon="1.1405110">
        <ele>479.6</ele>
        <time>2021-09-30T08:47:31Z</time>
      </trkpt>
      <trkpt lat="41.3759400" lon="1.1405170">
        <ele>479.5</ele>
        <time>2021-09-30T08:47:32Z</time>
      </trkpt>
      <trkpt lat="41.3759720" lon="1.1405040">
        <ele>479.0</ele>
        <time>2021-09-30T08:47:33Z</time>
      </trkpt>
      <trkpt lat="41.3760040" lon="1.1404910">
        <ele>478.5</ele>
        <time>2021-09-30T08:47:34Z</time>
      </trkpt>
      <trkpt lat="41.3760360" lon="1.1404770">
        <ele>478.0</ele>
        <time>2021-09-30T08:47:35Z</time>
      </trkpt>
      <trkpt lat="41.3760680" lon="1.1404640">
        <ele>477.3</ele>
        <time>2021-09-30T08:47:36Z</time>
      </trkpt>
      <trkpt lat="41.3761000" lon="1.1404510">
        <ele>476.5</ele>
        <time>2021-09-30T08:47:37Z</time>
      </trkpt>
      <trkpt lat="41.3761320" lon="1.1404380">
        <ele>475.7</ele>
        <time>2021-09-30T08:47:38Z</time>
      </trkpt>
      <trkpt lat="41.3761640" lon="1.1404250">
        <ele>474.9</ele>
        <time>2021-09-30T08:47:39Z</time>
      </trkpt>
      <trkpt lat="41.3761960" lon="1.1404110">
        <ele>473.9</ele>
        <time>2021-09-30T08:47:40Z</time>
      </trkpt>
      <trkpt lat="41.3762280" lon="1.1403980">
        <ele>472.9</ele>
        <time>2021-09-30T08:47:41Z</time>
      </trkpt>
      <trkpt lat="41.3762600" lon="1.1403850">
        <ele>471.8</ele>
        <time>2021-09-30T08:47:42Z</time>
      </trkpt>
      <trkpt lat="41.3762860" lon="1.1403680">
        <ele>470.8</ele>
        <time>2021-09-30T08:47:43Z</time>
      </trkpt>
      <trkpt lat="41.3763110" lon="1.1403520">
        <ele>469.8</ele>
        <time>2021-09-30T08:47:44Z</time>
      </trkpt>
      <trkpt lat="41.3763370" lon="1.1403350">
        <ele>468.8</ele>
        <time>2021-09-30T08:47:45Z</time>
      </trkpt>
      <trkpt lat="41.3763630" lon="1.1403190">
        <ele>467.7</ele>
        <time>2021-09-30T08:47:46Z</time>
      </trkpt>
      <trkpt lat="41.3763890" lon="1.1403020">
        <ele>466.6</ele>
        <time>2021-09-30T08:47:47Z</time>
      </trkpt>
      <trkpt lat="41.3764140" lon="1.1402850">
        <ele>465.5</ele>
        <time>2021-09-30T08:47:48Z</time>
      </trkpt>
      <trkpt lat="41.3764400" lon="1.1402690">
        <ele>464.4</ele>
        <time>2021-09-30T08:47:49Z</time>
      </trkpt>
      <trkpt lat="41.3764660" lon="1.1402520">
        <ele>463.2</ele>
        <time>2021-09-30T08:47:50Z</time>
      </trkpt>
      <trkpt lat="41.3764910" lon="1.1402360">
        <ele>462.2</ele>
        <time>2021-09-30T08:47:51Z</time>
      </trkpt>
      <trkpt lat="41.3765170" lon="1.1402190">
        <ele>461.0</ele>
        <time>2021-09-30T08:47:52Z</time>
      </trkpt>
      <trkpt lat="41.3765250" lon="1.1402140">
        <ele>460.7</ele>
        <time>2021-09-30T08:47:53Z</time>
      </trkpt>
      <trkpt lat="41.3765340" lon="1.1402090">
        <ele>460.3</ele>
        <time>2021-09-30T08:47:54Z</time>
      </trkpt>
      <trkpt lat="41.3765420" lon="1.1402030">
        <ele>460.0</ele>
        <time>2021-09-30T08:47:55Z</time>
      </trkpt>
      <trkpt lat="41.3765500" lon="1.1401980">
        <ele>459.6</ele>
        <time>2021-09-30T08:47:56Z</time>
      </trkpt>
      <trkpt lat="41.3765590" lon="1.1401930">
        <ele>459.2</ele>
        <time>2021-09-30T08:47:57Z</time>
      </trkpt>
      <trkpt lat="41.3765670" lon="1.1401880">
        <ele>458.9</ele>
        <time>2021-09-30T08:47:58Z</time>
      </trkpt>
      <trkpt lat="41.3765760" lon="1.1401830">
        <ele>458.5</ele>
        <time>2021-09-30T08:47:59Z</time>
      </trkpt>
      <trkpt lat="41.3765840" lon="1.1401780">
        <ele>458.2</ele>
        <time>2021-09-30T08:48:00Z</time>
      </trkpt>
      <trkpt lat="41.3765920" lon="1.1401720">
        <ele>457.8</ele>
        <time>2021-09-30T08:48:01Z</time>
      </trkpt>
      <trkpt lat="41.3766010" lon="1.1401670">
        <ele>457.4</ele>
        <time>2021-09-30T08:48:02Z</time>
      </trkpt>
      <trkpt lat="41.3766090" lon="1.1401620">
        <ele>457.1</ele>
        <time>2021-09-30T08:48:03Z</time>
      </trkpt>
      <trkpt lat="41.3766290" lon="1.1401690">
        <ele>456.3</ele>
        <time>2021-09-30T08:48:04Z</time>
      </trkpt>
      <trkpt lat="41.3766490" lon="1.1401770">
        <ele>455.5</ele>
        <time>2021-09-30T08:48:05Z</time>
      </trkpt>
      <trkpt lat="41.3766690" lon="1.1401840">
        <ele>454.7</ele>
        <time>2021-09-30T08:48:06Z</time>
      </trkpt>
      <trkpt lat="41.3766890" lon="1.1401920">
        <ele>453.9</ele>
        <time>2021-09-30T08:48:07Z</time>
      </trkpt>
      <trkpt lat="41.3767090" lon="1.1401990">
        <ele>453.1</ele>
        <time>2021-09-30T08:48:08Z</time>
      </trkpt>
      <trkpt lat="41.3767300" lon="1.1402070">
        <ele>452.2</ele>
        <time>2021-09-30T08:48:09Z</time>
      </trkpt>
      <trkpt lat="41.3767500" lon="1.1402140">
        <ele>451.5</ele>
        <time>2021-09-30T08:48:10Z</time>
      </trkpt>
      <trkpt lat="41.3767700" lon="1.1402220">
        <ele>450.7</ele>
        <time>2021-09-30T08:48:11Z</time>
      </trkpt>
      <trkpt lat="41.3767900" lon="1.1402290">
        <ele>450.0</ele>
        <time>2021-09-30T08:48:12Z</time>
      </trkpt>
      <trkpt lat="41.3768100" lon="1.1402370">
        <ele>449.2</ele>
        <time>2021-09-30T08:48:13Z</time>
      </trkpt>
      <trkpt lat="41.3768300" lon="1.1402440">
        <ele>448.5</ele>
        <time>2021-09-30T08:48:14Z</time>
      </trkpt>
      <trkpt lat="41.3768410" lon="1.1402430">
        <ele>448.2</ele>
        <time>2021-09-30T08:48:15Z</time>
      </trkpt>
      <trkpt lat="41.3768520" lon="1.1402410">
        <ele>447.8</ele>
        <time>2021-09-30T08:48:16Z</time>
      </trkpt>
      <trkpt lat="41.3768640" lon="1.1402400">
        <ele>447.4</ele>
        <time>2021-09-30T08:48:17Z</time>
      </trkpt>
      <trkpt lat="41.3768750" lon="1.1402380">
        <ele>447.0</ele>
        <time>2021-09-30T08:48:18Z</time>
      </trkpt>
      <trkpt lat="41.3768860" lon="1.1402370">
        <ele>446.6</ele>
        <time>2021-09-30T08:48:19Z</time>
      </trkpt>
      <trkpt lat="41.3768970" lon="1.1402350">
        <ele>446.3</ele>
        <time>2021-09-30T08:48:20Z</time>
      </trkpt>
      <trkpt lat="41.3769080" lon="1.1402340">
        <ele>445.9</ele>
        <time>2021-09-30T08:48:21Z</time>
      </trkpt>
      <trkpt lat="41.3769200" lon="1.1402330">
        <ele>445.6</ele>
        <time>2021-09-30T08:48:22Z</time>
      </trkpt>
      <trkpt lat="41.3769310" lon="1.1402310">
        <ele>445.2</ele>
        <time>2021-09-30T08:48:23Z</time>
      </trkpt>
      <trkpt lat="41.3769420" lon="1.1402300">
        <ele>444.9</ele>
        <time>2021-09-30T08:48:24Z</time>
      </trkpt>
      <trkpt lat="41.3769530" lon="1.1402280">
        <ele>444.5</ele>
        <time>2021-09-30T08:48:25Z</time>
      </trkpt>
      <trkpt lat="41.3769650" lon="1.1402270">
        <ele>444.1</ele>
        <time>2021-09-30T08:48:26Z</time>
      </trkpt>
      <trkpt lat="41.3769760" lon="1.1402260">
        <ele>443.8</ele>
        <time>2021-09-30T08:48:27Z</time>
      </trkpt>
      <trkpt lat="41.3769870" lon="1.1402240">
        <ele>443.5</ele>
        <time>2021-09-30T08:48:28Z</time>
      </trkpt>
      <trkpt lat="41.3769980" lon="1.1402230">
        <ele>443.1</ele>
        <time>2021-09-30T08:48:29Z</time>
      </trkpt>
      <trkpt lat="41.3770090" lon="1.1402210">
        <ele>442.8</ele>
        <time>2021-09-30T08:48:55Z</time>
      </trkpt>
      <trkpt lat="41.3770210" lon="1.1402200">
        <ele>442.4</ele>
        <time>2021-09-30T08:48:56Z</time>
      </trkpt>
      <trkpt lat="41.3770320" lon="1.1402180">
        <ele>442.0</ele>
        <time>2021-09-30T08:48:57Z</time>
      </trkpt>
      <trkpt lat="41.3770430" lon="1.1402170">
        <ele>442.0</ele>
        <time>2021-09-30T08:48:58Z</time>
      </trkpt>
      <trkpt lat="41.3770710" lon="1.1402150">
        <ele>442.0</ele>
        <time>2021-09-30T08:48:59Z</time>
      </trkpt>
      <trkpt lat="41.3771000" lon="1.1402130">
        <ele>441.9</ele>
        <time>2021-09-30T08:49:00Z</time>
      </trkpt>
      <trkpt lat="41.3771280" lon="1.1402100">
        <ele>441.9</ele>
        <time>2021-09-30T08:49:01Z</time>
      </trkpt>
      <trkpt lat="41.3771570" lon="1.1402080">
        <ele>441.8</ele>
        <time>2021-09-30T08:49:02Z</time>
      </trkpt>
      <trkpt lat="41.3771850" lon="1.1402060">
        <ele>441.8</ele>
        <time>2021-09-30T08:49:03Z</time>
      </trkpt>
      <trkpt lat="41.3772140" lon="1.1402040">
        <ele>441.8</ele>
        <time>2021-09-30T08:49:04Z</time>
      </trkpt>
      <trkpt lat="41.3772420" lon="1.1402020">
        <ele>441.7</ele>
        <time>2021-09-30T08:49:05Z</time>
      </trkpt>
      <trkpt lat="41.3772710" lon="1.1402000">
        <ele>441.7</ele>
        <time>2021-09-30T08:49:06Z</time>
      </trkpt>
      <trkpt lat="41.3772990" lon="1.1401970">
        <ele>441.6</ele>
        <time>2021-09-30T08:49:07Z</time>
      </trkpt>
      <trkpt lat="41.3773280" lon="1.1401950">
        <ele>441.6</ele>
        <time>2021-09-30T08:49:08Z</time>
      </trkpt>
      <trkpt lat="41.3773560" lon="1.1401930">
        <ele>441.6</ele>
        <time>2021-09-30T08:49:09Z</time>
      </trkpt>
      <trkpt lat="41.3773460" lon="1.1402140">
        <ele>441.7</ele>
        <time>2021-09-30T08:49:10Z</time>
      </trkpt>
      <trkpt lat="41.3773350" lon="1.1402350">
        <ele>441.7</ele>
        <time>2021-09-30T08:49:11Z</time>
      </trkpt>
      <trkpt lat="41.3773250" lon="1.1402560">
        <ele>441.7</ele>
        <time>2021-09-30T08:49:12Z</time>
      </trkpt>
      <trkpt lat="41.3773140" lon="1.1402770">
        <ele>441.7</ele>
        <time>2021-09-30T08:49:13Z</time>
      </trkpt>
      <trkpt lat="41.3773040" lon="1.1402980">
        <ele>441.7</ele>
        <time>2021-09-30T08:49:14Z</time>
      </trkpt>
      <trkpt lat="41.3772940" lon="1.1403180">
        <ele>441.7</ele>
        <time>2021-09-30T08:49:15Z</time>
      </trkpt>
      <trkpt lat="41.3772830" lon="1.1403390">
        <ele>441.8</ele>
        <time>2021-09-30T08:49:16Z</time>
      </trkpt>
      <trkpt lat="41.3772730" lon="1.1403600">
        <ele>441.8</ele>
        <time>2021-09-30T08:49:17Z</time>
      </trkpt>
      <trkpt lat="41.3772620" lon="1.1403810">
        <ele>441.8</ele>
        <time>2021-09-30T08:49:18Z</time>
      </trkpt>
      <trkpt lat="41.3772520" lon="1.1404020">
        <ele>441.8</ele>
        <time>2021-09-30T08:49:19Z</time>
      </trkpt>
      <trkpt lat="41.3772440" lon="1.1403950">
        <ele>441.8</ele>
        <time>2021-09-30T08:49:20Z</time>
      </trkpt>
      <trkpt lat="41.3772360" lon="1.1403890">
        <ele>441.8</ele>
        <time>2021-09-30T08:49:21Z</time>
      </trkpt>
      <trkpt lat="41.3772280" lon="1.1403820">
        <ele>441.8</ele>
        <time>2021-09-30T08:49:22Z</time>
      </trkpt>
      <trkpt lat="41.3772200" lon="1.1403750">
        <ele>441.9</ele>
        <time>2021-09-30T08:49:23Z</time>
      </trkpt>
      <trkpt lat="41.3772120" lon="1.1403680">
        <ele>441.9</ele>
        <time>2021-09-30T08:49:24Z</time>
      </trkpt>
      <trkpt lat="41.3772030" lon="1.1403620">
        <ele>441.9</ele>
        <time>2021-09-30T08:49:25Z</time>
      </trkpt>
      <trkpt lat="41.3771950" lon="1.1403550">
        <ele>441.9</ele>
        <time>2021-09-30T08:49:26Z</time>
      </trkpt>
      <trkpt lat="41.3771870" lon="1.1403480">
        <ele>441.9</ele>
        <time>2021-09-30T08:49:27Z</time>
      </trkpt>
      <trkpt lat="41.3771790" lon="1.1403410">
        <ele>441.9</ele>
        <time>2021-09-30T08:49:28Z</time>
      </trkpt>
      <trkpt lat="41.3771710" lon="1.1403350">
        <ele>441.9</ele>
        <time>2021-09-30T08:49:29Z</time>
      </trkpt>
      <trkpt lat="41.3771630" lon="1.1403280">
        <ele>441.9</ele>
        <time>2021-09-30T08:49:30Z</time>
      </trkpt>
      <trkpt lat="41.3771520" lon="1.1403090">
        <ele>441.9</ele>
        <time>2021-09-30T08:49:31Z</time>
      </trkpt>
      <trkpt lat="41.3771420" lon="1.1402910">
        <ele>442.0</ele>
        <time>2021-09-30T08:49:32Z</time>
      </trkpt>
      <trkpt lat="41.3771310" lon="1.1402720">
        <ele>442.0</ele>
        <time>2021-09-30T08:49:33Z</time>
      </trkpt>
      <trkpt lat="41.3771210" lon="1.1402540">
        <ele>442.0</ele>
        <time>2021-09-30T08:49:34Z</time>
      </trkpt>
      <trkpt lat="41.3771100" lon="1.1402350">
        <ele>442.0</ele>
        <time>2021-09-30T08:49:35Z</time>
      </trkpt>
      <trkpt lat="41.3770990" lon="1.1402170">
        <ele>442.0</ele>
        <time>2021-09-30T08:49:36Z</time>
      </trkpt>
      <trkpt lat="41.3770890" lon="1.1401980">
        <ele>442.0</ele>
        <time>2021-09-30T08:49:37Z</time>
      </trkpt>
      <trkpt lat="41.3770780" lon="1.1401800">
        <ele>442.1</ele>
        <time>2021-09-30T08:49:38Z</time>
      </trkpt>
      <trkpt lat="41.3770680" lon="1.1401610">
        <ele>442.1</ele>
        <time>2021-09-30T08:49:39Z</time>
      </trkpt>
      <trkpt lat="41.3770570" lon="1.1401430">
        <ele>442.2</ele>
        <time>2021-09-30T08:49:40Z</time>
      </trkpt>
      <trkpt lat="41.3770430" lon="1.1401270">
        <ele>442.8</ele>
        <time>2021-09-30T08:49:41Z</time>
      </trkpt>
      <trkpt lat="41.3770290" lon="1.1401120">
        <ele>443.3</ele>
        <time>2021-09-30T08:49:42Z</time>
      </trkpt>
      <trkpt lat="41.3770150" lon="1.1400960">
        <ele>443.8</ele>
        <time>2021-09-30T08:49:43Z</time>
      </trkpt>
      <trkpt lat="41.3770000" lon="1.1400810">
        <ele>444.4</ele>
        <time>2021-09-30T08:49:44Z</time>
      </trkpt>
      <trkpt lat="41.3769860" lon="1.1400650">
        <ele>445.0</ele>
        <time>2021-09-30T08:49:45Z</time>
      </trkpt>
      <trkpt lat="41.3769720" lon="1.1400490">
        <ele>445.5</ele>
        <time>2021-09-30T08:49:46Z</time>
      </trkpt>
      <trkpt lat="41.3769580" lon="1.1400340">
        <ele>446.1</ele>
        <time>2021-09-30T08:49:47Z</time>
      </trkpt>
      <trkpt lat="41.3769440" lon="1.1400180">
        <ele>446.6</ele>
        <time>2021-09-30T08:49:48Z</time>
      </trkpt>
      <trkpt lat="41.3769300" lon="1.1400030">
        <ele>447.2</ele>
        <time>2021-09-30T08:49:49Z</time>
      </trkpt>
      <trkpt lat="41.3769150" lon="1.1399870">
        <ele>447.8</ele>
        <time>2021-09-30T08:49:50Z</time>
      </trkpt>
      <trkpt lat="41.3769010" lon="1.1399720">
        <ele>448.4</ele>
        <time>2021-09-30T08:49:51Z</time>
      </trkpt>
      <trkpt lat="41.3768870" lon="1.1399560">
        <ele>449.0</ele>
        <time>2021-09-30T08:49:52Z</time>
      </trkpt>
      <trkpt lat="41.3768810" lon="1.1399570">
        <ele>449.2</ele>
        <time>2021-09-30T08:49:53Z</time>
      </trkpt>
      <trkpt lat="41.3768750" lon="1.1399580">
        <ele>449.4</ele>
        <time>2021-09-30T08:49:54Z</time>
      </trkpt>
      <trkpt lat="41.3768700" lon="1.1399600">
        <ele>449.6</ele>
        <time>2021-09-30T08:49:55Z</time>
      </trkpt>
      <trkpt lat="41.3768640" lon="1.1399610">
        <ele>449.8</ele>
        <time>2021-09-30T08:49:56Z</time>
      </trkpt>
      <trkpt lat="41.3768580" lon="1.1399620">
        <ele>450.0</ele>
        <time>2021-09-30T08:49:57Z</time>
      </trkpt>
      <trkpt lat="41.3768520" lon="1.1399630">
        <ele>450.2</ele>
        <time>2021-09-30T08:49:58Z</time>
      </trkpt>
      <trkpt lat="41.3768470" lon="1.1399640">
        <ele>450.4</ele>
        <time>2021-09-30T08:49:59Z</time>
      </trkpt>
      <trkpt lat="41.3768410" lon="1.1399660">
        <ele>450.6</ele>
        <time>2021-09-30T08:50:00Z</time>
      </trkpt>
      <trkpt lat="41.3768350" lon="1.1399670">
        <ele>450.8</ele>
        <time>2021-09-30T08:50:01Z</time>
      </trkpt>
      <trkpt lat="41.3768290" lon="1.1399680">
        <ele>451.0</ele>
        <time>2021-09-30T08:50:02Z</time>
      </trkpt>
      <trkpt lat="41.3768230" lon="1.1399690">
        <ele>451.2</ele>
        <time>2021-09-30T08:50:03Z</time>
      </trkpt>
      <trkpt lat="41.3768180" lon="1.1399700">
        <ele>451.4</ele>
        <time>2021-09-30T08:50:04Z</time>
      </trkpt>
      <trkpt lat="41.3768120" lon="1.1399720">
        <ele>451.7</ele>
        <time>2021-09-30T08:50:05Z</time>
      </trkpt>
      <trkpt lat="41.3768060" lon="1.1399730">
        <ele>451.9</ele>
        <time>2021-09-30T08:50:06Z</time>
      </trkpt>
      <trkpt lat="41.3768000" lon="1.1399740">
        <ele>452.1</ele>
        <time>2021-09-30T08:50:07Z</time>
      </trkpt>
      <trkpt lat="41.3767950" lon="1.1399750">
        <ele>452.3</ele>
        <time>2021-09-30T08:50:08Z</time>
      </trkpt>
      <trkpt lat="41.3767890" lon="1.1399760">
        <ele>452.5</ele>
        <time>2021-09-30T08:50:09Z</time>
      </trkpt>
      <trkpt lat="41.3767830" lon="1.1399780">
        <ele>452.7</ele>
        <time>2021-09-30T08:50:10Z</time>
      </trkpt>
      <trkpt lat="41.3767770" lon="1.1399790">
        <ele>452.9</ele>
        <time>2021-09-30T08:50:11Z</time>
      </trkpt>
      <trkpt lat="41.3767710" lon="1.1399800">
        <ele>453.2</ele>
        <time>2021-09-30T08:50:12Z</time>
      </trkpt>
      <trkpt lat="41.3767660" lon="1.1399810">
        <ele>453.4</ele>
        <time>2021-09-30T08:50:13Z</time>
      </trkpt>
      <trkpt lat="41.3767600" lon="1.1399820">
        <ele>453.6</ele>
        <time>2021-09-30T08:50:14Z</time>
      </trkpt>
      <trkpt lat="41.3767540" lon="1.1399840">
        <ele>453.8</ele>
        <time>2021-09-30T08:50:15Z</time>
      </trkpt>
      <trkpt lat="41.3767480" lon="1.1399850">
        <ele>454.0</ele>
        <time>2021-09-30T08:50:16Z</time>
      </trkpt>
      <trkpt lat="41.3767430" lon="1.1399860">
        <ele>454.2</ele>
        <time>2021-09-30T08:50:17Z</time>
      </trkpt>
      <trkpt lat="41.3767370" lon="1.1399870">
        <ele>454.5</ele>
        <time>2021-09-30T08:50:18Z</time>
      </trkpt>
      <trkpt lat="41.3767310" lon="1.1399880">
        <ele>454.7</ele>
        <time>2021-09-30T08:50:19Z</time>
      </trkpt>
      <trkpt lat="41.3767250" lon="1.1399900">
        <ele>454.9</ele>
        <time>2021-09-30T08:50:20Z</time>
      </trkpt>
      <trkpt lat="41.3767190" lon="1.1399910">
        <ele>455.1</ele>
        <time>2021-09-30T08:50:21Z</time>
      </trkpt>
      <trkpt lat="41.3767140" lon="1.1399920">
        <ele>455.3</ele>
        <time>2021-09-30T08:50:22Z</time>
      </trkpt>
      <trkpt lat="41.3767080" lon="1.1399930">
        <ele>455.6</ele>
        <time>2021-09-30T08:50:23Z</time>
      </trkpt>
      <trkpt lat="41.3767020" lon="1.1399940">
        <ele>455.8</ele>
        <time>2021-09-30T08:50:24Z</time>
      </trkpt>
      <trkpt lat="41.3766960" lon="1.1399960">
        <ele>456.0</ele>
        <time>2021-09-30T08:50:25Z</time>
      </trkpt>
      <trkpt lat="41.3766900" lon="1.1399970">
        <ele>456.2</ele>
        <time>2021-09-30T08:50:26Z</time>
      </trkpt>
      <trkpt lat="41.3766850" lon="1.1399980">
        <ele>456.4</ele>
        <time>2021-09-30T08:50:27Z</time>
      </trkpt>
      <trkpt lat="41.3766790" lon="1.1399990">
        <ele>456.7</ele>
        <time>2021-09-30T08:50:28Z</time>
      </trkpt>
      <trkpt lat="41.3766730" lon="1.1400000">
        <ele>456.9</ele>
        <time>2021-09-30T08:50:29Z</time>
      </trkpt>
      <trkpt lat="41.3766670" lon="1.1400020">
        <ele>457.1</ele>
        <time>2021-09-30T08:50:30Z</time>
      </trkpt>
      <trkpt lat="41.3766620" lon="1.1400030">
        <ele>457.3</ele>
        <time>2021-09-30T08:50:31Z</time>
      </trkpt>
      <trkpt lat="41.3766560" lon="1.1400040">
        <ele>457.5</ele>
        <time>2021-09-30T08:50:32Z</time>
      </trkpt>
      <trkpt lat="41.3766500" lon="1.1400050">
        <ele>457.8</ele>
        <time>2021-09-30T08:50:33Z</time>
      </trkpt>
      <trkpt lat="41.3766440" lon="1.1400060">
        <ele>458.0</ele>
        <time>2021-09-30T08:50:34Z</time>
      </trkpt>
      <trkpt lat="41.3766380" lon="1.1400080">
        <ele>458.2</ele>
        <time>2021-09-30T08:50:35Z</time>
      </trkpt>
      <trkpt lat="41.3766330" lon="1.1400090">
        <ele>458.4</ele>
        <time>2021-09-30T08:50:36Z</time>
      </trkpt>
      <trkpt lat="41.3766270" lon="1.1400100">
        <ele>458.6</ele>
        <time>2021-09-30T08:50:37Z</time>
      </trkpt>
      <trkpt lat="41.3766210" lon="1.1400110">
        <ele>458.9</ele>
        <time>2021-09-30T08:50:38Z</time>
      </trkpt>
      <trkpt lat="41.3766150" lon="1.1400120">
        <ele>459.1</ele>
        <time>2021-09-30T08:50:39Z</time>
      </trkpt>
      <trkpt lat="41.3766100" lon="1.1400140">
        <ele>459.3</ele>
        <time>2021-09-30T08:50:40Z</time>
      </trkpt>
      <trkpt lat="41.3766040" lon="1.1400150">
        <ele>459.5</ele>
        <time>2021-09-30T08:50:41Z</time>
      </trkpt>
      <trkpt lat="41.3765980" lon="1.1400160">
        <ele>459.7</ele>
        <time>2021-09-30T08:50:42Z</time>
      </trkpt>
      <trkpt lat="41.3765950" lon="1.1400500">
        <ele>460.7</ele>
        <time>2021-09-30T08:50:43Z</time>
      </trkpt>
      <trkpt lat="41.3765910" lon="1.1400830">
        <ele>461.6</ele>
        <time>2021-09-30T08:50:44Z</time>
      </trkpt>
      <trkpt lat="41.3765880" lon="1.1401170">
        <ele>462.6</ele>
        <time>2021-09-30T08:50:45Z</time>
      </trkpt>
      <trkpt lat="41.3765840" lon="1.1401500">
        <ele>463.5</ele>
        <time>2021-09-30T08:50:46Z</time>
      </trkpt>
      <trkpt lat="41.3765810" lon="1.1401840">
        <ele>464.5</ele>
        <time>2021-09-30T08:50:47Z</time>
      </trkpt>
      <trkpt lat="41.3765770" lon="1.1402180">
        <ele>465.5</ele>
        <time>2021-09-30T08:50:48Z</time>
      </trkpt>
      <trkpt lat="41.3765740" lon="1.1402510">
        <ele>466.4</ele>
        <time>2021-09-30T08:50:49Z</time>
      </trkpt>
      <trkpt lat="41.3765700" lon="1.1402850">
        <ele>467.4</ele>
        <time>2021-09-30T08:50:50Z</time>
      </trkpt>
      <trkpt lat="41.3765670" lon="1.1403180">
        <ele>468.3</ele>
        <time>2021-09-30T08:50:51Z</time>
      </trkpt>
      <trkpt lat="41.3765630" lon="1.1403520">
        <ele>469.2</ele>
        <time>2021-09-30T08:50:52Z</time>
      </trkpt>
      <trkpt lat="41.3765330" lon="1.1403750">
        <ele>470.4</ele>
        <time>2021-09-30T08:50:53Z</time>
      </trkpt>
      <trkpt lat="41.3765030" lon="1.1403990">
        <ele>471.6</ele>
        <time>2021-09-30T08:50:54Z</time>
      </trkpt>
      <trkpt lat="41.3764730" lon="1.1404220">
        <ele>472.7</ele>
        <time>2021-09-30T08:50:55Z</time>
      </trkpt>
      <trkpt lat="41.3764430" lon="1.1404450">
        <ele>473.7</ele>
        <time>2021-09-30T08:50:56Z</time>
      </trkpt>
      <trkpt lat="41.3764130" lon="1.1404690">
        <ele>474.7</ele>
        <time>2021-09-30T08:50:57Z</time>
      </trkpt>
      <trkpt lat="41.3763830" lon="1.1404920">
        <ele>475.6</ele>
        <time>2021-09-30T08:50:58Z</time>
      </trkpt>
      <trkpt lat="41.3763530" lon="1.1405160">
        <ele>476.4</ele>
        <time>2021-09-30T08:50:59Z</time>
      </trkpt>
      <trkpt lat="41.3763230" lon="1.1405390">
        <ele>477.2</ele>
        <time>2021-09-30T08:51:00Z</time>
      </trkpt>
      <trkpt lat="41.3762930" lon="1.1405620">
        <ele>477.9</ele>
        <time>2021-09-30T08:51:01Z</time>
      </trkpt>
      <trkpt lat="41.3762630" lon="1.1405860">
        <ele>478.4</ele>
        <time>2021-09-30T08:51:02Z</time>
      </trkpt>
      <trkpt lat="41.3762330" lon="1.1406090">
        <ele>478.9</ele>
        <time>2021-09-30T08:51:03Z</time>
      </trkpt>
      <trkpt lat="41.3762140" lon="1.1406040">
        <ele>479.2</ele>
        <time>2021-09-30T08:51:04Z</time>
      </trkpt>
      <trkpt lat="41.3761950" lon="1.1405990">
        <ele>479.4</ele>
        <time>2021-09-30T08:51:05Z</time>
      </trkpt>
      <trkpt lat="41.3761770" lon="1.1405940">
        <ele>479.6</ele>
        <time>2021-09-30T08:51:06Z</time>
      </trkpt>
      <trkpt lat="41.3761580" lon="1.1405890">
        <ele>479.9</ele>
        <time>2021-09-30T08:51:07Z</time>
      </trkpt>
      <trkpt lat="41.3761390" lon="1.1405840">
        <ele>480.1</ele>
        <time>2021-09-30T08:51:08Z</time>
      </trkpt>
      <trkpt lat="41.3761200" lon="1.1405800">
        <ele>480.3</ele>
        <time>2021-09-30T08:51:09Z</time>
      </trkpt>
      <trkpt lat="41.3761010" lon="1.1405750">
        <ele>480.5</ele>
        <time>2021-09-30T08:51:10Z</time>
      </trkpt>
      <trkpt lat="41.3760820" lon="1.1405700">
        <ele>480.7</ele>
        <time>2021-09-30T08:51:11Z</time>
      </trkpt>
      <trkpt lat="41.3760640" lon="1.1405650">
        <ele>481.0</ele>
        <time>2021-09-30T08:51:12Z</time>
      </trkpt>
      <trkpt lat="41.3760450" lon="1.1405600">
        <ele>481.3</ele>
        <time>2021-09-30T08:51:13Z</time>
      </trkpt>
      <trkpt lat="41.3760260" lon="1.1405550">
        <ele>481.5</ele>
        <time>2021-09-30T08:51:14Z</time>
      </trkpt>
      <trkpt lat="41.3759950" lon="1.1405520">
        <ele>482.0</ele>
        <time>2021-09-30T08:51:15Z</time>
      </trkpt>
      <trkpt lat="41.3759630" lon="1.1405480">
        <ele>482.6</ele>
        <time>2021-09-30T08:51:16Z</time>
      </trkpt>
      <trkpt lat="41.3759320" lon="1.1405450">
        <ele>483.2</ele>
        <time>2021-09-30T08:51:17Z</time>
      </trkpt>
      <trkpt lat="41.3759000" lon="1.1405410">
        <ele>483.9</ele>
        <time>2021-09-30T08:51:18Z</time>
      </trkpt>
      <trkpt lat="41.3758690" lon="1.1405380">
        <ele>484.5</ele>
        <time>2021-09-30T08:51:19Z</time>
      </trkpt>
      <trkpt lat="41.3758370" lon="1.1405350">
        <ele>485.2</ele>
        <time>2021-09-30T08:51:20Z</time>
      </trkpt>
      <trkpt lat="41.3758060" lon="1.1405310">
        <ele>485.9</ele>
        <time>2021-09-30T08:51:21Z</time>
      </trkpt>
      <trkpt lat="41.3757740" lon="1.1405280">
        <ele>486.6</ele>
        <time>2021-09-30T08:51:22Z</time>
      </trkpt>
      <trkpt lat="41.3757430" lon="1.1405240">
        <ele>487.3</ele>
        <time>2021-09-30T08:51:23Z</time>
      </trkpt>
      <trkpt lat="41.3757110" lon="1.1405210">
        <ele>488.0</ele>
        <time>2021-09-30T08:51:24Z</time>
      </trkpt>
      <trkpt lat="41.3757000" lon="1.1405190">
        <ele>488.3</ele>
        <time>2021-09-30T08:51:25Z</time>
      </trkpt>
      <trkpt lat="41.3756900" lon="1.1405170">
        <ele>488.5</ele>
        <time>2021-09-30T08:51:26Z</time>
      </trkpt>
      <trkpt lat="41.3756790" lon="1.1405150">
        <ele>488.8</ele>
        <time>2021-09-30T08:51:27Z</time>
      </trkpt>
      <trkpt lat="41.3756690" lon="1.1405130">
        <ele>489.0</ele>
        <time>2021-09-30T08:51:28Z</time>
      </trkpt>
      <trkpt lat="41.3756580" lon="1.1405110">
        <ele>489.2</ele>
        <time>2021-09-30T08:51:29Z</time>
      </trkpt>
      <trkpt lat="41.3756480" lon="1.1405080">
        <ele>489.5</ele>
        <time>2021-09-30T08:51:30Z</time>
      </trkpt>
      <trkpt lat="41.3756370" lon="1.1405060">
        <ele>489.7</ele>
        <time>2021-09-30T08:51:31Z</time>
      </trkpt>
      <trkpt lat="41.3756270" lon="1.1405040">
        <ele>489.9</ele>
        <time>2021-09-30T08:51:32Z</time>
      </trkpt>
      <trkpt lat="41.3756160" lon="1.1405020">
        <ele>490.1</ele>
        <time>2021-09-30T08:51:33Z</time>
      </trkpt>
      <trkpt lat="41.3756060" lon="1.1405000">
        <ele>490.4</ele>
        <time>2021-09-30T08:51:34Z</time>
      </trkpt>
      <trkpt lat="41.3755950" lon="1.1404980">
        <ele>490.6</ele>
        <time>2021-09-30T08:51:35Z</time>
      </trkpt>
      <trkpt lat="41.3755860" lon="1.1404890">
        <ele>490.8</ele>
        <time>2021-09-30T08:51:36Z</time>
      </trkpt>
      <trkpt lat="41.3755780" lon="1.1404810">
        <ele>491.0</ele>
        <time>2021-09-30T08:51:37Z</time>
      </trkpt>
      <trkpt lat="41.3755690" lon="1.1404720">
        <ele>491.2</ele>
        <time>2021-09-30T08:51:38Z</time>
      </trkpt>
      <trkpt lat="41.3755600" lon="1.1404640">
        <ele>491.4</ele>
        <time>2021-09-30T08:51:39Z</time>
      </trkpt>
      <trkpt lat="41.3755520" lon="1.1404550">
        <ele>491.6</ele>
        <time>2021-09-30T08:51:40Z</time>
      </trkpt>
      <trkpt lat="41.3755430" lon="1.1404470">
        <ele>491.8</ele>
        <time>2021-09-30T08:51:41Z</time>
      </trkpt>
      <trkpt lat="41.3755340" lon="1.1404380">
        <ele>492.0</ele>
        <time>2021-09-30T08:51:42Z</time>
      </trkpt>
      <trkpt lat="41.3755260" lon="1.1404300">
        <ele>492.2</ele>
        <time>2021-09-30T08:51:43Z</time>
      </trkpt>
      <trkpt lat="41.3755170" lon="1.1404210">
        <ele>492.4</ele>
        <time>2021-09-30T08:51:44Z</time>
      </trkpt>
      <trkpt lat="41.3755060" lon="1.1404120">
        <ele>492.7</ele>
        <time>2021-09-30T08:51:45Z</time>
      </trkpt>
      <trkpt lat="41.3754940" lon="1.1404040">
        <ele>492.9</ele>
        <time>2021-09-30T08:51:46Z</time>
      </trkpt>
      <trkpt lat="41.3754830" lon="1.1403950">
        <ele>493.2</ele>
        <time>2021-09-30T08:51:47Z</time>
      </trkpt>
      <trkpt lat="41.3754720" lon="1.1403870">
        <ele>493.4</ele>
        <time>2021-09-30T08:51:48Z</time>
      </trkpt>
      <trkpt lat="41.3754600" lon="1.1403780">
        <ele>493.7</ele>
        <time>2021-09-30T08:51:49Z</time>
      </trkpt>
      <trkpt lat="41.3754490" lon="1.1403700">
        <ele>494.0</ele>
        <time>2021-09-30T08:51:50Z</time>
      </trkpt>
      <trkpt lat="41.3754370" lon="1.1403610">
        <ele>494.3</ele>
        <time>2021-09-30T08:51:51Z</time>
      </trkpt>
      <trkpt lat="41.3754260" lon="1.1403530">
        <ele>494.6</ele>
        <time>2021-09-30T08:51:52Z</time>
      </trkpt>
      <trkpt lat="41.3754150" lon="1.1403440">
        <ele>494.9</ele>
        <time>2021-09-30T08:51:53Z</time>
      </trkpt>
      <trkpt lat="41.3754030" lon="1.1403360">
        <ele>495.2</ele>
        <time>2021-09-30T08:51:54Z</time>
      </trkpt>
      <trkpt lat="41.3753920" lon="1.1403270">
        <ele>495.5</ele>
        <time>2021-09-30T08:51:55Z</time>
      </trkpt>
      <trkpt lat="41.3753790" lon="1.1403280">
        <ele>495.8</ele>
        <time>2021-09-30T08:51:56Z</time>
      </trkpt>
      <trkpt lat="41.3753660" lon="1.1403300">
        <ele>496.2</ele>
        <time>2021-09-30T08:51:57Z</time>
      </trkpt>
      <trkpt lat="41.3753530" lon="1.1403310">
        <ele>496.5</ele>
        <time>2021-09-30T08:51:58Z</time>
      </trkpt>
      <trkpt lat="41.3753400" lon="1.1403320">
        <ele>496.9</ele>
        <time>2021-09-30T08:51:59Z</time>
      </trkpt>
      <trkpt lat="41.3753270" lon="1.1403340">
        <ele>497.3</ele>
        <time>2021-09-30T08:52:00Z</time>
      </trkpt>
      <trkpt lat="41.3753130" lon="1.1403350">
        <ele>497.7</ele>
        <time>2021-09-30T08:52:01Z</time>
      </trkpt>
      <trkpt lat="41.3753000" lon="1.1403360">
        <ele>498.1</ele>
        <time>2021-09-30T08:52:02Z</time>
      </trkpt>
      <trkpt lat="41.3752870" lon="1.1403370">
        <ele>498.5</ele>
        <time>2021-09-30T08:52:03Z</time>
      </trkpt>
      <trkpt lat="41.3752740" lon="1.1403390">
        <ele>498.9</ele>
        <time>2021-09-30T08:52:04Z</time>
      </trkpt>
      <trkpt lat="41.3752610" lon="1.1403400">
        <ele>499.3</ele>
        <time>2021-09-30T08:52:05Z</time>
      </trkpt>
      <trkpt lat="41.3752530" lon="1.1403380">
        <ele>499.6</ele>
        <time>2021-09-30T08:52:06Z</time>
      </trkpt>
      <trkpt lat="41.3752460" lon="1.1403360">
        <ele>499.8</ele>
        <time>2021-09-30T08:52:07Z</time>
      </trkpt>
      <trkpt lat="41.3752380" lon="1.1403330">
        <ele>500.1</ele>
        <time>2021-09-30T08:52:08Z</time>
      </trkpt>
      <trkpt lat="41.3752310" lon="1.1403310">
        <ele>500.3</ele>
        <time>2021-09-30T08:52:09Z</time>
      </trkpt>
      <trkpt lat="41.3752230" lon="1.1403290">
        <ele>500.6</ele>
        <time>2021-09-30T08:52:10Z</time>
      </trkpt>
      <trkpt lat="41.3752160" lon="1.1403270">
        <ele>500.8</ele>
        <time>2021-09-30T08:52:11Z</time>
      </trkpt>
      <trkpt lat="41.3752080" lon="1.1403240">
        <ele>501.1</ele>
        <time>2021-09-30T08:52:12Z</time>
      </trkpt>
      <trkpt lat="41.3752000" lon="1.1403220">
        <ele>501.4</ele>
        <time>2021-09-30T08:52:13Z</time>
      </trkpt>
      <trkpt lat="41.3751930" lon="1.1403200">
        <ele>501.7</ele>
        <time>2021-09-30T08:52:14Z</time>
      </trkpt>
      <trkpt lat="41.3751850" lon="1.1403180">
        <ele>502.0</ele>
        <time>2021-09-30T08:52:15Z</time>
      </trkpt>
      <trkpt lat="41.3751780" lon="1.1403150">
        <ele>502.2</ele>
        <time>2021-09-30T08:52:16Z</time>
      </trkpt>
      <trkpt lat="41.3751700" lon="1.1403130">
        <ele>502.5</ele>
        <time>2021-09-30T08:52:17Z</time>
      </trkpt>
      <trkpt lat="41.3751630" lon="1.1403110">
        <ele>502.8</ele>
        <time>2021-09-30T08:52:18Z</time>
      </trkpt>
      <trkpt lat="41.3751550" lon="1.1403090">
        <ele>503.1</ele>
        <time>2021-09-30T08:52:19Z</time>
      </trkpt>
      <trkpt lat="41.3751470" lon="1.1403060">
        <ele>503.4</ele>
        <time>2021-09-30T08:52:20Z</time>
      </trkpt>
      <trkpt lat="41.3751400" lon="1.1403040">
        <ele>503.6</ele>
        <time>2021-09-30T08:52:21Z</time>
      </trkpt>
      <trkpt lat="41.3751320" lon="1.1403020">
        <ele>503.9</ele>
        <time>2021-09-30T08:52:22Z</time>
      </trkpt>
      <trkpt lat="41.3751250" lon="1.1403000">
        <ele>504.2</ele>
        <time>2021-09-30T08:52:23Z</time>
      </trkpt>
      <trkpt lat="41.3751170" lon="1.1402970">
        <ele>504.5</ele>
        <time>2021-09-30T08:52:24Z</time>
      </trkpt>
      <trkpt lat="41.3751100" lon="1.1402950">
        <ele>504.7</ele>
        <time>2021-09-30T08:52:25Z</time>
      </trkpt>
      <trkpt lat="41.3751020" lon="1.1402930">
        <ele>505.0</ele>
        <time>2021-09-30T08:52:26Z</time>
      </trkpt>
      <trkpt lat="41.3750720" lon="1.1402870">
        <ele>506.1</ele>
        <time>2021-09-30T08:52:27Z</time>
      </trkpt>
      <trkpt lat="41.3750410" lon="1.1402800">
        <ele>507.2</ele>
        <time>2021-09-30T08:52:28Z</time>
      </trkpt>
      <trkpt lat="41.3750110" lon="1.1402740">
        <ele>508.1</ele>
        <time>2021-09-30T08:52:29Z</time>
      </trkpt>
      <trkpt lat="41.3749800" lon="1.1402670">
        <ele>509.1</ele>
        <time>2021-09-30T08:52:30Z</time>
      </trkpt>
      <trkpt lat="41.3749500" lon="1.1402610">
        <ele>509.9</ele>
        <time>2021-09-30T08:52:31Z</time>
      </trkpt>
      <trkpt lat="41.3749200" lon="1.1402550">
        <ele>510.7</ele>
        <time>2021-09-30T08:52:32Z</time>
      </trkpt>
      <trkpt lat="41.3748890" lon="1.1402480">
        <ele>511.5</ele>
        <time>2021-09-30T08:52:33Z</time>
      </trkpt>
      <trkpt lat="41.3748590" lon="1.1402420">
        <ele>512.2</ele>
        <time>2021-09-30T08:52:34Z</time>
      </trkpt>
      <trkpt lat="41.3748280" lon="1.1402350">
        <ele>512.8</ele>
        <time>2021-09-30T08:52:35Z</time>
      </trkpt>
      <trkpt lat="41.3747980" lon="1.1402290">
        <ele>513.4</ele>
        <time>2021-09-30T08:52:36Z</time>
      </trkpt>
      <trkpt lat="41.3747810" lon="1.1402250">
        <ele>513.8</ele>
        <time>2021-09-30T08:52:37Z</time>
      </trkpt>
      <trkpt lat="41.3747640" lon="1.1402200">
        <ele>514.1</ele>
        <time>2021-09-30T08:52:38Z</time>
      </trkpt>
      <trkpt lat="41.3747470" lon="1.1402160">
        <ele>514.4</ele>
        <time>2021-09-30T08:52:39Z</time>
      </trkpt>
      <trkpt lat="41.3747300" lon="1.1402120">
        <ele>514.8</ele>
        <time>2021-09-30T08:52:40Z</time>
      </trkpt>
      <trkpt lat="41.3747130" lon="1.1402070">
        <ele>515.1</ele>
        <time>2021-09-30T08:52:41Z</time>
      </trkpt>
      <trkpt lat="41.3746960" lon="1.1402030">
        <ele>515.4</ele>
        <time>2021-09-30T08:52:42Z</time>
      </trkpt>
      <trkpt lat="41.3746790" lon="1.1401980">
        <ele>515.7</ele>
        <time>2021-09-30T08:52:43Z</time>
      </trkpt>
      <trkpt lat="41.3746620" lon="1.1401940">
        <ele>516.0</ele>
        <time>2021-09-30T08:52:44Z</time>
      </trkpt>
      <trkpt lat="41.3746450" lon="1.1401900">
        <ele>516.4</ele>
        <time>2021-09-30T08:52:45Z</time>
      </trkpt>
      <trkpt lat="41.3746280" lon="1.1401850">
        <ele>516.7</ele>
        <time>2021-09-30T08:52:46Z</time>
      </trkpt>
      <trkpt lat="41.3746110" lon="1.1401810">
        <ele>517.0</ele>
        <time>2021-09-30T08:52:47Z</time>
      </trkpt>
      <trkpt lat="41.3746060" lon="1.1401940">
        <ele>517.2</ele>
        <time>2021-09-30T08:52:48Z</time>
      </trkpt>
      <trkpt lat="41.3746010" lon="1.1402060">
        <ele>517.4</ele>
        <time>2021-09-30T08:52:49Z</time>
      </trkpt>
      <trkpt lat="41.3745950" lon="1.1402190">
        <ele>517.6</ele>
        <time>2021-09-30T08:52:50Z</time>
      </trkpt>
      <trkpt lat="41.3745900" lon="1.1402320">
        <ele>517.8</ele>
        <time>2021-09-30T08:52:51Z</time>
      </trkpt>
      <trkpt lat="41.3745850" lon="1.1402450">
        <ele>518.0</ele>
        <time>2021-09-30T08:52:52Z</time>
      </trkpt>
      <trkpt lat="41.3745800" lon="1.1402570">
        <ele>518.3</ele>
        <time>2021-09-30T08:52:53Z</time>
      </trkpt>
      <trkpt lat="41.3745750" lon="1.1402700">
        <ele>518.5</ele>
        <time>2021-09-30T08:52:54Z</time>
      </trkpt>
      <trkpt lat="41.3745690" lon="1.1402830">
        <ele>518.7</ele>
        <time>2021-09-30T08:52:55Z</time>
      </trkpt>
      <trkpt lat="41.3745640" lon="1.1402950">
        <ele>518.9</ele>
        <time>2021-09-30T08:52:56Z</time>
      </trkpt>
      <trkpt lat="41.3745590" lon="1.1403080">
        <ele>519.2</ele>
        <time>2021-09-30T08:52:57Z</time>
      </trkpt>
      <trkpt lat="41.3745500" lon="1.1403170">
        <ele>519.5</ele>
        <time>2021-09-30T08:52:58Z</time>
      </trkpt>
      <trkpt lat="41.3745400" lon="1.1403260">
        <ele>519.8</ele>
        <time>2021-09-30T08:52:59Z</time>
      </trkpt>
      <trkpt lat="41.3745310" lon="1.1403350">
        <ele>520.0</ele>
        <time>2021-09-30T08:53:00Z</time>
      </trkpt>
      <trkpt lat="41.3745210" lon="1.1403440">
        <ele>520.4</ele>
        <time>2021-09-30T08:53:01Z</time>
      </trkpt>
      <trkpt lat="41.3745120" lon="1.1403530">
        <ele>520.7</ele>
        <time>2021-09-30T08:53:02Z</time>
      </trkpt>
      <trkpt lat="41.3745020" lon="1.1403620">
        <ele>521.0</ele>
        <time>2021-09-30T08:53:03Z</time>
      </trkpt>
      <trkpt lat="41.3744930" lon="1.1403710">
        <ele>521.3</ele>
        <time>2021-09-30T08:53:04Z</time>
      </trkpt>
      <trkpt lat="41.3744830" lon="1.1403800">
        <ele>521.7</ele>
        <time>2021-09-30T08:53:05Z</time>
      </trkpt>
      <trkpt lat="41.3744740" lon="1.1403890">
        <ele>522.0</ele>
        <time>2021-09-30T08:53:06Z</time>
      </trkpt>
      <trkpt lat="41.3744640" lon="1.1403980">
        <ele>522.4</ele>
        <time>2021-09-30T08:53:07Z</time>
      </trkpt>
      <trkpt lat="41.3744540" lon="1.1404050">
        <ele>522.8</ele>
        <time>2021-09-30T08:53:08Z</time>
      </trkpt>
      <trkpt lat="41.3744440" lon="1.1404110">
        <ele>523.1</ele>
        <time>2021-09-30T08:53:09Z</time>
      </trkpt>
      <trkpt lat="41.3744350" lon="1.1404180">
        <ele>523.5</ele>
        <time>2021-09-30T08:53:10Z</time>
      </trkpt>
      <trkpt lat="41.3744250" lon="1.1404240">
        <ele>523.8</ele>
        <time>2021-09-30T08:53:11Z</time>
      </trkpt>
      <trkpt lat="41.3744150" lon="1.1404310">
        <ele>524.2</ele>
        <time>2021-09-30T08:53:12Z</time>
      </trkpt>
      <trkpt lat="41.3744050" lon="1.1404370">
        <ele>524.5</ele>
        <time>2021-09-30T08:53:13Z</time>
      </trkpt>
      <trkpt lat="41.3743950" lon="1.1404440">
        <ele>524.9</ele>
        <time>2021-09-30T08:53:14Z</time>
      </trkpt>
      <trkpt lat="41.3743860" lon="1.1404500">
        <ele>525.2</ele>
        <time>2021-09-30T08:53:15Z</time>
      </trkpt>
      <trkpt lat="41.3743760" lon="1.1404570">
        <ele>525.6</ele>
        <time>2021-09-30T08:53:16Z</time>
      </trkpt>
      <trkpt lat="41.3743660" lon="1.1404630">
        <ele>525.9</ele>
        <time>2021-09-30T08:53:17Z</time>
      </trkpt>
      <trkpt lat="41.3743560" lon="1.1404700">
        <ele>526.3</ele>
        <time>2021-09-30T08:53:18Z</time>
      </trkpt>
      <trkpt lat="41.3743460" lon="1.1404760">
        <ele>526.6</ele>
        <time>2021-09-30T08:53:19Z</time>
      </trkpt>
      <trkpt lat="41.3743360" lon="1.1404830">
        <ele>526.9</ele>
        <time>2021-09-30T08:53:20Z</time>
      </trkpt>
      <trkpt lat="41.3743270" lon="1.1404890">
        <ele>527.3</ele>
        <time>2021-09-30T08:53:21Z</time>
      </trkpt>
      <trkpt lat="41.3743170" lon="1.1404960">
        <ele>527.6</ele>
        <time>2021-09-30T08:53:22Z</time>
      </trkpt>
      <trkpt lat="41.3743070" lon="1.1405020">
        <ele>527.9</ele>
        <time>2021-09-30T08:53:23Z</time>
      </trkpt>
      <trkpt lat="41.3742970" lon="1.1405090">
        <ele>528.2</ele>
        <time>2021-09-30T08:53:24Z</time>
      </trkpt>
      <trkpt lat="41.3742870" lon="1.1405150">
        <ele>528.5</ele>
        <time>2021-09-30T08:53:25Z</time>
      </trkpt>
      <trkpt lat="41.3742780" lon="1.1405220">
        <ele>528.8</ele>
        <time>2021-09-30T08:53:26Z</time>
      </trkpt>
      <trkpt lat="41.3742680" lon="1.1405280">
        <ele>529.0</ele>
        <time>2021-09-30T08:53:27Z</time>
      </trkpt>
      <trkpt lat="41.3742580" lon="1.1405350">
        <ele>529.3</ele>
        <time>2021-09-30T08:53:28Z</time>
      </trkpt>
      <trkpt lat="41.3742420" lon="1.1405510">
        <ele>529.8</ele>
        <time>2021-09-30T08:53:29Z</time>
      </trkpt>
      <trkpt lat="41.3742260" lon="1.1405670">
        <ele>530.2</ele>
        <time>2021-09-30T08:53:30Z</time>
      </trkpt>
      <trkpt lat="41.3742090" lon="1.1405830">
        <ele>530.7</ele>
        <time>2021-09-30T08:53:31Z</time>
      </trkpt>
      <trkpt lat="41.3741930" lon="1.1405990">
        <ele>531.0</ele>
        <time>2021-09-30T08:53:32Z</time>
      </trkpt>
      <trkpt lat="41.3741770" lon="1.1406150">
        <ele>531.4</ele>
        <time>2021-09-30T08:53:33Z</time>
      </trkpt>
      <trkpt lat="41.3741610" lon="1.1406310">
        <ele>531.8</ele>
        <time>2021-09-30T08:53:34Z</time>
      </trkpt>
      <trkpt lat="41.3741450" lon="1.1406470">
        <ele>532.1</ele>
        <time>2021-09-30T08:53:35Z</time>
      </trkpt>
      <trkpt lat="41.3741280" lon="1.1406630">
        <ele>532.4</ele>
        <time>2021-09-30T08:53:36Z</time>
      </trkpt>
      <trkpt lat="41.3741120" lon="1.1406790">
        <ele>532.6</ele>
        <time>2021-09-30T08:53:37Z</time>
      </trkpt>
      <trkpt lat="41.3740960" lon="1.1406950">
        <ele>532.9</ele>
        <time>2021-09-30T08:53:38Z</time>
      </trkpt>
      <trkpt lat="41.3740860" lon="1.1407180">
        <ele>533.1</ele>
        <time>2021-09-30T08:53:39Z</time>
      </trkpt>
      <trkpt lat="41.3740750" lon="1.1407410">
        <ele>533.4</ele>
        <time>2021-09-30T08:53:40Z</time>
      </trkpt>
      <trkpt lat="41.3740650" lon="1.1407640">
        <ele>533.6</ele>
        <time>2021-09-30T08:53:41Z</time>
      </trkpt>
      <trkpt lat="41.3740550" lon="1.1407870">
        <ele>533.7</ele>
        <time>2021-09-30T08:53:42Z</time>
      </trkpt>
      <trkpt lat="41.3740450" lon="1.1408100">
        <ele>533.9</ele>
        <time>2021-09-30T08:53:43Z</time>
      </trkpt>
      <trkpt lat="41.3740340" lon="1.1408330">
        <ele>534.0</ele>
        <time>2021-09-30T08:53:44Z</time>
      </trkpt>
      <trkpt lat="41.3740240" lon="1.1408560">
        <ele>534.1</ele>
        <time>2021-09-30T08:53:45Z</time>
      </trkpt>
      <trkpt lat="41.3740140" lon="1.1408790">
        <ele>534.2</ele>
        <time>2021-09-30T08:53:46Z</time>
      </trkpt>
      <trkpt lat="41.3740040" lon="1.1409020">
        <ele>534.2</ele>
        <time>2021-09-30T08:53:47Z</time>
      </trkpt>
      <trkpt lat="41.3739930" lon="1.1409260">
        <ele>534.3</ele>
        <time>2021-09-30T08:53:48Z</time>
      </trkpt>
      <trkpt lat="41.3739830" lon="1.1409490">
        <ele>534.3</ele>
        <time>2021-09-30T08:53:49Z</time>
      </trkpt>
      <trkpt lat="41.3739730" lon="1.1409720">
        <ele>534.3</ele>
        <time>2021-09-30T08:53:50Z</time>
      </trkpt>
      <trkpt lat="41.3739630" lon="1.1409950">
        <ele>534.3</ele>
        <time>2021-09-30T08:53:51Z</time>
      </trkpt>
      <trkpt lat="41.3739520" lon="1.1410180">
        <ele>534.3</ele>
        <time>2021-09-30T08:53:52Z</time>
      </trkpt>
      <trkpt lat="41.3739420" lon="1.1410410">
        <ele>534.3</ele>
        <time>2021-09-30T08:53:53Z</time>
      </trkpt>
      <trkpt lat="41.3739320" lon="1.1410640">
        <ele>534.3</ele>
        <time>2021-09-30T08:53:54Z</time>
      </trkpt>
      <trkpt lat="41.3739220" lon="1.1410870">
        <ele>534.3</ele>
        <time>2021-09-30T08:53:55Z</time>
      </trkpt>
      <trkpt lat="41.3739110" lon="1.1411100">
        <ele>534.3</ele>
        <time>2021-09-30T08:53:56Z</time>
      </trkpt>
      <trkpt lat="41.3739010" lon="1.1411330">
        <ele>534.3</ele>
        <time>2021-09-30T08:53:57Z</time>
      </trkpt>
      <trkpt lat="41.3739040" lon="1.1411000">
        <ele>534.3</ele>
        <time>2021-09-30T08:53:58Z</time>
      </trkpt>
      <trkpt lat="41.3739080" lon="1.1410670">
        <ele>534.2</ele>
        <time>2021-09-30T08:53:59Z</time>
      </trkpt>
      <trkpt lat="41.3739110" lon="1.1410340">
        <ele>534.1</ele>
        <time>2021-09-30T08:54:00Z</time>
      </trkpt>
      <trkpt lat="41.3739140" lon="1.1410010">
        <ele>534.0</ele>
        <time>2021-09-30T08:54:01Z</time>
      </trkpt>
      <trkpt lat="41.3739180" lon="1.1409690">
        <ele>533.9</ele>
        <time>2021-09-30T08:54:02Z</time>
      </trkpt>
      <trkpt lat="41.3739210" lon="1.1409360">
        <ele>533.7</ele>
        <time>2021-09-30T08:54:03Z</time>
      </trkpt>
      <trkpt lat="41.3739240" lon="1.1409030">
        <ele>533.5</ele>
        <time>2021-09-30T08:54:04Z</time>
      </trkpt>
      <trkpt lat="41.3739270" lon="1.1408700">
        <ele>533.2</ele>
        <time>2021-09-30T08:54:05Z</time>
      </trkpt>
      <trkpt lat="41.3739310" lon="1.1408370">
        <ele>532.9</ele>
        <time>2021-09-30T08:54:06Z</time>
      </trkpt>
      <trkpt lat="41.3739340" lon="1.1408040">
        <ele>532.6</ele>
        <time>2021-09-30T08:54:07Z</time>
      </trkpt>
      <trkpt lat="41.3739550" lon="1.1408040">
        <ele>532.4</ele>
        <time>2021-09-30T08:54:08Z</time>
      </trkpt>
      <trkpt lat="41.3739760" lon="1.1408040">
        <ele>532.1</ele>
        <time>2021-09-30T08:54:09Z</time>
      </trkpt>
      <trkpt lat="41.3739980" lon="1.1408030">
        <ele>531.7</ele>
        <time>2021-09-30T08:54:10Z</time>
      </trkpt>
      <trkpt lat="41.3740190" lon="1.1408030">
        <ele>531.4</ele>
        <time>2021-09-30T08:54:11Z</time>
      </trkpt>
      <trkpt lat="41.3740400" lon="1.1408030">
        <ele>531.0</ele>
        <time>2021-09-30T08:54:12Z</time>
      </trkpt>
      <trkpt lat="41.3740610" lon="1.1408030">
        <ele>530.6</ele>
        <time>2021-09-30T08:54:13Z</time>
      </trkpt>
      <trkpt lat="41.3740820" lon="1.1408030">
        <ele>530.2</ele>
        <time>2021-09-30T08:54:14Z</time>
      </trkpt>
      <trkpt lat="41.3741030" lon="1.1408030">
        <ele>529.8</ele>
        <time>2021-09-30T08:54:15Z</time>
      </trkpt>
      <trkpt lat="41.3741250" lon="1.1408020">
        <ele>529.3</ele>
        <time>2021-09-30T08:54:16Z</time>
      </trkpt>
      <trkpt lat="41.3741460" lon="1.1408020">
        <ele>528.8</ele>
        <time>2021-09-30T08:54:17Z</time>
      </trkpt>
      <trkpt lat="41.3741670" lon="1.1408020">
        <ele>528.3</ele>
        <time>2021-09-30T08:54:18Z</time>
      </trkpt>
      <trkpt lat="41.3741800" lon="1.1407800">
        <ele>527.7</ele>
        <time>2021-09-30T08:54:19Z</time>
      </trkpt>
      <trkpt lat="41.3741930" lon="1.1407590">
        <ele>527.2</ele>
        <time>2021-09-30T08:54:20Z</time>
      </trkpt>
      <trkpt lat="41.3742060" lon="1.1407370">
        <ele>526.5</ele>
        <time>2021-09-30T08:54:21Z</time>
      </trkpt>
      <trkpt lat="41.3742190" lon="1.1407150">
        <ele>525.9</ele>
        <time>2021-09-30T08:54:22Z</time>
      </trkpt>
      <trkpt lat="41.3742320" lon="1.1406940">
        <ele>525.3</ele>
        <time>2021-09-30T08:54:23Z</time>
      </trkpt>
      <trkpt lat="41.3742450" lon="1.1406720">
        <ele>524.7</ele>
        <time>2021-09-30T08:54:24Z</time>
      </trkpt>
      <trkpt lat="41.3742580" lon="1.1406510">
        <ele>524.1</ele>
        <time>2021-09-30T08:54:25Z</time>
      </trkpt>
      <trkpt lat="41.3742710" lon="1.1406290">
        <ele>523.4</ele>
        <time>2021-09-30T08:54:26Z</time>
      </trkpt>
      <trkpt lat="41.3742840" lon="1.1406070">
        <ele>522.8</ele>
        <time>2021-09-30T08:54:27Z</time>
      </trkpt>
      <trkpt lat="41.3742970" lon="1.1405860">
        <ele>522.2</ele>
        <time>2021-09-30T08:54:28Z</time>
      </trkpt>
      <trkpt lat="41.3743100" lon="1.1405640">
        <ele>521.5</ele>
        <time>2021-09-30T08:54:29Z</time>
      </trkpt>
      <trkpt lat="41.3743250" lon="1.1405290">
        <ele>520.7</ele>
        <time>2021-09-30T08:54:30Z</time>
      </trkpt>
      <trkpt lat="41.3743400" lon="1.1404950">
        <ele>520.0</ele>
        <time>2021-09-30T08:54:31Z</time>
      </trkpt>
      <trkpt lat="41.3743550" lon="1.1404600">
        <ele>519.3</ele>
        <time>2021-09-30T08:54:32Z</time>
      </trkpt>
      <trkpt lat="41.3743700" lon="1.1404250">
        <ele>518.6</ele>
        <time>2021-09-30T08:54:33Z</time>
      </trkpt>
      <trkpt lat="41.3743850" lon="1.1403910">
        <ele>518.1</ele>
        <time>2021-09-30T08:54:34Z</time>
      </trkpt>
      <trkpt lat="41.3744000" lon="1.1403560">
        <ele>517.5</ele>
        <time>2021-09-30T08:54:35Z</time>
      </trkpt>
      <trkpt lat="41.3744150" lon="1.1403210">
        <ele>517.0</ele>
        <time>2021-09-30T08:54:36Z</time>
      </trkpt>
      <trkpt lat="41.3744300" lon="1.1402860">
        <ele>516.4</ele>
        <time>2021-09-30T08:54:37Z</time>
      </trkpt>
      <trkpt lat="41.3744450" lon="1.1402520">
        <ele>515.9</ele>
        <time>2021-09-30T08:54:38Z</time>
      </trkpt>
      <trkpt lat="41.3744600" lon="1.1402170">
        <ele>515.4</ele>
        <time>2021-09-30T08:54:39Z</time>
      </trkpt>
      <trkpt lat="41.3744870" lon="1.1401930">
        <ele>514.8</ele>
        <time>2021-09-30T08:54:40Z</time>
      </trkpt>
      <trkpt lat="41.3745140" lon="1.1401690">
        <ele>514.2</ele>
        <time>2021-09-30T08:54:41Z</time>
      </trkpt>
      <trkpt lat="41.3745410" lon="1.1401450">
        <ele>513.6</ele>
        <time>2021-09-30T08:54:42Z</time>
      </trkpt>
      <trkpt lat="41.3745680" lon="1.1401210">
        <ele>513.0</ele>
        <time>2021-09-30T08:54:43Z</time>
      </trkpt>
      <trkpt lat="41.3745950" lon="1.1400980">
        <ele>512.4</ele>
        <time>2021-09-30T08:54:44Z</time>
      </trkpt>
      <trkpt lat="41.3746220" lon="1.1400740">
        <ele>511.7</ele>
        <time>2021-09-30T08:54:45Z</time>
      </trkpt>
      <trkpt lat="41.3746490" lon="1.1400500">
        <ele>511.0</ele>
        <time>2021-09-30T08:54:46Z</time>
      </trkpt>
      <trkpt lat="41.3746760" lon="1.1400260">
        <ele>510.2</ele>
        <time>2021-09-30T08:54:47Z</time>
      </trkpt>
      <trkpt lat="41.3747030" lon="1.1400020">
        <ele>509.4</ele>
        <time>2021-09-30T08:54:48Z</time>
      </trkpt>
      <trkpt lat="41.3747320" lon="1.1400080">
        <ele>508.5</ele>
        <time>2021-09-30T08:54:49Z</time>
      </trkpt>
      <trkpt lat="41.3747610" lon="1.1400140">
        <ele>507.7</ele>
        <time>2021-09-30T08:54:50Z</time>
      </trkpt>
      <trkpt lat="41.3747890" lon="1.1400190">
        <ele>506.8</ele>
        <time>2021-09-30T08:54:51Z</time>
      </trkpt>
      <trkpt lat="41.3748180" lon="1.1400250">
        <ele>505.8</ele>
        <time>2021-09-30T08:54:52Z</time>
      </trkpt>
      <trkpt lat="41.3748470" lon="1.1400310">
        <ele>504.8</ele>
        <time>2021-09-30T08:54:53Z</time>
      </trkpt>
      <trkpt lat="41.3748760" lon="1.1400370">
        <ele>503.8</ele>
        <time>2021-09-30T08:54:54Z</time>
      </trkpt>
      <trkpt lat="41.3749050" lon="1.1400430">
        <ele>502.8</ele>
        <time>2021-09-30T08:54:55Z</time>
      </trkpt>
      <trkpt lat="41.3749340" lon="1.1400490">
        <ele>501.9</ele>
        <time>2021-09-30T08:54:56Z</time>
      </trkpt>
      <trkpt lat="41.3749620" lon="1.1400540">
        <ele>500.9</ele>
        <time>2021-09-30T08:54:57Z</time>
      </trkpt>
      <trkpt lat="41.3749910" lon="1.1400600">
        <ele>500.0</ele>
        <time>2021-09-30T08:54:58Z</time>
      </trkpt>
      <trkpt lat="41.3750200" lon="1.1400660">
        <ele>499.0</ele>
        <time>2021-09-30T08:54:59Z</time>
      </trkpt>
      <trkpt lat="41.3750420" lon="1.1400820">
        <ele>498.3</ele>
        <time>2021-09-30T08:55:00Z</time>
      </trkpt>
      <trkpt lat="41.3750630" lon="1.1400980">
        <ele>497.6</ele>
        <time>2021-09-30T08:55:01Z</time>
      </trkpt>
      <trkpt lat="41.3750850" lon="1.1401150">
        <ele>496.9</ele>
        <time>2021-09-30T08:55:02Z</time>
      </trkpt>
      <trkpt lat="41.3751070" lon="1.1401310">
        <ele>496.2</ele>
        <time>2021-09-30T08:55:03Z</time>
      </trkpt>
      <trkpt lat="41.3751280" lon="1.1401470">
        <ele>495.6</ele>
        <time>2021-09-30T08:55:04Z</time>
      </trkpt>
      <trkpt lat="41.3751500" lon="1.1401630">
        <ele>495.1</ele>
        <time>2021-09-30T08:55:05Z</time>
      </trkpt>
      <trkpt lat="41.3751720" lon="1.1401800">
        <ele>494.5</ele>
        <time>2021-09-30T08:55:06Z</time>
      </trkpt>
      <trkpt lat="41.3751930" lon="1.1401960">
        <ele>494.0</ele>
        <time>2021-09-30T08:55:07Z</time>
      </trkpt>
      <trkpt lat="41.3752150" lon="1.1402120">
        <ele>493.5</ele>
        <time>2021-09-30T08:55:08Z</time>
      </trkpt>
      <trkpt lat="41.3752290" lon="1.1402240">
        <ele>493.2</ele>
        <time>2021-09-30T08:55:09Z</time>
      </trkpt>
      <trkpt lat="41.3752440" lon="1.1402350">
        <ele>492.8</ele>
        <time>2021-09-30T08:55:10Z</time>
      </trkpt>
      <trkpt lat="41.3752580" lon="1.1402470">
        <ele>492.5</ele>
        <time>2021-09-30T08:55:11Z</time>
      </trkpt>
      <trkpt lat="41.3752720" lon="1.1402590">
        <ele>492.2</ele>
        <time>2021-09-30T08:55:12Z</time>
      </trkpt>
      <trkpt lat="41.3752860" lon="1.1402700">
        <ele>492.0</ele>
        <time>2021-09-30T08:55:13Z</time>
      </trkpt>
      <trkpt lat="41.3753010" lon="1.1402820">
        <ele>491.6</ele>
        <time>2021-09-30T08:55:14Z</time>
      </trkpt>
      <trkpt lat="41.3753150" lon="1.1402930">
        <ele>491.3</ele>
        <time>2021-09-30T08:55:15Z</time>
      </trkpt>
      <trkpt lat="41.3753290" lon="1.1403050">
        <ele>491.0</ele>
        <time>2021-09-30T08:55:16Z</time>
      </trkpt>
      <trkpt lat="41.3753430" lon="1.1403170">
        <ele>490.7</ele>
        <time>2021-09-30T08:55:17Z</time>
      </trkpt>
      <trkpt lat="41.3753580" lon="1.1403280">
        <ele>490.4</ele>
        <time>2021-09-30T08:55:18Z</time>
      </trkpt>
      <trkpt lat="41.3753720" lon="1.1403400">
        <ele>490.1</ele>
        <time>2021-09-30T08:55:19Z</time>
      </trkpt>
      <trkpt lat="41.3753930" lon="1.1403620">
        <ele>489.6</ele>
        <time>2021-09-30T08:55:20Z</time>
      </trkpt>
      <trkpt lat="41.3754130" lon="1.1403840">
        <ele>489.0</ele>
        <time>2021-09-30T08:55:21Z</time>
      </trkpt>
      <trkpt lat="41.3754340" lon="1.1404070">
        <ele>488.4</ele>
        <time>2021-09-30T08:55:22Z</time>
      </trkpt>
      <trkpt lat="41.3754540" lon="1.1404290">
        <ele>487.9</ele>
        <time>2021-09-30T08:55:23Z</time>
      </trkpt>
      <trkpt lat="41.3754750" lon="1.1404510">
        <ele>487.3</ele>
        <time>2021-09-30T08:55:24Z</time>
      </trkpt>
      <trkpt lat="41.3754950" lon="1.1404730">
        <ele>486.8</ele>
        <time>2021-09-30T08:55:25Z</time>
      </trkpt>
      <trkpt lat="41.3755160" lon="1.1404960">
        <ele>486.2</ele>
        <time>2021-09-30T08:55:26Z</time>
      </trkpt>
      <trkpt lat="41.3755360" lon="1.1405180">
        <ele>485.6</ele>
        <time>2021-09-30T08:55:27Z</time>
      </trkpt>
      <trkpt lat="41.3755570" lon="1.1405400">
        <ele>485.1</ele>
        <time>2021-09-30T08:55:28Z</time>
      </trkpt>
      <trkpt lat="41.3755860" lon="1.1405480">
        <ele>484.5</ele>
        <time>2021-09-30T08:55:29Z</time>
      </trkpt>
      <trkpt lat="41.3756150" lon="1.1405560">
        <ele>483.9</ele>
        <time>2021-09-30T08:55:30Z</time>
      </trkpt>
      <trkpt lat="41.3756440" lon="1.1405640">
        <ele>483.3</ele>
        <time>2021-09-30T08:55:31Z</time>
      </trkpt>
      <trkpt lat="41.3756730" lon="1.1405720">
        <ele>482.8</ele>
        <time>2021-09-30T08:55:32Z</time>
      </trkpt>
      <trkpt lat="41.3757020" lon="1.1405790">
        <ele>482.3</ele>
        <time>2021-09-30T08:55:33Z</time>
      </trkpt>
      <trkpt lat="41.3757310" lon="1.1405870">
        <ele>481.8</ele>
        <time>2021-09-30T08:55:34Z</time>
      </trkpt>
      <trkpt lat="41.3757600" lon="1.1405950">
        <ele>481.3</ele>
        <time>2021-09-30T08:55:35Z</time>
      </trkpt>
      <trkpt lat="41.3757890" lon="1.1406030">
        <ele>480.9</ele>
        <time>2021-09-30T08:55:36Z</time>
      </trkpt>
      <trkpt lat="41.3758180" lon="1.1406110">
        <ele>480.6</ele>
        <time>2021-09-30T08:55:37Z</time>
      </trkpt>
      <trkpt lat="41.3758470" lon="1.1406190">
        <ele>480.3</ele>
        <time>2021-09-30T08:55:38Z</time>
      </trkpt>
      <trkpt lat="41.3758660" lon="1.1406140">
        <ele>480.1</ele>
        <time>2021-09-30T08:55:39Z</time>
      </trkpt>
      <trkpt lat="41.3758860" lon="1.1406090">
        <ele>479.9</ele>
        <time>2021-09-30T08:55:40Z</time>
      </trkpt>
      <trkpt lat="41.3759050" lon="1.1406030">
        <ele>479.6</ele>
        <time>2021-09-30T08:55:41Z</time>
      </trkpt>
      <trkpt lat="41.3759250" lon="1.1405980">
        <ele>479.4</ele>
        <time>2021-09-30T08:55:42Z</time>
      </trkpt>
      <trkpt lat="41.3759440" lon="1.1405930">
        <ele>479.2</ele>
        <time>2021-09-30T08:55:43Z</time>
      </trkpt>
      <trkpt lat="41.3759640" lon="1.1405880">
        <ele>479.0</ele>
        <time>2021-09-30T08:55:44Z</time>
      </trkpt>
      <trkpt lat="41.3759830" lon="1.1405820">
        <ele>478.7</ele>
        <time>2021-09-30T08:55:45Z</time>
      </trkpt>
      <trkpt lat="41.3760020" lon="1.1405770">
        <ele>478.4</ele>
        <time>2021-09-30T08:55:46Z</time>
      </trkpt>
      <trkpt lat="41.3760220" lon="1.1405720">
        <ele>478.1</ele>
        <time>2021-09-30T08:55:47Z</time>
      </trkpt>
      <trkpt lat="41.3760410" lon="1.1405670">
        <ele>477.8</ele>
        <time>2021-09-30T08:55:48Z</time>
      </trkpt>
      <trkpt lat="41.3760610" lon="1.1405610">
        <ele>477.4</ele>
        <time>2021-09-30T08:55:49Z</time>
      </trkpt>
      <trkpt lat="41.3760800" lon="1.1405560">
        <ele>477.0</ele>
        <time>2021-09-30T08:55:50Z</time>
      </trkpt>
      <trkpt lat="41.3761060" lon="1.1405480">
        <ele>476.4</ele>
        <time>2021-09-30T08:55:51Z</time>
      </trkpt>
      <trkpt lat="41.3761310" lon="1.1405400">
        <ele>475.9</ele>
        <time>2021-09-30T08:55:52Z</time>
      </trkpt>
      <trkpt lat="41.3761570" lon="1.1405320">
        <ele>475.2</ele>
        <time>2021-09-30T08:55:53Z</time>
      </trkpt>
      <trkpt lat="41.3761820" lon="1.1405240">
        <ele>474.6</ele>
        <time>2021-09-30T08:55:54Z</time>
      </trkpt>
      <trkpt lat="41.3762080" lon="1.1405160">
        <ele>473.9</ele>
        <time>2021-09-30T08:55:55Z</time>
      </trkpt>
      <trkpt lat="41.3762340" lon="1.1405070">
        <ele>473.2</ele>
        <time>2021-09-30T08:55:56Z</time>
      </trkpt>
      <trkpt lat="41.3762590" lon="1.1404990">
        <ele>472.4</ele>
        <time>2021-09-30T08:55:57Z</time>
      </trkpt>
      <trkpt lat="41.3762850" lon="1.1404910">
        <ele>471.6</ele>
        <time>2021-09-30T08:55:58Z</time>
      </trkpt>
      <trkpt lat="41.3763100" lon="1.1404830">
        <ele>470.8</ele>
        <time>2021-09-30T08:55:59Z</time>
      </trkpt>
      <trkpt lat="41.3763360" lon="1.1404750">
        <ele>469.9</ele>
        <time>2021-09-30T08:56:00Z</time>
      </trkpt>
      <trkpt lat="41.3763510" lon="1.1404710">
        <ele>469.4</ele>
        <time>2021-09-30T08:56:01Z</time>
      </trkpt>
      <trkpt lat="41.3763650" lon="1.1404670">
        <ele>468.9</ele>
        <time>2021-09-30T08:56:02Z</time>
      </trkpt>
      <trkpt lat="41.3763800" lon="1.1404630">
        <ele>468.4</ele>
        <time>2021-09-30T08:56:03Z</time>
      </trkpt>
      <trkpt lat="41.3763940" lon="1.1404590">
        <ele>467.9</ele>
        <time>2021-09-30T08:56:04Z</time>
      </trkpt>
      <trkpt lat="41.3764090" lon="1.1404550">
        <ele>467.4</ele>
        <time>2021-09-30T08:56:05Z</time>
      </trkpt>
      <trkpt lat="41.3764230" lon="1.1404500">
        <ele>466.9</ele>
        <time>2021-09-30T08:56:06Z</time>
      </trkpt>
      <trkpt lat="41.3764380" lon="1.1404460">
        <ele>466.3</ele>
        <time>2021-09-30T08:56:07Z</time>
      </trkpt>
      <trkpt lat="41.3764520" lon="1.1404420">
        <ele>465.8</ele>
        <time>2021-09-30T08:56:08Z</time>
      </trkpt>
      <trkpt lat="41.3764670" lon="1.1404380">
        <ele>465.3</ele>
        <time>2021-09-30T08:56:09Z</time>
      </trkpt>
      <trkpt lat="41.3764810" lon="1.1404340">
        <ele>464.8</ele>
        <time>2021-09-30T08:56:10Z</time>
      </trkpt>
      <trkpt lat="41.3764930" lon="1.1404200">
        <ele>464.2</ele>
        <time>2021-09-30T08:56:11Z</time>
      </trkpt>
      <trkpt lat="41.3765050" lon="1.1404070">
        <ele>463.6</ele>
        <time>2021-09-30T08:56:12Z</time>
      </trkpt>
      <trkpt lat="41.3765170" lon="1.1403930">
        <ele>463.1</ele>
        <time>2021-09-30T08:56:13Z</time>
      </trkpt>
      <trkpt lat="41.3765290" lon="1.1403790">
        <ele>462.5</ele>
        <time>2021-09-30T08:56:14Z</time>
      </trkpt>
      <trkpt lat="41.3765410" lon="1.1403660">
        <ele>462.0</ele>
        <time>2021-09-30T08:56:15Z</time>
      </trkpt>
      <trkpt lat="41.3765530" lon="1.1403520">
        <ele>461.4</ele>
        <time>2021-09-30T08:56:16Z</time>
      </trkpt>
      <trkpt lat="41.3765650" lon="1.1403380">
        <ele>460.8</ele>
        <time>2021-09-30T08:56:17Z</time>
      </trkpt>
      <trkpt lat="41.3765770" lon="1.1403240">
        <ele>460.3</ele>
        <time>2021-09-30T08:56:18Z</time>
      </trkpt>
      <trkpt lat="41.3765890" lon="1.1403110">
        <ele>459.7</ele>
        <time>2021-09-30T08:56:19Z</time>
      </trkpt>
      <trkpt lat="41.3766010" lon="1.1402970">
        <ele>459.1</ele>
        <time>2021-09-30T08:56:20Z</time>
      </trkpt>
      <trkpt lat="41.3766150" lon="1.1402780">
        <ele>458.4</ele>
        <time>2021-09-30T08:56:21Z</time>
      </trkpt>
      <trkpt lat="41.3766280" lon="1.1402580">
        <ele>457.7</ele>
        <time>2021-09-30T08:56:22Z</time>
      </trkpt>
      <trkpt lat="41.3766420" lon="1.1402390">
        <ele>457.0</ele>
        <time>2021-09-30T08:56:23Z</time>
      </trkpt>
      <trkpt lat="41.3766560" lon="1.1402190">
        <ele>456.3</ele>
        <time>2021-09-30T08:56:24Z</time>
      </trkpt>
      <trkpt lat="41.3766690" lon="1.1402000">
        <ele>455.6</ele>
        <time>2021-09-30T08:56:25Z</time>
      </trkpt>
      <trkpt lat="41.3766830" lon="1.1401800">
        <ele>454.9</ele>
        <time>2021-09-30T08:56:26Z</time>
      </trkpt>
      <trkpt lat="41.3766960" lon="1.1401610">
        <ele>454.2</ele>
        <time>2021-09-30T08:56:27Z</time>
      </trkpt>
      <trkpt lat="41.3767100" lon="1.1401410">
        <ele>453.4</ele>
        <time>2021-09-30T08:56:28Z</time>
      </trkpt>
      <trkpt lat="41.3767240" lon="1.1401220">
        <ele>452.7</ele>
        <time>2021-09-30T08:56:29Z</time>
      </trkpt>
      <trkpt lat="41.3767370" lon="1.1401020">
        <ele>452.1</ele>
        <time>2021-09-30T08:56:30Z</time>
      </trkpt>
      <trkpt lat="41.3767510" lon="1.1400830">
        <ele>451.4</ele>
        <time>2021-09-30T08:56:31Z</time>
      </trkpt>
      <trkpt lat="41.3767790" lon="1.1400900">
        <ele>450.4</ele>
        <time>2021-09-30T08:56:32Z</time>
      </trkpt>
      <trkpt lat="41.3768060" lon="1.1400960">
        <ele>449.5</ele>
        <time>2021-09-30T08:56:33Z</time>
      </trkpt>
      <trkpt lat="41.3768340" lon="1.1401030">
        <ele>448.6</ele>
        <time>2021-09-30T08:56:34Z</time>
      </trkpt>
      <trkpt lat="41.3768610" lon="1.1401090">
        <ele>447.8</ele>
        <time>2021-09-30T08:56:35Z</time>
      </trkpt>
      <trkpt lat="41.3768890" lon="1.1401160">
        <ele>446.9</ele>
        <time>2021-09-30T08:56:36Z</time>
      </trkpt>
      <trkpt lat="41.3769160" lon="1.1401220">
        <ele>446.1</ele>
        <time>2021-09-30T08:56:37Z</time>
      </trkpt>
      <trkpt lat="41.3769440" lon="1.1401290">
        <ele>445.3</ele>
        <time>2021-09-30T08:56:38Z</time>
      </trkpt>
      <trkpt lat="41.3769710" lon="1.1401350">
        <ele>444.5</ele>
        <time>2021-09-30T08:56:39Z</time>
      </trkpt>
      <trkpt lat="41.3769990" lon="1.1401420">
        <ele>443.7</ele>
        <time>2021-09-30T08:56:40Z</time>
      </trkpt>
      <trkpt lat="41.3770020" lon="1.1401460">
        <ele>443.6</ele>
        <time>2021-09-30T08:56:41Z</time>
      </trkpt>
      <trkpt lat="41.3770050" lon="1.1401500">
        <ele>443.4</ele>
        <time>2021-09-30T08:56:42Z</time>
      </trkpt>
      <trkpt lat="41.3770070" lon="1.1401540">
        <ele>443.3</ele>
        <time>2021-09-30T08:56:43Z</time>
      </trkpt>
      <trkpt lat="41.3770100" lon="1.1401580">
        <ele>443.2</ele>
        <time>2021-09-30T08:56:44Z</time>
      </trkpt>
      <trkpt lat="41.3770130" lon="1.1401620">
        <ele>443.1</ele>
        <time>2021-09-30T08:56:45Z</time>
      </trkpt>
      <trkpt lat="41.3770160" lon="1.1401650">
        <ele>443.0</ele>
        <time>2021-09-30T08:56:46Z</time>
      </trkpt>
      <trkpt lat="41.3770190" lon="1.1401690">
        <ele>442.9</ele>
        <time>2021-09-30T08:56:47Z</time>
      </trkpt>
      <trkpt lat="41.3770220" lon="1.1401730">
        <ele>442.7</ele>
        <time>2021-09-30T08:56:48Z</time>
      </trkpt>
      <trkpt lat="41.3770240" lon="1.1401770">
        <ele>442.6</ele>
        <time>2021-09-30T08:56:49Z</time>
      </trkpt>
      <trkpt lat="41.3770270" lon="1.1401810">
        <ele>442.5</ele>
        <time>2021-09-30T08:56:50Z</time>
      </trkpt>
      <trkpt lat="41.3770300" lon="1.1401850">
        <ele>442.4</ele>
        <time>2021-09-30T08:56:51Z</time>
      </trkpt>
      <trkpt lat="41.3770330" lon="1.1401890">
        <ele>442.3</ele>
        <time>2021-09-30T08:56:52Z</time>
      </trkpt>
      <trkpt lat="41.3770360" lon="1.1401930">
        <ele>442.2</ele>
        <time>2021-09-30T08:56:53Z</time>
      </trkpt>
      <trkpt lat="41.3770380" lon="1.1401970">
        <ele>442.1</ele>
        <time>2021-09-30T08:56:54Z</time>
      </trkpt>
      <trkpt lat="41.3770410" lon="1.1402010">
        <ele>442.0</ele>
        <time>2021-09-30T08:56:55Z</time>
      </trkpt>
      <trkpt lat="41.3770440" lon="1.1402050">
        <ele>442.0</ele>
        <time>2021-09-30T08:56:56Z</time>
      </trkpt>
      <trkpt lat="41.3770470" lon="1.1402080">
        <ele>442.0</ele>
        <time>2021-09-30T08:56:57Z</time>
      </trkpt>
      <trkpt lat="41.3770500" lon="1.1402120">
        <ele>442.0</ele>
        <time>2021-09-30T08:56:58Z</time>
      </trkpt>
      <trkpt lat="41.3770530" lon="1.1402160">
        <ele>442.0</ele>
        <time>2021-09-30T08:56:59Z</time>
      </trkpt>
      <trkpt lat="41.3770550" lon="1.1402200">
        <ele>442.0</ele>
        <time>2021-09-30T08:57:00Z</time>
      </trkpt>
      <trkpt lat="41.3770580" lon="1.1402240">
        <ele>442.0</ele>
        <time>2021-09-30T08:57:01Z</time>
      </trkpt>
      <trkpt lat="41.3770610" lon="1.1402280">
        <ele>442.0</ele>
        <time>2021-09-30T08:57:02Z</time>
      </trkpt>
      <trkpt lat="41.3770750" lon="1.1402410">
        <ele>441.9</ele>
        <time>2021-09-30T08:57:03Z</time>
      </trkpt>
      <trkpt lat="41.3770890" lon="1.1402550">
        <ele>441.9</ele>
        <time>2021-09-30T08:57:04Z</time>
      </trkpt>
      <trkpt lat="41.3771030" lon="1.1402680">
        <ele>441.8</ele>
        <time>2021-09-30T08:57:05Z</time>
      </trkpt>
      <trkpt lat="41.3771170" lon="1.1402820">
        <ele>441.8</ele>
        <time>2021-09-30T08:57:06Z</time>
      </trkpt>
      <trkpt lat="41.3771310" lon="1.1402950">
        <ele>441.8</ele>
        <time>2021-09-30T08:57:07Z</time>
      </trkpt>
      <trkpt lat="41.3771440" lon="1.1403090">
        <ele>441.7</ele>
        <time>2021-09-30T08:57:08Z</time>
      </trkpt>
      <trkpt lat="41.3771580" lon="1.1403220">
        <ele>441.7</ele>
        <time>2021-09-30T08:57:09Z</time>
      </trkpt>
      <trkpt lat="41.3771720" lon="1.1403360">
        <ele>441.6</ele>
        <time>2021-09-30T08:57:10Z</time>
      </trkpt>
      <trkpt lat="41.3771860" lon="1.1403490">
        <ele>441.6</ele>
        <time>2021-09-30T08:57:11Z</time>
      </trkpt>
      <trkpt lat="41.3772000" lon="1.1403630">
        <ele>441.5</ele>
        <time>2021-09-30T08:57:12Z</time>
      </trkpt>
      <trkpt lat="41.3771920" lon="1.1403540">
        <ele>441.5</ele>
        <time>2021-09-30T08:57:13Z</time>
      </trkpt>
      <trkpt lat="41.3771830" lon="1.1403440">
        <ele>441.6</ele>
        <time>2021-09-30T08:57:14Z</time>
      </trkpt>
      <trkpt lat="41.3771750" lon="1.1403350">
        <ele>441.6</ele>
        <time>2021-09-30T08:57:15Z</time>
      </trkpt>
      <trkpt lat="41.3771670" lon="1.1403260">
        <ele>441.6</ele>
        <time>2021-09-30T08:57:16Z</time>
      </trkpt>
      <trkpt lat="41.3771580" lon="1.1403170">
        <ele>441.7</ele>
        <time>2021-09-30T08:57:17Z</time>
      </trkpt>
      <trkpt lat="41.3771500" lon="1.1403070">
        <ele>441.7</ele>
        <time>2021-09-30T08:57:18Z</time>
      </trkpt>
      <trkpt lat="41.3771420" lon="1.1402980">
        <ele>441.7</ele>
        <time>2021-09-30T08:57:19Z</time>
      </trkpt>
      <trkpt lat="41.3771330" lon="1.1402890">
        <ele>441.8</ele>
        <time>2021-09-30T08:57:20Z</time>
      </trkpt>
      <trkpt lat="41.3771250" lon="1.1402800">
        <ele>441.8</ele>
        <time>2021-09-30T08:57:21Z</time>
      </trkpt>
      <trkpt lat="41.3771170" lon="1.1402700">
        <ele>441.8</ele>
        <time>2021-09-30T08:57:22Z</time>
      </trkpt>
      <trkpt lat="41.3771080" lon="1.1402610">
        <ele>441.8</ele>
        <time>2021-09-30T08:57:23Z</time>
      </trkpt>
      <trkpt lat="41.3771000" lon="1.1402520">
        <ele>441.9</ele>
        <time>2021-09-30T08:57:24Z</time>
      </trkpt>
      <trkpt lat="41.3770820" lon="1.1402260">
        <ele>441.9</ele>
        <time>2021-09-30T08:57:25Z</time>
      </trkpt>
      <trkpt lat="41.3770650" lon="1.1401990">
        <ele>442.0</ele>
        <time>2021-09-30T08:57:26Z</time>
      </trkpt>
      <trkpt lat="41.3770470" lon="1.1401730">
        <ele>442.1</ele>
        <time>2021-09-30T08:57:27Z</time>
      </trkpt>
      <trkpt lat="41.3770290" lon="1.1401470">
        <ele>442.2</ele>
        <time>2021-09-30T08:57:28Z</time>
      </trkpt>
      <trkpt lat="41.3770120" lon="1.1401210">
        <ele>442.2</ele>
        <time>2021-09-30T08:57:29Z</time>
      </trkpt>
      <trkpt lat="41.3769940" lon="1.1400940">
        <ele>442.3</ele>
        <time>2021-09-30T08:57:30Z</time>
      </trkpt>
      <trkpt lat="41.3769770" lon="1.1400680">
        <ele>442.4</ele>
        <time>2021-09-30T08:57:31Z</time>
      </trkpt>
      <trkpt lat="41.3769590" lon="1.1400420">
        <ele>442.4</ele>
        <time>2021-09-30T08:57:32Z</time>
      </trkpt>
      <trkpt lat="41.3769410" lon="1.1400160">
        <ele>442.5</ele>
        <time>2021-09-30T08:57:33Z</time>
      </trkpt>
      <trkpt lat="41.3769240" lon="1.1399890">
        <ele>442.6</ele>
        <time>2021-09-30T08:57:34Z</time>
      </trkpt>
      <trkpt lat="41.3769060" lon="1.1399630">
        <ele>442.7</ele>
        <time>2021-09-30T08:57:35Z</time>
      </trkpt>
      <trkpt lat="41.3769040" lon="1.1399630">
        <ele>442.7</ele>
        <time>2021-09-30T08:57:36Z</time>
      </trkpt>
      <trkpt lat="41.3769010" lon="1.1399620">
        <ele>442.7</ele>
        <time>2021-09-30T08:57:37Z</time>
      </trkpt>
      <trkpt lat="41.3768990" lon="1.1399620">
        <ele>442.7</ele>
        <time>2021-09-30T08:57:38Z</time>
      </trkpt>
      <trkpt lat="41.3768960" lon="1.1399620">
        <ele>442.7</ele>
        <time>2021-09-30T08:57:39Z</time>
      </trkpt>
      <trkpt lat="41.3768940" lon="1.1399620">
        <ele>442.7</ele>
        <time>2021-09-30T08:57:40Z</time>
      </trkpt>
      <trkpt lat="41.3768920" lon="1.1399610">
        <ele>442.7</ele>
        <time>2021-09-30T08:57:41Z</time>
      </trkpt>
      <trkpt lat="41.3768890" lon="1.1399610">
        <ele>442.7</ele>
        <time>2021-09-30T08:57:42Z</time>
      </trkpt>
      <trkpt lat="41.3768870" lon="1.1399610">
        <ele>442.7</ele>
        <time>2021-09-30T08:57:43Z</time>
      </trkpt>
      <trkpt lat="41.3768850" lon="1.1399610">
        <ele>442.7</ele>
        <time>2021-09-30T08:57:44Z</time>
      </trkpt>
      <trkpt lat="41.3768820" lon="1.1399600">
        <ele>442.7</ele>
        <time>2021-09-30T08:57:45Z</time>
      </trkpt>
      <trkpt lat="41.3768800" lon="1.1399600">
        <ele>442.7</ele>
        <time>2021-09-30T08:57:46Z</time>
      </trkpt>
      <trkpt lat="41.3768770" lon="1.1399600">
        <ele>442.7</ele>
        <time>2021-09-30T08:57:47Z</time>
      </trkpt>
      <trkpt lat="41.3768750" lon="1.1399590">
        <ele>442.7</ele>
        <time>2021-09-30T08:57:48Z</time>
      </trkpt>
      <trkpt lat="41.3768730" lon="1.1399590">
        <ele>442.8</ele>
        <time>2021-09-30T08:57:49Z</time>
      </trkpt>
      <trkpt lat="41.3768700" lon="1.1399590">
        <ele>442.8</ele>
        <time>2021-09-30T08:57:50Z</time>
      </trkpt>
      <trkpt lat="41.3768680" lon="1.1399590">
        <ele>442.8</ele>
        <time>2021-09-30T08:57:51Z</time>
      </trkpt>
      <trkpt lat="41.3768660" lon="1.1399580">
        <ele>442.8</ele>
        <time>2021-09-30T08:57:52Z</time>
      </trkpt>
      <trkpt lat="41.3768630" lon="1.1399580">
        <ele>442.8</ele>
        <time>2021-09-30T08:57:53Z</time>
      </trkpt>
      <trkpt lat="41.3768610" lon="1.1399580">
        <ele>442.8</ele>
        <time>2021-09-30T08:57:54Z</time>
      </trkpt>
      <trkpt lat="41.3768580" lon="1.1399580">
        <ele>442.8</ele>
        <time>2021-09-30T08:57:55Z</time>
      </trkpt>
      <trkpt lat="41.3768560" lon="1.1399570">
        <ele>442.8</ele>
        <time>2021-09-30T08:57:56Z</time>
      </trkpt>
      <trkpt lat="41.3768540" lon="1.1399570">
        <ele>442.8</ele>
        <time>2021-09-30T08:57:57Z</time>
      </trkpt>
      <trkpt lat="41.3768510" lon="1.1399570">
        <ele>442.8</ele>
        <time>2021-09-30T08:57:58Z</time>
      </trkpt>
      <trkpt lat="41.3768490" lon="1.1399570">
        <ele>442.8</ele>
        <time>2021-09-30T08:57:59Z</time>
      </trkpt>
      <trkpt lat="41.3768460" lon="1.1399560">
        <ele>442.8</ele>
        <time>2021-09-30T08:58:00Z</time>
      </trkpt>
      <trkpt lat="41.3768440" lon="1.1399560">
        <ele>442.8</ele>
        <time>2021-09-30T08:58:01Z</time>
      </trkpt>
      <trkpt lat="41.3768420" lon="1.1399560">
        <ele>442.8</ele>
        <time>2021-09-30T08:58:02Z</time>
      </trkpt>
      <trkpt lat="41.3768390" lon="1.1399550">
        <ele>442.9</ele>
        <time>2021-09-30T08:58:03Z</time>
      </trkpt>
      <trkpt lat="41.3768370" lon="1.1399550">
        <ele>442.9</ele>
        <time>2021-09-30T08:58:04Z</time>
      </trkpt>
      <trkpt lat="41.3768350" lon="1.1399550">
        <ele>442.9</ele>
        <time>2021-09-30T08:58:05Z</time>
      </trkpt>
      <trkpt lat="41.3768320" lon="1.1399550">
        <ele>442.9</ele>
        <time>2021-09-30T08:58:06Z</time>
      </trkpt>
      <trkpt lat="41.3768300" lon="1.1399540">
        <ele>442.9</ele>
        <time>2021-09-30T08:58:07Z</time>
      </trkpt>
      <trkpt lat="41.3768270" lon="1.1399540">
        <ele>442.9</ele>
        <time>2021-09-30T08:58:08Z</time>
      </trkpt>
      <trkpt lat="41.3768250" lon="1.1399540">
        <ele>442.9</ele>
        <time>2021-09-30T08:58:09Z</time>
      </trkpt>
      <trkpt lat="41.3768230" lon="1.1399540">
        <ele>442.9</ele>
        <time>2021-09-30T08:58:10Z</time>
      </trkpt>
      <trkpt lat="41.3768200" lon="1.1399530">
        <ele>442.9</ele>
        <time>2021-09-30T08:58:11Z</time>
      </trkpt>
      <trkpt lat="41.3768180" lon="1.1399530">
        <ele>442.9</ele>
        <time>2021-09-30T08:58:12Z</time>
      </trkpt>
      <trkpt lat="41.3768160" lon="1.1399530">
        <ele>442.9</ele>
        <time>2021-09-30T08:58:13Z</time>
      </trkpt>
      <trkpt lat="41.3768130" lon="1.1399520">
        <ele>442.9</ele>
        <time>2021-09-30T08:58:14Z</time>
      </trkpt>
      <trkpt lat="41.3768110" lon="1.1399520">
        <ele>442.9</ele>
        <time>2021-09-30T08:58:15Z</time>
      </trkpt>
      <trkpt lat="41.3768080" lon="1.1399520">
        <ele>442.9</ele>
        <time>2021-09-30T08:58:16Z</time>
      </trkpt>
      <trkpt lat="41.3768060" lon="1.1399520">
        <ele>442.9</ele>
        <time>2021-09-30T08:58:17Z</time>
      </trkpt>
      <trkpt lat="41.3768040" lon="1.1399510">
        <ele>443.0</ele>
        <time>2021-09-30T08:58:18Z</time>
      </trkpt>
      <trkpt lat="41.3768010" lon="1.1399510">
        <ele>443.0</ele>
        <time>2021-09-30T08:58:19Z</time>
      </trkpt>
      <trkpt lat="41.3767990" lon="1.1399510">
        <ele>443.0</ele>
        <time>2021-09-30T08:58:20Z</time>
      </trkpt>
      <trkpt lat="41.3767960" lon="1.1399510">
        <ele>443.0</ele>
        <time>2021-09-30T08:58:21Z</time>
      </trkpt>
      <trkpt lat="41.3767940" lon="1.1399500">
        <ele>443.0</ele>
        <time>2021-09-30T08:58:22Z</time>
      </trkpt>
      <trkpt lat="41.3767920" lon="1.1399500">
        <ele>443.0</ele>
        <time>2021-09-30T08:58:23Z</time>
      </trkpt>
      <trkpt lat="41.3767890" lon="1.1399500">
        <ele>443.0</ele>
        <time>2021-09-30T08:58:24Z</time>
      </trkpt>
      <trkpt lat="41.3767870" lon="1.1399500">
        <ele>443.0</ele>
        <time>2021-09-30T08:58:25Z</time>
      </trkpt>
      <trkpt lat="41.3767850" lon="1.1399490">
        <ele>443.0</ele>
        <time>2021-09-30T08:58:26Z</time>
      </trkpt>
      <trkpt lat="41.3767820" lon="1.1399490">
        <ele>443.0</ele>
        <time>2021-09-30T08:58:27Z</time>
      </trkpt>
      <trkpt lat="41.3767800" lon="1.1399490">
        <ele>443.0</ele>
        <time>2021-09-30T08:58:28Z</time>
      </trkpt>
      <trkpt lat="41.3767770" lon="1.1399480">
        <ele>443.0</ele>
        <time>2021-09-30T08:58:29Z</time>
      </trkpt>
      <trkpt lat="41.3767750" lon="1.1399480">
        <ele>443.0</ele>
        <time>2021-09-30T08:58:30Z</time>
      </trkpt>
      <trkpt lat="41.3767730" lon="1.1399480">
        <ele>443.0</ele>
        <time>2021-09-30T08:58:31Z</time>
      </trkpt>
      <trkpt lat="41.3767700" lon="1.1399480">
        <ele>443.1</ele>
        <time>2021-09-30T08:58:32Z</time>
      </trkpt>
      <trkpt lat="41.3767680" lon="1.1399470">
        <ele>443.1</ele>
        <time>2021-09-30T08:58:33Z</time>
      </trkpt>
      <trkpt lat="41.3767660" lon="1.1399470">
        <ele>443.1</ele>
        <time>2021-09-30T08:58:34Z</time>
      </trkpt>
      <trkpt lat="41.3767630" lon="1.1399470">
        <ele>443.1</ele>
        <time>2021-09-30T08:58:35Z</time>
      </trkpt>
      <trkpt lat="41.3767610" lon="1.1399470">
        <ele>443.1</ele>
        <time>2021-09-30T08:58:36Z</time>
      </trkpt>
      <trkpt lat="41.3767580" lon="1.1399460">
        <ele>443.1</ele>
        <time>2021-09-30T08:58:37Z</time>
      </trkpt>
      <trkpt lat="41.3767560" lon="1.1399460">
        <ele>443.1</ele>
        <time>2021-09-30T08:58:38Z</time>
      </trkpt>
      <trkpt lat="41.3767470" lon="1.1399710">
        <ele>443.2</ele>
        <time>2021-09-30T08:58:39Z</time>
      </trkpt>
      <trkpt lat="41.3767370" lon="1.1399950">
        <ele>443.2</ele>
        <time>2021-09-30T08:58:40Z</time>
      </trkpt>
      <trkpt lat="41.3767280" lon="1.1400200">
        <ele>443.3</ele>
        <time>2021-09-30T08:58:41Z</time>
      </trkpt>
      <trkpt lat="41.3767180" lon="1.1400450">
        <ele>443.3</ele>
        <time>2021-09-30T08:58:42Z</time>
      </trkpt>
      <trkpt lat="41.3767090" lon="1.1400700">
        <ele>443.4</ele>
        <time>2021-09-30T08:58:43Z</time>
      </trkpt>
      <trkpt lat="41.3767000" lon="1.1400940">
        <ele>443.5</ele>
        <time>2021-09-30T08:58:44Z</time>
      </trkpt>
      <trkpt lat="41.3766900" lon="1.1401190">
        <ele>443.5</ele>
        <time>2021-09-30T08:58:45Z</time>
      </trkpt>
      <trkpt lat="41.3766810" lon="1.1401440">
        <ele>443.6</ele>
        <time>2021-09-30T08:58:46Z</time>
      </trkpt>
      <trkpt lat="41.3766710" lon="1.1401680">
        <ele>443.6</ele>
        <time>2021-09-30T08:58:47Z</time>
      </trkpt>
      <trkpt lat="41.3766620" lon="1.1401930">
        <ele>443.7</ele>
        <time>2021-09-30T08:58:48Z</time>
      </trkpt>
      <trkpt lat="41.3766790" lon="1.1401830">
        <ele>443.7</ele>
        <time>2021-09-30T08:58:49Z</time>
      </trkpt>
      <trkpt lat="41.3766960" lon="1.1401730">
        <ele>443.8</ele>
        <time>2021-09-30T08:58:50Z</time>
      </trkpt>
      <trkpt lat="41.3767130" lon="1.1401640">
        <ele>443.9</ele>
        <time>2021-09-30T08:58:51Z</time>
      </trkpt>
      <trkpt lat="41.3767300" lon="1.1401540">
        <ele>443.9</ele>
        <time>2021-09-30T08:58:52Z</time>
      </trkpt>
      <trkpt lat="41.3767470" lon="1.1401440">
        <ele>444.0</ele>
        <time>2021-09-30T08:58:53Z</time>
      </trkpt>
      <trkpt lat="41.3767630" lon="1.1401340">
        <ele>444.0</ele>
        <time>2021-09-30T08:58:54Z</time>
      </trkpt>
      <trkpt lat="41.3767800" lon="1.1401240">
        <ele>444.1</ele>
        <time>2021-09-30T08:58:55Z</time>
      </trkpt>
      <trkpt lat="41.3767970" lon="1.1401150">
        <ele>444.2</ele>
        <time>2021-09-30T08:58:56Z</time>
      </trkpt>
      <trkpt lat="41.3768140" lon="1.1401050">
        <ele>444.2</ele>
        <time>2021-09-30T08:58:57Z</time>
      </trkpt>
      <trkpt lat="41.3768310" lon="1.1400950">
        <ele>444.3</ele>
        <time>2021-09-30T08:58:58Z</time>
      </trkpt>
      <trkpt lat="41.3768470" lon="1.1400690">
        <ele>444.4</ele>
        <time>2021-09-30T08:58:59Z</time>
      </trkpt>
      <trkpt lat="41.3768630" lon="1.1400440">
        <ele>444.5</ele>
        <time>2021-09-30T08:59:00Z</time>
      </trkpt>
      <trkpt lat="41.3768800" lon="1.1400180">
        <ele>444.6</ele>
        <time>2021-09-30T08:59:01Z</time>
      </trkpt>
      <trkpt lat="41.3768960" lon="1.1399930">
        <ele>444.7</ele>
        <time>2021-09-30T08:59:02Z</time>
      </trkpt>
      <trkpt lat="41.3769120" lon="1.1399670">
        <ele>444.8</ele>
        <time>2021-09-30T08:59:03Z</time>
      </trkpt>
      <trkpt lat="41.3769280" lon="1.1399420">
        <ele>445.0</ele>
        <time>2021-09-30T08:59:04Z</time>
      </trkpt>
      <trkpt lat="41.3769450" lon="1.1399160">
        <ele>445.1</ele>
        <time>2021-09-30T08:59:05Z</time>
      </trkpt>
      <trkpt lat="41.3769610" lon="1.1398910">
        <ele>445.2</ele>
        <time>2021-09-30T08:59:06Z</time>
      </trkpt>
      <trkpt lat="41.3769770" lon="1.1398650">
        <ele>445.3</ele>
        <time>2021-09-30T08:59:07Z</time>
      </trkpt>
      <trkpt lat="41.3769810" lon="1.1398420">
        <ele>445.4</ele>
        <time>2021-09-30T08:59:08Z</time>
      </trkpt>
      <trkpt lat="41.3769840" lon="1.1398190">
        <ele>445.5</ele>
        <time>2021-09-30T08:59:09Z</time>
      </trkpt>
      <trkpt lat="41.3769880" lon="1.1397970">
        <ele>445.6</ele>
        <time>2021-09-30T08:59:10Z</time>
      </trkpt>
      <trkpt lat="41.3769920" lon="1.1397740">
        <ele>445.7</ele>
        <time>2021-09-30T08:59:11Z</time>
      </trkpt>
      <trkpt lat="41.3769950" lon="1.1397510">
        <ele>445.8</ele>
        <time>2021-09-30T08:59:12Z</time>
      </trkpt>
      <trkpt lat="41.3769990" lon="1.1397280">
        <ele>445.9</ele>
        <time>2021-09-30T08:59:13Z</time>
      </trkpt>
      <trkpt lat="41.3770020" lon="1.1397050">
        <ele>446.0</ele>
        <time>2021-09-30T08:59:14Z</time>
      </trkpt>
      <trkpt lat="41.3770060" lon="1.1396820">
        <ele>446.1</ele>
        <time>2021-09-30T08:59:15Z</time>
      </trkpt>
      <trkpt lat="41.3770100" lon="1.1396600">
        <ele>446.2</ele>
        <time>2021-09-30T08:59:16Z</time>
      </trkpt>
      <trkpt lat="41.3770130" lon="1.1396370">
        <ele>446.3</ele>
        <time>2021-09-30T08:59:17Z</time>
      </trkpt>
      <trkpt lat="41.3770170" lon="1.1396140">
        <ele>446.4</ele>
        <time>2021-09-30T08:59:18Z</time>
      </trkpt>
      <trkpt lat="41.3770130" lon="1.1395870">
        <ele>446.5</ele>
        <time>2021-09-30T08:59:19Z</time>
      </trkpt>
      <trkpt lat="41.3770090" lon="1.1395600">
        <ele>446.7</ele>
        <time>2021-09-30T08:59:20Z</time>
      </trkpt>
      <trkpt lat="41.3770060" lon="1.1395330">
        <ele>446.8</ele>
        <time>2021-09-30T08:59:21Z</time>
      </trkpt>
      <trkpt lat="41.3770020" lon="1.1395060">
        <ele>446.9</ele>
        <time>2021-09-30T08:59:22Z</time>
      </trkpt>
      <trkpt lat="41.3769980" lon="1.1394790">
        <ele>447.0</ele>
        <time>2021-09-30T08:59:23Z</time>
      </trkpt>
      <trkpt lat="41.3769940" lon="1.1394530">
        <ele>447.1</ele>
        <time>2021-09-30T08:59:24Z</time>
      </trkpt>
      <trkpt lat="41.3769900" lon="1.1394260">
        <ele>447.3</ele>
        <time>2021-09-30T08:59:25Z</time>
      </trkpt>
      <trkpt lat="41.3769860" lon="1.1393990">
        <ele>447.4</ele>
        <time>2021-09-30T08:59:26Z</time>
      </trkpt>
      <trkpt lat="41.3769830" lon="1.1393720">
        <ele>447.5</ele>
        <time>2021-09-30T08:59:27Z</time>
      </trkpt>
      <trkpt lat="41.3769790" lon="1.1393450">
        <ele>447.6</ele>
        <time>2021-09-30T08:59:28Z</time>
      </trkpt>
      <trkpt lat="41.3769750" lon="1.1393180">
        <ele>447.7</ele>
        <time>2021-09-30T08:59:29Z</time>
      </trkpt>
      <trkpt lat="41.3769750" lon="1.1393070">
        <ele>447.8</ele>
        <time>2021-09-30T08:59:30Z</time>
      </trkpt>
      <trkpt lat="41.3769750" lon="1.1392970">
        <ele>447.9</ele>
        <time>2021-09-30T08:59:31Z</time>
      </trkpt>
      <trkpt lat="41.3769750" lon="1.1392860">
        <ele>447.8</ele>
        <time>2021-09-30T08:59:32Z</time>
      </trkpt>
      <trkpt lat="41.3769750" lon="1.1392750">
        <ele>447.7</ele>
        <time>2021-09-30T08:59:33Z</time>
      </trkpt>
      <trkpt lat="41.3769750" lon="1.1392650">
        <ele>447.7</ele>
        <time>2021-09-30T08:59:34Z</time>
      </trkpt>
      <trkpt lat="41.3769760" lon="1.1392540">
        <ele>447.6</ele>
        <time>2021-09-30T08:59:35Z</time>
      </trkpt>
      <trkpt lat="41.3769760" lon="1.1392430">
        <ele>447.6</ele>
        <time>2021-09-30T08:59:36Z</time>
      </trkpt>
      <trkpt lat="41.3769760" lon="1.1392330">
        <ele>447.5</ele>
        <time>2021-09-30T08:59:37Z</time>
      </trkpt>
      <trkpt lat="41.3769760" lon="1.1392220">
        <ele>447.5</ele>
        <time>2021-09-30T08:59:38Z</time>
      </trkpt>
      <trkpt lat="41.3769760" lon="1.1392110">
        <ele>447.4</ele>
        <time>2021-09-30T08:59:39Z</time>
      </trkpt>
      <trkpt lat="41.3769760" lon="1.1392010">
        <ele>447.4</ele>
        <time>2021-09-30T08:59:40Z</time>
      </trkpt>
      <trkpt lat="41.3769760" lon="1.1391900">
        <ele>447.3</ele>
        <time>2021-09-30T08:59:41Z</time>
      </trkpt>
      <trkpt lat="41.3769760" lon="1.1391790">
        <ele>447.3</ele>
        <time>2021-09-30T08:59:42Z</time>
      </trkpt>
      <trkpt lat="41.3769760" lon="1.1391690">
        <ele>447.2</ele>
        <time>2021-09-30T08:59:43Z</time>
      </trkpt>
      <trkpt lat="41.3769760" lon="1.1391580">
        <ele>447.2</ele>
        <time>2021-09-30T08:59:44Z</time>
      </trkpt>
      <trkpt lat="41.3769770" lon="1.1391470">
        <ele>447.1</ele>
        <time>2021-09-30T08:59:45Z</time>
      </trkpt>
      <trkpt lat="41.3769770" lon="1.1391370">
        <ele>447.1</ele>
        <time>2021-09-30T08:59:46Z</time>
      </trkpt>
      <trkpt lat="41.3769770" lon="1.1391260">
        <ele>447.0</ele>
        <time>2021-09-30T08:59:47Z</time>
      </trkpt>
      <trkpt lat="41.3769770" lon="1.1391150">
        <ele>447.0</ele>
        <time>2021-09-30T08:59:48Z</time>
      </trkpt>
      <trkpt lat="41.3769770" lon="1.1391050">
        <ele>446.9</ele>
        <time>2021-09-30T08:59:49Z</time>
      </trkpt>
      <trkpt lat="41.3769770" lon="1.1390940">
        <ele>446.9</ele>
        <time>2021-09-30T08:59:50Z</time>
      </trkpt>
      <trkpt lat="41.3769850" lon="1.1391260">
        <ele>446.7</ele>
        <time>2021-09-30T08:59:51Z</time>
      </trkpt>
      <trkpt lat="41.3769930" lon="1.1391580">
        <ele>446.5</ele>
        <time>2021-09-30T08:59:52Z</time>
      </trkpt>
      <trkpt lat="41.3770010" lon="1.1391910">
        <ele>446.4</ele>
        <time>2021-09-30T08:59:53Z</time>
      </trkpt>
      <trkpt lat="41.3770090" lon="1.1392230">
        <ele>446.2</ele>
        <time>2021-09-30T08:59:54Z</time>
      </trkpt>
      <trkpt lat="41.3770170" lon="1.1392550">
        <ele>446.0</ele>
        <time>2021-09-30T08:59:55Z</time>
      </trkpt>
      <trkpt lat="41.3770240" lon="1.1392870">
        <ele>445.9</ele>
        <time>2021-09-30T08:59:56Z</time>
      </trkpt>
      <trkpt lat="41.3770320" lon="1.1393190">
        <ele>445.7</ele>
        <time>2021-09-30T08:59:57Z</time>
      </trkpt>
      <trkpt lat="41.3770400" lon="1.1393520">
        <ele>445.6</ele>
        <time>2021-09-30T08:59:58Z</time>
      </trkpt>
      <trkpt lat="41.3770480" lon="1.1393840">
        <ele>445.4</ele>
        <time>2021-09-30T08:59:59Z</time>
      </trkpt>
      <trkpt lat="41.3770560" lon="1.1394160">
        <ele>445.3</ele>
        <time>2021-09-30T09:00:00Z</time>
      </trkpt>
      <trkpt lat="41.3770560" lon="1.1394160">
        <ele>445.3</ele>
        <time>2021-09-30T09:00:01Z</time>
      </trkpt>
      <trkpt lat="41.3770560" lon="1.1394160">
        <ele>445.3</ele>
        <time>2021-09-30T09:00:02Z</time>
      </trkpt>
      <trkpt lat="41.3770560" lon="1.1394160">
        <ele>445.3</ele>
        <time>2021-09-30T09:00:03Z</time>
      </trkpt>
      <trkpt lat="41.3770560" lon="1.1394160">
        <ele>445.3</ele>
        <time>2021-09-30T09:00:04Z</time>
      </trkpt>
      <trkpt lat="41.3770190" lon="1.1397380">
        <ele>444.1</ele>
        <time>2021-09-30T09:00:05Z</time>
      </trkpt>
      <trkpt lat="41.3770190" lon="1.1397380">
        <ele>444.1</ele>
        <time>2021-09-30T09:00:06Z</time>
      </trkpt>
      <trkpt lat="41.3770190" lon="1.1397380">
        <ele>444.1</ele>
        <time>2021-09-30T09:00:07Z</time>
      </trkpt>
      <trkpt lat="41.3770190" lon="1.1397380">
        <ele>444.1</ele>
        <time>2021-09-30T09:00:08Z</time>
      </trkpt>
      <trkpt lat="41.3770190" lon="1.1397380">
        <ele>444.1</ele>
        <time>2021-09-30T09:00:09Z</time>
      </trkpt>
      <trkpt lat="41.3771330" lon="1.1401010">
        <ele>442.1</ele>
        <time>2021-09-30T09:00:51Z</time>
      </trkpt>
      <trkpt lat="41.3771330" lon="1.1401010">
        <ele>442.1</ele>
        <time>2021-09-30T09:00:52Z</time>
      </trkpt>
      <trkpt lat="41.3771330" lon="1.1401010">
        <ele>442.1</ele>
        <time>2021-09-30T09:00:53Z</time>
      </trkpt>
      <trkpt lat="41.3771330" lon="1.1401010">
        <ele>442.1</ele>
        <time>2021-09-30T09:00:54Z</time>
      </trkpt>
      <trkpt lat="41.3771330" lon="1.1401010">
        <ele>442.1</ele>
        <time>2021-09-30T09:00:55Z</time>
      </trkpt>
      <trkpt lat="41.3771330" lon="1.1401010">
        <ele>442.1</ele>
        <time>2021-09-30T09:00:56Z</time>
      </trkpt>
      <trkpt lat="41.3771330" lon="1.1401010">
        <ele>442.1</ele>
        <time>2021-09-30T09:00:57Z</time>
      </trkpt>
      <trkpt lat="41.3771330" lon="1.1401010">
        <ele>442.1</ele>
        <time>2021-09-30T09:00:58Z</time>
      </trkpt>
      <trkpt lat="41.3771330" lon="1.1401010">
        <ele>442.1</ele>
        <time>2021-09-30T09:00:59Z</time>
      </trkpt>
      <trkpt lat="41.3771330" lon="1.1401010">
        <ele>442.1</ele>
        <time>2021-09-30T09:01:00Z</time>
      </trkpt>
      <trkpt lat="41.3771330" lon="1.1401010">
        <ele>442.1</ele>
        <time>2021-09-30T09:01:01Z</time>
      </trkpt>
      <trkpt lat="41.3771330" lon="1.1401010">
        <ele>442.1</ele>
        <time>2021-09-30T09:01:02Z</time>
      </trkpt>
      <trkpt lat="41.3771330" lon="1.1401010">
        <ele>442.1</ele>
        <time>2021-09-30T09:01:03Z</time>
      </trkpt>
      <trkpt lat="41.3771330" lon="1.1401010">
        <ele>442.1</ele>
        <time>2021-09-30T09:01:04Z</time>
      </trkpt>
      <trkpt lat="41.3771330" lon="1.1401010">
        <ele>442.1</ele>
        <time>2021-09-30T09:01:05Z</time>
      </trkpt>
      <trkpt lat="41.3771330" lon="1.1401010">
        <ele>442.1</ele>
        <time>2021-09-30T09:01:06Z</time>
      </trkpt>
      <trkpt lat="41.3771330" lon="1.1401010">
        <ele>442.1</ele>
        <time>2021-09-30T09:01:07Z</time>
      </trkpt>
      <trkpt lat="41.3771330" lon="1.1401010">
        <ele>442.1</ele>
        <time>2021-09-30T09:01:08Z</time>
      </trkpt>
      <trkpt lat="41.3771330" lon="1.1401010">
        <ele>442.1</ele>
        <time>2021-09-30T09:01:09Z</time>
      </trkpt>
      <trkpt lat="41.3771330" lon="1.1401010">
        <ele>442.1</ele>
        <time>2021-09-30T09:01:10Z</time>
      </trkpt>
      <trkpt lat="41.3771330" lon="1.1401010">
        <ele>442.1</ele>
        <time>2021-09-30T09:01:11Z</time>
      </trkpt>
      <trkpt lat="41.3770620" lon="1.1399940">
        <ele>443.2</ele>
        <time>2021-09-30T09:01:12Z</time>
      </trkpt>
      <trkpt lat="41.3770620" lon="1.1399940">
        <ele>443.2</ele>
        <time>2021-09-30T09:01:13Z</time>
      </trkpt>
      <trkpt lat="41.3770620" lon="1.1399940">
        <ele>443.2</ele>
        <time>2021-09-30T09:01:14Z</time>
      </trkpt>
      <trkpt lat="41.3770620" lon="1.1399940">
        <ele>443.2</ele>
        <time>2021-09-30T09:01:15Z</time>
      </trkpt>
      <trkpt lat="41.3769570" lon="1.1399940">
        <ele>446.3</ele>
        <time>2021-09-30T09:01:16Z</time>
      </trkpt>
      <trkpt lat="41.3769570" lon="1.1399940">
        <ele>446.3</ele>
        <time>2021-09-30T09:01:17Z</time>
      </trkpt>
      <trkpt lat="41.3768900" lon="1.1400140">
        <ele>448.4</ele>
        <time>2021-09-30T09:01:18Z</time>
      </trkpt>
      <trkpt lat="41.3768540" lon="1.1400270">
        <ele>449.6</ele>
        <time>2021-09-30T09:01:19Z</time>
      </trkpt>
      <trkpt lat="41.3768190" lon="1.1400410">
        <ele>450.9</ele>
        <time>2021-09-30T09:01:20Z</time>
      </trkpt>
      <trkpt lat="41.3767940" lon="1.1400530">
        <ele>451.8</ele>
        <time>2021-09-30T09:01:21Z</time>
      </trkpt>
      <trkpt lat="41.3767650" lon="1.1400650">
        <ele>452.9</ele>
        <time>2021-09-30T09:01:22Z</time>
      </trkpt>
      <trkpt lat="41.3767460" lon="1.1400760">
        <ele>453.6</ele>
        <time>2021-09-30T09:01:23Z</time>
      </trkpt>
      <trkpt lat="41.3767460" lon="1.1400760">
        <ele>453.6</ele>
        <time>2021-09-30T09:01:24Z</time>
      </trkpt>
      <trkpt lat="41.3767200" lon="1.1400960">
        <ele>454.7</ele>
        <time>2021-09-30T09:01:25Z</time>
      </trkpt>
      <trkpt lat="41.3767200" lon="1.1400960">
        <ele>454.7</ele>
        <time>2021-09-30T09:01:26Z</time>
      </trkpt>
      <trkpt lat="41.3766980" lon="1.1401130">
        <ele>455.6</ele>
        <time>2021-09-30T09:01:27Z</time>
      </trkpt>
      <trkpt lat="41.3766980" lon="1.1401130">
        <ele>455.6</ele>
        <time>2021-09-30T09:01:28Z</time>
      </trkpt>
      <trkpt lat="41.3766750" lon="1.1401280">
        <ele>456.6</ele>
        <time>2021-09-30T09:01:29Z</time>
      </trkpt>
      <trkpt lat="41.3766750" lon="1.1401280">
        <ele>456.6</ele>
        <time>2021-09-30T09:01:30Z</time>
      </trkpt>
      <trkpt lat="41.3766530" lon="1.1401420">
        <ele>457.4</ele>
        <time>2021-09-30T09:01:31Z</time>
      </trkpt>
      <trkpt lat="41.3766530" lon="1.1401420">
        <ele>457.4</ele>
        <time>2021-09-30T09:01:32Z</time>
      </trkpt>
      <trkpt lat="41.3766340" lon="1.1401560">
        <ele>458.2</ele>
        <time>2021-09-30T09:01:33Z</time>
      </trkpt>
      <trkpt lat="41.3766340" lon="1.1401560">
        <ele>458.2</ele>
        <time>2021-09-30T09:01:34Z</time>
      </trkpt>
      <trkpt lat="41.3766110" lon="1.1401750">
        <ele>459.2</ele>
        <time>2021-09-30T09:01:35Z</time>
      </trkpt>
      <trkpt lat="41.3766110" lon="1.1401750">
        <ele>459.2</ele>
        <time>2021-09-30T09:01:36Z</time>
      </trkpt>
      <trkpt lat="41.3765920" lon="1.1402000">
        <ele>460.2</ele>
        <time>2021-09-30T09:01:37Z</time>
      </trkpt>
      <trkpt lat="41.3765920" lon="1.1402000">
        <ele>460.2</ele>
        <time>2021-09-30T09:01:38Z</time>
      </trkpt>
      <trkpt lat="41.3765760" lon="1.1402310">
        <ele>461.2</ele>
        <time>2021-09-30T09:01:39Z</time>
      </trkpt>
      <trkpt lat="41.3765760" lon="1.1402310">
        <ele>461.2</ele>
        <time>2021-09-30T09:01:40Z</time>
      </trkpt>
      <trkpt lat="41.3765630" lon="1.1402650">
        <ele>462.3</ele>
        <time>2021-09-30T09:01:41Z</time>
      </trkpt>
      <trkpt lat="41.3765630" lon="1.1402650">
        <ele>462.3</ele>
        <time>2021-09-30T09:01:42Z</time>
      </trkpt>
      <trkpt lat="41.3765600" lon="1.1403010">
        <ele>463.2</ele>
        <time>2021-09-30T09:01:43Z</time>
      </trkpt>
      <trkpt lat="41.3765600" lon="1.1403010">
        <ele>463.2</ele>
        <time>2021-09-30T09:01:44Z</time>
      </trkpt>
      <trkpt lat="41.3765600" lon="1.1403380">
        <ele>464.3</ele>
        <time>2021-09-30T09:01:45Z</time>
      </trkpt>
      <trkpt lat="41.3765600" lon="1.1403380">
        <ele>464.3</ele>
        <time>2021-09-30T09:01:46Z</time>
      </trkpt>
      <trkpt lat="41.3765660" lon="1.1403730">
        <ele>465.2</ele>
        <time>2021-09-30T09:01:47Z</time>
      </trkpt>
      <trkpt lat="41.3765660" lon="1.1403730">
        <ele>465.2</ele>
        <time>2021-09-30T09:01:48Z</time>
      </trkpt>
      <trkpt lat="41.3765790" lon="1.1404040">
        <ele>466.2</ele>
        <time>2021-09-30T09:01:49Z</time>
      </trkpt>
      <trkpt lat="41.3765790" lon="1.1404040">
        <ele>466.2</ele>
        <time>2021-09-30T09:01:50Z</time>
      </trkpt>
      <trkpt lat="41.3765860" lon="1.1404320">
        <ele>467.0</ele>
        <time>2021-09-30T09:01:51Z</time>
      </trkpt>
      <trkpt lat="41.3765860" lon="1.1404320">
        <ele>467.0</ele>
        <time>2021-09-30T09:01:52Z</time>
      </trkpt>
      <trkpt lat="41.3765800" lon="1.1404630">
        <ele>467.9</ele>
        <time>2021-09-30T09:01:53Z</time>
      </trkpt>
      <trkpt lat="41.3765780" lon="1.1404680">
        <ele>468.0</ele>
        <time>2021-09-30T09:01:54Z</time>
      </trkpt>
      <trkpt lat="41.3765750" lon="1.1404720">
        <ele>468.2</ele>
        <time>2021-09-30T09:01:55Z</time>
      </trkpt>
      <trkpt lat="41.3765730" lon="1.1404770">
        <ele>468.3</ele>
        <time>2021-09-30T09:01:56Z</time>
      </trkpt>
      <trkpt lat="41.3765710" lon="1.1404810">
        <ele>468.5</ele>
        <time>2021-09-30T09:01:57Z</time>
      </trkpt>
      <trkpt lat="41.3765690" lon="1.1404850">
        <ele>468.6</ele>
        <time>2021-09-30T09:01:58Z</time>
      </trkpt>
      <trkpt lat="41.3765670" lon="1.1404900">
        <ele>468.7</ele>
        <time>2021-09-30T09:01:59Z</time>
      </trkpt>
      <trkpt lat="41.3765640" lon="1.1404940">
        <ele>468.9</ele>
        <time>2021-09-30T09:02:00Z</time>
      </trkpt>
      <trkpt lat="41.3765620" lon="1.1404990">
        <ele>469.0</ele>
        <time>2021-09-30T09:02:01Z</time>
      </trkpt>
      <trkpt lat="41.3765600" lon="1.1405030">
        <ele>469.2</ele>
        <time>2021-09-30T09:02:02Z</time>
      </trkpt>
      <trkpt lat="41.3765520" lon="1.1405090">
        <ele>469.5</ele>
        <time>2021-09-30T09:02:03Z</time>
      </trkpt>
      <trkpt lat="41.3765450" lon="1.1405160">
        <ele>469.8</ele>
        <time>2021-09-30T09:02:04Z</time>
      </trkpt>
      <trkpt lat="41.3765370" lon="1.1405220">
        <ele>470.1</ele>
        <time>2021-09-30T09:02:05Z</time>
      </trkpt>
      <trkpt lat="41.3765290" lon="1.1405290">
        <ele>470.4</ele>
        <time>2021-09-30T09:02:06Z</time>
      </trkpt>
      <trkpt lat="41.3765220" lon="1.1405350">
        <ele>470.7</ele>
        <time>2021-09-30T09:02:07Z</time>
      </trkpt>
      <trkpt lat="41.3765140" lon="1.1405410">
        <ele>471.0</ele>
        <time>2021-09-30T09:02:08Z</time>
      </trkpt>
      <trkpt lat="41.3765060" lon="1.1405480">
        <ele>471.3</ele>
        <time>2021-09-30T09:02:09Z</time>
      </trkpt>
      <trkpt lat="41.3764980" lon="1.1405540">
        <ele>471.6</ele>
        <time>2021-09-30T09:02:10Z</time>
      </trkpt>
      <trkpt lat="41.3764910" lon="1.1405610">
        <ele>471.9</ele>
        <time>2021-09-30T09:02:11Z</time>
      </trkpt>
      <trkpt lat="41.3764830" lon="1.1405670">
        <ele>472.1</ele>
        <time>2021-09-30T09:02:12Z</time>
      </trkpt>
      <trkpt lat="41.3764710" lon="1.1405810">
        <ele>472.6</ele>
        <time>2021-09-30T09:02:13Z</time>
      </trkpt>
      <trkpt lat="41.3764600" lon="1.1405950">
        <ele>473.1</ele>
        <time>2021-09-30T09:02:14Z</time>
      </trkpt>
      <trkpt lat="41.3764480" lon="1.1406090">
        <ele>473.5</ele>
        <time>2021-09-30T09:02:15Z</time>
      </trkpt>
      <trkpt lat="41.3764360" lon="1.1406220">
        <ele>473.9</ele>
        <time>2021-09-30T09:02:16Z</time>
      </trkpt>
      <trkpt lat="41.3764250" lon="1.1406360">
        <ele>474.4</ele>
        <time>2021-09-30T09:02:17Z</time>
      </trkpt>
      <trkpt lat="41.3764130" lon="1.1406500">
        <ele>474.8</ele>
        <time>2021-09-30T09:02:18Z</time>
      </trkpt>
      <trkpt lat="41.3764130" lon="1.1406500">
        <ele>474.8</ele>
        <time>2021-09-30T09:02:19Z</time>
      </trkpt>
      <trkpt lat="41.3764130" lon="1.1406500">
        <ele>474.8</ele>
        <time>2021-09-30T09:02:20Z</time>
      </trkpt>
      <trkpt lat="41.3764130" lon="1.1406500">
        <ele>474.8</ele>
        <time>2021-09-30T09:02:21Z</time>
      </trkpt>
      <trkpt lat="41.3764130" lon="1.1406500">
        <ele>474.8</ele>
        <time>2021-09-30T09:02:22Z</time>
      </trkpt>
      <trkpt lat="41.3763170" lon="1.1406780">
        <ele>477.1</ele>
        <time>2021-09-30T09:02:23Z</time>
      </trkpt>
      <trkpt lat="41.3763170" lon="1.1406780">
        <ele>477.1</ele>
        <time>2021-09-30T09:02:24Z</time>
      </trkpt>
      <trkpt lat="41.3763170" lon="1.1406780">
        <ele>477.1</ele>
        <time>2021-09-30T09:02:25Z</time>
      </trkpt>
      <trkpt lat="41.3763170" lon="1.1406780">
        <ele>477.1</ele>
        <time>2021-09-30T09:02:26Z</time>
      </trkpt>
      <trkpt lat="41.3763170" lon="1.1406780">
        <ele>477.1</ele>
        <time>2021-09-30T09:02:27Z</time>
      </trkpt>
      <trkpt lat="41.3762080" lon="1.1406720">
        <ele>478.9</ele>
        <time>2021-09-30T09:02:28Z</time>
      </trkpt>
      <trkpt lat="41.3761990" lon="1.1406750">
        <ele>479.0</ele>
        <time>2021-09-30T09:02:29Z</time>
      </trkpt>
      <trkpt lat="41.3761890" lon="1.1406790">
        <ele>479.2</ele>
        <time>2021-09-30T09:02:30Z</time>
      </trkpt>
      <trkpt lat="41.3761800" lon="1.1406830">
        <ele>479.3</ele>
        <time>2021-09-30T09:02:31Z</time>
      </trkpt>
      <trkpt lat="41.3761700" lon="1.1406860">
        <ele>479.4</ele>
        <time>2021-09-30T09:02:32Z</time>
      </trkpt>
      <trkpt lat="41.3761600" lon="1.1406900">
        <ele>479.5</ele>
        <time>2021-09-30T09:02:33Z</time>
      </trkpt>
      <trkpt lat="41.3761510" lon="1.1406930">
        <ele>479.6</ele>
        <time>2021-09-30T09:02:34Z</time>
      </trkpt>
      <trkpt lat="41.3761410" lon="1.1406970">
        <ele>479.7</ele>
        <time>2021-09-30T09:02:35Z</time>
      </trkpt>
      <trkpt lat="41.3761300" lon="1.1406920">
        <ele>479.8</ele>
        <time>2021-09-30T09:02:36Z</time>
      </trkpt>
      <trkpt lat="41.3761180" lon="1.1406870">
        <ele>480.0</ele>
        <time>2021-09-30T09:02:37Z</time>
      </trkpt>
      <trkpt lat="41.3761070" lon="1.1406820">
        <ele>480.1</ele>
        <time>2021-09-30T09:02:38Z</time>
      </trkpt>
      <trkpt lat="41.3760950" lon="1.1406770">
        <ele>480.2</ele>
        <time>2021-09-30T09:02:39Z</time>
      </trkpt>
      <trkpt lat="41.3760330" lon="1.1406460">
        <ele>481.0</ele>
        <time>2021-09-30T09:02:40Z</time>
      </trkpt>
      <trkpt lat="41.3760170" lon="1.1406360">
        <ele>481.3</ele>
        <time>2021-09-30T09:02:41Z</time>
      </trkpt>
      <trkpt lat="41.3760020" lon="1.1406250">
        <ele>481.5</ele>
        <time>2021-09-30T09:02:42Z</time>
      </trkpt>
      <trkpt lat="41.3759860" lon="1.1406140">
        <ele>481.8</ele>
        <time>2021-09-30T09:02:43Z</time>
      </trkpt>
      <trkpt lat="41.3759710" lon="1.1406040">
        <ele>482.1</ele>
        <time>2021-09-30T09:02:44Z</time>
      </trkpt>
      <trkpt lat="41.3759550" lon="1.1405930">
        <ele>482.4</ele>
        <time>2021-09-30T09:02:45Z</time>
      </trkpt>
      <trkpt lat="41.3759450" lon="1.1405910">
        <ele>482.5</ele>
        <time>2021-09-30T09:02:46Z</time>
      </trkpt>
      <trkpt lat="41.3759360" lon="1.1405890">
        <ele>482.7</ele>
        <time>2021-09-30T09:02:47Z</time>
      </trkpt>
      <trkpt lat="41.3759260" lon="1.1405860">
        <ele>482.9</ele>
        <time>2021-09-30T09:02:48Z</time>
      </trkpt>
      <trkpt lat="41.3759170" lon="1.1405840">
        <ele>483.1</ele>
        <time>2021-09-30T09:02:49Z</time>
      </trkpt>
      <trkpt lat="41.3759070" lon="1.1405820">
        <ele>483.3</ele>
        <time>2021-09-30T09:02:50Z</time>
      </trkpt>
      <trkpt lat="41.3758430" lon="1.1405810">
        <ele>484.5</ele>
        <time>2021-09-30T09:02:51Z</time>
      </trkpt>
      <trkpt lat="41.3758270" lon="1.1405890">
        <ele>484.9</ele>
        <time>2021-09-30T09:02:52Z</time>
      </trkpt>
      <trkpt lat="41.3758110" lon="1.1405980">
        <ele>485.3</ele>
        <time>2021-09-30T09:02:53Z</time>
      </trkpt>
      <trkpt lat="41.3757950" lon="1.1406070">
        <ele>485.6</ele>
        <time>2021-09-30T09:02:54Z</time>
      </trkpt>
      <trkpt lat="41.3757790" lon="1.1406150">
        <ele>486.0</ele>
        <time>2021-09-30T09:02:55Z</time>
      </trkpt>
      <trkpt lat="41.3757630" lon="1.1406240">
        <ele>486.4</ele>
        <time>2021-09-30T09:02:56Z</time>
      </trkpt>
      <trkpt lat="41.3757430" lon="1.1406260">
        <ele>486.8</ele>
        <time>2021-09-30T09:02:57Z</time>
      </trkpt>
      <trkpt lat="41.3757230" lon="1.1406280">
        <ele>487.3</ele>
        <time>2021-09-30T09:02:58Z</time>
      </trkpt>
      <trkpt lat="41.3757040" lon="1.1406290">
        <ele>487.7</ele>
        <time>2021-09-30T09:02:59Z</time>
      </trkpt>
      <trkpt lat="41.3756840" lon="1.1406310">
        <ele>488.1</ele>
        <time>2021-09-30T09:03:00Z</time>
      </trkpt>
      <trkpt lat="41.3756640" lon="1.1406330">
        <ele>488.6</ele>
        <time>2021-09-30T09:03:01Z</time>
      </trkpt>
      <trkpt lat="41.3756520" lon="1.1406220">
        <ele>488.9</ele>
        <time>2021-09-30T09:03:02Z</time>
      </trkpt>
      <trkpt lat="41.3756400" lon="1.1406120">
        <ele>489.2</ele>
        <time>2021-09-30T09:03:03Z</time>
      </trkpt>
      <trkpt lat="41.3756280" lon="1.1406010">
        <ele>489.5</ele>
        <time>2021-09-30T09:03:04Z</time>
      </trkpt>
      <trkpt lat="41.3756170" lon="1.1405900">
        <ele>489.8</ele>
        <time>2021-09-30T09:03:05Z</time>
      </trkpt>
      <trkpt lat="41.3756050" lon="1.1405790">
        <ele>490.1</ele>
        <time>2021-09-30T09:03:06Z</time>
      </trkpt>
      <trkpt lat="41.3755930" lon="1.1405690">
        <ele>490.4</ele>
        <time>2021-09-30T09:03:07Z</time>
      </trkpt>
      <trkpt lat="41.3755810" lon="1.1405580">
        <ele>490.6</ele>
        <time>2021-09-30T09:03:08Z</time>
      </trkpt>
      <trkpt lat="41.3755730" lon="1.1405480">
        <ele>490.8</ele>
        <time>2021-09-30T09:03:09Z</time>
      </trkpt>
      <trkpt lat="41.3755660" lon="1.1405380">
        <ele>491.0</ele>
        <time>2021-09-30T09:03:10Z</time>
      </trkpt>
      <trkpt lat="41.3755580" lon="1.1405290">
        <ele>491.2</ele>
        <time>2021-09-30T09:03:11Z</time>
      </trkpt>
      <trkpt lat="41.3755510" lon="1.1405190">
        <ele>491.4</ele>
        <time>2021-09-30T09:03:12Z</time>
      </trkpt>
      <trkpt lat="41.3755430" lon="1.1405090">
        <ele>491.6</ele>
        <time>2021-09-30T09:03:13Z</time>
      </trkpt>
      <trkpt lat="41.3755040" lon="1.1404610">
        <ele>492.6</ele>
        <time>2021-09-30T09:03:14Z</time>
      </trkpt>
      <trkpt lat="41.3755040" lon="1.1404610">
        <ele>492.6</ele>
        <time>2021-09-30T09:03:15Z</time>
      </trkpt>
      <trkpt lat="41.3755040" lon="1.1404610">
        <ele>492.6</ele>
        <time>2021-09-30T09:03:16Z</time>
      </trkpt>
      <trkpt lat="41.3755040" lon="1.1404610">
        <ele>492.6</ele>
        <time>2021-09-30T09:03:17Z</time>
      </trkpt>
      <trkpt lat="41.3753930" lon="1.1403860">
        <ele>495.2</ele>
        <time>2021-09-30T09:03:18Z</time>
      </trkpt>
      <trkpt lat="41.3753820" lon="1.1403830">
        <ele>495.4</ele>
        <time>2021-09-30T09:03:19Z</time>
      </trkpt>
      <trkpt lat="41.3753700" lon="1.1403790">
        <ele>495.8</ele>
        <time>2021-09-30T09:03:20Z</time>
      </trkpt>
      <trkpt lat="41.3753590" lon="1.1403750">
        <ele>496.0</ele>
        <time>2021-09-30T09:03:21Z</time>
      </trkpt>
      <trkpt lat="41.3753470" lon="1.1403720">
        <ele>496.3</ele>
        <time>2021-09-30T09:03:22Z</time>
      </trkpt>
      <trkpt lat="41.3753350" lon="1.1403680">
        <ele>496.7</ele>
        <time>2021-09-30T09:03:23Z</time>
      </trkpt>
      <trkpt lat="41.3753240" lon="1.1403650">
        <ele>497.0</ele>
        <time>2021-09-30T09:03:24Z</time>
      </trkpt>
      <trkpt lat="41.3753120" lon="1.1403610">
        <ele>497.3</ele>
        <time>2021-09-30T09:03:25Z</time>
      </trkpt>
      <trkpt lat="41.3753120" lon="1.1403610">
        <ele>497.3</ele>
        <time>2021-09-30T09:03:26Z</time>
      </trkpt>
      <trkpt lat="41.3753120" lon="1.1403610">
        <ele>497.3</ele>
        <time>2021-09-30T09:03:27Z</time>
      </trkpt>
      <trkpt lat="41.3753120" lon="1.1403610">
        <ele>497.3</ele>
        <time>2021-09-30T09:03:28Z</time>
      </trkpt>
      <trkpt lat="41.3753120" lon="1.1403610">
        <ele>497.3</ele>
        <time>2021-09-30T09:03:29Z</time>
      </trkpt>
      <trkpt lat="41.3753120" lon="1.1403610">
        <ele>497.3</ele>
        <time>2021-09-30T09:03:30Z</time>
      </trkpt>
      <trkpt lat="41.3752160" lon="1.1403340">
        <ele>500.3</ele>
        <time>2021-09-30T09:03:31Z</time>
      </trkpt>
      <trkpt lat="41.3752160" lon="1.1403340">
        <ele>500.3</ele>
        <time>2021-09-30T09:03:32Z</time>
      </trkpt>
      <trkpt lat="41.3752160" lon="1.1403340">
        <ele>500.3</ele>
        <time>2021-09-30T09:03:33Z</time>
      </trkpt>
      <trkpt lat="41.3751970" lon="1.1403590">
        <ele>501.2</ele>
        <time>2021-09-30T09:03:34Z</time>
      </trkpt>
      <trkpt lat="41.3751970" lon="1.1403590">
        <ele>501.2</ele>
        <time>2021-09-30T09:03:35Z</time>
      </trkpt>
      <trkpt lat="41.3751970" lon="1.1403590">
        <ele>501.2</ele>
        <time>2021-09-30T09:03:36Z</time>
      </trkpt>
      <trkpt lat="41.3751970" lon="1.1403590">
        <ele>501.2</ele>
        <time>2021-09-30T09:03:37Z</time>
      </trkpt>
      <trkpt lat="41.3751710" lon="1.1403500">
        <ele>502.2</ele>
        <time>2021-09-30T09:03:38Z</time>
      </trkpt>
      <trkpt lat="41.3751710" lon="1.1403500">
        <ele>502.2</ele>
        <time>2021-09-30T09:03:39Z</time>
      </trkpt>
      <trkpt lat="41.3751490" lon="1.1403240">
        <ele>503.2</ele>
        <time>2021-09-30T09:03:40Z</time>
      </trkpt>
      <trkpt lat="41.3751490" lon="1.1403240">
        <ele>503.2</ele>
        <time>2021-09-30T09:03:41Z</time>
      </trkpt>
      <trkpt lat="41.3751180" lon="1.1403000">
        <ele>504.4</ele>
        <time>2021-09-30T09:03:42Z</time>
      </trkpt>
      <trkpt lat="41.3751100" lon="1.1403000">
        <ele>504.7</ele>
        <time>2021-09-30T09:03:43Z</time>
      </trkpt>
      <trkpt lat="41.3751020" lon="1.1403000">
        <ele>505.0</ele>
        <time>2021-09-30T09:03:44Z</time>
      </trkpt>
      <trkpt lat="41.3750940" lon="1.1403000">
        <ele>505.3</ele>
        <time>2021-09-30T09:03:45Z</time>
      </trkpt>
      <trkpt lat="41.3750860" lon="1.1403000">
        <ele>505.5</ele>
        <time>2021-09-30T09:03:46Z</time>
      </trkpt>
      <trkpt lat="41.3750780" lon="1.1403000">
        <ele>505.8</ele>
        <time>2021-09-30T09:03:47Z</time>
      </trkpt>
      <trkpt lat="41.3750700" lon="1.1403000">
        <ele>506.1</ele>
        <time>2021-09-30T09:03:48Z</time>
      </trkpt>
      <trkpt lat="41.3750620" lon="1.1403000">
        <ele>506.4</ele>
        <time>2021-09-30T09:03:49Z</time>
      </trkpt>
      <trkpt lat="41.3750620" lon="1.1403000">
        <ele>506.4</ele>
        <time>2021-09-30T09:03:50Z</time>
      </trkpt>
      <trkpt lat="41.3750620" lon="1.1403000">
        <ele>506.4</ele>
        <time>2021-09-30T09:03:51Z</time>
      </trkpt>
      <trkpt lat="41.3750620" lon="1.1403000">
        <ele>506.4</ele>
        <time>2021-09-30T09:03:52Z</time>
      </trkpt>
      <trkpt lat="41.3750620" lon="1.1403000">
        <ele>506.4</ele>
        <time>2021-09-30T09:03:53Z</time>
      </trkpt>
      <trkpt lat="41.3750620" lon="1.1403000">
        <ele>506.4</ele>
        <time>2021-09-30T09:03:54Z</time>
      </trkpt>
      <trkpt lat="41.3749700" lon="1.1402540">
        <ele>509.4</ele>
        <time>2021-09-30T09:03:55Z</time>
      </trkpt>
      <trkpt lat="41.3749620" lon="1.1402490">
        <ele>509.6</ele>
        <time>2021-09-30T09:03:56Z</time>
      </trkpt>
      <trkpt lat="41.3749540" lon="1.1402450">
        <ele>509.8</ele>
        <time>2021-09-30T09:03:57Z</time>
      </trkpt>
      <trkpt lat="41.3749460" lon="1.1402400">
        <ele>510.1</ele>
        <time>2021-09-30T09:03:58Z</time>
      </trkpt>
      <trkpt lat="41.3749390" lon="1.1402350">
        <ele>510.3</ele>
        <time>2021-09-30T09:03:59Z</time>
      </trkpt>
      <trkpt lat="41.3749310" lon="1.1402300">
        <ele>510.5</ele>
        <time>2021-09-30T09:04:00Z</time>
      </trkpt>
      <trkpt lat="41.3749230" lon="1.1402260">
        <ele>510.7</ele>
        <time>2021-09-30T09:04:01Z</time>
      </trkpt>
      <trkpt lat="41.3749150" lon="1.1402210">
        <ele>510.9</ele>
        <time>2021-09-30T09:04:02Z</time>
      </trkpt>
      <trkpt lat="41.3749000" lon="1.1402240">
        <ele>511.3</ele>
        <time>2021-09-30T09:04:03Z</time>
      </trkpt>
      <trkpt lat="41.3748860" lon="1.1402280">
        <ele>511.6</ele>
        <time>2021-09-30T09:04:04Z</time>
      </trkpt>
      <trkpt lat="41.3748710" lon="1.1402310">
        <ele>511.9</ele>
        <time>2021-09-30T09:04:05Z</time>
      </trkpt>
      <trkpt lat="41.3748570" lon="1.1402340">
        <ele>512.2</ele>
        <time>2021-09-30T09:04:06Z</time>
      </trkpt>
      <trkpt lat="41.3748420" lon="1.1402370">
        <ele>512.6</ele>
        <time>2021-09-30T09:04:07Z</time>
      </trkpt>
      <trkpt lat="41.3748280" lon="1.1402410">
        <ele>512.8</ele>
        <time>2021-09-30T09:04:08Z</time>
      </trkpt>
      <trkpt lat="41.3748130" lon="1.1402440">
        <ele>513.1</ele>
        <time>2021-09-30T09:04:09Z</time>
      </trkpt>
      <trkpt lat="41.3748030" lon="1.1402410">
        <ele>513.3</ele>
        <time>2021-09-30T09:04:10Z</time>
      </trkpt>
      <trkpt lat="41.3747930" lon="1.1402380">
        <ele>513.5</ele>
        <time>2021-09-30T09:04:11Z</time>
      </trkpt>
      <trkpt lat="41.3747820" lon="1.1402340">
        <ele>513.7</ele>
        <time>2021-09-30T09:04:12Z</time>
      </trkpt>
      <trkpt lat="41.3747720" lon="1.1402310">
        <ele>513.9</ele>
        <time>2021-09-30T09:04:13Z</time>
      </trkpt>
      <trkpt lat="41.3747620" lon="1.1402280">
        <ele>514.1</ele>
        <time>2021-09-30T09:04:14Z</time>
      </trkpt>
      <trkpt lat="41.3747100" lon="1.1402130">
        <ele>515.1</ele>
        <time>2021-09-30T09:04:15Z</time>
      </trkpt>
      <trkpt lat="41.3747100" lon="1.1402130">
        <ele>515.1</ele>
        <time>2021-09-30T09:04:16Z</time>
      </trkpt>
      <trkpt lat="41.3747100" lon="1.1402130">
        <ele>515.1</ele>
        <time>2021-09-30T09:04:17Z</time>
      </trkpt>
      <trkpt lat="41.3746730" lon="1.1402260">
        <ele>515.8</ele>
        <time>2021-09-30T09:04:18Z</time>
      </trkpt>
      <trkpt lat="41.3746350" lon="1.1402400">
        <ele>516.5</ele>
        <time>2021-09-30T09:04:19Z</time>
      </trkpt>
      <trkpt lat="41.3745980" lon="1.1402530">
        <ele>517.2</ele>
        <time>2021-09-30T09:04:20Z</time>
      </trkpt>
      <trkpt lat="41.3745780" lon="1.1402620">
        <ele>517.6</ele>
        <time>2021-09-30T09:04:21Z</time>
      </trkpt>
      <trkpt lat="41.3745580" lon="1.1402700">
        <ele>518.0</ele>
        <time>2021-09-30T09:04:22Z</time>
      </trkpt>
      <trkpt lat="41.3745370" lon="1.1402790">
        <ele>518.4</ele>
        <time>2021-09-30T09:04:23Z</time>
      </trkpt>
      <trkpt lat="41.3745170" lon="1.1402870">
        <ele>518.8</ele>
        <time>2021-09-30T09:04:24Z</time>
      </trkpt>
      <trkpt lat="41.3744970" lon="1.1402960">
        <ele>519.3</ele>
        <time>2021-09-30T09:04:25Z</time>
      </trkpt>
      <trkpt lat="41.3744770" lon="1.1403040">
        <ele>519.8</ele>
        <time>2021-09-30T09:04:26Z</time>
      </trkpt>
      <trkpt lat="41.3744560" lon="1.1403130">
        <ele>520.3</ele>
        <time>2021-09-30T09:04:27Z</time>
      </trkpt>
      <trkpt lat="41.3744360" lon="1.1403210">
        <ele>520.9</ele>
        <time>2021-09-30T09:04:28Z</time>
      </trkpt>
      <trkpt lat="41.3744160" lon="1.1403300">
        <ele>521.5</ele>
        <time>2021-09-30T09:04:29Z</time>
      </trkpt>
      <trkpt lat="41.3744060" lon="1.1403410">
        <ele>521.9</ele>
        <time>2021-09-30T09:04:30Z</time>
      </trkpt>
      <trkpt lat="41.3743960" lon="1.1403520">
        <ele>522.3</ele>
        <time>2021-09-30T09:04:31Z</time>
      </trkpt>
      <trkpt lat="41.3743860" lon="1.1403630">
        <ele>522.7</ele>
        <time>2021-09-30T09:04:32Z</time>
      </trkpt>
      <trkpt lat="41.3743760" lon="1.1403750">
        <ele>523.1</ele>
        <time>2021-09-30T09:04:33Z</time>
      </trkpt>
      <trkpt lat="41.3743660" lon="1.1403860">
        <ele>523.5</ele>
        <time>2021-09-30T09:04:34Z</time>
      </trkpt>
      <trkpt lat="41.3743560" lon="1.1403970">
        <ele>523.9</ele>
        <time>2021-09-30T09:04:35Z</time>
      </trkpt>
      <trkpt lat="41.3743460" lon="1.1404080">
        <ele>524.3</ele>
        <time>2021-09-30T09:04:36Z</time>
      </trkpt>
      <trkpt lat="41.3743360" lon="1.1404190">
        <ele>524.7</ele>
        <time>2021-09-30T09:04:37Z</time>
      </trkpt>
      <trkpt lat="41.3743280" lon="1.1404260">
        <ele>525.0</ele>
        <time>2021-09-30T09:04:38Z</time>
      </trkpt>
      <trkpt lat="41.3743200" lon="1.1404330">
        <ele>525.3</ele>
        <time>2021-09-30T09:04:39Z</time>
      </trkpt>
      <trkpt lat="41.3743120" lon="1.1404390">
        <ele>525.6</ele>
        <time>2021-09-30T09:04:40Z</time>
      </trkpt>
      <trkpt lat="41.3743040" lon="1.1404460">
        <ele>525.9</ele>
        <time>2021-09-30T09:04:41Z</time>
      </trkpt>
      <trkpt lat="41.3742960" lon="1.1404530">
        <ele>526.1</ele>
        <time>2021-09-30T09:04:42Z</time>
      </trkpt>
      <trkpt lat="41.3742880" lon="1.1404600">
        <ele>526.4</ele>
        <time>2021-09-30T09:04:43Z</time>
      </trkpt>
      <trkpt lat="41.3742800" lon="1.1404670">
        <ele>526.7</ele>
        <time>2021-09-30T09:04:44Z</time>
      </trkpt>
      <trkpt lat="41.3742720" lon="1.1404730">
        <ele>527.0</ele>
        <time>2021-09-30T09:04:45Z</time>
      </trkpt>
      <trkpt lat="41.3742640" lon="1.1404800">
        <ele>527.3</ele>
        <time>2021-09-30T09:04:46Z</time>
      </trkpt>
      <trkpt lat="41.3742560" lon="1.1404870">
        <ele>527.5</ele>
        <time>2021-09-30T09:04:47Z</time>
      </trkpt>
      <trkpt lat="41.3742530" lon="1.1405100">
        <ele>528.0</ele>
        <time>2021-09-30T09:04:48Z</time>
      </trkpt>
      <trkpt lat="41.3742510" lon="1.1405330">
        <ele>528.5</ele>
        <time>2021-09-30T09:04:49Z</time>
      </trkpt>
      <trkpt lat="41.3742480" lon="1.1405570">
        <ele>528.9</ele>
        <time>2021-09-30T09:04:50Z</time>
      </trkpt>
      <trkpt lat="41.3742450" lon="1.1405800">
        <ele>529.3</ele>
        <time>2021-09-30T09:04:51Z</time>
      </trkpt>
      <trkpt lat="41.3742430" lon="1.1406030">
        <ele>529.8</ele>
        <time>2021-09-30T09:04:52Z</time>
      </trkpt>
      <trkpt lat="41.3742400" lon="1.1406260">
        <ele>530.1</ele>
        <time>2021-09-30T09:04:53Z</time>
      </trkpt>
      <trkpt lat="41.3742320" lon="1.1406390">
        <ele>530.4</ele>
        <time>2021-09-30T09:04:54Z</time>
      </trkpt>
      <trkpt lat="41.3742250" lon="1.1406530">
        <ele>530.6</ele>
        <time>2021-09-30T09:04:55Z</time>
      </trkpt>
      <trkpt lat="41.3742170" lon="1.1406660">
        <ele>530.9</ele>
        <time>2021-09-30T09:04:56Z</time>
      </trkpt>
      <trkpt lat="41.3742100" lon="1.1406800">
        <ele>531.1</ele>
        <time>2021-09-30T09:04:57Z</time>
      </trkpt>
      <trkpt lat="41.3742020" lon="1.1406930">
        <ele>531.3</ele>
        <time>2021-09-30T09:04:58Z</time>
      </trkpt>
      <trkpt lat="41.3741940" lon="1.1407060">
        <ele>531.6</ele>
        <time>2021-09-30T09:04:59Z</time>
      </trkpt>
      <trkpt lat="41.3741870" lon="1.1407200">
        <ele>531.8</ele>
        <time>2021-09-30T09:05:00Z</time>
      </trkpt>
      <trkpt lat="41.3741790" lon="1.1407330">
        <ele>531.9</ele>
        <time>2021-09-30T09:05:01Z</time>
      </trkpt>
      <trkpt lat="41.3741590" lon="1.1407340">
        <ele>532.3</ele>
        <time>2021-09-30T09:05:02Z</time>
      </trkpt>
      <trkpt lat="41.3741380" lon="1.1407350">
        <ele>532.5</ele>
        <time>2021-09-30T09:05:03Z</time>
      </trkpt>
      <trkpt lat="41.3741180" lon="1.1407370">
        <ele>532.8</ele>
        <time>2021-09-30T09:05:04Z</time>
      </trkpt>
      <trkpt lat="41.3740970" lon="1.1407380">
        <ele>533.1</ele>
        <time>2021-09-30T09:05:05Z</time>
      </trkpt>
      <trkpt lat="41.3740770" lon="1.1407390">
        <ele>533.3</ele>
        <time>2021-09-30T09:05:06Z</time>
      </trkpt>
      <trkpt lat="41.3740770" lon="1.1407390">
        <ele>533.3</ele>
        <time>2021-09-30T09:05:07Z</time>
      </trkpt>
      <trkpt lat="41.3740770" lon="1.1407390">
        <ele>533.3</ele>
        <time>2021-09-30T09:05:08Z</time>
      </trkpt>
      <trkpt lat="41.3740770" lon="1.1407390">
        <ele>533.3</ele>
        <time>2021-09-30T09:05:09Z</time>
      </trkpt>
      <trkpt lat="41.3740770" lon="1.1407390">
        <ele>533.3</ele>
        <time>2021-09-30T09:05:10Z</time>
      </trkpt>
      <trkpt lat="41.3740190" lon="1.1408340">
        <ele>534.0</ele>
        <time>2021-09-30T09:05:11Z</time>
      </trkpt>
      <trkpt lat="41.3740190" lon="1.1408340">
        <ele>534.0</ele>
        <time>2021-09-30T09:05:12Z</time>
      </trkpt>
      <trkpt lat="41.3740190" lon="1.1408340">
        <ele>534.0</ele>
        <time>2021-09-30T09:05:13Z</time>
      </trkpt>
      <trkpt lat="41.3740190" lon="1.1408340">
        <ele>534.0</ele>
        <time>2021-09-30T09:05:14Z</time>
      </trkpt>
      <trkpt lat="41.3740090" lon="1.1408660">
        <ele>534.1</ele>
        <time>2021-09-30T09:05:15Z</time>
      </trkpt>
      <trkpt lat="41.3739990" lon="1.1408990">
        <ele>534.2</ele>
        <time>2021-09-30T09:05:16Z</time>
      </trkpt>
      <trkpt lat="41.3739880" lon="1.1409310">
        <ele>534.3</ele>
        <time>2021-09-30T09:05:17Z</time>
      </trkpt>
      <trkpt lat="41.3739780" lon="1.1409630">
        <ele>534.3</ele>
        <time>2021-09-30T09:05:18Z</time>
      </trkpt>
      <trkpt lat="41.3739100" lon="1.1411040">
        <ele>534.3</ele>
        <time>2021-09-30T09:05:19Z</time>
      </trkpt>
      <trkpt lat="41.3738960" lon="1.1411170">
        <ele>534.3</ele>
        <time>2021-09-30T09:05:20Z</time>
      </trkpt>
      <trkpt lat="41.3738830" lon="1.1411310">
        <ele>534.3</ele>
        <time>2021-09-30T09:05:21Z</time>
      </trkpt>
      <trkpt lat="41.3738700" lon="1.1411440">
        <ele>534.3</ele>
        <time>2021-09-30T09:05:22Z</time>
      </trkpt>
      <trkpt lat="41.3738560" lon="1.1411580">
        <ele>533.1</ele>
        <time>2021-09-30T09:05:23Z</time>
      </trkpt>
      <trkpt lat="41.3738430" lon="1.1411710">
        <ele>532.8</ele>
        <time>2021-09-30T09:05:24Z</time>
      </trkpt>
      <trkpt lat="41.3738430" lon="1.1411710">
        <ele>532.8</ele>
        <time>2021-09-30T09:05:25Z</time>
      </trkpt>
      <trkpt lat="41.3738430" lon="1.1411710">
        <ele>532.8</ele>
        <time>2021-09-30T09:05:26Z</time>
      </trkpt>
      <trkpt lat="41.3738430" lon="1.1411710">
        <ele>532.8</ele>
        <time>2021-09-30T09:05:27Z</time>
      </trkpt>
      <trkpt lat="41.3738430" lon="1.1411710">
        <ele>532.8</ele>
        <time>2021-09-30T09:05:28Z</time>
      </trkpt>
      <trkpt lat="41.3738430" lon="1.1411710">
        <ele>532.8</ele>
        <time>2021-09-30T09:05:29Z</time>
      </trkpt>
      <trkpt lat="41.3738210" lon="1.1413020">
        <ele>531.4</ele>
        <time>2021-09-30T09:05:30Z</time>
      </trkpt>
      <trkpt lat="41.3738210" lon="1.1413020">
        <ele>531.4</ele>
        <time>2021-09-30T09:05:31Z</time>
      </trkpt>
      <trkpt lat="41.3738210" lon="1.1413020">
        <ele>531.4</ele>
        <time>2021-09-30T09:05:32Z</time>
      </trkpt>
      <trkpt lat="41.3738370" lon="1.1413910">
        <ele>530.6</ele>
        <time>2021-09-30T09:05:33Z</time>
      </trkpt>
      <trkpt lat="41.3738500" lon="1.1414370">
        <ele>530.1</ele>
        <time>2021-09-30T09:05:34Z</time>
      </trkpt>
      <trkpt lat="41.3738560" lon="1.1414530">
        <ele>530.0</ele>
        <time>2021-09-30T09:05:35Z</time>
      </trkpt>
      <trkpt lat="41.3738790" lon="1.1415030">
        <ele>529.5</ele>
        <time>2021-09-30T09:05:36Z</time>
      </trkpt>
      <trkpt lat="41.3738850" lon="1.1415200">
        <ele>529.3</ele>
        <time>2021-09-30T09:05:37Z</time>
      </trkpt>
      <trkpt lat="41.3738990" lon="1.1415470">
        <ele>529.1</ele>
        <time>2021-09-30T09:05:38Z</time>
      </trkpt>
      <trkpt lat="41.3739130" lon="1.1415750">
        <ele>528.8</ele>
        <time>2021-09-30T09:05:39Z</time>
      </trkpt>
      <trkpt lat="41.3739270" lon="1.1416020">
        <ele>528.5</ele>
        <time>2021-09-30T09:05:40Z</time>
      </trkpt>
      <trkpt lat="41.3739410" lon="1.1416300">
        <ele>528.2</ele>
        <time>2021-09-30T09:05:41Z</time>
      </trkpt>
      <trkpt lat="41.3739550" lon="1.1416570">
        <ele>528.0</ele>
        <time>2021-09-30T09:05:42Z</time>
      </trkpt>
      <trkpt lat="41.3739650" lon="1.1417150">
        <ele>527.4</ele>
        <time>2021-09-30T09:05:43Z</time>
      </trkpt>
      <trkpt lat="41.3739650" lon="1.1417150">
        <ele>527.4</ele>
        <time>2021-09-30T09:05:44Z</time>
      </trkpt>
      <trkpt lat="41.3739650" lon="1.1417150">
        <ele>527.4</ele>
        <time>2021-09-30T09:05:45Z</time>
      </trkpt>
      <trkpt lat="41.3739650" lon="1.1417150">
        <ele>527.4</ele>
        <time>2021-09-30T09:05:46Z</time>
      </trkpt>
      <trkpt lat="41.3739530" lon="1.1417530">
        <ele>527.1</ele>
        <time>2021-09-30T09:05:47Z</time>
      </trkpt>
      <trkpt lat="41.3739420" lon="1.1417910">
        <ele>526.7</ele>
        <time>2021-09-30T09:05:48Z</time>
      </trkpt>
      <trkpt lat="41.3739300" lon="1.1418280">
        <ele>526.2</ele>
        <time>2021-09-30T09:05:49Z</time>
      </trkpt>
      <trkpt lat="41.3739190" lon="1.1418660">
        <ele>525.8</ele>
        <time>2021-09-30T09:05:50Z</time>
      </trkpt>
      <trkpt lat="41.3739070" lon="1.1419040">
        <ele>525.3</ele>
        <time>2021-09-30T09:05:51Z</time>
      </trkpt>
      <trkpt lat="41.3738680" lon="1.1419740">
        <ele>524.2</ele>
        <time>2021-09-30T09:05:52Z</time>
      </trkpt>
      <trkpt lat="41.3738610" lon="1.1419850">
        <ele>524.0</ele>
        <time>2021-09-30T09:05:53Z</time>
      </trkpt>
      <trkpt lat="41.3738540" lon="1.1419970">
        <ele>523.7</ele>
        <time>2021-09-30T09:05:54Z</time>
      </trkpt>
      <trkpt lat="41.3738470" lon="1.1420080">
        <ele>523.5</ele>
        <time>2021-09-30T09:05:55Z</time>
      </trkpt>
      <trkpt lat="41.3738400" lon="1.1420190">
        <ele>523.3</ele>
        <time>2021-09-30T09:05:56Z</time>
      </trkpt>
      <trkpt lat="41.3737990" lon="1.1420930">
        <ele>521.8</ele>
        <time>2021-09-30T09:05:57Z</time>
      </trkpt>
      <trkpt lat="41.3737920" lon="1.1421110">
        <ele>521.4</ele>
        <time>2021-09-30T09:05:58Z</time>
      </trkpt>
      <trkpt lat="41.3737860" lon="1.1421290">
        <ele>521.1</ele>
        <time>2021-09-30T09:05:59Z</time>
      </trkpt>
      <trkpt lat="41.3737790" lon="1.1421480">
        <ele>520.7</ele>
        <time>2021-09-30T09:06:00Z</time>
      </trkpt>
      <trkpt lat="41.3737730" lon="1.1421660">
        <ele>520.3</ele>
        <time>2021-09-30T09:06:01Z</time>
      </trkpt>
      <trkpt lat="41.3737660" lon="1.1421840">
        <ele>519.9</ele>
        <time>2021-09-30T09:06:02Z</time>
      </trkpt>
      <trkpt lat="41.3737600" lon="1.1422020">
        <ele>519.5</ele>
        <time>2021-09-30T09:06:03Z</time>
      </trkpt>
      <trkpt lat="41.3737510" lon="1.1422250">
        <ele>519.0</ele>
        <time>2021-09-30T09:06:04Z</time>
      </trkpt>
      <trkpt lat="41.3737420" lon="1.1422470">
        <ele>518.5</ele>
        <time>2021-09-30T09:06:05Z</time>
      </trkpt>
      <trkpt lat="41.3737330" lon="1.1422700">
        <ele>518.0</ele>
        <time>2021-09-30T09:06:06Z</time>
      </trkpt>
      <trkpt lat="41.3737240" lon="1.1422920">
        <ele>517.5</ele>
        <time>2021-09-30T09:06:07Z</time>
      </trkpt>
      <trkpt lat="41.3737150" lon="1.1423150">
        <ele>517.0</ele>
        <time>2021-09-30T09:06:08Z</time>
      </trkpt>
      <trkpt lat="41.3737040" lon="1.1423360">
        <ele>516.5</ele>
        <time>2021-09-30T09:06:09Z</time>
      </trkpt>
      <trkpt lat="41.3736920" lon="1.1423580">
        <ele>516.0</ele>
        <time>2021-09-30T09:06:10Z</time>
      </trkpt>
      <trkpt lat="41.3736810" lon="1.1423790">
        <ele>515.5</ele>
        <time>2021-09-30T09:06:11Z</time>
      </trkpt>
      <trkpt lat="41.3736690" lon="1.1424010">
        <ele>515.0</ele>
        <time>2021-09-30T09:06:12Z</time>
      </trkpt>
      <trkpt lat="41.3736580" lon="1.1424220">
        <ele>514.5</ele>
        <time>2021-09-30T09:06:13Z</time>
      </trkpt>
      <trkpt lat="41.3736490" lon="1.1424260">
        <ele>514.3</ele>
        <time>2021-09-30T09:06:14Z</time>
      </trkpt>
      <trkpt lat="41.3736400" lon="1.1424300">
        <ele>514.1</ele>
        <time>2021-09-30T09:06:15Z</time>
      </trkpt>
      <trkpt lat="41.3736310" lon="1.1424350">
        <ele>513.8</ele>
        <time>2021-09-30T09:06:16Z</time>
      </trkpt>
      <trkpt lat="41.3736220" lon="1.1424390">
        <ele>513.6</ele>
        <time>2021-09-30T09:06:17Z</time>
      </trkpt>
      <trkpt lat="41.3736130" lon="1.1424430">
        <ele>513.4</ele>
        <time>2021-09-30T09:06:18Z</time>
      </trkpt>
      <trkpt lat="41.3735680" lon="1.1424640">
        <ele>512.2</ele>
        <time>2021-09-30T09:06:19Z</time>
      </trkpt>
      <trkpt lat="41.3735680" lon="1.1424640">
        <ele>512.2</ele>
        <time>2021-09-30T09:06:20Z</time>
      </trkpt>
      <trkpt lat="41.3735680" lon="1.1424640">
        <ele>512.2</ele>
        <time>2021-09-30T09:06:21Z</time>
      </trkpt>
      <trkpt lat="41.3735680" lon="1.1424640">
        <ele>512.2</ele>
        <time>2021-09-30T09:06:22Z</time>
      </trkpt>
      <trkpt lat="41.3734590" lon="1.1424680">
        <ele>504.8</ele>
        <time>2021-09-30T09:06:23Z</time>
      </trkpt>
      <trkpt lat="41.3734590" lon="1.1424680">
        <ele>504.8</ele>
        <time>2021-09-30T09:06:24Z</time>
      </trkpt>
      <trkpt lat="41.3734590" lon="1.1424680">
        <ele>504.8</ele>
        <time>2021-09-30T09:06:25Z</time>
      </trkpt>
      <trkpt lat="41.3734590" lon="1.1424680">
        <ele>504.8</ele>
        <time>2021-09-30T09:06:26Z</time>
      </trkpt>
      <trkpt lat="41.3733820" lon="1.1424530">
        <ele>504.8</ele>
        <time>2021-09-30T09:06:27Z</time>
      </trkpt>
      <trkpt lat="41.3733820" lon="1.1424530">
        <ele>504.8</ele>
        <time>2021-09-30T09:06:28Z</time>
      </trkpt>
      <trkpt lat="41.3733570" lon="1.1424690">
        <ele>504.8</ele>
        <time>2021-09-30T09:06:29Z</time>
      </trkpt>
      <trkpt lat="41.3733570" lon="1.1424690">
        <ele>495.0</ele>
        <time>2021-09-30T09:06:30Z</time>
      </trkpt>
      <trkpt lat="41.3733440" lon="1.1425220">
        <ele>494.1</ele>
        <time>2021-09-30T09:06:31Z</time>
      </trkpt>
      <trkpt lat="41.3733440" lon="1.1425350">
        <ele>493.9</ele>
        <time>2021-09-30T09:06:32Z</time>
      </trkpt>
      <trkpt lat="41.3733470" lon="1.1425630">
        <ele>493.4</ele>
        <time>2021-09-30T09:06:33Z</time>
      </trkpt>
      <trkpt lat="41.3733570" lon="1.1425920">
        <ele>492.9</ele>
        <time>2021-09-30T09:06:34Z</time>
      </trkpt>
      <trkpt lat="41.3733680" lon="1.1426400">
        <ele>492.1</ele>
        <time>2021-09-30T09:06:35Z</time>
      </trkpt>
      <trkpt lat="41.3733730" lon="1.1426620">
        <ele>491.8</ele>
        <time>2021-09-30T09:06:36Z</time>
      </trkpt>
      <trkpt lat="41.3733790" lon="1.1426830">
        <ele>491.4</ele>
        <time>2021-09-30T09:06:37Z</time>
      </trkpt>
      <trkpt lat="41.3733840" lon="1.1427050">
        <ele>491.0</ele>
        <time>2021-09-30T09:06:38Z</time>
      </trkpt>
      <trkpt lat="41.3733890" lon="1.1427260">
        <ele>490.7</ele>
        <time>2021-09-30T09:06:39Z</time>
      </trkpt>
      <trkpt lat="41.3733890" lon="1.1427260">
        <ele>490.7</ele>
        <time>2021-09-30T09:06:40Z</time>
      </trkpt>
      <trkpt lat="41.3733890" lon="1.1427260">
        <ele>490.7</ele>
        <time>2021-09-30T09:06:41Z</time>
      </trkpt>
      <trkpt lat="41.3733890" lon="1.1427260">
        <ele>490.7</ele>
        <time>2021-09-30T09:06:42Z</time>
      </trkpt>
      <trkpt lat="41.3733890" lon="1.1427260">
        <ele>490.7</ele>
        <time>2021-09-30T09:06:43Z</time>
      </trkpt>
      <trkpt lat="41.3733950" lon="1.1427660">
        <ele>490.0</ele>
        <time>2021-09-30T09:06:44Z</time>
      </trkpt>
      <trkpt lat="41.3734020" lon="1.1428070">
        <ele>489.3</ele>
        <time>2021-09-30T09:06:45Z</time>
      </trkpt>
      <trkpt lat="41.3734080" lon="1.1428470">
        <ele>488.6</ele>
        <time>2021-09-30T09:06:46Z</time>
      </trkpt>
      <trkpt lat="41.3734150" lon="1.1428880">
        <ele>487.8</ele>
        <time>2021-09-30T09:06:47Z</time>
      </trkpt>
      <trkpt lat="41.3734210" lon="1.1429280">
        <ele>487.1</ele>
        <time>2021-09-30T09:06:48Z</time>
      </trkpt>
      <trkpt lat="41.3734370" lon="1.1429900">
        <ele>485.8</ele>
        <time>2021-09-30T09:06:49Z</time>
      </trkpt>
      <trkpt lat="41.3734370" lon="1.1429900">
        <ele>485.8</ele>
        <time>2021-09-30T09:06:50Z</time>
      </trkpt>
      <trkpt lat="41.3734370" lon="1.1429900">
        <ele>485.8</ele>
        <time>2021-09-30T09:06:51Z</time>
      </trkpt>
      <trkpt lat="41.3734370" lon="1.1429900">
        <ele>485.8</ele>
        <time>2021-09-30T09:06:52Z</time>
      </trkpt>
      <trkpt lat="41.3734430" lon="1.1431250">
        <ele>482.9</ele>
        <time>2021-09-30T09:06:53Z</time>
      </trkpt>
      <trkpt lat="41.3734430" lon="1.1431250">
        <ele>482.9</ele>
        <time>2021-09-30T09:06:54Z</time>
      </trkpt>
      <trkpt lat="41.3734430" lon="1.1431250">
        <ele>482.9</ele>
        <time>2021-09-30T09:06:55Z</time>
      </trkpt>
      <trkpt lat="41.3734430" lon="1.1431250">
        <ele>482.9</ele>
        <time>2021-09-30T09:06:56Z</time>
      </trkpt>
      <trkpt lat="41.3734430" lon="1.1431250">
        <ele>482.9</ele>
        <time>2021-09-30T09:06:57Z</time>
      </trkpt>
      <trkpt lat="41.3733980" lon="1.1432680">
        <ele>479.6</ele>
        <time>2021-09-30T09:06:58Z</time>
      </trkpt>
      <trkpt lat="41.3733880" lon="1.1432840">
        <ele>479.1</ele>
        <time>2021-09-30T09:06:59Z</time>
      </trkpt>
      <trkpt lat="41.3733780" lon="1.1433000">
        <ele>478.7</ele>
        <time>2021-09-30T09:07:00Z</time>
      </trkpt>
      <trkpt lat="41.3733670" lon="1.1433160">
        <ele>478.2</ele>
        <time>2021-09-30T09:07:01Z</time>
      </trkpt>
      <trkpt lat="41.3733570" lon="1.1433320">
        <ele>477.8</ele>
        <time>2021-09-30T09:07:02Z</time>
      </trkpt>
      <trkpt lat="41.3733470" lon="1.1433480">
        <ele>477.4</ele>
        <time>2021-09-30T09:07:03Z</time>
      </trkpt>
      <trkpt lat="41.3733430" lon="1.1433570">
        <ele>477.2</ele>
        <time>2021-09-30T09:07:04Z</time>
      </trkpt>
      <trkpt lat="41.3733390" lon="1.1433660">
        <ele>477.0</ele>
        <time>2021-09-30T09:07:05Z</time>
      </trkpt>
      <trkpt lat="41.3733350" lon="1.1433750">
        <ele>476.8</ele>
        <time>2021-09-30T09:07:06Z</time>
      </trkpt>
      <trkpt lat="41.3733310" lon="1.1433840">
        <ele>476.6</ele>
        <time>2021-09-30T09:07:07Z</time>
      </trkpt>
      <trkpt lat="41.3733270" lon="1.1433930">
        <ele>476.4</ele>
        <time>2021-09-30T09:07:08Z</time>
      </trkpt>
      <trkpt lat="41.3733230" lon="1.1434020">
        <ele>476.2</ele>
        <time>2021-09-30T09:07:09Z</time>
      </trkpt>
      <trkpt lat="41.3732990" lon="1.1434550">
        <ele>475.0</ele>
        <time>2021-09-30T09:07:10Z</time>
      </trkpt>
      <trkpt lat="41.3732990" lon="1.1434550">
        <ele>475.0</ele>
        <time>2021-09-30T09:07:11Z</time>
      </trkpt>
      <trkpt lat="41.3732990" lon="1.1434550">
        <ele>475.0</ele>
        <time>2021-09-30T09:07:12Z</time>
      </trkpt>
      <trkpt lat="41.3733000" lon="1.1434910">
        <ele>474.3</ele>
        <time>2021-09-30T09:07:13Z</time>
      </trkpt>
      <trkpt lat="41.3733010" lon="1.1435280">
        <ele>473.6</ele>
        <time>2021-09-30T09:07:14Z</time>
      </trkpt>
      <trkpt lat="41.3733030" lon="1.1435640">
        <ele>472.9</ele>
        <time>2021-09-30T09:07:15Z</time>
      </trkpt>
      <trkpt lat="41.3733040" lon="1.1436000">
        <ele>472.2</ele>
        <time>2021-09-30T09:07:16Z</time>
      </trkpt>
      <trkpt lat="41.3733050" lon="1.1436370">
        <ele>471.4</ele>
        <time>2021-09-30T09:07:17Z</time>
      </trkpt>
      <trkpt lat="41.3733060" lon="1.1436730">
        <ele>470.6</ele>
        <time>2021-09-30T09:07:18Z</time>
      </trkpt>
      <trkpt lat="41.3733060" lon="1.1437590">
        <ele>468.6</ele>
        <time>2021-09-30T09:07:19Z</time>
      </trkpt>
      <trkpt lat="41.3733030" lon="1.1437790">
        <ele>468.2</ele>
        <time>2021-09-30T09:07:20Z</time>
      </trkpt>
      <trkpt lat="41.3733000" lon="1.1437980">
        <ele>467.7</ele>
        <time>2021-09-30T09:07:21Z</time>
      </trkpt>
      <trkpt lat="41.3732970" lon="1.1438170">
        <ele>467.2</ele>
        <time>2021-09-30T09:07:22Z</time>
      </trkpt>
      <trkpt lat="41.3732940" lon="1.1438370">
        <ele>466.8</ele>
        <time>2021-09-30T09:07:23Z</time>
      </trkpt>
      <trkpt lat="41.3732910" lon="1.1438560">
        <ele>466.3</ele>
        <time>2021-09-30T09:07:24Z</time>
      </trkpt>
      <trkpt lat="41.3732880" lon="1.1438750">
        <ele>465.8</ele>
        <time>2021-09-30T09:07:25Z</time>
      </trkpt>
      <trkpt lat="41.3732850" lon="1.1438940">
        <ele>465.4</ele>
        <time>2021-09-30T09:07:26Z</time>
      </trkpt>
      <trkpt lat="41.3732820" lon="1.1439140">
        <ele>464.9</ele>
        <time>2021-09-30T09:07:27Z</time>
      </trkpt>
      <trkpt lat="41.3732790" lon="1.1439330">
        <ele>464.4</ele>
        <time>2021-09-30T09:07:28Z</time>
      </trkpt>
      <trkpt lat="41.3732610" lon="1.1439490">
        <ele>463.8</ele>
        <time>2021-09-30T09:07:29Z</time>
      </trkpt>
      <trkpt lat="41.3732430" lon="1.1439660">
        <ele>463.1</ele>
        <time>2021-09-30T09:07:30Z</time>
      </trkpt>
      <trkpt lat="41.3732250" lon="1.1439820">
        <ele>462.5</ele>
        <time>2021-09-30T09:07:31Z</time>
      </trkpt>
      <trkpt lat="41.3732070" lon="1.1439980">
        <ele>461.9</ele>
        <time>2021-09-30T09:07:32Z</time>
      </trkpt>
      <trkpt lat="41.3731890" lon="1.1440150">
        <ele>461.3</ele>
        <time>2021-09-30T09:07:33Z</time>
      </trkpt>
      <trkpt lat="41.3731710" lon="1.1440310">
        <ele>460.7</ele>
        <time>2021-09-30T09:07:34Z</time>
      </trkpt>
      <trkpt lat="41.3731530" lon="1.1440470">
        <ele>460.1</ele>
        <time>2021-09-30T09:07:35Z</time>
      </trkpt>
      <trkpt lat="41.3731350" lon="1.1440630">
        <ele>459.5</ele>
        <time>2021-09-30T09:07:36Z</time>
      </trkpt>
      <trkpt lat="41.3731170" lon="1.1440800">
        <ele>459.0</ele>
        <time>2021-09-30T09:07:37Z</time>
      </trkpt>
      <trkpt lat="41.3730990" lon="1.1440960">
        <ele>458.4</ele>
        <time>2021-09-30T09:07:38Z</time>
      </trkpt>
      <trkpt lat="41.3730850" lon="1.1440920">
        <ele>458.1</ele>
        <time>2021-09-30T09:07:39Z</time>
      </trkpt>
      <trkpt lat="41.3730710" lon="1.1440880">
        <ele>457.7</ele>
        <time>2021-09-30T09:07:40Z</time>
      </trkpt>
      <trkpt lat="41.3730570" lon="1.1440840">
        <ele>457.4</ele>
        <time>2021-09-30T09:07:41Z</time>
      </trkpt>
      <trkpt lat="41.3730430" lon="1.1440800">
        <ele>457.1</ele>
        <time>2021-09-30T09:07:42Z</time>
      </trkpt>
      <trkpt lat="41.3730290" lon="1.1440760">
        <ele>456.8</ele>
        <time>2021-09-30T09:07:43Z</time>
      </trkpt>
      <trkpt lat="41.3730150" lon="1.1440720">
        <ele>456.4</ele>
        <time>2021-09-30T09:07:44Z</time>
      </trkpt>
      <trkpt lat="41.3730010" lon="1.1440680">
        <ele>456.1</ele>
        <time>2021-09-30T09:07:45Z</time>
      </trkpt>
      <trkpt lat="41.3729870" lon="1.1440640">
        <ele>455.8</ele>
        <time>2021-09-30T09:07:46Z</time>
      </trkpt>
      <trkpt lat="41.3729730" lon="1.1440600">
        <ele>455.5</ele>
        <time>2021-09-30T09:07:47Z</time>
      </trkpt>
      <trkpt lat="41.3729590" lon="1.1440560">
        <ele>455.2</ele>
        <time>2021-09-30T09:07:48Z</time>
      </trkpt>
      <trkpt lat="41.3729490" lon="1.1440670">
        <ele>454.9</ele>
        <time>2021-09-30T09:07:49Z</time>
      </trkpt>
      <trkpt lat="41.3729390" lon="1.1440780">
        <ele>454.6</ele>
        <time>2021-09-30T09:07:50Z</time>
      </trkpt>
      <trkpt lat="41.3729280" lon="1.1440890">
        <ele>454.3</ele>
        <time>2021-09-30T09:07:51Z</time>
      </trkpt>
      <trkpt lat="41.3729180" lon="1.1441000">
        <ele>454.0</ele>
        <time>2021-09-30T09:07:52Z</time>
      </trkpt>
      <trkpt lat="41.3729080" lon="1.1441110">
        <ele>453.8</ele>
        <time>2021-09-30T09:07:53Z</time>
      </trkpt>
      <trkpt lat="41.3728980" lon="1.1441230">
        <ele>453.5</ele>
        <time>2021-09-30T09:07:54Z</time>
      </trkpt>
      <trkpt lat="41.3728880" lon="1.1441340">
        <ele>453.3</ele>
        <time>2021-09-30T09:07:55Z</time>
      </trkpt>
      <trkpt lat="41.3728780" lon="1.1441450">
        <ele>453.0</ele>
        <time>2021-09-30T09:07:56Z</time>
      </trkpt>
      <trkpt lat="41.3728670" lon="1.1441560">
        <ele>452.8</ele>
        <time>2021-09-30T09:07:57Z</time>
      </trkpt>
      <trkpt lat="41.3728570" lon="1.1441670">
        <ele>452.5</ele>
        <time>2021-09-30T09:07:58Z</time>
      </trkpt>
      <trkpt lat="41.3728470" lon="1.1441780">
        <ele>452.3</ele>
        <time>2021-09-30T09:07:59Z</time>
      </trkpt>
      <trkpt lat="41.3728530" lon="1.1442270">
        <ele>451.7</ele>
        <time>2021-09-30T09:08:00Z</time>
      </trkpt>
      <trkpt lat="41.3728590" lon="1.1442750">
        <ele>451.2</ele>
        <time>2021-09-30T09:08:01Z</time>
      </trkpt>
      <trkpt lat="41.3728650" lon="1.1443240">
        <ele>450.7</ele>
        <time>2021-09-30T09:08:02Z</time>
      </trkpt>
      <trkpt lat="41.3728710" lon="1.1443720">
        <ele>450.3</ele>
        <time>2021-09-30T09:08:03Z</time>
      </trkpt>
      <trkpt lat="41.3728780" lon="1.1444210">
        <ele>449.9</ele>
        <time>2021-09-30T09:08:04Z</time>
      </trkpt>
      <trkpt lat="41.3728840" lon="1.1444700">
        <ele>449.4</ele>
        <time>2021-09-30T09:08:05Z</time>
      </trkpt>
      <trkpt lat="41.3728900" lon="1.1445180">
        <ele>449.0</ele>
        <time>2021-09-30T09:08:06Z</time>
      </trkpt>
      <trkpt lat="41.3728960" lon="1.1445670">
        <ele>448.6</ele>
        <time>2021-09-30T09:08:07Z</time>
      </trkpt>
      <trkpt lat="41.3729020" lon="1.1446150">
        <ele>448.2</ele>
        <time>2021-09-30T09:08:08Z</time>
      </trkpt>
      <trkpt lat="41.3729080" lon="1.1446640">
        <ele>447.4</ele>
        <time>2021-09-30T09:08:09Z</time>
      </trkpt>
      <trkpt lat="41.3729210" lon="1.1446940">
        <ele>447.1</ele>
        <time>2021-09-30T09:08:10Z</time>
      </trkpt>
      <trkpt lat="41.3729330" lon="1.1447240">
        <ele>446.3</ele>
        <time>2021-09-30T09:08:11Z</time>
      </trkpt>
      <trkpt lat="41.3729460" lon="1.1447530">
        <ele>446.7</ele>
        <time>2021-09-30T09:08:12Z</time>
      </trkpt>
      <trkpt lat="41.3729580" lon="1.1447830">
        <ele>445.9</ele>
        <time>2021-09-30T09:08:13Z</time>
      </trkpt>
      <trkpt lat="41.3729710" lon="1.1448130">
        <ele>445.0</ele>
        <time>2021-09-30T09:08:14Z</time>
      </trkpt>
      <trkpt lat="41.3729830" lon="1.1448430">
        <ele>445.5</ele>
        <time>2021-09-30T09:08:15Z</time>
      </trkpt>
      <trkpt lat="41.3729960" lon="1.1448730">
        <ele>444.6</ele>
        <time>2021-09-30T09:08:16Z</time>
      </trkpt>
      <trkpt lat="41.3730080" lon="1.1449030">
        <ele>443.7</ele>
        <time>2021-09-30T09:08:17Z</time>
      </trkpt>
      <trkpt lat="41.3730210" lon="1.1449320">
        <ele>444.3</ele>
        <time>2021-09-30T09:08:18Z</time>
      </trkpt>
      <trkpt lat="41.3730330" lon="1.1449620">
        <ele>443.3</ele>
        <time>2021-09-30T09:08:19Z</time>
      </trkpt>
      <trkpt lat="41.3730460" lon="1.1449920">
        <ele>443.0</ele>
        <time>2021-09-30T09:08:20Z</time>
      </trkpt>
      <trkpt lat="41.3730370" lon="1.1449940">
        <ele>442.2</ele>
        <time>2021-09-30T09:08:21Z</time>
      </trkpt>
      <trkpt lat="41.3730290" lon="1.1449970">
        <ele>442.1</ele>
        <time>2021-09-30T09:08:22Z</time>
      </trkpt>
      <trkpt lat="41.3730200" lon="1.1449990">
        <ele>442.0</ele>
        <time>2021-09-30T09:08:23Z</time>
      </trkpt>
      <trkpt lat="41.3730120" lon="1.1450010">
        <ele>441.9</ele>
        <time>2021-09-30T09:08:24Z</time>
      </trkpt>
      <trkpt lat="41.3730030" lon="1.1450040">
        <ele>441.2</ele>
        <time>2021-09-30T09:08:25Z</time>
      </trkpt>
      <trkpt lat="41.3729950" lon="1.1450060">
        <ele>441.1</ele>
        <time>2021-09-30T09:08:26Z</time>
      </trkpt>
      <trkpt lat="41.3729860" lon="1.1450080">
        <ele>441.0</ele>
        <time>2021-09-30T09:08:27Z</time>
      </trkpt>
      <trkpt lat="41.3729780" lon="1.1450100">
        <ele>440.9</ele>
        <time>2021-09-30T09:08:28Z</time>
      </trkpt>
      <trkpt lat="41.3729690" lon="1.1450130">
        <ele>440.3</ele>
        <time>2021-09-30T09:08:29Z</time>
      </trkpt>
      <trkpt lat="41.3729610" lon="1.1450150">
        <ele>440.2</ele>
        <time>2021-09-30T09:08:30Z</time>
      </trkpt>
      <trkpt lat="41.3729520" lon="1.1450170">
        <ele>440.1</ele>
        <time>2021-09-30T09:08:31Z</time>
      </trkpt>
      <trkpt lat="41.3729430" lon="1.1450200">
        <ele>439.6</ele>
        <time>2021-09-30T09:08:32Z</time>
      </trkpt>
      <trkpt lat="41.3729350" lon="1.1450220">
        <ele>439.5</ele>
        <time>2021-09-30T09:08:33Z</time>
      </trkpt>
      <trkpt lat="41.3729260" lon="1.1450240">
        <ele>439.4</ele>
        <time>2021-09-30T09:08:34Z</time>
      </trkpt>
      <trkpt lat="41.3729180" lon="1.1450270">
        <ele>438.5</ele>
        <time>2021-09-30T09:08:35Z</time>
      </trkpt>
      <trkpt lat="41.3729090" lon="1.1450290">
        <ele>438.1</ele>
        <time>2021-09-30T09:08:36Z</time>
      </trkpt>
      <trkpt lat="41.3729010" lon="1.1450310">
        <ele>438.0</ele>
        <time>2021-09-30T09:08:37Z</time>
      </trkpt>
      <trkpt lat="41.3728920" lon="1.1450330">
        <ele>437.9</ele>
        <time>2021-09-30T09:08:38Z</time>
      </trkpt>
      <trkpt lat="41.3728840" lon="1.1450360">
        <ele>437.8</ele>
        <time>2021-09-30T09:08:39Z</time>
      </trkpt>
      <trkpt lat="41.3728750" lon="1.1450380">
        <ele>437.5</ele>
        <time>2021-09-30T09:08:40Z</time>
      </trkpt>
      <trkpt lat="41.3728860" lon="1.1450590">
        <ele>437.7</ele>
        <time>2021-09-30T09:08:41Z</time>
      </trkpt>
      <trkpt lat="41.3728970" lon="1.1450800">
        <ele>436.8</ele>
        <time>2021-09-30T09:08:42Z</time>
      </trkpt>
      <trkpt lat="41.3729090" lon="1.1451000">
        <ele>436.7</ele>
        <time>2021-09-30T09:08:43Z</time>
      </trkpt>
      <trkpt lat="41.3729200" lon="1.1451210">
        <ele>436.2</ele>
        <time>2021-09-30T09:08:44Z</time>
      </trkpt>
      <trkpt lat="41.3729310" lon="1.1451420">
        <ele>436.1</ele>
        <time>2021-09-30T09:08:45Z</time>
      </trkpt>
      <trkpt lat="41.3729420" lon="1.1451630">
        <ele>435.3</ele>
        <time>2021-09-30T09:08:46Z</time>
      </trkpt>
      <trkpt lat="41.3729530" lon="1.1451840">
        <ele>435.5</ele>
        <time>2021-09-30T09:08:47Z</time>
      </trkpt>
      <trkpt lat="41.3729640" lon="1.1452050">
        <ele>434.7</ele>
        <time>2021-09-30T09:08:48Z</time>
      </trkpt>
      <trkpt lat="41.3729760" lon="1.1452250">
        <ele>434.6</ele>
        <time>2021-09-30T09:08:49Z</time>
      </trkpt>
      <trkpt lat="41.3729870" lon="1.1452460">
        <ele>434.0</ele>
        <time>2021-09-30T09:08:50Z</time>
      </trkpt>
      <trkpt lat="41.3729980" lon="1.1452670">
        <ele>433.7</ele>
        <time>2021-09-30T09:08:51Z</time>
      </trkpt>
      <trkpt lat="41.3729840" lon="1.1452860">
        <ele>433.3</ele>
        <time>2021-09-30T09:08:52Z</time>
      </trkpt>
      <trkpt lat="41.3729710" lon="1.1453060">
        <ele>433.0</ele>
        <time>2021-09-30T09:08:53Z</time>
      </trkpt>
      <trkpt lat="41.3729570" lon="1.1453250">
        <ele>432.7</ele>
        <time>2021-09-30T09:08:54Z</time>
      </trkpt>
      <trkpt lat="41.3729440" lon="1.1453450">
        <ele>432.4</ele>
        <time>2021-09-30T09:08:55Z</time>
      </trkpt>
      <trkpt lat="41.3729300" lon="1.1453640">
        <ele>432.0</ele>
        <time>2021-09-30T09:08:56Z</time>
      </trkpt>
      <trkpt lat="41.3729170" lon="1.1453840">
        <ele>431.8</ele>
        <time>2021-09-30T09:08:57Z</time>
      </trkpt>
      <trkpt lat="41.3729030" lon="1.1454030">
        <ele>431.5</ele>
        <time>2021-09-30T09:08:58Z</time>
      </trkpt>
      <trkpt lat="41.3728900" lon="1.1454230">
        <ele>431.3</ele>
        <time>2021-09-30T09:08:59Z</time>
      </trkpt>
      <trkpt lat="41.3728760" lon="1.1454420">
        <ele>431.0</ele>
        <time>2021-09-30T09:09:00Z</time>
      </trkpt>
      <trkpt lat="41.3728730" lon="1.1454620">
        <ele>430.8</ele>
        <time>2021-09-30T09:09:01Z</time>
      </trkpt>
      <trkpt lat="41.3728700" lon="1.1454810">
        <ele>430.6</ele>
        <time>2021-09-30T09:09:02Z</time>
      </trkpt>
      <trkpt lat="41.3728660" lon="1.1455010">
        <ele>430.4</ele>
        <time>2021-09-30T09:09:03Z</time>
      </trkpt>
      <trkpt lat="41.3728630" lon="1.1455210">
        <ele>430.3</ele>
        <time>2021-09-30T09:09:04Z</time>
      </trkpt>
      <trkpt lat="41.3728600" lon="1.1455400">
        <ele>430.1</ele>
        <time>2021-09-30T09:09:05Z</time>
      </trkpt>
      <trkpt lat="41.3728570" lon="1.1455600">
        <ele>429.9</ele>
        <time>2021-09-30T09:09:06Z</time>
      </trkpt>
      <trkpt lat="41.3728540" lon="1.1455790">
        <ele>429.5</ele>
        <time>2021-09-30T09:09:07Z</time>
      </trkpt>
      <trkpt lat="41.3728510" lon="1.1455990">
        <ele>429.3</ele>
        <time>2021-09-30T09:09:08Z</time>
      </trkpt>
      <trkpt lat="41.3728470" lon="1.1456190">
        <ele>429.1</ele>
        <time>2021-09-30T09:09:09Z</time>
      </trkpt>
      <trkpt lat="41.3728440" lon="1.1456380">
        <ele>428.9</ele>
        <time>2021-09-30T09:09:10Z</time>
      </trkpt>
      <trkpt lat="41.3728410" lon="1.1456580">
        <ele>428.6</ele>
        <time>2021-09-30T09:09:11Z</time>
      </trkpt>
      <trkpt lat="41.3728410" lon="1.1457010">
        <ele>428.2</ele>
        <time>2021-09-30T09:09:12Z</time>
      </trkpt>
      <trkpt lat="41.3728410" lon="1.1457440">
        <ele>427.7</ele>
        <time>2021-09-30T09:09:13Z</time>
      </trkpt>
      <trkpt lat="41.3728410" lon="1.1457880">
        <ele>427.3</ele>
        <time>2021-09-30T09:09:14Z</time>
      </trkpt>
      <trkpt lat="41.3728410" lon="1.1458310">
        <ele>426.8</ele>
        <time>2021-09-30T09:09:15Z</time>
      </trkpt>
      <trkpt lat="41.3728420" lon="1.1458740">
        <ele>426.4</ele>
        <time>2021-09-30T09:09:16Z</time>
      </trkpt>
      <trkpt lat="41.3728420" lon="1.1459170">
        <ele>426.0</ele>
        <time>2021-09-30T09:09:17Z</time>
      </trkpt>
      <trkpt lat="41.3728420" lon="1.1459610">
        <ele>425.6</ele>
        <time>2021-09-30T09:09:18Z</time>
      </trkpt>
      <trkpt lat="41.3728420" lon="1.1460040">
        <ele>425.1</ele>
        <time>2021-09-30T09:09:19Z</time>
      </trkpt>
      <trkpt lat="41.3728420" lon="1.1460470">
        <ele>424.7</ele>
        <time>2021-09-30T09:09:20Z</time>
      </trkpt>
      <trkpt lat="41.3728530" lon="1.1460550">
        <ele>424.5</ele>
        <time>2021-09-30T09:09:21Z</time>
      </trkpt>
      <trkpt lat="41.3728640" lon="1.1460640">
        <ele>424.3</ele>
        <time>2021-09-30T09:09:22Z</time>
      </trkpt>
      <trkpt lat="41.3728750" lon="1.1460720">
        <ele>424.2</ele>
        <time>2021-09-30T09:09:23Z</time>
      </trkpt>
      <trkpt lat="41.3728860" lon="1.1460800">
        <ele>424.0</ele>
        <time>2021-09-30T09:09:24Z</time>
      </trkpt>
      <trkpt lat="41.3728970" lon="1.1460890">
        <ele>423.8</ele>
        <time>2021-09-30T09:09:25Z</time>
      </trkpt>
      <trkpt lat="41.3729080" lon="1.1460970">
        <ele>423.6</ele>
        <time>2021-09-30T09:09:26Z</time>
      </trkpt>
      <trkpt lat="41.3729190" lon="1.1461060">
        <ele>423.5</ele>
        <time>2021-09-30T09:09:27Z</time>
      </trkpt>
      <trkpt lat="41.3729300" lon="1.1461140">
        <ele>423.3</ele>
        <time>2021-09-30T09:09:28Z</time>
      </trkpt>
      <trkpt lat="41.3729410" lon="1.1461220">
        <ele>423.1</ele>
        <time>2021-09-30T09:09:29Z</time>
      </trkpt>
      <trkpt lat="41.3729520" lon="1.1461310">
        <ele>422.9</ele>
        <time>2021-09-30T09:09:30Z</time>
      </trkpt>
      <trkpt lat="41.3729630" lon="1.1461390">
        <ele>422.7</ele>
        <time>2021-09-30T09:09:31Z</time>
      </trkpt>
      <trkpt lat="41.3729790" lon="1.1461750">
        <ele>422.2</ele>
        <time>2021-09-30T09:09:32Z</time>
      </trkpt>
      <trkpt lat="41.3729940" lon="1.1462120">
        <ele>421.7</ele>
        <time>2021-09-30T09:09:33Z</time>
      </trkpt>
      <trkpt lat="41.3730100" lon="1.1462480">
        <ele>421.1</ele>
        <time>2021-09-30T09:09:34Z</time>
      </trkpt>
      <trkpt lat="41.3730250" lon="1.1462850">
        <ele>420.6</ele>
        <time>2021-09-30T09:09:35Z</time>
      </trkpt>
      <trkpt lat="41.3730410" lon="1.1463210">
        <ele>420.1</ele>
        <time>2021-09-30T09:09:36Z</time>
      </trkpt>
      <trkpt lat="41.3730560" lon="1.1463570">
        <ele>419.6</ele>
        <time>2021-09-30T09:09:37Z</time>
      </trkpt>
      <trkpt lat="41.3730720" lon="1.1463940">
        <ele>419.0</ele>
        <time>2021-09-30T09:09:38Z</time>
      </trkpt>
      <trkpt lat="41.3730870" lon="1.1464300">
        <ele>418.6</ele>
        <time>2021-09-30T09:09:39Z</time>
      </trkpt>
      <trkpt lat="41.3731030" lon="1.1464670">
        <ele>418.1</ele>
        <time>2021-09-30T09:09:40Z</time>
      </trkpt>
      <trkpt lat="41.3731180" lon="1.1465030">
        <ele>417.7</ele>
        <time>2021-09-30T09:09:41Z</time>
      </trkpt>
      <trkpt lat="41.3731260" lon="1.1465570">
        <ele>417.1</ele>
        <time>2021-09-30T09:09:42Z</time>
      </trkpt>
      <trkpt lat="41.3731340" lon="1.1466110">
        <ele>416.5</ele>
        <time>2021-09-30T09:09:43Z</time>
      </trkpt>
      <trkpt lat="41.3731420" lon="1.1466660">
        <ele>416.0</ele>
        <time>2021-09-30T09:09:44Z</time>
      </trkpt>
      <trkpt lat="41.3731500" lon="1.1467200">
        <ele>415.4</ele>
        <time>2021-09-30T09:09:45Z</time>
      </trkpt>
      <trkpt lat="41.3731580" lon="1.1467740">
        <ele>414.8</ele>
        <time>2021-09-30T09:09:46Z</time>
      </trkpt>
      <trkpt lat="41.3731660" lon="1.1468280">
        <ele>414.3</ele>
        <time>2021-09-30T09:09:47Z</time>
      </trkpt>
      <trkpt lat="41.3731740" lon="1.1468820">
        <ele>413.7</ele>
        <time>2021-09-30T09:09:48Z</time>
      </trkpt>
      <trkpt lat="41.3731820" lon="1.1469370">
        <ele>413.4</ele>
        <time>2021-09-30T09:09:49Z</time>
      </trkpt>
      <trkpt lat="41.3731900" lon="1.1469910">
        <ele>413.3</ele>
        <time>2021-09-30T09:09:50Z</time>
      </trkpt>
      <trkpt lat="41.3731980" lon="1.1470450">
        <ele>413.1</ele>
        <time>2021-09-30T09:09:51Z</time>
      </trkpt>
      <trkpt lat="41.3731910" lon="1.1470930">
        <ele>412.9</ele>
        <time>2021-09-30T09:09:52Z</time>
      </trkpt>
      <trkpt lat="41.3731840" lon="1.1471410">
        <ele>412.6</ele>
        <time>2021-09-30T09:09:53Z</time>
      </trkpt>
      <trkpt lat="41.3731780" lon="1.1471890">
        <ele>412.4</ele>
        <time>2021-09-30T09:09:54Z</time>
      </trkpt>
      <trkpt lat="41.3731710" lon="1.1472370">
        <ele>412.1</ele>
        <time>2021-09-30T09:09:55Z</time>
      </trkpt>
      <trkpt lat="41.3731640" lon="1.1472850">
        <ele>411.8</ele>
        <time>2021-09-30T09:09:56Z</time>
      </trkpt>
      <trkpt lat="41.3731570" lon="1.1473330">
        <ele>411.6</ele>
        <time>2021-09-30T09:09:57Z</time>
      </trkpt>
      <trkpt lat="41.3731500" lon="1.1473810">
        <ele>411.3</ele>
        <time>2021-09-30T09:09:58Z</time>
      </trkpt>
      <trkpt lat="41.3731440" lon="1.1474290">
        <ele>411.0</ele>
        <time>2021-09-30T09:09:59Z</time>
      </trkpt>
      <trkpt lat="41.3731370" lon="1.1474770">
        <ele>410.8</ele>
        <time>2021-09-30T09:10:00Z</time>
      </trkpt>
      <trkpt lat="41.3731300" lon="1.1475250">
        <ele>410.5</ele>
        <time>2021-09-30T09:10:01Z</time>
      </trkpt>
      <trkpt lat="41.3731350" lon="1.1475710">
        <ele>410.2</ele>
        <time>2021-09-30T09:10:02Z</time>
      </trkpt>
      <trkpt lat="41.3731400" lon="1.1476180">
        <ele>409.9</ele>
        <time>2021-09-30T09:10:03Z</time>
      </trkpt>
      <trkpt lat="41.3731450" lon="1.1476640">
        <ele>409.6</ele>
        <time>2021-09-30T09:10:04Z</time>
      </trkpt>
      <trkpt lat="41.3731500" lon="1.1477110">
        <ele>409.3</ele>
        <time>2021-09-30T09:10:05Z</time>
      </trkpt>
      <trkpt lat="41.3731550" lon="1.1477570">
        <ele>408.9</ele>
        <time>2021-09-30T09:10:06Z</time>
      </trkpt>
      <trkpt lat="41.3731600" lon="1.1478030">
        <ele>408.6</ele>
        <time>2021-09-30T09:10:07Z</time>
      </trkpt>
      <trkpt lat="41.3731650" lon="1.1478500">
        <ele>408.3</ele>
        <time>2021-09-30T09:10:08Z</time>
      </trkpt>
      <trkpt lat="41.3731700" lon="1.1478960">
        <ele>407.9</ele>
        <time>2021-09-30T09:10:09Z</time>
      </trkpt>
      <trkpt lat="41.3731750" lon="1.1479430">
        <ele>407.6</ele>
        <time>2021-09-30T09:10:10Z</time>
      </trkpt>
      <trkpt lat="41.3731800" lon="1.1479890">
        <ele>407.3</ele>
        <time>2021-09-30T09:10:11Z</time>
      </trkpt>
      <trkpt lat="41.3731890" lon="1.1480250">
        <ele>407.0</ele>
        <time>2021-09-30T09:10:12Z</time>
      </trkpt>
      <trkpt lat="41.3731980" lon="1.1480620">
        <ele>406.8</ele>
        <time>2021-09-30T09:10:13Z</time>
      </trkpt>
      <trkpt lat="41.3732070" lon="1.1480980">
        <ele>406.5</ele>
        <time>2021-09-30T09:10:14Z</time>
      </trkpt>
      <trkpt lat="41.3732160" lon="1.1481350">
        <ele>406.3</ele>
        <time>2021-09-30T09:10:15Z</time>
      </trkpt>
      <trkpt lat="41.3732260" lon="1.1481710">
        <ele>406.0</ele>
        <time>2021-09-30T09:10:16Z</time>
      </trkpt>
      <trkpt lat="41.3732350" lon="1.1482070">
        <ele>405.8</ele>
        <time>2021-09-30T09:10:17Z</time>
      </trkpt>
      <trkpt lat="41.3732440" lon="1.1482440">
        <ele>405.5</ele>
        <time>2021-09-30T09:10:18Z</time>
      </trkpt>
      <trkpt lat="41.3732530" lon="1.1482800">
        <ele>405.3</ele>
        <time>2021-09-30T09:10:19Z</time>
      </trkpt>
      <trkpt lat="41.3732620" lon="1.1483170">
        <ele>405.0</ele>
        <time>2021-09-30T09:10:20Z</time>
      </trkpt>
      <trkpt lat="41.3732710" lon="1.1483530">
        <ele>404.7</ele>
        <time>2021-09-30T09:10:21Z</time>
      </trkpt>
      <trkpt lat="41.3732800" lon="1.1483980">
        <ele>404.5</ele>
        <time>2021-09-30T09:10:22Z</time>
      </trkpt>
      <trkpt lat="41.3732890" lon="1.1484440">
        <ele>404.2</ele>
        <time>2021-09-30T09:10:23Z</time>
      </trkpt>
      <trkpt lat="41.3732990" lon="1.1484890">
        <ele>403.9</ele>
        <time>2021-09-30T09:10:24Z</time>
      </trkpt>
      <trkpt lat="41.3733080" lon="1.1485340">
        <ele>403.6</ele>
        <time>2021-09-30T09:10:25Z</time>
      </trkpt>
      <trkpt lat="41.3733170" lon="1.1485800">
        <ele>403.3</ele>
        <time>2021-09-30T09:10:26Z</time>
      </trkpt>
      <trkpt lat="41.3733260" lon="1.1486250">
        <ele>403.1</ele>
        <time>2021-09-30T09:10:27Z</time>
      </trkpt>
      <trkpt lat="41.3733360" lon="1.1486700">
        <ele>402.9</ele>
        <time>2021-09-30T09:10:28Z</time>
      </trkpt>
      <trkpt lat="41.3733450" lon="1.1487160">
        <ele>402.8</ele>
        <time>2021-09-30T09:10:29Z</time>
      </trkpt>
      <trkpt lat="41.3733540" lon="1.1487610">
        <ele>402.7</ele>
        <time>2021-09-30T09:10:30Z</time>
      </trkpt>
      <trkpt lat="41.3733920" lon="1.1487570">
        <ele>402.6</ele>
        <time>2021-09-30T09:10:31Z</time>
      </trkpt>
      <trkpt lat="41.3734290" lon="1.1487520">
        <ele>402.5</ele>
        <time>2021-09-30T09:10:32Z</time>
      </trkpt>
      <trkpt lat="41.3734670" lon="1.1487480">
        <ele>402.6</ele>
        <time>2021-09-30T09:10:33Z</time>
      </trkpt>
      <trkpt lat="41.3735040" lon="1.1487430">
        <ele>402.6</ele>
        <time>2021-09-30T09:10:34Z</time>
      </trkpt>
      <trkpt lat="41.3735420" lon="1.1487390">
        <ele>402.7</ele>
        <time>2021-09-30T09:10:35Z</time>
      </trkpt>
      <trkpt lat="41.3735800" lon="1.1487350">
        <ele>402.8</ele>
        <time>2021-09-30T09:10:36Z</time>
      </trkpt>
      <trkpt lat="41.3736170" lon="1.1487300">
        <ele>402.8</ele>
        <time>2021-09-30T09:10:37Z</time>
      </trkpt>
      <trkpt lat="41.3736550" lon="1.1487260">
        <ele>403.0</ele>
        <time>2021-09-30T09:10:38Z</time>
      </trkpt>
      <trkpt lat="41.3736920" lon="1.1487210">
        <ele>403.1</ele>
        <time>2021-09-30T09:10:39Z</time>
      </trkpt>
      <trkpt lat="41.3737300" lon="1.1487170">
        <ele>403.2</ele>
        <time>2021-09-30T09:10:40Z</time>
      </trkpt>
      <trkpt lat="41.3737520" lon="1.1487040">
        <ele>403.2</ele>
        <time>2021-09-30T09:10:41Z</time>
      </trkpt>
      <trkpt lat="41.3737740" lon="1.1486920">
        <ele>403.3</ele>
        <time>2021-09-30T09:10:42Z</time>
      </trkpt>
      <trkpt lat="41.3737970" lon="1.1486790">
        <ele>403.3</ele>
        <time>2021-09-30T09:10:43Z</time>
      </trkpt>
      <trkpt lat="41.3738190" lon="1.1486660">
        <ele>403.4</ele>
        <time>2021-09-30T09:10:44Z</time>
      </trkpt>
      <trkpt lat="41.3738410" lon="1.1486530">
        <ele>403.4</ele>
        <time>2021-09-30T09:10:45Z</time>
      </trkpt>
      <trkpt lat="41.3738630" lon="1.1486410">
        <ele>403.5</ele>
        <time>2021-09-30T09:10:46Z</time>
      </trkpt>
      <trkpt lat="41.3738850" lon="1.1486280">
        <ele>403.5</ele>
        <time>2021-09-30T09:10:47Z</time>
      </trkpt>
      <trkpt lat="41.3739070" lon="1.1486150">
        <ele>403.5</ele>
        <time>2021-09-30T09:10:48Z</time>
      </trkpt>
      <trkpt lat="41.3739300" lon="1.1486020">
        <ele>403.5</ele>
        <time>2021-09-30T09:10:49Z</time>
      </trkpt>
      <trkpt lat="41.3739520" lon="1.1485900">
        <ele>403.4</ele>
        <time>2021-09-30T09:10:50Z</time>
      </trkpt>
      <trkpt lat="41.3739740" lon="1.1485770">
        <ele>403.3</ele>
        <time>2021-09-30T09:10:51Z</time>
      </trkpt>
      <trkpt lat="41.3740020" lon="1.1485630">
        <ele>403.2</ele>
        <time>2021-09-30T09:10:52Z</time>
      </trkpt>
      <trkpt lat="41.3740300" lon="1.1485490">
        <ele>403.1</ele>
        <time>2021-09-30T09:10:53Z</time>
      </trkpt>
      <trkpt lat="41.3740590" lon="1.1485360">
        <ele>402.9</ele>
        <time>2021-09-30T09:10:54Z</time>
      </trkpt>
      <trkpt lat="41.3740870" lon="1.1485220">
        <ele>402.7</ele>
        <time>2021-09-30T09:10:55Z</time>
      </trkpt>
      <trkpt lat="41.3741150" lon="1.1485080">
        <ele>402.4</ele>
        <time>2021-09-30T09:10:56Z</time>
      </trkpt>
      <trkpt lat="41.3741430" lon="1.1484940">
        <ele>402.2</ele>
        <time>2021-09-30T09:10:57Z</time>
      </trkpt>
      <trkpt lat="41.3741720" lon="1.1484810">
        <ele>402.0</ele>
        <time>2021-09-30T09:10:58Z</time>
      </trkpt>
      <trkpt lat="41.3742000" lon="1.1484670">
        <ele>401.7</ele>
        <time>2021-09-30T09:10:59Z</time>
      </trkpt>
      <trkpt lat="41.3742280" lon="1.1484530">
        <ele>401.4</ele>
        <time>2021-09-30T09:11:00Z</time>
      </trkpt>
      <trkpt lat="41.3742510" lon="1.1484660">
        <ele>401.2</ele>
        <time>2021-09-30T09:11:01Z</time>
      </trkpt>
      <trkpt lat="41.3742750" lon="1.1484800">
        <ele>401.0</ele>
        <time>2021-09-30T09:11:02Z</time>
      </trkpt>
      <trkpt lat="41.3742980" lon="1.1484930">
        <ele>400.7</ele>
        <time>2021-09-30T09:11:03Z</time>
      </trkpt>
      <trkpt lat="41.3743210" lon="1.1485070">
        <ele>400.5</ele>
        <time>2021-09-30T09:11:04Z</time>
      </trkpt>
      <trkpt lat="41.3743450" lon="1.1485200">
        <ele>400.2</ele>
        <time>2021-09-30T09:11:05Z</time>
      </trkpt>
      <trkpt lat="41.3743680" lon="1.1485340">
        <ele>399.9</ele>
        <time>2021-09-30T09:11:06Z</time>
      </trkpt>
      <trkpt lat="41.3743910" lon="1.1485470">
        <ele>399.7</ele>
        <time>2021-09-30T09:11:07Z</time>
      </trkpt>
      <trkpt lat="41.3744140" lon="1.1485610">
        <ele>399.4</ele>
        <time>2021-09-30T09:11:08Z</time>
      </trkpt>
      <trkpt lat="41.3744380" lon="1.1485740">
        <ele>399.2</ele>
        <time>2021-09-30T09:11:09Z</time>
      </trkpt>
      <trkpt lat="41.3744610" lon="1.1485880">
        <ele>398.9</ele>
        <time>2021-09-30T09:11:10Z</time>
      </trkpt>
      <trkpt lat="41.3744840" lon="1.1486230">
        <ele>398.6</ele>
        <time>2021-09-30T09:11:11Z</time>
      </trkpt>
      <trkpt lat="41.3745070" lon="1.1486590">
        <ele>398.3</ele>
        <time>2021-09-30T09:11:12Z</time>
      </trkpt>
      <trkpt lat="41.3745300" lon="1.1486940">
        <ele>398.0</ele>
        <time>2021-09-30T09:11:13Z</time>
      </trkpt>
      <trkpt lat="41.3745530" lon="1.1487290">
        <ele>397.7</ele>
        <time>2021-09-30T09:11:14Z</time>
      </trkpt>
      <trkpt lat="41.3745760" lon="1.1487650">
        <ele>397.4</ele>
        <time>2021-09-30T09:11:15Z</time>
      </trkpt>
      <trkpt lat="41.3745990" lon="1.1488000">
        <ele>397.1</ele>
        <time>2021-09-30T09:11:16Z</time>
      </trkpt>
      <trkpt lat="41.3746220" lon="1.1488360">
        <ele>396.8</ele>
        <time>2021-09-30T09:11:17Z</time>
      </trkpt>
      <trkpt lat="41.3746450" lon="1.1488710">
        <ele>396.5</ele>
        <time>2021-09-30T09:11:18Z</time>
      </trkpt>
      <trkpt lat="41.3746570" lon="1.1489090">
        <ele>396.3</ele>
        <time>2021-09-30T09:11:19Z</time>
      </trkpt>
      <trkpt lat="41.3746690" lon="1.1489480">
        <ele>396.0</ele>
        <time>2021-09-30T09:11:20Z</time>
      </trkpt>
      <trkpt lat="41.3746810" lon="1.1489860">
        <ele>395.8</ele>
        <time>2021-09-30T09:11:21Z</time>
      </trkpt>
      <trkpt lat="41.3746930" lon="1.1490240">
        <ele>395.6</ele>
        <time>2021-09-30T09:11:22Z</time>
      </trkpt>
      <trkpt lat="41.3747050" lon="1.1490620">
        <ele>395.4</ele>
        <time>2021-09-30T09:11:23Z</time>
      </trkpt>
      <trkpt lat="41.3747160" lon="1.1491010">
        <ele>395.1</ele>
        <time>2021-09-30T09:11:24Z</time>
      </trkpt>
      <trkpt lat="41.3747280" lon="1.1491390">
        <ele>394.9</ele>
        <time>2021-09-30T09:11:25Z</time>
      </trkpt>
      <trkpt lat="41.3747400" lon="1.1491770">
        <ele>394.7</ele>
        <time>2021-09-30T09:11:26Z</time>
      </trkpt>
      <trkpt lat="41.3747520" lon="1.1492160">
        <ele>394.5</ele>
        <time>2021-09-30T09:11:27Z</time>
      </trkpt>
      <trkpt lat="41.3747640" lon="1.1492540">
        <ele>394.3</ele>
        <time>2021-09-30T09:11:28Z</time>
      </trkpt>
      <trkpt lat="41.3747830" lon="1.1492890">
        <ele>394.1</ele>
        <time>2021-09-30T09:11:29Z</time>
      </trkpt>
      <trkpt lat="41.3748010" lon="1.1493240">
        <ele>393.8</ele>
        <time>2021-09-30T09:11:30Z</time>
      </trkpt>
      <trkpt lat="41.3748200" lon="1.1493590">
        <ele>393.6</ele>
        <time>2021-09-30T09:11:31Z</time>
      </trkpt>
      <trkpt lat="41.3748380" lon="1.1493940">
        <ele>393.3</ele>
        <time>2021-09-30T09:11:32Z</time>
      </trkpt>
      <trkpt lat="41.3748570" lon="1.1494300">
        <ele>393.0</ele>
        <time>2021-09-30T09:11:33Z</time>
      </trkpt>
      <trkpt lat="41.3748750" lon="1.1494650">
        <ele>392.6</ele>
        <time>2021-09-30T09:11:34Z</time>
      </trkpt>
      <trkpt lat="41.3748940" lon="1.1495000">
        <ele>392.3</ele>
        <time>2021-09-30T09:11:35Z</time>
      </trkpt>
      <trkpt lat="41.3749120" lon="1.1495350">
        <ele>392.0</ele>
        <time>2021-09-30T09:11:36Z</time>
      </trkpt>
      <trkpt lat="41.3749310" lon="1.1495700">
        <ele>391.6</ele>
        <time>2021-09-30T09:11:37Z</time>
      </trkpt>
      <trkpt lat="41.3749490" lon="1.1495910">
        <ele>391.4</ele>
        <time>2021-09-30T09:11:38Z</time>
      </trkpt>
      <trkpt lat="41.3749680" lon="1.1496130">
        <ele>391.2</ele>
        <time>2021-09-30T09:11:39Z</time>
      </trkpt>
      <trkpt lat="41.3749860" lon="1.1496340">
        <ele>390.9</ele>
        <time>2021-09-30T09:11:40Z</time>
      </trkpt>
      <trkpt lat="41.3750050" lon="1.1496550">
        <ele>390.7</ele>
        <time>2021-09-30T09:11:41Z</time>
      </trkpt>
      <trkpt lat="41.3750230" lon="1.1496770">
        <ele>390.5</ele>
        <time>2021-09-30T09:11:42Z</time>
      </trkpt>
      <trkpt lat="41.3750420" lon="1.1496980">
        <ele>390.3</ele>
        <time>2021-09-30T09:11:43Z</time>
      </trkpt>
      <trkpt lat="41.3750600" lon="1.1497200">
        <ele>390.1</ele>
        <time>2021-09-30T09:11:44Z</time>
      </trkpt>
      <trkpt lat="41.3750790" lon="1.1497410">
        <ele>390.0</ele>
        <time>2021-09-30T09:11:45Z</time>
      </trkpt>
      <trkpt lat="41.3750970" lon="1.1497620">
        <ele>389.8</ele>
        <time>2021-09-30T09:11:46Z</time>
      </trkpt>
      <trkpt lat="41.3751160" lon="1.1497840">
        <ele>389.6</ele>
        <time>2021-09-30T09:11:47Z</time>
      </trkpt>
      <trkpt lat="41.3751340" lon="1.1498050">
        <ele>389.4</ele>
        <time>2021-09-30T09:11:48Z</time>
      </trkpt>
      <trkpt lat="41.3751540" lon="1.1498450">
        <ele>389.1</ele>
        <time>2021-09-30T09:11:49Z</time>
      </trkpt>
      <trkpt lat="41.3751750" lon="1.1498850">
        <ele>388.8</ele>
        <time>2021-09-30T09:11:50Z</time>
      </trkpt>
      <trkpt lat="41.3751950" lon="1.1499250">
        <ele>388.6</ele>
        <time>2021-09-30T09:11:51Z</time>
      </trkpt>
      <trkpt lat="41.3752160" lon="1.1499650">
        <ele>388.3</ele>
        <time>2021-09-30T09:11:52Z</time>
      </trkpt>
      <trkpt lat="41.3752360" lon="1.1500040">
        <ele>388.0</ele>
        <time>2021-09-30T09:11:53Z</time>
      </trkpt>
      <trkpt lat="41.3752560" lon="1.1500440">
        <ele>387.8</ele>
        <time>2021-09-30T09:11:54Z</time>
      </trkpt>
      <trkpt lat="41.3752770" lon="1.1500840">
        <ele>387.5</ele>
        <time>2021-09-30T09:11:55Z</time>
      </trkpt>
      <trkpt lat="41.3752970" lon="1.1501240">
        <ele>387.3</ele>
        <time>2021-09-30T09:11:56Z</time>
      </trkpt>
      <trkpt lat="41.3753180" lon="1.1501640">
        <ele>387.1</ele>
        <time>2021-09-30T09:11:57Z</time>
      </trkpt>
      <trkpt lat="41.3753380" lon="1.1502040">
        <ele>386.9</ele>
        <time>2021-09-30T09:11:58Z</time>
      </trkpt>
      <trkpt lat="41.3753310" lon="1.1502410">
        <ele>386.7</ele>
        <time>2021-09-30T09:11:59Z</time>
      </trkpt>
      <trkpt lat="41.3753240" lon="1.1502780">
        <ele>386.5</ele>
        <time>2021-09-30T09:12:00Z</time>
      </trkpt>
      <trkpt lat="41.3753160" lon="1.1503150">
        <ele>386.4</ele>
        <time>2021-09-30T09:12:01Z</time>
      </trkpt>
      <trkpt lat="41.3753090" lon="1.1503520">
        <ele>386.2</ele>
        <time>2021-09-30T09:12:02Z</time>
      </trkpt>
      <trkpt lat="41.3753020" lon="1.1503890">
        <ele>386.0</ele>
        <time>2021-09-30T09:12:03Z</time>
      </trkpt>
      <trkpt lat="41.3752950" lon="1.1504260">
        <ele>385.9</ele>
        <time>2021-09-30T09:12:04Z</time>
      </trkpt>
      <trkpt lat="41.3752870" lon="1.1504630">
        <ele>385.7</ele>
        <time>2021-09-30T09:12:05Z</time>
      </trkpt>
      <trkpt lat="41.3752800" lon="1.1505000">
        <ele>385.5</ele>
        <time>2021-09-30T09:12:06Z</time>
      </trkpt>
      <trkpt lat="41.3752730" lon="1.1505370">
        <ele>385.3</ele>
        <time>2021-09-30T09:12:07Z</time>
      </trkpt>
      <trkpt lat="41.3752730" lon="1.1505740">
        <ele>385.1</ele>
        <time>2021-09-30T09:12:08Z</time>
      </trkpt>
      <trkpt lat="41.3752730" lon="1.1506110">
        <ele>384.9</ele>
        <time>2021-09-30T09:12:09Z</time>
      </trkpt>
      <trkpt lat="41.3752740" lon="1.1506470">
        <ele>384.7</ele>
        <time>2021-09-30T09:12:10Z</time>
      </trkpt>
      <trkpt lat="41.3752740" lon="1.1506840">
        <ele>384.5</ele>
        <time>2021-09-30T09:12:11Z</time>
      </trkpt>
      <trkpt lat="41.3752740" lon="1.1507210">
        <ele>384.3</ele>
        <time>2021-09-30T09:12:12Z</time>
      </trkpt>
      <trkpt lat="41.3752740" lon="1.1507580">
        <ele>384.1</ele>
        <time>2021-09-30T09:12:13Z</time>
      </trkpt>
      <trkpt lat="41.3752750" lon="1.1507940">
        <ele>383.9</ele>
        <time>2021-09-30T09:12:14Z</time>
      </trkpt>
      <trkpt lat="41.3752750" lon="1.1508310">
        <ele>383.7</ele>
        <time>2021-09-30T09:12:15Z</time>
      </trkpt>
      <trkpt lat="41.3752750" lon="1.1508680">
        <ele>383.5</ele>
        <time>2021-09-30T09:12:16Z</time>
      </trkpt>
      <trkpt lat="41.3752990" lon="1.1509150">
        <ele>383.1</ele>
        <time>2021-09-30T09:12:17Z</time>
      </trkpt>
      <trkpt lat="41.3753230" lon="1.1509620">
        <ele>382.8</ele>
        <time>2021-09-30T09:12:18Z</time>
      </trkpt>
      <trkpt lat="41.3753460" lon="1.1510090">
        <ele>382.5</ele>
        <time>2021-09-30T09:12:19Z</time>
      </trkpt>
      <trkpt lat="41.3753700" lon="1.1510560">
        <ele>382.2</ele>
        <time>2021-09-30T09:12:20Z</time>
      </trkpt>
      <trkpt lat="41.3753940" lon="1.1511020">
        <ele>382.0</ele>
        <time>2021-09-30T09:12:21Z</time>
      </trkpt>
      <trkpt lat="41.3754180" lon="1.1511490">
        <ele>381.7</ele>
        <time>2021-09-30T09:12:22Z</time>
      </trkpt>
      <trkpt lat="41.3754410" lon="1.1511960">
        <ele>381.5</ele>
        <time>2021-09-30T09:12:23Z</time>
      </trkpt>
      <trkpt lat="41.3754650" lon="1.1512430">
        <ele>381.3</ele>
        <time>2021-09-30T09:12:36Z</time>
      </trkpt>
      <trkpt lat="41.3754890" lon="1.1512900">
        <ele>381.1</ele>
        <time>2021-09-30T09:12:37Z</time>
      </trkpt>
      <trkpt lat="41.3754720" lon="1.1513110">
        <ele>381.0</ele>
        <time>2021-09-30T09:12:38Z</time>
      </trkpt>
      <trkpt lat="41.3754560" lon="1.1513320">
        <ele>380.9</ele>
        <time>2021-09-30T09:12:39Z</time>
      </trkpt>
      <trkpt lat="41.3754390" lon="1.1513530">
        <ele>380.9</ele>
        <time>2021-09-30T09:12:40Z</time>
      </trkpt>
      <trkpt lat="41.3754230" lon="1.1513740">
        <ele>380.8</ele>
        <time>2021-09-30T09:12:41Z</time>
      </trkpt>
      <trkpt lat="41.3754060" lon="1.1513950">
        <ele>380.7</ele>
        <time>2021-09-30T09:12:42Z</time>
      </trkpt>
      <trkpt lat="41.3753890" lon="1.1514150">
        <ele>380.7</ele>
        <time>2021-09-30T09:12:43Z</time>
      </trkpt>
      <trkpt lat="41.3753730" lon="1.1514360">
        <ele>380.6</ele>
        <time>2021-09-30T09:12:44Z</time>
      </trkpt>
      <trkpt lat="41.3753560" lon="1.1514570">
        <ele>380.6</ele>
        <time>2021-09-30T09:12:45Z</time>
      </trkpt>
      <trkpt lat="41.3753400" lon="1.1514780">
        <ele>380.5</ele>
        <time>2021-09-30T09:12:46Z</time>
      </trkpt>
      <trkpt lat="41.3753230" lon="1.1514990">
        <ele>380.5</ele>
        <time>2021-09-30T09:12:47Z</time>
      </trkpt>
      <trkpt lat="41.3752970" lon="1.1515240">
        <ele>380.5</ele>
        <time>2021-09-30T09:12:48Z</time>
      </trkpt>
      <trkpt lat="41.3752710" lon="1.1515480">
        <ele>380.4</ele>
        <time>2021-09-30T09:12:49Z</time>
      </trkpt>
      <trkpt lat="41.3752450" lon="1.1515730">
        <ele>380.4</ele>
        <time>2021-09-30T09:12:50Z</time>
      </trkpt>
      <trkpt lat="41.3752190" lon="1.1515970">
        <ele>380.3</ele>
        <time>2021-09-30T09:12:51Z</time>
      </trkpt>
      <trkpt lat="41.3751930" lon="1.1516220">
        <ele>380.3</ele>
        <time>2021-09-30T09:12:52Z</time>
      </trkpt>
      <trkpt lat="41.3751670" lon="1.1516460">
        <ele>380.3</ele>
        <time>2021-09-30T09:12:53Z</time>
      </trkpt>
      <trkpt lat="41.3751410" lon="1.1516710">
        <ele>380.2</ele>
        <time>2021-09-30T09:12:54Z</time>
      </trkpt>
      <trkpt lat="41.3751150" lon="1.1516950">
        <ele>380.2</ele>
        <time>2021-09-30T09:12:55Z</time>
      </trkpt>
      <trkpt lat="41.3750890" lon="1.1517200">
        <ele>380.1</ele>
        <time>2021-09-30T09:12:56Z</time>
      </trkpt>
      <trkpt lat="41.3750630" lon="1.1517440">
        <ele>380.1</ele>
        <time>2021-09-30T09:12:57Z</time>
      </trkpt>
      <trkpt lat="41.3750370" lon="1.1517690">
        <ele>380.0</ele>
        <time>2021-09-30T09:12:58Z</time>
      </trkpt>
      <trkpt lat="41.3750140" lon="1.1517920">
        <ele>380.0</ele>
        <time>2021-09-30T09:12:59Z</time>
      </trkpt>
      <trkpt lat="41.3749910" lon="1.1518150">
        <ele>379.9</ele>
        <time>2021-09-30T09:13:00Z</time>
      </trkpt>
      <trkpt lat="41.3749680" lon="1.1518380">
        <ele>379.9</ele>
        <time>2021-09-30T09:13:01Z</time>
      </trkpt>
      <trkpt lat="41.3749450" lon="1.1518610">
        <ele>379.8</ele>
        <time>2021-09-30T09:13:02Z</time>
      </trkpt>
      <trkpt lat="41.3749220" lon="1.1518840">
        <ele>379.7</ele>
        <time>2021-09-30T09:13:03Z</time>
      </trkpt>
      <trkpt lat="41.3748980" lon="1.1519060">
        <ele>379.6</ele>
        <time>2021-09-30T09:13:04Z</time>
      </trkpt>
      <trkpt lat="41.3748750" lon="1.1519290">
        <ele>379.6</ele>
        <time>2021-09-30T09:13:05Z</time>
      </trkpt>
      <trkpt lat="41.3748520" lon="1.1519520">
        <ele>379.5</ele>
        <time>2021-09-30T09:13:06Z</time>
      </trkpt>
      <trkpt lat="41.3748290" lon="1.1519750">
        <ele>379.4</ele>
        <time>2021-09-30T09:13:07Z</time>
      </trkpt>
      <trkpt lat="41.3748060" lon="1.1519980">
        <ele>379.3</ele>
        <time>2021-09-30T09:13:08Z</time>
      </trkpt>
      <trkpt lat="41.3747810" lon="1.1520390">
        <ele>379.1</ele>
        <time>2021-09-30T09:13:09Z</time>
      </trkpt>
      <trkpt lat="41.3747550" lon="1.1520800">
        <ele>378.9</ele>
        <time>2021-09-30T09:13:10Z</time>
      </trkpt>
      <trkpt lat="41.3747300" lon="1.1521210">
        <ele>378.7</ele>
        <time>2021-09-30T09:13:11Z</time>
      </trkpt>
      <trkpt lat="41.3747040" lon="1.1521620">
        <ele>378.5</ele>
        <time>2021-09-30T09:13:12Z</time>
      </trkpt>
      <trkpt lat="41.3746790" lon="1.1522020">
        <ele>378.2</ele>
        <time>2021-09-30T09:13:13Z</time>
      </trkpt>
      <trkpt lat="41.3746530" lon="1.1522430">
        <ele>378.0</ele>
        <time>2021-09-30T09:13:14Z</time>
      </trkpt>
      <trkpt lat="41.3746280" lon="1.1522840">
        <ele>377.7</ele>
        <time>2021-09-30T09:13:15Z</time>
      </trkpt>
      <trkpt lat="41.3746020" lon="1.1523250">
        <ele>377.5</ele>
        <time>2021-09-30T09:13:16Z</time>
      </trkpt>
      <trkpt lat="41.3745770" lon="1.1523660">
        <ele>377.2</ele>
        <time>2021-09-30T09:13:17Z</time>
      </trkpt>
      <trkpt lat="41.3745890" lon="1.1523810">
        <ele>377.1</ele>
        <time>2021-09-30T09:13:18Z</time>
      </trkpt>
      <trkpt lat="41.3746010" lon="1.1523950">
        <ele>377.0</ele>
        <time>2021-09-30T09:13:19Z</time>
      </trkpt>
      <trkpt lat="41.3746120" lon="1.1524100">
        <ele>376.9</ele>
        <time>2021-09-30T09:13:20Z</time>
      </trkpt>
      <trkpt lat="41.3746240" lon="1.1524250">
        <ele>376.8</ele>
        <time>2021-09-30T09:13:21Z</time>
      </trkpt>
      <trkpt lat="41.3746360" lon="1.1524390">
        <ele>376.7</ele>
        <time>2021-09-30T09:13:22Z</time>
      </trkpt>
      <trkpt lat="41.3746480" lon="1.1524540">
        <ele>376.6</ele>
        <time>2021-09-30T09:13:23Z</time>
      </trkpt>
      <trkpt lat="41.3746600" lon="1.1524680">
        <ele>376.5</ele>
        <time>2021-09-30T09:13:24Z</time>
      </trkpt>
      <trkpt lat="41.3746720" lon="1.1524830">
        <ele>376.4</ele>
        <time>2021-09-30T09:13:25Z</time>
      </trkpt>
      <trkpt lat="41.3746830" lon="1.1524980">
        <ele>376.4</ele>
        <time>2021-09-30T09:13:26Z</time>
      </trkpt>
      <trkpt lat="41.3746950" lon="1.1525120">
        <ele>376.3</ele>
        <time>2021-09-30T09:13:27Z</time>
      </trkpt>
      <trkpt lat="41.3747070" lon="1.1525270">
        <ele>376.2</ele>
        <time>2021-09-30T09:13:28Z</time>
      </trkpt>
      <trkpt lat="41.3747350" lon="1.1525450">
        <ele>376.0</ele>
        <time>2021-09-30T09:13:29Z</time>
      </trkpt>
      <trkpt lat="41.3747620" lon="1.1525630">
        <ele>375.8</ele>
        <time>2021-09-30T09:13:30Z</time>
      </trkpt>
      <trkpt lat="41.3747900" lon="1.1525800">
        <ele>375.7</ele>
        <time>2021-09-30T09:13:31Z</time>
      </trkpt>
      <trkpt lat="41.3748180" lon="1.1525980">
        <ele>375.5</ele>
        <time>2021-09-30T09:13:32Z</time>
      </trkpt>
      <trkpt lat="41.3748460" lon="1.1526160">
        <ele>375.3</ele>
        <time>2021-09-30T09:13:33Z</time>
      </trkpt>
      <trkpt lat="41.3748730" lon="1.1526340">
        <ele>375.2</ele>
        <time>2021-09-30T09:13:34Z</time>
      </trkpt>
      <trkpt lat="41.3749010" lon="1.1526520">
        <ele>375.0</ele>
        <time>2021-09-30T09:13:35Z</time>
      </trkpt>
      <trkpt lat="41.3749290" lon="1.1526690">
        <ele>374.8</ele>
        <time>2021-09-30T09:13:36Z</time>
      </trkpt>
      <trkpt lat="41.3749560" lon="1.1526870">
        <ele>374.7</ele>
        <time>2021-09-30T09:13:37Z</time>
      </trkpt>
      <trkpt lat="41.3749840" lon="1.1527050">
        <ele>374.6</ele>
        <time>2021-09-30T09:13:38Z</time>
      </trkpt>
      <trkpt lat="41.3750130" lon="1.1527350">
        <ele>374.4</ele>
        <time>2021-09-30T09:13:39Z</time>
      </trkpt>
      <trkpt lat="41.3750420" lon="1.1527650">
        <ele>374.3</ele>
        <time>2021-09-30T09:13:40Z</time>
      </trkpt>
      <trkpt lat="41.3750700" lon="1.1527950">
        <ele>374.2</ele>
        <time>2021-09-30T09:13:41Z</time>
      </trkpt>
      <trkpt lat="41.3750990" lon="1.1528250">
        <ele>374.1</ele>
        <time>2021-09-30T09:13:42Z</time>
      </trkpt>
      <trkpt lat="41.3751280" lon="1.1528540">
        <ele>374.0</ele>
        <time>2021-09-30T09:13:43Z</time>
      </trkpt>
      <trkpt lat="41.3751570" lon="1.1528840">
        <ele>374.0</ele>
        <time>2021-09-30T09:13:44Z</time>
      </trkpt>
      <trkpt lat="41.3751860" lon="1.1529140">
        <ele>373.9</ele>
        <time>2021-09-30T09:13:45Z</time>
      </trkpt>
      <trkpt lat="41.3752140" lon="1.1529440">
        <ele>373.8</ele>
        <time>2021-09-30T09:13:46Z</time>
      </trkpt>
      <trkpt lat="41.3752430" lon="1.1529740">
        <ele>373.5</ele>
        <time>2021-09-30T09:13:47Z</time>
      </trkpt>
      <trkpt lat="41.3752720" lon="1.1530040">
        <ele>373.3</ele>
        <time>2021-09-30T09:13:48Z</time>
      </trkpt>
      <trkpt lat="41.3753050" lon="1.1530310">
        <ele>373.1</ele>
        <time>2021-09-30T09:13:49Z</time>
      </trkpt>
      <trkpt lat="41.3753370" lon="1.1530580">
        <ele>372.9</ele>
        <time>2021-09-30T09:13:50Z</time>
      </trkpt>
      <trkpt lat="41.3753700" lon="1.1530860">
        <ele>372.7</ele>
        <time>2021-09-30T09:13:51Z</time>
      </trkpt>
      <trkpt lat="41.3754030" lon="1.1531130">
        <ele>372.5</ele>
        <time>2021-09-30T09:13:52Z</time>
      </trkpt>
      <trkpt lat="41.3754360" lon="1.1531400">
        <ele>372.4</ele>
        <time>2021-09-30T09:13:53Z</time>
      </trkpt>
      <trkpt lat="41.3754680" lon="1.1531670">
        <ele>372.2</ele>
        <time>2021-09-30T09:13:54Z</time>
      </trkpt>
      <trkpt lat="41.3755010" lon="1.1531940">
        <ele>372.1</ele>
        <time>2021-09-30T09:13:55Z</time>
      </trkpt>
      <trkpt lat="41.3755340" lon="1.1532220">
        <ele>371.9</ele>
        <time>2021-09-30T09:13:56Z</time>
      </trkpt>
      <trkpt lat="41.3755660" lon="1.1532490">
        <ele>371.7</ele>
        <time>2021-09-30T09:13:57Z</time>
      </trkpt>
      <trkpt lat="41.3755990" lon="1.1532760">
        <ele>371.5</ele>
        <time>2021-09-30T09:13:58Z</time>
      </trkpt>
      <trkpt lat="41.3756150" lon="1.1533120">
        <ele>371.3</ele>
        <time>2021-09-30T09:13:59Z</time>
      </trkpt>
      <trkpt lat="41.3756310" lon="1.1533480">
        <ele>371.1</ele>
        <time>2021-09-30T09:14:00Z</time>
      </trkpt>
      <trkpt lat="41.3756460" lon="1.1533830">
        <ele>370.9</ele>
        <time>2021-09-30T09:14:01Z</time>
      </trkpt>
      <trkpt lat="41.3756620" lon="1.1534190">
        <ele>370.8</ele>
        <time>2021-09-30T09:14:02Z</time>
      </trkpt>
      <trkpt lat="41.3756780" lon="1.1534550">
        <ele>370.6</ele>
        <time>2021-09-30T09:14:03Z</time>
      </trkpt>
      <trkpt lat="41.3756940" lon="1.1534910">
        <ele>370.4</ele>
        <time>2021-09-30T09:14:04Z</time>
      </trkpt>
      <trkpt lat="41.3757100" lon="1.1535270">
        <ele>370.2</ele>
        <time>2021-09-30T09:14:05Z</time>
      </trkpt>
      <trkpt lat="41.3757250" lon="1.1535620">
        <ele>370.0</ele>
        <time>2021-09-30T09:14:06Z</time>
      </trkpt>
      <trkpt lat="41.3757410" lon="1.1535980">
        <ele>369.9</ele>
        <time>2021-09-30T09:14:07Z</time>
      </trkpt>
      <trkpt lat="41.3757570" lon="1.1536340">
        <ele>369.7</ele>
        <time>2021-09-30T09:14:08Z</time>
      </trkpt>
      <trkpt lat="41.3757650" lon="1.1536750">
        <ele>369.5</ele>
        <time>2021-09-30T09:14:09Z</time>
      </trkpt>
      <trkpt lat="41.3757720" lon="1.1537150">
        <ele>369.3</ele>
        <time>2021-09-30T09:14:10Z</time>
      </trkpt>
      <trkpt lat="41.3757800" lon="1.1537560">
        <ele>369.1</ele>
        <time>2021-09-30T09:14:11Z</time>
      </trkpt>
      <trkpt lat="41.3757880" lon="1.1537970">
        <ele>368.9</ele>
        <time>2021-09-30T09:14:12Z</time>
      </trkpt>
      <trkpt lat="41.3757950" lon="1.1538370">
        <ele>368.8</ele>
        <time>2021-09-30T09:14:13Z</time>
      </trkpt>
      <trkpt lat="41.3758030" lon="1.1538780">
        <ele>368.6</ele>
        <time>2021-09-30T09:14:14Z</time>
      </trkpt>
      <trkpt lat="41.3758110" lon="1.1539190">
        <ele>368.4</ele>
        <time>2021-09-30T09:14:15Z</time>
      </trkpt>
      <trkpt lat="41.3758180" lon="1.1539590">
        <ele>368.2</ele>
        <time>2021-09-30T09:14:16Z</time>
      </trkpt>
      <trkpt lat="41.3758260" lon="1.1540000">
        <ele>368.1</ele>
        <time>2021-09-30T09:14:17Z</time>
      </trkpt>
      <trkpt lat="41.3758480" lon="1.1540300">
        <ele>367.9</ele>
        <time>2021-09-30T09:14:18Z</time>
      </trkpt>
      <trkpt lat="41.3758710" lon="1.1540610">
        <ele>367.7</ele>
        <time>2021-09-30T09:14:19Z</time>
      </trkpt>
      <trkpt lat="41.3758930" lon="1.1540910">
        <ele>367.6</ele>
        <time>2021-09-30T09:14:20Z</time>
      </trkpt>
      <trkpt lat="41.3759160" lon="1.1541220">
        <ele>367.4</ele>
        <time>2021-09-30T09:14:21Z</time>
      </trkpt>
      <trkpt lat="41.3759380" lon="1.1541520">
        <ele>367.2</ele>
        <time>2021-09-30T09:14:22Z</time>
      </trkpt>
      <trkpt lat="41.3759610" lon="1.1541830">
        <ele>367.1</ele>
        <time>2021-09-30T09:14:23Z</time>
      </trkpt>
      <trkpt lat="41.3759830" lon="1.1542130">
        <ele>366.9</ele>
        <time>2021-09-30T09:14:24Z</time>
      </trkpt>
      <trkpt lat="41.3760060" lon="1.1542440">
        <ele>366.7</ele>
        <time>2021-09-30T09:14:25Z</time>
      </trkpt>
      <trkpt lat="41.3760280" lon="1.1542740">
        <ele>366.6</ele>
        <time>2021-09-30T09:14:26Z</time>
      </trkpt>
      <trkpt lat="41.3760470" lon="1.1542970">
        <ele>366.4</ele>
        <time>2021-09-30T09:14:27Z</time>
      </trkpt>
      <trkpt lat="41.3760670" lon="1.1543210">
        <ele>366.3</ele>
        <time>2021-09-30T09:14:28Z</time>
      </trkpt>
      <trkpt lat="41.3760860" lon="1.1543440">
        <ele>366.2</ele>
        <time>2021-09-30T09:14:29Z</time>
      </trkpt>
      <trkpt lat="41.3761060" lon="1.1543670">
        <ele>366.0</ele>
        <time>2021-09-30T09:14:30Z</time>
      </trkpt>
      <trkpt lat="41.3761250" lon="1.1543900">
        <ele>365.9</ele>
        <time>2021-09-30T09:14:31Z</time>
      </trkpt>
      <trkpt lat="41.3761450" lon="1.1544140">
        <ele>365.7</ele>
        <time>2021-09-30T09:14:32Z</time>
      </trkpt>
      <trkpt lat="41.3761640" lon="1.1544370">
        <ele>365.6</ele>
        <time>2021-09-30T09:14:33Z</time>
      </trkpt>
      <trkpt lat="41.3761840" lon="1.1544600">
        <ele>365.4</ele>
        <time>2021-09-30T09:14:34Z</time>
      </trkpt>
      <trkpt lat="41.3762030" lon="1.1544830">
        <ele>365.3</ele>
        <time>2021-09-30T09:14:35Z</time>
      </trkpt>
      <trkpt lat="41.3762230" lon="1.1545070">
        <ele>365.1</ele>
        <time>2021-09-30T09:14:36Z</time>
      </trkpt>
      <trkpt lat="41.3762420" lon="1.1545300">
        <ele>364.9</ele>
        <time>2021-09-30T09:14:37Z</time>
      </trkpt>
      <trkpt lat="41.3762600" lon="1.1545620">
        <ele>364.8</ele>
        <time>2021-09-30T09:14:38Z</time>
      </trkpt>
      <trkpt lat="41.3762770" lon="1.1545940">
        <ele>364.6</ele>
        <time>2021-09-30T09:14:39Z</time>
      </trkpt>
      <trkpt lat="41.3762950" lon="1.1546260">
        <ele>364.4</ele>
        <time>2021-09-30T09:14:40Z</time>
      </trkpt>
      <trkpt lat="41.3763120" lon="1.1546580">
        <ele>364.2</ele>
        <time>2021-09-30T09:14:41Z</time>
      </trkpt>
      <trkpt lat="41.3763300" lon="1.1546900">
        <ele>364.1</ele>
        <time>2021-09-30T09:14:42Z</time>
      </trkpt>
      <trkpt lat="41.3763470" lon="1.1547220">
        <ele>363.9</ele>
        <time>2021-09-30T09:14:43Z</time>
      </trkpt>
      <trkpt lat="41.3763650" lon="1.1547540">
        <ele>363.7</ele>
        <time>2021-09-30T09:14:44Z</time>
      </trkpt>
      <trkpt lat="41.3763820" lon="1.1547860">
        <ele>363.6</ele>
        <time>2021-09-30T09:14:45Z</time>
      </trkpt>
      <trkpt lat="41.3764000" lon="1.1548180">
        <ele>363.4</ele>
        <time>2021-09-30T09:14:46Z</time>
      </trkpt>
      <trkpt lat="41.3764170" lon="1.1548500">
        <ele>363.3</ele>
        <time>2021-09-30T09:14:47Z</time>
      </trkpt>
      <trkpt lat="41.3764450" lon="1.1548890">
        <ele>363.1</ele>
        <time>2021-09-30T09:14:48Z</time>
      </trkpt>
      <trkpt lat="41.3764720" lon="1.1549290">
        <ele>362.9</ele>
        <time>2021-09-30T09:14:49Z</time>
      </trkpt>
      <trkpt lat="41.3765000" lon="1.1549680">
        <ele>362.7</ele>
        <time>2021-09-30T09:14:50Z</time>
      </trkpt>
      <trkpt lat="41.3765280" lon="1.1550080">
        <ele>362.5</ele>
        <time>2021-09-30T09:14:51Z</time>
      </trkpt>
      <trkpt lat="41.3765560" lon="1.1550470">
        <ele>362.3</ele>
        <time>2021-09-30T09:14:52Z</time>
      </trkpt>
      <trkpt lat="41.3765830" lon="1.1550860">
        <ele>362.1</ele>
        <time>2021-09-30T09:14:53Z</time>
      </trkpt>
      <trkpt lat="41.3766110" lon="1.1551260">
        <ele>361.9</ele>
        <time>2021-09-30T09:14:54Z</time>
      </trkpt>
      <trkpt lat="41.3766390" lon="1.1551650">
        <ele>361.8</ele>
        <time>2021-09-30T09:14:55Z</time>
      </trkpt>
      <trkpt lat="41.3766660" lon="1.1552050">
        <ele>361.6</ele>
        <time>2021-09-30T09:14:56Z</time>
      </trkpt>
      <trkpt lat="41.3766940" lon="1.1552440">
        <ele>361.4</ele>
        <time>2021-09-30T09:14:57Z</time>
      </trkpt>
      <trkpt lat="41.3767200" lon="1.1552780">
        <ele>361.3</ele>
        <time>2021-09-30T09:14:58Z</time>
      </trkpt>
      <trkpt lat="41.3767460" lon="1.1553120">
        <ele>361.2</ele>
        <time>2021-09-30T09:14:59Z</time>
      </trkpt>
      <trkpt lat="41.3767730" lon="1.1553460">
        <ele>361.0</ele>
        <time>2021-09-30T09:15:00Z</time>
      </trkpt>
      <trkpt lat="41.3767990" lon="1.1553800">
        <ele>360.8</ele>
        <time>2021-09-30T09:15:01Z</time>
      </trkpt>
      <trkpt lat="41.3768250" lon="1.1554140">
        <ele>360.7</ele>
        <time>2021-09-30T09:15:02Z</time>
      </trkpt>
      <trkpt lat="41.3768510" lon="1.1554490">
        <ele>360.5</ele>
        <time>2021-09-30T09:15:03Z</time>
      </trkpt>
      <trkpt lat="41.3768770" lon="1.1554830">
        <ele>360.4</ele>
        <time>2021-09-30T09:15:04Z</time>
      </trkpt>
      <trkpt lat="41.3769040" lon="1.1555170">
        <ele>360.2</ele>
        <time>2021-09-30T09:15:05Z</time>
      </trkpt>
      <trkpt lat="41.3769300" lon="1.1555510">
        <ele>360.0</ele>
        <time>2021-09-30T09:15:06Z</time>
      </trkpt>
      <trkpt lat="41.3769560" lon="1.1555850">
        <ele>359.9</ele>
        <time>2021-09-30T09:15:07Z</time>
      </trkpt>
      <trkpt lat="41.3769830" lon="1.1556200">
        <ele>359.7</ele>
        <time>2021-09-30T09:15:08Z</time>
      </trkpt>
      <trkpt lat="41.3770090" lon="1.1556560">
        <ele>359.5</ele>
        <time>2021-09-30T09:15:09Z</time>
      </trkpt>
      <trkpt lat="41.3770360" lon="1.1556910">
        <ele>359.3</ele>
        <time>2021-09-30T09:15:10Z</time>
      </trkpt>
      <trkpt lat="41.3770620" lon="1.1557270">
        <ele>359.1</ele>
        <time>2021-09-30T09:15:11Z</time>
      </trkpt>
      <trkpt lat="41.3770890" lon="1.1557620">
        <ele>358.9</ele>
        <time>2021-09-30T09:15:12Z</time>
      </trkpt>
      <trkpt lat="41.3771150" lon="1.1557980">
        <ele>358.8</ele>
        <time>2021-09-30T09:15:13Z</time>
      </trkpt>
      <trkpt lat="41.3771420" lon="1.1558330">
        <ele>358.6</ele>
        <time>2021-09-30T09:15:14Z</time>
      </trkpt>
      <trkpt lat="41.3771680" lon="1.1558690">
        <ele>358.4</ele>
        <time>2021-09-30T09:15:15Z</time>
      </trkpt>
      <trkpt lat="41.3771950" lon="1.1559040">
        <ele>358.2</ele>
        <time>2021-09-30T09:15:16Z</time>
      </trkpt>
      <trkpt lat="41.3772210" lon="1.1559400">
        <ele>358.0</ele>
        <time>2021-09-30T09:15:17Z</time>
      </trkpt>
      <trkpt lat="41.3772400" lon="1.1559720">
        <ele>357.9</ele>
        <time>2021-09-30T09:15:18Z</time>
      </trkpt>
      <trkpt lat="41.3772590" lon="1.1560040">
        <ele>357.8</ele>
        <time>2021-09-30T09:15:19Z</time>
      </trkpt>
      <trkpt lat="41.3772780" lon="1.1560360">
        <ele>357.6</ele>
        <time>2021-09-30T09:15:20Z</time>
      </trkpt>
      <trkpt lat="41.3772970" lon="1.1560680">
        <ele>357.5</ele>
        <time>2021-09-30T09:15:21Z</time>
      </trkpt>
      <trkpt lat="41.3773170" lon="1.1561000">
        <ele>357.4</ele>
        <time>2021-09-30T09:15:22Z</time>
      </trkpt>
      <trkpt lat="41.3773360" lon="1.1561330">
        <ele>357.3</ele>
        <time>2021-09-30T09:15:23Z</time>
      </trkpt>
      <trkpt lat="41.3773550" lon="1.1561650">
        <ele>357.2</ele>
        <time>2021-09-30T09:15:24Z</time>
      </trkpt>
      <trkpt lat="41.3773740" lon="1.1561970">
        <ele>357.1</ele>
        <time>2021-09-30T09:15:25Z</time>
      </trkpt>
      <trkpt lat="41.3773930" lon="1.1562290">
        <ele>357.0</ele>
        <time>2021-09-30T09:15:26Z</time>
      </trkpt>
      <trkpt lat="41.3774120" lon="1.1562610">
        <ele>356.9</ele>
        <time>2021-09-30T09:15:27Z</time>
      </trkpt>
      <trkpt lat="41.3774160" lon="1.1563020">
        <ele>356.8</ele>
        <time>2021-09-30T09:15:28Z</time>
      </trkpt>
      <trkpt lat="41.3774200" lon="1.1563440">
        <ele>356.6</ele>
        <time>2021-09-30T09:15:29Z</time>
      </trkpt>
      <trkpt lat="41.3774240" lon="1.1563850">
        <ele>356.5</ele>
        <time>2021-09-30T09:15:30Z</time>
      </trkpt>
      <trkpt lat="41.3774280" lon="1.1564260">
        <ele>356.4</ele>
        <time>2021-09-30T09:15:31Z</time>
      </trkpt>
      <trkpt lat="41.3774310" lon="1.1564680">
        <ele>356.3</ele>
        <time>2021-09-30T09:15:32Z</time>
      </trkpt>
      <trkpt lat="41.3774350" lon="1.1565090">
        <ele>356.2</ele>
        <time>2021-09-30T09:15:33Z</time>
      </trkpt>
      <trkpt lat="41.3774390" lon="1.1565500">
        <ele>356.1</ele>
        <time>2021-09-30T09:15:34Z</time>
      </trkpt>
      <trkpt lat="41.3774430" lon="1.1565920">
        <ele>355.9</ele>
        <time>2021-09-30T09:15:35Z</time>
      </trkpt>
      <trkpt lat="41.3774470" lon="1.1566330">
        <ele>355.8</ele>
        <time>2021-09-30T09:15:36Z</time>
      </trkpt>
      <trkpt lat="41.3774380" lon="1.1566490">
        <ele>355.8</ele>
        <time>2021-09-30T09:15:37Z</time>
      </trkpt>
      <trkpt lat="41.3774290" lon="1.1566650">
        <ele>355.7</ele>
        <time>2021-09-30T09:15:38Z</time>
      </trkpt>
      <trkpt lat="41.3774200" lon="1.1566810">
        <ele>355.7</ele>
        <time>2021-09-30T09:15:39Z</time>
      </trkpt>
      <trkpt lat="41.3774110" lon="1.1566970">
        <ele>355.6</ele>
        <time>2021-09-30T09:15:40Z</time>
      </trkpt>
      <trkpt lat="41.3774020" lon="1.1567130">
        <ele>355.5</ele>
        <time>2021-09-30T09:15:41Z</time>
      </trkpt>
      <trkpt lat="41.3773920" lon="1.1567290">
        <ele>355.5</ele>
        <time>2021-09-30T09:15:42Z</time>
      </trkpt>
      <trkpt lat="41.3773830" lon="1.1567450">
        <ele>355.4</ele>
        <time>2021-09-30T09:15:43Z</time>
      </trkpt>
      <trkpt lat="41.3773740" lon="1.1567610">
        <ele>355.4</ele>
        <time>2021-09-30T09:15:44Z</time>
      </trkpt>
      <trkpt lat="41.3773650" lon="1.1567770">
        <ele>355.2</ele>
        <time>2021-09-30T09:15:45Z</time>
      </trkpt>
      <trkpt lat="41.3773560" lon="1.1567930">
        <ele>355.2</ele>
        <time>2021-09-30T09:15:46Z</time>
      </trkpt>
      <trkpt lat="41.3773340" lon="1.1568110">
        <ele>355.3</ele>
        <time>2021-09-30T09:15:47Z</time>
      </trkpt>
      <trkpt lat="41.3773110" lon="1.1568290">
        <ele>355.3</ele>
        <time>2021-09-30T09:15:48Z</time>
      </trkpt>
      <trkpt lat="41.3772890" lon="1.1568460">
        <ele>355.4</ele>
        <time>2021-09-30T09:15:49Z</time>
      </trkpt>
      <trkpt lat="41.3772660" lon="1.1568640">
        <ele>355.5</ele>
        <time>2021-09-30T09:15:50Z</time>
      </trkpt>
      <trkpt lat="41.3772440" lon="1.1568820">
        <ele>355.6</ele>
        <time>2021-09-30T09:15:51Z</time>
      </trkpt>
      <trkpt lat="41.3772220" lon="1.1569000">
        <ele>355.6</ele>
        <time>2021-09-30T09:15:52Z</time>
      </trkpt>
      <trkpt lat="41.3771990" lon="1.1569180">
        <ele>355.7</ele>
        <time>2021-09-30T09:15:53Z</time>
      </trkpt>
      <trkpt lat="41.3771770" lon="1.1569350">
        <ele>355.8</ele>
        <time>2021-09-30T09:15:54Z</time>
      </trkpt>
      <trkpt lat="41.3771540" lon="1.1569530">
        <ele>355.9</ele>
        <time>2021-09-30T09:15:55Z</time>
      </trkpt>
      <trkpt lat="41.3771320" lon="1.1569710">
        <ele>356.0</ele>
        <time>2021-09-30T09:15:56Z</time>
      </trkpt>
      <trkpt lat="41.3771010" lon="1.1570050">
        <ele>356.1</ele>
        <time>2021-09-30T09:15:57Z</time>
      </trkpt>
      <trkpt lat="41.3770690" lon="1.1570390">
        <ele>356.2</ele>
        <time>2021-09-30T09:15:58Z</time>
      </trkpt>
      <trkpt lat="41.3770380" lon="1.1570730">
        <ele>356.3</ele>
        <time>2021-09-30T09:15:59Z</time>
      </trkpt>
      <trkpt lat="41.3770060" lon="1.1571070">
        <ele>356.5</ele>
        <time>2021-09-30T09:16:00Z</time>
      </trkpt>
      <trkpt lat="41.3769750" lon="1.1571420">
        <ele>356.6</ele>
        <time>2021-09-30T09:16:01Z</time>
      </trkpt>
      <trkpt lat="41.3769430" lon="1.1571760">
        <ele>356.7</ele>
        <time>2021-09-30T09:16:02Z</time>
      </trkpt>
      <trkpt lat="41.3769120" lon="1.1572100">
        <ele>356.8</ele>
        <time>2021-09-30T09:16:03Z</time>
      </trkpt>
      <trkpt lat="41.3768800" lon="1.1572440">
        <ele>357.0</ele>
        <time>2021-09-30T09:16:04Z</time>
      </trkpt>
      <trkpt lat="41.3768490" lon="1.1572780">
        <ele>357.1</ele>
        <time>2021-09-30T09:16:05Z</time>
      </trkpt>
      <trkpt lat="41.3768320" lon="1.1572820">
        <ele>357.1</ele>
        <time>2021-09-30T09:16:06Z</time>
      </trkpt>
      <trkpt lat="41.3768150" lon="1.1572850">
        <ele>357.2</ele>
        <time>2021-09-30T09:16:07Z</time>
      </trkpt>
      <trkpt lat="41.3767980" lon="1.1572890">
        <ele>357.2</ele>
        <time>2021-09-30T09:16:08Z</time>
      </trkpt>
      <trkpt lat="41.3767810" lon="1.1572920">
        <ele>357.2</ele>
        <time>2021-09-30T09:16:09Z</time>
      </trkpt>
      <trkpt lat="41.3767640" lon="1.1572960">
        <ele>357.3</ele>
        <time>2021-09-30T09:16:10Z</time>
      </trkpt>
      <trkpt lat="41.3767470" lon="1.1572990">
        <ele>357.3</ele>
        <time>2021-09-30T09:16:11Z</time>
      </trkpt>
      <trkpt lat="41.3767300" lon="1.1573030">
        <ele>357.3</ele>
        <time>2021-09-30T09:16:12Z</time>
      </trkpt>
      <trkpt lat="41.3767130" lon="1.1573060">
        <ele>357.3</ele>
        <time>2021-09-30T09:16:13Z</time>
      </trkpt>
      <trkpt lat="41.3766960" lon="1.1573100">
        <ele>357.4</ele>
        <time>2021-09-30T09:16:14Z</time>
      </trkpt>
      <trkpt lat="41.3766790" lon="1.1573130">
        <ele>357.4</ele>
        <time>2021-09-30T09:16:15Z</time>
      </trkpt>
      <trkpt lat="41.3766620" lon="1.1573170">
        <ele>357.4</ele>
        <time>2021-09-30T09:17:56Z</time>
      </trkpt>
      <trkpt lat="41.3766450" lon="1.1573200">
        <ele>357.4</ele>
        <time>2021-09-30T09:17:57Z</time>
      </trkpt>
      <trkpt lat="41.3766450" lon="1.1573200">
        <ele>357.4</ele>
        <time>2021-09-30T09:17:58Z</time>
      </trkpt>
      <trkpt lat="41.3766450" lon="1.1573200">
        <ele>357.4</ele>
        <time>2021-09-30T09:17:59Z</time>
      </trkpt>
      <trkpt lat="41.3766450" lon="1.1573200">
        <ele>357.4</ele>
        <time>2021-09-30T09:18:00Z</time>
      </trkpt>
      <trkpt lat="41.3766450" lon="1.1573200">
        <ele>357.4</ele>
        <time>2021-09-30T09:18:01Z</time>
      </trkpt>
      <trkpt lat="41.3766450" lon="1.1573200">
        <ele>357.4</ele>
        <time>2021-09-30T09:18:02Z</time>
      </trkpt>
      <trkpt lat="41.3766600" lon="1.1573990">
        <ele>356.9</ele>
        <time>2021-09-30T09:18:03Z</time>
      </trkpt>
      <trkpt lat="41.3766750" lon="1.1574770">
        <ele>356.5</ele>
        <time>2021-09-30T09:18:04Z</time>
      </trkpt>
      <trkpt lat="41.3766900" lon="1.1575560">
        <ele>356.1</ele>
        <time>2021-09-30T09:18:05Z</time>
      </trkpt>
      <trkpt lat="41.3767050" lon="1.1576350">
        <ele>355.7</ele>
        <time>2021-09-30T09:18:06Z</time>
      </trkpt>
      <trkpt lat="41.3767200" lon="1.1577130">
        <ele>355.3</ele>
        <time>2021-09-30T09:18:07Z</time>
      </trkpt>
      <trkpt lat="41.3767340" lon="1.1577920">
        <ele>354.9</ele>
        <time>2021-09-30T09:18:08Z</time>
      </trkpt>
      <trkpt lat="41.3767490" lon="1.1578710">
        <ele>354.6</ele>
        <time>2021-09-30T09:18:09Z</time>
      </trkpt>
      <trkpt lat="41.3767640" lon="1.1579500">
        <ele>354.5</ele>
        <time>2021-09-30T09:18:10Z</time>
      </trkpt>
      <trkpt lat="41.3767790" lon="1.1580280">
        <ele>354.3</ele>
        <time>2021-09-30T09:18:11Z</time>
      </trkpt>
      <trkpt lat="41.3767940" lon="1.1581070">
        <ele>354.1</ele>
        <time>2021-09-30T09:18:12Z</time>
      </trkpt>
      <trkpt lat="41.3768080" lon="1.1581330">
        <ele>353.9</ele>
        <time>2021-09-30T09:18:13Z</time>
      </trkpt>
      <trkpt lat="41.3768230" lon="1.1581590">
        <ele>353.8</ele>
        <time>2021-09-30T09:18:14Z</time>
      </trkpt>
      <trkpt lat="41.3768370" lon="1.1581850">
        <ele>353.6</ele>
        <time>2021-09-30T09:18:15Z</time>
      </trkpt>
      <trkpt lat="41.3768520" lon="1.1582110">
        <ele>353.5</ele>
        <time>2021-09-30T09:18:16Z</time>
      </trkpt>
      <trkpt lat="41.3768660" lon="1.1582370">
        <ele>353.3</ele>
        <time>2021-09-30T09:18:17Z</time>
      </trkpt>
      <trkpt lat="41.3768800" lon="1.1582640">
        <ele>353.2</ele>
        <time>2021-09-30T09:18:18Z</time>
      </trkpt>
      <trkpt lat="41.3768950" lon="1.1582900">
        <ele>353.0</ele>
        <time>2021-09-30T09:18:19Z</time>
      </trkpt>
      <trkpt lat="41.3769090" lon="1.1583160">
        <ele>352.8</ele>
        <time>2021-09-30T09:18:20Z</time>
      </trkpt>
      <trkpt lat="41.3769240" lon="1.1583420">
        <ele>352.7</ele>
        <time>2021-09-30T09:18:21Z</time>
      </trkpt>
      <trkpt lat="41.3769380" lon="1.1583680">
        <ele>352.5</ele>
        <time>2021-09-30T09:18:22Z</time>
      </trkpt>
      <trkpt lat="41.3769520" lon="1.1584100">
        <ele>352.3</ele>
        <time>2021-09-30T09:18:23Z</time>
      </trkpt>
      <trkpt lat="41.3769660" lon="1.1584520">
        <ele>352.1</ele>
        <time>2021-09-30T09:18:24Z</time>
      </trkpt>
      <trkpt lat="41.3769810" lon="1.1584950">
        <ele>351.9</ele>
        <time>2021-09-30T09:18:25Z</time>
      </trkpt>
      <trkpt lat="41.3769950" lon="1.1585370">
        <ele>351.8</ele>
        <time>2021-09-30T09:18:26Z</time>
      </trkpt>
      <trkpt lat="41.3770090" lon="1.1585790">
        <ele>351.6</ele>
        <time>2021-09-30T09:18:27Z</time>
      </trkpt>
      <trkpt lat="41.3770230" lon="1.1586210">
        <ele>351.4</ele>
        <time>2021-09-30T09:18:28Z</time>
      </trkpt>
      <trkpt lat="41.3770380" lon="1.1586640">
        <ele>351.3</ele>
        <time>2021-09-30T09:18:29Z</time>
      </trkpt>
      <trkpt lat="41.3770520" lon="1.1587060">
        <ele>351.2</ele>
        <time>2021-09-30T09:18:30Z</time>
      </trkpt>
      <trkpt lat="41.3770660" lon="1.1587480">
        <ele>350.9</ele>
        <time>2021-09-30T09:18:31Z</time>
      </trkpt>
      <trkpt lat="41.3770550" lon="1.1587760">
        <ele>350.9</ele>
        <time>2021-09-30T09:18:32Z</time>
      </trkpt>
      <trkpt lat="41.3770450" lon="1.1588040">
        <ele>350.9</ele>
        <time>2021-09-30T09:18:33Z</time>
      </trkpt>
      <trkpt lat="41.3770340" lon="1.1588320">
        <ele>350.9</ele>
        <time>2021-09-30T09:18:34Z</time>
      </trkpt>
      <trkpt lat="41.3770230" lon="1.1588600">
        <ele>350.9</ele>
        <time>2021-09-30T09:18:35Z</time>
      </trkpt>
      <trkpt lat="41.3770130" lon="1.1588890">
        <ele>350.9</ele>
        <time>2021-09-30T09:18:36Z</time>
      </trkpt>
      <trkpt lat="41.3770020" lon="1.1589170">
        <ele>351.0</ele>
        <time>2021-09-30T09:18:37Z</time>
      </trkpt>
      <trkpt lat="41.3769910" lon="1.1589450">
        <ele>351.0</ele>
        <time>2021-09-30T09:18:38Z</time>
      </trkpt>
      <trkpt lat="41.3769810" lon="1.1589730">
        <ele>351.0</ele>
        <time>2021-09-30T09:18:39Z</time>
      </trkpt>
      <trkpt lat="41.3769700" lon="1.1590010">
        <ele>351.0</ele>
        <time>2021-09-30T09:18:40Z</time>
      </trkpt>
      <trkpt lat="41.3769510" lon="1.1590240">
        <ele>351.0</ele>
        <time>2021-09-30T09:18:41Z</time>
      </trkpt>
      <trkpt lat="41.3769330" lon="1.1590480">
        <ele>351.0</ele>
        <time>2021-09-30T09:18:42Z</time>
      </trkpt>
      <trkpt lat="41.3769140" lon="1.1590710">
        <ele>351.0</ele>
        <time>2021-09-30T09:18:43Z</time>
      </trkpt>
      <trkpt lat="41.3768950" lon="1.1590940">
        <ele>351.1</ele>
        <time>2021-09-30T09:18:44Z</time>
      </trkpt>
      <trkpt lat="41.3768770" lon="1.1591180">
        <ele>351.1</ele>
        <time>2021-09-30T09:18:45Z</time>
      </trkpt>
      <trkpt lat="41.3768580" lon="1.1591410">
        <ele>351.1</ele>
        <time>2021-09-30T09:18:46Z</time>
      </trkpt>
      <trkpt lat="41.3768390" lon="1.1591640">
        <ele>351.1</ele>
        <time>2021-09-30T09:18:47Z</time>
      </trkpt>
      <trkpt lat="41.3768200" lon="1.1591870">
        <ele>351.2</ele>
        <time>2021-09-30T09:18:48Z</time>
      </trkpt>
      <trkpt lat="41.3768020" lon="1.1592110">
        <ele>351.2</ele>
        <time>2021-09-30T09:18:49Z</time>
      </trkpt>
      <trkpt lat="41.3767830" lon="1.1592340">
        <ele>351.2</ele>
        <time>2021-09-30T09:18:50Z</time>
      </trkpt>
      <trkpt lat="41.3767590" lon="1.1592470">
        <ele>351.2</ele>
        <time>2021-09-30T09:18:51Z</time>
      </trkpt>
      <trkpt lat="41.3767360" lon="1.1592610">
        <ele>351.3</ele>
        <time>2021-09-30T09:18:52Z</time>
      </trkpt>
      <trkpt lat="41.3767120" lon="1.1592740">
        <ele>351.3</ele>
        <time>2021-09-30T09:18:53Z</time>
      </trkpt>
      <trkpt lat="41.3766880" lon="1.1592870">
        <ele>351.3</ele>
        <time>2021-09-30T09:18:54Z</time>
      </trkpt>
      <trkpt lat="41.3766650" lon="1.1593010">
        <ele>351.3</ele>
        <time>2021-09-30T09:18:55Z</time>
      </trkpt>
      <trkpt lat="41.3766410" lon="1.1593140">
        <ele>351.3</ele>
        <time>2021-09-30T09:18:56Z</time>
      </trkpt>
      <trkpt lat="41.3766170" lon="1.1593270">
        <ele>351.4</ele>
        <time>2021-09-30T09:18:57Z</time>
      </trkpt>
      <trkpt lat="41.3765940" lon="1.1593410">
        <ele>351.4</ele>
        <time>2021-09-30T09:18:58Z</time>
      </trkpt>
      <trkpt lat="41.3765700" lon="1.1593540">
        <ele>351.4</ele>
        <time>2021-09-30T09:18:59Z</time>
      </trkpt>
      <trkpt lat="41.3765430" lon="1.1593760">
        <ele>351.4</ele>
        <time>2021-09-30T09:19:00Z</time>
      </trkpt>
      <trkpt lat="41.3765150" lon="1.1593980">
        <ele>351.4</ele>
        <time>2021-09-30T09:19:01Z</time>
      </trkpt>
      <trkpt lat="41.3764880" lon="1.1594200">
        <ele>351.4</ele>
        <time>2021-09-30T09:19:02Z</time>
      </trkpt>
      <trkpt lat="41.3764600" lon="1.1594420">
        <ele>351.5</ele>
        <time>2021-09-30T09:19:03Z</time>
      </trkpt>
      <trkpt lat="41.3764330" lon="1.1594640">
        <ele>351.5</ele>
        <time>2021-09-30T09:19:04Z</time>
      </trkpt>
      <trkpt lat="41.3764050" lon="1.1594860">
        <ele>351.5</ele>
        <time>2021-09-30T09:19:05Z</time>
      </trkpt>
      <trkpt lat="41.3763780" lon="1.1595080">
        <ele>351.5</ele>
        <time>2021-09-30T09:19:06Z</time>
      </trkpt>
      <trkpt lat="41.3763500" lon="1.1595300">
        <ele>351.5</ele>
        <time>2021-09-30T09:19:07Z</time>
      </trkpt>
      <trkpt lat="41.3763230" lon="1.1595520">
        <ele>351.5</ele>
        <time>2021-09-30T09:19:08Z</time>
      </trkpt>
      <trkpt lat="41.3762950" lon="1.1595740">
        <ele>351.5</ele>
        <time>2021-09-30T09:19:09Z</time>
      </trkpt>
      <trkpt lat="41.3762710" lon="1.1596020">
        <ele>351.4</ele>
        <time>2021-09-30T09:19:10Z</time>
      </trkpt>
      <trkpt lat="41.3762470" lon="1.1596290">
        <ele>351.4</ele>
        <time>2021-09-30T09:19:11Z</time>
      </trkpt>
      <trkpt lat="41.3762230" lon="1.1596570">
        <ele>351.4</ele>
        <time>2021-09-30T09:19:12Z</time>
      </trkpt>
      <trkpt lat="41.3761990" lon="1.1596850">
        <ele>351.4</ele>
        <time>2021-09-30T09:19:13Z</time>
      </trkpt>
      <trkpt lat="41.3761760" lon="1.1597120">
        <ele>351.4</ele>
        <time>2021-09-30T09:19:14Z</time>
      </trkpt>
      <trkpt lat="41.3761520" lon="1.1597400">
        <ele>351.4</ele>
        <time>2021-09-30T09:19:15Z</time>
      </trkpt>
      <trkpt lat="41.3761280" lon="1.1597680">
        <ele>351.4</ele>
        <time>2021-09-30T09:19:16Z</time>
      </trkpt>
      <trkpt lat="41.3761040" lon="1.1597950">
        <ele>351.4</ele>
        <time>2021-09-30T09:19:17Z</time>
      </trkpt>
      <trkpt lat="41.3760800" lon="1.1598230">
        <ele>351.4</ele>
        <time>2021-09-30T09:19:18Z</time>
      </trkpt>
      <trkpt lat="41.3760600" lon="1.1598420">
        <ele>351.4</ele>
        <time>2021-09-30T09:19:19Z</time>
      </trkpt>
      <trkpt lat="41.3760410" lon="1.1598600">
        <ele>351.4</ele>
        <time>2021-09-30T09:19:20Z</time>
      </trkpt>
      <trkpt lat="41.3760210" lon="1.1598790">
        <ele>351.4</ele>
        <time>2021-09-30T09:19:21Z</time>
      </trkpt>
      <trkpt lat="41.3760020" lon="1.1598970">
        <ele>351.4</ele>
        <time>2021-09-30T09:19:22Z</time>
      </trkpt>
      <trkpt lat="41.3759820" lon="1.1599160">
        <ele>351.4</ele>
        <time>2021-09-30T09:19:23Z</time>
      </trkpt>
      <trkpt lat="41.3759620" lon="1.1599350">
        <ele>351.4</ele>
        <time>2021-09-30T09:19:24Z</time>
      </trkpt>
      <trkpt lat="41.3759430" lon="1.1599530">
        <ele>351.4</ele>
        <time>2021-09-30T09:19:25Z</time>
      </trkpt>
      <trkpt lat="41.3759230" lon="1.1599720">
        <ele>351.4</ele>
        <time>2021-09-30T09:19:26Z</time>
      </trkpt>
      <trkpt lat="41.3759040" lon="1.1599900">
        <ele>351.4</ele>
        <time>2021-09-30T09:19:27Z</time>
      </trkpt>
      <trkpt lat="41.3758840" lon="1.1600090">
        <ele>351.3</ele>
        <time>2021-09-30T09:19:28Z</time>
      </trkpt>
      <trkpt lat="41.3758460" lon="1.1600330">
        <ele>351.3</ele>
        <time>2021-09-30T09:19:29Z</time>
      </trkpt>
      <trkpt lat="41.3758080" lon="1.1600560">
        <ele>351.3</ele>
        <time>2021-09-30T09:19:30Z</time>
      </trkpt>
      <trkpt lat="41.3757710" lon="1.1600800">
        <ele>351.3</ele>
        <time>2021-09-30T09:19:31Z</time>
      </trkpt>
      <trkpt lat="41.3757330" lon="1.1601040">
        <ele>351.3</ele>
        <time>2021-09-30T09:19:32Z</time>
      </trkpt>
      <trkpt lat="41.3756950" lon="1.1601270">
        <ele>351.2</ele>
        <time>2021-09-30T09:19:33Z</time>
      </trkpt>
      <trkpt lat="41.3756570" lon="1.1601510">
        <ele>351.2</ele>
        <time>2021-09-30T09:19:34Z</time>
      </trkpt>
      <trkpt lat="41.3756190" lon="1.1601740">
        <ele>351.2</ele>
        <time>2021-09-30T09:19:35Z</time>
      </trkpt>
      <trkpt lat="41.3755810" lon="1.1601980">
        <ele>351.2</ele>
        <time>2021-09-30T09:19:36Z</time>
      </trkpt>
      <trkpt lat="41.3755440" lon="1.1602220">
        <ele>351.1</ele>
        <time>2021-09-30T09:19:37Z</time>
      </trkpt>
      <trkpt lat="41.3755060" lon="1.1602450">
        <ele>351.1</ele>
        <time>2021-09-30T09:19:38Z</time>
      </trkpt>
      <trkpt lat="41.3754680" lon="1.1602690">
        <ele>351.0</ele>
        <time>2021-09-30T09:19:39Z</time>
      </trkpt>
      <trkpt lat="41.3754530" lon="1.1603010">
        <ele>351.0</ele>
        <time>2021-09-30T09:19:40Z</time>
      </trkpt>
      <trkpt lat="41.3754380" lon="1.1603320">
        <ele>351.0</ele>
        <time>2021-09-30T09:19:41Z</time>
      </trkpt>
      <trkpt lat="41.3754230" lon="1.1603640">
        <ele>351.0</ele>
        <time>2021-09-30T09:19:42Z</time>
      </trkpt>
      <trkpt lat="41.3754080" lon="1.1603950">
        <ele>350.9</ele>
        <time>2021-09-30T09:19:43Z</time>
      </trkpt>
      <trkpt lat="41.3753930" lon="1.1604270">
        <ele>350.9</ele>
        <time>2021-09-30T09:19:44Z</time>
      </trkpt>
      <trkpt lat="41.3753770" lon="1.1604580">
        <ele>350.9</ele>
        <time>2021-09-30T09:19:45Z</time>
      </trkpt>
      <trkpt lat="41.3753620" lon="1.1604900">
        <ele>350.8</ele>
        <time>2021-09-30T09:19:46Z</time>
      </trkpt>
      <trkpt lat="41.3753470" lon="1.1605210">
        <ele>350.8</ele>
        <time>2021-09-30T09:19:47Z</time>
      </trkpt>
      <trkpt lat="41.3753320" lon="1.1605530">
        <ele>350.8</ele>
        <time>2021-09-30T09:19:48Z</time>
      </trkpt>
      <trkpt lat="41.3753170" lon="1.1605840">
        <ele>350.7</ele>
        <time>2021-09-30T09:19:49Z</time>
      </trkpt>
      <trkpt lat="41.3753020" lon="1.1606160">
        <ele>350.7</ele>
        <time>2021-09-30T09:19:50Z</time>
      </trkpt>
      <trkpt lat="41.3752860" lon="1.1606390">
        <ele>350.7</ele>
        <time>2021-09-30T09:19:51Z</time>
      </trkpt>
      <trkpt lat="41.3752690" lon="1.1606630">
        <ele>350.7</ele>
        <time>2021-09-30T09:19:52Z</time>
      </trkpt>
      <trkpt lat="41.3752530" lon="1.1606860">
        <ele>350.7</ele>
        <time>2021-09-30T09:19:53Z</time>
      </trkpt>
      <trkpt lat="41.3752370" lon="1.1607090">
        <ele>350.6</ele>
        <time>2021-09-30T09:19:54Z</time>
      </trkpt>
      <trkpt lat="41.3752200" lon="1.1607330">
        <ele>350.6</ele>
        <time>2021-09-30T09:19:55Z</time>
      </trkpt>
      <trkpt lat="41.3752040" lon="1.1607560">
        <ele>350.6</ele>
        <time>2021-09-30T09:19:56Z</time>
      </trkpt>
      <trkpt lat="41.3751880" lon="1.1607790">
        <ele>350.6</ele>
        <time>2021-09-30T09:19:57Z</time>
      </trkpt>
      <trkpt lat="41.3751710" lon="1.1608030">
        <ele>350.6</ele>
        <time>2021-09-30T09:19:58Z</time>
      </trkpt>
      <trkpt lat="41.3751550" lon="1.1608260">
        <ele>350.6</ele>
        <time>2021-09-30T09:19:59Z</time>
      </trkpt>
      <trkpt lat="41.3751320" lon="1.1608550">
        <ele>350.6</ele>
        <time>2021-09-30T09:20:00Z</time>
      </trkpt>
      <trkpt lat="41.3751090" lon="1.1608840">
        <ele>350.5</ele>
        <time>2021-09-30T09:20:01Z</time>
      </trkpt>
      <trkpt lat="41.3750870" lon="1.1609130">
        <ele>350.5</ele>
        <time>2021-09-30T09:20:02Z</time>
      </trkpt>
      <trkpt lat="41.3750640" lon="1.1609420">
        <ele>350.5</ele>
        <time>2021-09-30T09:20:03Z</time>
      </trkpt>
      <trkpt lat="41.3750410" lon="1.1609720">
        <ele>350.5</ele>
        <time>2021-09-30T09:20:04Z</time>
      </trkpt>
      <trkpt lat="41.3750180" lon="1.1610010">
        <ele>350.5</ele>
        <time>2021-09-30T09:20:05Z</time>
      </trkpt>
      <trkpt lat="41.3749950" lon="1.1610300">
        <ele>350.5</ele>
        <time>2021-09-30T09:20:06Z</time>
      </trkpt>
      <trkpt lat="41.3749730" lon="1.1610590">
        <ele>350.4</ele>
        <time>2021-09-30T09:20:07Z</time>
      </trkpt>
      <trkpt lat="41.3749500" lon="1.1610880">
        <ele>350.4</ele>
        <time>2021-09-30T09:20:08Z</time>
      </trkpt>
      <trkpt lat="41.3749270" lon="1.1611170">
        <ele>350.4</ele>
        <time>2021-09-30T09:20:09Z</time>
      </trkpt>
      <trkpt lat="41.3749100" lon="1.1611320">
        <ele>350.4</ele>
        <time>2021-09-30T09:20:10Z</time>
      </trkpt>
      <trkpt lat="41.3748930" lon="1.1611480">
        <ele>350.4</ele>
        <time>2021-09-30T09:20:11Z</time>
      </trkpt>
      <trkpt lat="41.3748760" lon="1.1611630">
        <ele>350.4</ele>
        <time>2021-09-30T09:20:12Z</time>
      </trkpt>
      <trkpt lat="41.3748590" lon="1.1611780">
        <ele>350.4</ele>
        <time>2021-09-30T09:20:13Z</time>
      </trkpt>
      <trkpt lat="41.3748430" lon="1.1611940">
        <ele>350.4</ele>
        <time>2021-09-30T09:20:14Z</time>
      </trkpt>
      <trkpt lat="41.3748260" lon="1.1612090">
        <ele>350.4</ele>
        <time>2021-09-30T09:20:15Z</time>
      </trkpt>
      <trkpt lat="41.3748090" lon="1.1612240">
        <ele>350.3</ele>
        <time>2021-09-30T09:20:16Z</time>
      </trkpt>
      <trkpt lat="41.3747920" lon="1.1612390">
        <ele>350.3</ele>
        <time>2021-09-30T09:20:17Z</time>
      </trkpt>
      <trkpt lat="41.3747750" lon="1.1612550">
        <ele>350.3</ele>
        <time>2021-09-30T09:20:18Z</time>
      </trkpt>
      <trkpt lat="41.3747580" lon="1.1612700">
        <ele>350.2</ele>
        <time>2021-09-30T09:20:19Z</time>
      </trkpt>
      <trkpt lat="41.3747320" lon="1.1613000">
        <ele>350.2</ele>
        <time>2021-09-30T09:20:20Z</time>
      </trkpt>
      <trkpt lat="41.3747070" lon="1.1613290">
        <ele>350.2</ele>
        <time>2021-09-30T09:20:21Z</time>
      </trkpt>
      <trkpt lat="41.3746810" lon="1.1613590">
        <ele>350.1</ele>
        <time>2021-09-30T09:20:22Z</time>
      </trkpt>
      <trkpt lat="41.3746550" lon="1.1613890">
        <ele>350.1</ele>
        <time>2021-09-30T09:20:23Z</time>
      </trkpt>
      <trkpt lat="41.3746300" lon="1.1614180">
        <ele>350.1</ele>
        <time>2021-09-30T09:20:24Z</time>
      </trkpt>
      <trkpt lat="41.3746040" lon="1.1614480">
        <ele>350.0</ele>
        <time>2021-09-30T09:20:25Z</time>
      </trkpt>
      <trkpt lat="41.3745780" lon="1.1614780">
        <ele>350.0</ele>
        <time>2021-09-30T09:20:26Z</time>
      </trkpt>
      <trkpt lat="41.3745530" lon="1.1615070">
        <ele>350.0</ele>
        <time>2021-09-30T09:20:27Z</time>
      </trkpt>
      <trkpt lat="41.3745270" lon="1.1615370">
        <ele>350.0</ele>
        <time>2021-09-30T09:20:28Z</time>
      </trkpt>
      <trkpt lat="41.3744980" lon="1.1615570">
        <ele>350.0</ele>
        <time>2021-09-30T09:20:29Z</time>
      </trkpt>
      <trkpt lat="41.3744700" lon="1.1615770">
        <ele>349.9</ele>
        <time>2021-09-30T09:20:30Z</time>
      </trkpt>
      <trkpt lat="41.3744410" lon="1.1615980">
        <ele>349.9</ele>
        <time>2021-09-30T09:20:31Z</time>
      </trkpt>
      <trkpt lat="41.3744120" lon="1.1616180">
        <ele>349.9</ele>
        <time>2021-09-30T09:20:32Z</time>
      </trkpt>
      <trkpt lat="41.3743830" lon="1.1616380">
        <ele>349.9</ele>
        <time>2021-09-30T09:20:33Z</time>
      </trkpt>
      <trkpt lat="41.3743550" lon="1.1616580">
        <ele>349.9</ele>
        <time>2021-09-30T09:20:34Z</time>
      </trkpt>
      <trkpt lat="41.3743260" lon="1.1616780">
        <ele>349.8</ele>
        <time>2021-09-30T09:20:35Z</time>
      </trkpt>
      <trkpt lat="41.3742970" lon="1.1616980">
        <ele>349.8</ele>
        <time>2021-09-30T09:20:36Z</time>
      </trkpt>
      <trkpt lat="41.3742680" lon="1.1617190">
        <ele>349.8</ele>
        <time>2021-09-30T09:20:37Z</time>
      </trkpt>
      <trkpt lat="41.3742400" lon="1.1617390">
        <ele>349.7</ele>
        <time>2021-09-30T09:20:38Z</time>
      </trkpt>
      <trkpt lat="41.3742110" lon="1.1617590">
        <ele>349.7</ele>
        <time>2021-09-30T09:20:39Z</time>
      </trkpt>
      <trkpt lat="41.3741810" lon="1.1617930">
        <ele>349.7</ele>
        <time>2021-09-30T09:20:40Z</time>
      </trkpt>
      <trkpt lat="41.3741500" lon="1.1618270">
        <ele>349.7</ele>
        <time>2021-09-30T09:20:41Z</time>
      </trkpt>
      <trkpt lat="41.3741200" lon="1.1618610">
        <ele>349.6</ele>
        <time>2021-09-30T09:20:42Z</time>
      </trkpt>
      <trkpt lat="41.3740900" lon="1.1618950">
        <ele>349.6</ele>
        <time>2021-09-30T09:20:43Z</time>
      </trkpt>
      <trkpt lat="41.3740590" lon="1.1619280">
        <ele>349.5</ele>
        <time>2021-09-30T09:20:44Z</time>
      </trkpt>
      <trkpt lat="41.3740290" lon="1.1619620">
        <ele>349.5</ele>
        <time>2021-09-30T09:20:45Z</time>
      </trkpt>
      <trkpt lat="41.3739990" lon="1.1619960">
        <ele>349.4</ele>
        <time>2021-09-30T09:20:46Z</time>
      </trkpt>
      <trkpt lat="41.3739680" lon="1.1620300">
        <ele>349.4</ele>
        <time>2021-09-30T09:20:47Z</time>
      </trkpt>
      <trkpt lat="41.3739380" lon="1.1620640">
        <ele>349.3</ele>
        <time>2021-09-30T09:20:48Z</time>
      </trkpt>
      <trkpt lat="41.3739250" lon="1.1620830">
        <ele>349.3</ele>
        <time>2021-09-30T09:20:49Z</time>
      </trkpt>
      <trkpt lat="41.3739110" lon="1.1621010">
        <ele>349.2</ele>
        <time>2021-09-30T09:20:50Z</time>
      </trkpt>
      <trkpt lat="41.3738980" lon="1.1621200">
        <ele>349.2</ele>
        <time>2021-09-30T09:20:51Z</time>
      </trkpt>
      <trkpt lat="41.3738840" lon="1.1621390">
        <ele>349.2</ele>
        <time>2021-09-30T09:20:52Z</time>
      </trkpt>
      <trkpt lat="41.3738710" lon="1.1621570">
        <ele>349.1</ele>
        <time>2021-09-30T09:20:53Z</time>
      </trkpt>
      <trkpt lat="41.3738570" lon="1.1621760">
        <ele>349.1</ele>
        <time>2021-09-30T09:20:54Z</time>
      </trkpt>
      <trkpt lat="41.3738440" lon="1.1621940">
        <ele>349.0</ele>
        <time>2021-09-30T09:20:55Z</time>
      </trkpt>
      <trkpt lat="41.3738300" lon="1.1622130">
        <ele>349.0</ele>
        <time>2021-09-30T09:20:56Z</time>
      </trkpt>
      <trkpt lat="41.3738170" lon="1.1622320">
        <ele>348.9</ele>
        <time>2021-09-30T09:20:57Z</time>
      </trkpt>
      <trkpt lat="41.3738030" lon="1.1622500">
        <ele>348.9</ele>
        <time>2021-09-30T09:20:58Z</time>
      </trkpt>
      <trkpt lat="41.3737900" lon="1.1622690">
        <ele>348.3</ele>
        <time>2021-09-30T09:20:59Z</time>
      </trkpt>
      <trkpt lat="41.3737830" lon="1.1623050">
        <ele>348.2</ele>
        <time>2021-09-30T09:21:00Z</time>
      </trkpt>
      <trkpt lat="41.3737750" lon="1.1623400">
        <ele>348.0</ele>
        <time>2021-09-30T09:21:01Z</time>
      </trkpt>
      <trkpt lat="41.3737680" lon="1.1623760">
        <ele>347.9</ele>
        <time>2021-09-30T09:21:02Z</time>
      </trkpt>
      <trkpt lat="41.3737600" lon="1.1624110">
        <ele>347.8</ele>
        <time>2021-09-30T09:21:03Z</time>
      </trkpt>
      <trkpt lat="41.3737530" lon="1.1624470">
        <ele>347.7</ele>
        <time>2021-09-30T09:21:04Z</time>
      </trkpt>
      <trkpt lat="41.3737450" lon="1.1624830">
        <ele>347.6</ele>
        <time>2021-09-30T09:21:05Z</time>
      </trkpt>
      <trkpt lat="41.3737380" lon="1.1625180">
        <ele>347.5</ele>
        <time>2021-09-30T09:21:06Z</time>
      </trkpt>
      <trkpt lat="41.3737300" lon="1.1625540">
        <ele>347.4</ele>
        <time>2021-09-30T09:21:07Z</time>
      </trkpt>
      <trkpt lat="41.3737230" lon="1.1625890">
        <ele>347.3</ele>
        <time>2021-09-30T09:21:08Z</time>
      </trkpt>
      <trkpt lat="41.3737150" lon="1.1626250">
        <ele>347.2</ele>
        <time>2021-09-30T09:21:09Z</time>
      </trkpt>
      <trkpt lat="41.3737140" lon="1.1626660">
        <ele>347.1</ele>
        <time>2021-09-30T09:21:10Z</time>
      </trkpt>
      <trkpt lat="41.3737130" lon="1.1627070">
        <ele>346.9</ele>
        <time>2021-09-30T09:21:11Z</time>
      </trkpt>
      <trkpt lat="41.3737120" lon="1.1627470">
        <ele>346.8</ele>
        <time>2021-09-30T09:21:12Z</time>
      </trkpt>
      <trkpt lat="41.3737110" lon="1.1627880">
        <ele>346.7</ele>
        <time>2021-09-30T09:21:13Z</time>
      </trkpt>
      <trkpt lat="41.3737100" lon="1.1628290">
        <ele>346.6</ele>
        <time>2021-09-30T09:21:14Z</time>
      </trkpt>
      <trkpt lat="41.3737090" lon="1.1628700">
        <ele>346.5</ele>
        <time>2021-09-30T09:21:15Z</time>
      </trkpt>
      <trkpt lat="41.3737080" lon="1.1629110">
        <ele>346.4</ele>
        <time>2021-09-30T09:21:16Z</time>
      </trkpt>
      <trkpt lat="41.3737070" lon="1.1629510">
        <ele>346.2</ele>
        <time>2021-09-30T09:21:17Z</time>
      </trkpt>
      <trkpt lat="41.3737060" lon="1.1629920">
        <ele>346.1</ele>
        <time>2021-09-30T09:21:18Z</time>
      </trkpt>
      <trkpt lat="41.3737050" lon="1.1630330">
        <ele>345.9</ele>
        <time>2021-09-30T09:21:19Z</time>
      </trkpt>
      <trkpt lat="41.3736780" lon="1.1630550">
        <ele>345.9</ele>
        <time>2021-09-30T09:21:20Z</time>
      </trkpt>
      <trkpt lat="41.3736520" lon="1.1630770">
        <ele>345.9</ele>
        <time>2021-09-30T09:21:21Z</time>
      </trkpt>
      <trkpt lat="41.3736250" lon="1.1630990">
        <ele>345.9</ele>
        <time>2021-09-30T09:21:22Z</time>
      </trkpt>
      <trkpt lat="41.3735990" lon="1.1631210">
        <ele>345.9</ele>
        <time>2021-09-30T09:21:23Z</time>
      </trkpt>
      <trkpt lat="41.3735720" lon="1.1631430">
        <ele>345.9</ele>
        <time>2021-09-30T09:21:24Z</time>
      </trkpt>
      <trkpt lat="41.3735450" lon="1.1631640">
        <ele>345.9</ele>
        <time>2021-09-30T09:21:25Z</time>
      </trkpt>
      <trkpt lat="41.3735190" lon="1.1631860">
        <ele>345.9</ele>
        <time>2021-09-30T09:21:26Z</time>
      </trkpt>
      <trkpt lat="41.3734920" lon="1.1632080">
        <ele>345.9</ele>
        <time>2021-09-30T09:21:27Z</time>
      </trkpt>
      <trkpt lat="41.3734660" lon="1.1632300">
        <ele>345.9</ele>
        <time>2021-09-30T09:21:28Z</time>
      </trkpt>
      <trkpt lat="41.3734390" lon="1.1632520">
        <ele>345.9</ele>
        <time>2021-09-30T09:21:29Z</time>
      </trkpt>
      <trkpt lat="41.3734100" lon="1.1632430">
        <ele>345.9</ele>
        <time>2021-09-30T09:21:30Z</time>
      </trkpt>
      <trkpt lat="41.3733810" lon="1.1632340">
        <ele>345.9</ele>
        <time>2021-09-30T09:21:31Z</time>
      </trkpt>
      <trkpt lat="41.3733530" lon="1.1632260">
        <ele>345.9</ele>
        <time>2021-09-30T09:21:32Z</time>
      </trkpt>
      <trkpt lat="41.3733240" lon="1.1632170">
        <ele>345.8</ele>
        <time>2021-09-30T09:21:33Z</time>
      </trkpt>
      <trkpt lat="41.3732950" lon="1.1632080">
        <ele>345.8</ele>
        <time>2021-09-30T09:21:34Z</time>
      </trkpt>
      <trkpt lat="41.3732660" lon="1.1631990">
        <ele>345.8</ele>
        <time>2021-09-30T09:21:35Z</time>
      </trkpt>
      <trkpt lat="41.3732370" lon="1.1631900">
        <ele>345.8</ele>
        <time>2021-09-30T09:21:36Z</time>
      </trkpt>
      <trkpt lat="41.3732090" lon="1.1631820">
        <ele>345.7</ele>
        <time>2021-09-30T09:21:37Z</time>
      </trkpt>
      <trkpt lat="41.3731800" lon="1.1631730">
        <ele>345.6</ele>
        <time>2021-09-30T09:21:38Z</time>
      </trkpt>
      <trkpt lat="41.3731510" lon="1.1631640">
        <ele>345.5</ele>
        <time>2021-09-30T09:21:39Z</time>
      </trkpt>
      <trkpt lat="41.3731230" lon="1.1631700">
        <ele>345.5</ele>
        <time>2021-09-30T09:21:40Z</time>
      </trkpt>
      <trkpt lat="41.3730950" lon="1.1631750">
        <ele>345.4</ele>
        <time>2021-09-30T09:21:41Z</time>
      </trkpt>
      <trkpt lat="41.3730670" lon="1.1631810">
        <ele>345.3</ele>
        <time>2021-09-30T09:21:42Z</time>
      </trkpt>
      <trkpt lat="41.3730390" lon="1.1631860">
        <ele>345.2</ele>
        <time>2021-09-30T09:21:43Z</time>
      </trkpt>
      <trkpt lat="41.3730110" lon="1.1631920">
        <ele>345.2</ele>
        <time>2021-09-30T09:21:44Z</time>
      </trkpt>
      <trkpt lat="41.3729820" lon="1.1631970">
        <ele>345.1</ele>
        <time>2021-09-30T09:21:45Z</time>
      </trkpt>
      <trkpt lat="41.3729540" lon="1.1632030">
        <ele>345.0</ele>
        <time>2021-09-30T09:21:46Z</time>
      </trkpt>
      <trkpt lat="41.3729260" lon="1.1632080">
        <ele>344.9</ele>
        <time>2021-09-30T09:21:47Z</time>
      </trkpt>
      <trkpt lat="41.3728980" lon="1.1632140">
        <ele>344.9</ele>
        <time>2021-09-30T09:21:48Z</time>
      </trkpt>
      <trkpt lat="41.3728700" lon="1.1632190">
        <ele>344.8</ele>
        <time>2021-09-30T09:21:49Z</time>
      </trkpt>
      <trkpt lat="41.3728400" lon="1.1632380">
        <ele>344.7</ele>
        <time>2021-09-30T09:21:50Z</time>
      </trkpt>
      <trkpt lat="41.3728110" lon="1.1632560">
        <ele>344.6</ele>
        <time>2021-09-30T09:21:51Z</time>
      </trkpt>
      <trkpt lat="41.3727810" lon="1.1632750">
        <ele>344.6</ele>
        <time>2021-09-30T09:21:52Z</time>
      </trkpt>
      <trkpt lat="41.3727520" lon="1.1632940">
        <ele>344.5</ele>
        <time>2021-09-30T09:21:53Z</time>
      </trkpt>
      <trkpt lat="41.3727220" lon="1.1633130">
        <ele>344.4</ele>
        <time>2021-09-30T09:21:54Z</time>
      </trkpt>
      <trkpt lat="41.3726920" lon="1.1633310">
        <ele>344.3</ele>
        <time>2021-09-30T09:21:55Z</time>
      </trkpt>
      <trkpt lat="41.3726630" lon="1.1633500">
        <ele>344.3</ele>
        <time>2021-09-30T09:21:56Z</time>
      </trkpt>
      <trkpt lat="41.3726330" lon="1.1633690">
        <ele>344.2</ele>
        <time>2021-09-30T09:21:57Z</time>
      </trkpt>
      <trkpt lat="41.3726040" lon="1.1633870">
        <ele>344.1</ele>
        <time>2021-09-30T09:21:58Z</time>
      </trkpt>
      <trkpt lat="41.3725740" lon="1.1634060">
        <ele>344.1</ele>
        <time>2021-09-30T09:21:59Z</time>
      </trkpt>
      <trkpt lat="41.3725520" lon="1.1634160">
        <ele>344.0</ele>
        <time>2021-09-30T09:22:00Z</time>
      </trkpt>
      <trkpt lat="41.3725290" lon="1.1634250">
        <ele>344.0</ele>
        <time>2021-09-30T09:22:01Z</time>
      </trkpt>
      <trkpt lat="41.3725070" lon="1.1634350">
        <ele>344.0</ele>
        <time>2021-09-30T09:22:02Z</time>
      </trkpt>
      <trkpt lat="41.3724840" lon="1.1634450">
        <ele>343.9</ele>
        <time>2021-09-30T09:22:03Z</time>
      </trkpt>
      <trkpt lat="41.3724620" lon="1.1634550">
        <ele>343.9</ele>
        <time>2021-09-30T09:22:04Z</time>
      </trkpt>
      <trkpt lat="41.3724390" lon="1.1634640">
        <ele>343.8</ele>
        <time>2021-09-30T09:22:05Z</time>
      </trkpt>
      <trkpt lat="41.3724170" lon="1.1634740">
        <ele>343.7</ele>
        <time>2021-09-30T09:22:06Z</time>
      </trkpt>
      <trkpt lat="41.3723940" lon="1.1634840">
        <ele>343.6</ele>
        <time>2021-09-30T09:22:07Z</time>
      </trkpt>
      <trkpt lat="41.3723720" lon="1.1634930">
        <ele>343.6</ele>
        <time>2021-09-30T09:22:08Z</time>
      </trkpt>
      <trkpt lat="41.3723490" lon="1.1635030">
        <ele>343.5</ele>
        <time>2021-09-30T09:22:09Z</time>
      </trkpt>
      <trkpt lat="41.3723150" lon="1.1635180">
        <ele>343.3</ele>
        <time>2021-09-30T09:22:10Z</time>
      </trkpt>
      <trkpt lat="41.3722810" lon="1.1635330">
        <ele>343.2</ele>
        <time>2021-09-30T09:22:11Z</time>
      </trkpt>
      <trkpt lat="41.3722470" lon="1.1635490">
        <ele>343.0</ele>
        <time>2021-09-30T09:22:12Z</time>
      </trkpt>
      <trkpt lat="41.3722130" lon="1.1635640">
        <ele>342.9</ele>
        <time>2021-09-30T09:22:13Z</time>
      </trkpt>
      <trkpt lat="41.3721800" lon="1.1635790">
        <ele>342.7</ele>
        <time>2021-09-30T09:22:14Z</time>
      </trkpt>
      <trkpt lat="41.3721460" lon="1.1635940">
        <ele>342.6</ele>
        <time>2021-09-30T09:22:15Z</time>
      </trkpt>
      <trkpt lat="41.3721120" lon="1.1636090">
        <ele>342.5</ele>
        <time>2021-09-30T09:22:16Z</time>
      </trkpt>
      <trkpt lat="41.3720780" lon="1.1636250">
        <ele>342.4</ele>
        <time>2021-09-30T09:22:17Z</time>
      </trkpt>
      <trkpt lat="41.3720440" lon="1.1636400">
        <ele>342.2</ele>
        <time>2021-09-30T09:22:18Z</time>
      </trkpt>
      <trkpt lat="41.3720100" lon="1.1636550">
        <ele>342.1</ele>
        <time>2021-09-30T09:22:19Z</time>
      </trkpt>
      <trkpt lat="41.3719880" lon="1.1636670">
        <ele>342.0</ele>
        <time>2021-09-30T09:22:20Z</time>
      </trkpt>
      <trkpt lat="41.3719650" lon="1.1636780">
        <ele>342.0</ele>
        <time>2021-09-30T09:22:21Z</time>
      </trkpt>
      <trkpt lat="41.3719430" lon="1.1636900">
        <ele>342.0</ele>
        <time>2021-09-30T09:22:22Z</time>
      </trkpt>
      <trkpt lat="41.3719200" lon="1.1637010">
        <ele>341.9</ele>
        <time>2021-09-30T09:22:23Z</time>
      </trkpt>
      <trkpt lat="41.3718980" lon="1.1637130">
        <ele>341.9</ele>
        <time>2021-09-30T09:22:24Z</time>
      </trkpt>
      <trkpt lat="41.3718760" lon="1.1637250">
        <ele>341.9</ele>
        <time>2021-09-30T09:22:25Z</time>
      </trkpt>
      <trkpt lat="41.3718530" lon="1.1637360">
        <ele>341.8</ele>
        <time>2021-09-30T09:22:26Z</time>
      </trkpt>
      <trkpt lat="41.3718310" lon="1.1637480">
        <ele>341.8</ele>
        <time>2021-09-30T09:22:27Z</time>
      </trkpt>
      <trkpt lat="41.3718080" lon="1.1637590">
        <ele>341.8</ele>
        <time>2021-09-30T09:22:28Z</time>
      </trkpt>
      <trkpt lat="41.3717860" lon="1.1637710">
        <ele>341.7</ele>
        <time>2021-09-30T09:22:29Z</time>
      </trkpt>
      <trkpt lat="41.3717570" lon="1.1637920">
        <ele>341.7</ele>
        <time>2021-09-30T09:22:30Z</time>
      </trkpt>
      <trkpt lat="41.3717270" lon="1.1638120">
        <ele>341.7</ele>
        <time>2021-09-30T09:22:31Z</time>
      </trkpt>
      <trkpt lat="41.3716980" lon="1.1638330">
        <ele>341.6</ele>
        <time>2021-09-30T09:22:32Z</time>
      </trkpt>
      <trkpt lat="41.3716690" lon="1.1638530">
        <ele>341.6</ele>
        <time>2021-09-30T09:22:33Z</time>
      </trkpt>
      <trkpt lat="41.3716400" lon="1.1638740">
        <ele>341.5</ele>
        <time>2021-09-30T09:22:34Z</time>
      </trkpt>
      <trkpt lat="41.3716100" lon="1.1638950">
        <ele>341.5</ele>
        <time>2021-09-30T09:22:35Z</time>
      </trkpt>
      <trkpt lat="41.3715810" lon="1.1639150">
        <ele>341.4</ele>
        <time>2021-09-30T09:22:36Z</time>
      </trkpt>
      <trkpt lat="41.3715520" lon="1.1639360">
        <ele>341.4</ele>
        <time>2021-09-30T09:22:37Z</time>
      </trkpt>
      <trkpt lat="41.3715220" lon="1.1639560">
        <ele>341.3</ele>
        <time>2021-09-30T09:22:38Z</time>
      </trkpt>
      <trkpt lat="41.3714930" lon="1.1639770">
        <ele>341.3</ele>
        <time>2021-09-30T09:22:39Z</time>
      </trkpt>
      <trkpt lat="41.3714680" lon="1.1639790">
        <ele>341.3</ele>
        <time>2021-09-30T09:22:40Z</time>
      </trkpt>
      <trkpt lat="41.3714430" lon="1.1639800">
        <ele>341.2</ele>
        <time>2021-09-30T09:22:41Z</time>
      </trkpt>
      <trkpt lat="41.3714190" lon="1.1639820">
        <ele>341.2</ele>
        <time>2021-09-30T09:22:42Z</time>
      </trkpt>
      <trkpt lat="41.3713940" lon="1.1639830">
        <ele>341.1</ele>
        <time>2021-09-30T09:22:43Z</time>
      </trkpt>
      <trkpt lat="41.3713690" lon="1.1639850">
        <ele>341.1</ele>
        <time>2021-09-30T09:22:44Z</time>
      </trkpt>
      <trkpt lat="41.3713440" lon="1.1639870">
        <ele>341.1</ele>
        <time>2021-09-30T09:22:45Z</time>
      </trkpt>
      <trkpt lat="41.3713190" lon="1.1639880">
        <ele>341.0</ele>
        <time>2021-09-30T09:22:46Z</time>
      </trkpt>
      <trkpt lat="41.3712950" lon="1.1639900">
        <ele>341.0</ele>
        <time>2021-09-30T09:22:47Z</time>
      </trkpt>
      <trkpt lat="41.3712700" lon="1.1639910">
        <ele>341.0</ele>
        <time>2021-09-30T09:22:48Z</time>
      </trkpt>
      <trkpt lat="41.3712450" lon="1.1639930">
        <ele>341.0</ele>
        <time>2021-09-30T09:22:49Z</time>
      </trkpt>
      <trkpt lat="41.3712090" lon="1.1640110">
        <ele>340.9</ele>
        <time>2021-09-30T09:22:50Z</time>
      </trkpt>
      <trkpt lat="41.3711740" lon="1.1640290">
        <ele>340.8</ele>
        <time>2021-09-30T09:22:51Z</time>
      </trkpt>
      <trkpt lat="41.3711380" lon="1.1640460">
        <ele>340.7</ele>
        <time>2021-09-30T09:22:52Z</time>
      </trkpt>
      <trkpt lat="41.3711030" lon="1.1640640">
        <ele>340.7</ele>
        <time>2021-09-30T09:22:53Z</time>
      </trkpt>
      <trkpt lat="41.3710670" lon="1.1640820">
        <ele>340.6</ele>
        <time>2021-09-30T09:22:54Z</time>
      </trkpt>
      <trkpt lat="41.3710310" lon="1.1641000">
        <ele>340.5</ele>
        <time>2021-09-30T09:22:55Z</time>
      </trkpt>
      <trkpt lat="41.3709960" lon="1.1641180">
        <ele>340.5</ele>
        <time>2021-09-30T09:22:56Z</time>
      </trkpt>
      <trkpt lat="41.3709600" lon="1.1641350">
        <ele>340.4</ele>
        <time>2021-09-30T09:22:57Z</time>
      </trkpt>
      <trkpt lat="41.3709250" lon="1.1641530">
        <ele>340.4</ele>
        <time>2021-09-30T09:22:58Z</time>
      </trkpt>
      <trkpt lat="41.3708890" lon="1.1641710">
        <ele>340.3</ele>
        <time>2021-09-30T09:22:59Z</time>
      </trkpt>
      <trkpt lat="41.3708570" lon="1.1641940">
        <ele>340.3</ele>
        <time>2021-09-30T09:23:00Z</time>
      </trkpt>
      <trkpt lat="41.3708260" lon="1.1642160">
        <ele>340.3</ele>
        <time>2021-09-30T09:23:01Z</time>
      </trkpt>
      <trkpt lat="41.3707940" lon="1.1642390">
        <ele>340.2</ele>
        <time>2021-09-30T09:23:02Z</time>
      </trkpt>
      <trkpt lat="41.3707620" lon="1.1642610">
        <ele>340.2</ele>
        <time>2021-09-30T09:23:03Z</time>
      </trkpt>
      <trkpt lat="41.3707310" lon="1.1642840">
        <ele>340.2</ele>
        <time>2021-09-30T09:23:04Z</time>
      </trkpt>
      <trkpt lat="41.3706990" lon="1.1643060">
        <ele>340.1</ele>
        <time>2021-09-30T09:23:05Z</time>
      </trkpt>
      <trkpt lat="41.3706680" lon="1.1643290">
        <ele>340.1</ele>
        <time>2021-09-30T09:23:06Z</time>
      </trkpt>
      <trkpt lat="41.3706360" lon="1.1643510">
        <ele>340.1</ele>
        <time>2021-09-30T09:23:07Z</time>
      </trkpt>
      <trkpt lat="41.3706040" lon="1.1643740">
        <ele>340.0</ele>
        <time>2021-09-30T09:23:08Z</time>
      </trkpt>
      <trkpt lat="41.3705730" lon="1.1643960">
        <ele>340.0</ele>
        <time>2021-09-30T09:23:09Z</time>
      </trkpt>
      <trkpt lat="41.3705410" lon="1.1644190">
        <ele>340.0</ele>
        <time>2021-09-30T09:23:10Z</time>
      </trkpt>
      <trkpt lat="41.3705110" lon="1.1644320">
        <ele>340.0</ele>
        <time>2021-09-30T09:23:11Z</time>
      </trkpt>
      <trkpt lat="41.3704810" lon="1.1644450">
        <ele>339.9</ele>
        <time>2021-09-30T09:23:12Z</time>
      </trkpt>
      <trkpt lat="41.3704510" lon="1.1644590">
        <ele>339.9</ele>
        <time>2021-09-30T09:23:13Z</time>
      </trkpt>
      <trkpt lat="41.3704210" lon="1.1644720">
        <ele>339.9</ele>
        <time>2021-09-30T09:23:14Z</time>
      </trkpt>
      <trkpt lat="41.3703900" lon="1.1644850">
        <ele>339.8</ele>
        <time>2021-09-30T09:23:15Z</time>
      </trkpt>
      <trkpt lat="41.3703600" lon="1.1644980">
        <ele>339.8</ele>
        <time>2021-09-30T09:23:16Z</time>
      </trkpt>
      <trkpt lat="41.3703300" lon="1.1645120">
        <ele>339.8</ele>
        <time>2021-09-30T09:23:17Z</time>
      </trkpt>
      <trkpt lat="41.3703000" lon="1.1645250">
        <ele>339.8</ele>
        <time>2021-09-30T09:23:18Z</time>
      </trkpt>
      <trkpt lat="41.3702700" lon="1.1645380">
        <ele>339.7</ele>
        <time>2021-09-30T09:23:19Z</time>
      </trkpt>
      <trkpt lat="41.3702450" lon="1.1645500">
        <ele>339.7</ele>
        <time>2021-09-30T09:23:20Z</time>
      </trkpt>
      <trkpt lat="41.3702210" lon="1.1645620">
        <ele>339.7</ele>
        <time>2021-09-30T09:23:21Z</time>
      </trkpt>
      <trkpt lat="41.3701960" lon="1.1645740">
        <ele>339.7</ele>
        <time>2021-09-30T09:23:22Z</time>
      </trkpt>
      <trkpt lat="41.3701720" lon="1.1645860">
        <ele>339.7</ele>
        <time>2021-09-30T09:23:23Z</time>
      </trkpt>
      <trkpt lat="41.3701470" lon="1.1645980">
        <ele>339.6</ele>
        <time>2021-09-30T09:23:24Z</time>
      </trkpt>
      <trkpt lat="41.3701230" lon="1.1646110">
        <ele>339.6</ele>
        <time>2021-09-30T09:23:25Z</time>
      </trkpt>
      <trkpt lat="41.3700980" lon="1.1646230">
        <ele>339.6</ele>
        <time>2021-09-30T09:23:26Z</time>
      </trkpt>
      <trkpt lat="41.3700730" lon="1.1646350">
        <ele>339.6</ele>
        <time>2021-09-30T09:23:27Z</time>
      </trkpt>
      <trkpt lat="41.3700490" lon="1.1646470">
        <ele>339.6</ele>
        <time>2021-09-30T09:23:28Z</time>
      </trkpt>
      <trkpt lat="41.3700240" lon="1.1646590">
        <ele>339.6</ele>
        <time>2021-09-30T09:23:29Z</time>
      </trkpt>
      <trkpt lat="41.3700000" lon="1.1646710">
        <ele>339.6</ele>
        <time>2021-09-30T09:23:30Z</time>
      </trkpt>
      <trkpt lat="41.3699750" lon="1.1646830">
        <ele>339.6</ele>
        <time>2021-09-30T09:23:31Z</time>
      </trkpt>
      <trkpt lat="41.3699400" lon="1.1646870">
        <ele>339.6</ele>
        <time>2021-09-30T09:23:32Z</time>
      </trkpt>
      <trkpt lat="41.3699050" lon="1.1646910">
        <ele>339.6</ele>
        <time>2021-09-30T09:23:33Z</time>
      </trkpt>
      <trkpt lat="41.3698700" lon="1.1646950">
        <ele>339.6</ele>
        <time>2021-09-30T09:23:34Z</time>
      </trkpt>
      <trkpt lat="41.3698350" lon="1.1646990">
        <ele>339.6</ele>
        <time>2021-09-30T09:23:35Z</time>
      </trkpt>
      <trkpt lat="41.3698010" lon="1.1647020">
        <ele>339.6</ele>
        <time>2021-09-30T09:23:36Z</time>
      </trkpt>
      <trkpt lat="41.3697660" lon="1.1647060">
        <ele>339.6</ele>
        <time>2021-09-30T09:23:37Z</time>
      </trkpt>
      <trkpt lat="41.3697310" lon="1.1647100">
        <ele>339.6</ele>
        <time>2021-09-30T09:23:38Z</time>
      </trkpt>
      <trkpt lat="41.3696960" lon="1.1647140">
        <ele>339.6</ele>
        <time>2021-09-30T09:23:39Z</time>
      </trkpt>
      <trkpt lat="41.3696610" lon="1.1647180">
        <ele>339.6</ele>
        <time>2021-09-30T09:23:40Z</time>
      </trkpt>
      <trkpt lat="41.3696340" lon="1.1647320">
        <ele>339.6</ele>
        <time>2021-09-30T09:23:41Z</time>
      </trkpt>
      <trkpt lat="41.3696070" lon="1.1647450">
        <ele>339.5</ele>
        <time>2021-09-30T09:23:42Z</time>
      </trkpt>
      <trkpt lat="41.3695790" lon="1.1647590">
        <ele>339.5</ele>
        <time>2021-09-30T09:23:43Z</time>
      </trkpt>
      <trkpt lat="41.3695520" lon="1.1647720">
        <ele>339.5</ele>
        <time>2021-09-30T09:23:44Z</time>
      </trkpt>
      <trkpt lat="41.3695250" lon="1.1647860">
        <ele>339.5</ele>
        <time>2021-09-30T09:23:45Z</time>
      </trkpt>
      <trkpt lat="41.3694980" lon="1.1647990">
        <ele>339.5</ele>
        <time>2021-09-30T09:23:46Z</time>
      </trkpt>
      <trkpt lat="41.3694710" lon="1.1648130">
        <ele>339.5</ele>
        <time>2021-09-30T09:23:47Z</time>
      </trkpt>
      <trkpt lat="41.3694440" lon="1.1648260">
        <ele>339.5</ele>
        <time>2021-09-30T09:23:48Z</time>
      </trkpt>
      <trkpt lat="41.3694160" lon="1.1648400">
        <ele>339.4</ele>
        <time>2021-09-30T09:23:49Z</time>
      </trkpt>
      <trkpt lat="41.3693890" lon="1.1648530">
        <ele>339.4</ele>
        <time>2021-09-30T09:23:50Z</time>
      </trkpt>
      <trkpt lat="41.3693620" lon="1.1648670">
        <ele>339.4</ele>
        <time>2021-09-30T09:23:51Z</time>
      </trkpt>
      <trkpt lat="41.3693210" lon="1.1648690">
        <ele>339.4</ele>
        <time>2021-09-30T09:23:52Z</time>
      </trkpt>
      <trkpt lat="41.3692800" lon="1.1648720">
        <ele>339.4</ele>
        <time>2021-09-30T09:23:53Z</time>
      </trkpt>
      <trkpt lat="41.3692380" lon="1.1648740">
        <ele>339.4</ele>
        <time>2021-09-30T09:23:54Z</time>
      </trkpt>
      <trkpt lat="41.3691970" lon="1.1648760">
        <ele>339.4</ele>
        <time>2021-09-30T09:23:55Z</time>
      </trkpt>
      <trkpt lat="41.3691560" lon="1.1648790">
        <ele>339.3</ele>
        <time>2021-09-30T09:23:56Z</time>
      </trkpt>
      <trkpt lat="41.3691150" lon="1.1648810">
        <ele>339.3</ele>
        <time>2021-09-30T09:23:57Z</time>
      </trkpt>
      <trkpt lat="41.3690740" lon="1.1648830">
        <ele>339.3</ele>
        <time>2021-09-30T09:23:58Z</time>
      </trkpt>
      <trkpt lat="41.3690320" lon="1.1648850">
        <ele>339.3</ele>
        <time>2021-09-30T09:23:59Z</time>
      </trkpt>
      <trkpt lat="41.3689910" lon="1.1648880">
        <ele>339.2</ele>
        <time>2021-09-30T09:24:00Z</time>
      </trkpt>
      <trkpt lat="41.3689500" lon="1.1648900">
        <ele>339.2</ele>
        <time>2021-09-30T09:24:01Z</time>
      </trkpt>
      <trkpt lat="41.3689210" lon="1.1649060">
        <ele>339.2</ele>
        <time>2021-09-30T09:24:02Z</time>
      </trkpt>
      <trkpt lat="41.3688920" lon="1.1649220">
        <ele>339.1</ele>
        <time>2021-09-30T09:24:03Z</time>
      </trkpt>
      <trkpt lat="41.3688630" lon="1.1649380">
        <ele>339.1</ele>
        <time>2021-09-30T09:24:04Z</time>
      </trkpt>
      <trkpt lat="41.3688340" lon="1.1649540">
        <ele>339.0</ele>
        <time>2021-09-30T09:24:05Z</time>
      </trkpt>
      <trkpt lat="41.3688050" lon="1.1649700">
        <ele>339.0</ele>
        <time>2021-09-30T09:24:06Z</time>
      </trkpt>
      <trkpt lat="41.3687760" lon="1.1649860">
        <ele>338.9</ele>
        <time>2021-09-30T09:24:07Z</time>
      </trkpt>
      <trkpt lat="41.3687470" lon="1.1650020">
        <ele>338.9</ele>
        <time>2021-09-30T09:24:08Z</time>
      </trkpt>
      <trkpt lat="41.3687180" lon="1.1650180">
        <ele>338.8</ele>
        <time>2021-09-30T09:24:09Z</time>
      </trkpt>
      <trkpt lat="41.3686890" lon="1.1650340">
        <ele>338.8</ele>
        <time>2021-09-30T09:24:10Z</time>
      </trkpt>
      <trkpt lat="41.3686600" lon="1.1650500">
        <ele>338.7</ele>
        <time>2021-09-30T09:24:11Z</time>
      </trkpt>
      <trkpt lat="41.3686410" lon="1.1650680">
        <ele>338.6</ele>
        <time>2021-09-30T09:24:12Z</time>
      </trkpt>
      <trkpt lat="41.3686230" lon="1.1650860">
        <ele>338.6</ele>
        <time>2021-09-30T09:24:13Z</time>
      </trkpt>
      <trkpt lat="41.3686040" lon="1.1651040">
        <ele>338.5</ele>
        <time>2021-09-30T09:24:14Z</time>
      </trkpt>
      <trkpt lat="41.3685860" lon="1.1651220">
        <ele>338.5</ele>
        <time>2021-09-30T09:24:15Z</time>
      </trkpt>
      <trkpt lat="41.3685670" lon="1.1651410">
        <ele>338.4</ele>
        <time>2021-09-30T09:24:16Z</time>
      </trkpt>
      <trkpt lat="41.3685480" lon="1.1651590">
        <ele>338.4</ele>
        <time>2021-09-30T09:24:17Z</time>
      </trkpt>
      <trkpt lat="41.3685300" lon="1.1651770">
        <ele>338.4</ele>
        <time>2021-09-30T09:24:18Z</time>
      </trkpt>
      <trkpt lat="41.3685110" lon="1.1651950">
        <ele>338.3</ele>
        <time>2021-09-30T09:24:19Z</time>
      </trkpt>
      <trkpt lat="41.3684930" lon="1.1652130">
        <ele>338.3</ele>
        <time>2021-09-30T09:24:20Z</time>
      </trkpt>
      <trkpt lat="41.3684740" lon="1.1652310">
        <ele>338.3</ele>
        <time>2021-09-30T09:24:21Z</time>
      </trkpt>
      <trkpt lat="41.3684740" lon="1.1652310">
        <ele>338.3</ele>
        <time>2021-09-30T09:24:22Z</time>
      </trkpt>
      <trkpt lat="41.3684740" lon="1.1652310">
        <ele>338.3</ele>
        <time>2021-09-30T09:24:23Z</time>
      </trkpt>
      <trkpt lat="41.3684740" lon="1.1652310">
        <ele>338.3</ele>
        <time>2021-09-30T09:24:24Z</time>
      </trkpt>
      <trkpt lat="41.3684740" lon="1.1652310">
        <ele>338.3</ele>
        <time>2021-09-30T09:24:25Z</time>
      </trkpt>
      <trkpt lat="41.3682080" lon="1.1653070">
        <ele>337.1</ele>
        <time>2021-09-30T09:24:26Z</time>
      </trkpt>
      <trkpt lat="41.3682080" lon="1.1653070">
        <ele>337.1</ele>
        <time>2021-09-30T09:24:27Z</time>
      </trkpt>
      <trkpt lat="41.3682080" lon="1.1653070">
        <ele>337.1</ele>
        <time>2021-09-30T09:24:28Z</time>
      </trkpt>
      <trkpt lat="41.3682080" lon="1.1653070">
        <ele>337.1</ele>
        <time>2021-09-30T09:24:29Z</time>
      </trkpt>
      <trkpt lat="41.3682080" lon="1.1653070">
        <ele>337.1</ele>
        <time>2021-09-30T09:24:30Z</time>
      </trkpt>
    </trkseg>
  </trk>
</gpx>
